# Wetter Temperatur Luftdruck Luftfeuchtigkeit Sichtweite Windgeschwindigkeit Windrichtung Zeit
1 Rain 29 1005 79 10000 7.2 210 06:25 11.07.2020
2 Rain 30 1005 83 10000 8.2 190 05:54 11.07.2020
3 Rain 30 1005 83 10000 8.2 190 05:19 11.07.2020
4 Rain 30 1006 83 10000 7.2 190 04:44 11.07.2020
5 Rain 30 1006 83 10000 7.2 190 04:19 11.07.2020
6 Clouds 29 1006 78 10000 5.1 190 02:54 11.07.2020
7 Clouds 28 1006 88 8000 5.7 180 02:25 11.07.2020
8 Clouds 29 1006 83 10000 6.7 180 01:24 11.07.2020
9 Clouds 29 1006 83 10000 10.8 200 00:57 11.07.2020
10 Clouds 28 1006 88 10000 10.8 200 00:37 11.07.2020
11 Clouds 28 1007 88 10000 8.2 200 00:18 11.07.2020
12 Clouds 28 1007 88 10000 8.2 200 23:45 10.07.2020
13 Clouds 27 1006 94 10000 9.3 200 23:26 10.07.2020
14 Clouds 27 1006 88 10000 11.3 210 22:57 10.07.2020
15 Clouds 27 1006 88 10000 10.3 210 22:38 10.07.2020
16 Clouds 27 1006 88 10000 10.3 210 22:19 10.07.2020
17 Clouds 27 1007 94 10000 9.8 210 21:39 10.07.2020
18 Clouds 27 1007 94 10000 9.8 210 21:20 10.07.2020
19 Clouds 26 1007 94 10000 9.8 200 20:58 10.07.2020
20 Clouds 27 1007 94 10000 8.7 200 20:40 10.07.2020
21 Clouds 26 1007 94 10000 8.7 200 20:20 10.07.2020
22 Clouds 26 1007 94 10000 10.3 200 19:57 10.07.2020
23 Clouds 26 1007 94 10000 9.8 210 19:38 10.07.2020
24 Clouds 26 1008 94 10000 7.2 180 19:19 10.07.2020
25 Clouds 26 1008 94 10000 7.2 190 18:41 10.07.2020
26 Clouds 26 1008 94 10000 5.7 180 18:19 10.07.2020
27 Clouds 26 1008 94 10000 5.7 180 17:56 10.07.2020
28 Clouds 26 1009 94 10000 7.2 200 17:38 10.07.2020
29 Clouds 26 1009 88 10000 6.2 200 17:20 10.07.2020
30 Clouds 26 1009 88 10000 6.2 200 16:42 10.07.2020
31 Clouds 26 1009 94 10000 5.7 180 16:20 10.07.2020
32 Clouds 26 1010 94 10000 6.7 190 15:45 10.07.2020
33 Clouds 26 1010 94 10000 7.2 200 15:25 10.07.2020
34 Clouds 26 1010 94 10000 7.2 200 14:55 10.07.2020
35 Clouds 26 1010 94 10000 6.7 190 14:37 10.07.2020
36 Clouds 26 1010 94 10000 6.7 190 14:19 10.07.2020
37 Clouds 26 1010 88 10000 6.7 200 13:57 10.07.2020
38 Rain 26 1010 94 10000 7.7 190 13:38 10.07.2020
39 Rain 26 1010 94 10000 7.7 190 13:20 10.07.2020
40 Rain 27 1010 88 10000 8.2 200 12:55 10.07.2020
41 Clouds 27 1010 88 10000 7.2 200 12:37 10.07.2020
42 Clouds 27 1010 88 10000 7.2 200 12:18 10.07.2020
43 Rain 27 1010 88 10000 7.2 200 11:38 10.07.2020
44 Rain 27 1010 88 10000 5.1 180 11:19 10.07.2020
45 Rain 27 1010 88 10000 5.1 180 10:55 10.07.2020
46 Clouds 27 1011 88 10000 7.2 190 10:37 10.07.2020
47 Clouds 27 1010 83 10000 7.2 170 10:18 10.07.2020
48 Clouds 28 1010 83 10000 7.2 170 09:39 10.07.2020
49 Clouds 28 1010 83 10000 7.2 170 09:20 10.07.2020
50 Clouds 28 1010 88 10000 4.6 190 08:58 10.07.2020
51 Clouds 28 1010 88 10000 4.6 190 08:40 10.07.2020
52 Clouds 28 1010 88 10000 4.6 190 08:21 10.07.2020
53 Rain 28 1011 83 10000 4.6 190 07:44 10.07.2020
54 Rain 28 1011 83 10000 4.6 190 07:23 10.07.2020
55 Rain 28 1011 94 10000 4.1 180 06:52 10.07.2020
56 Rain 28 1011 94 10000 4.1 180 06:52 10.07.2020
57 Rain 28 1012 88 10000 4.6 190 06:27 10.07.2020
58 Rain 27 1012 88 10000 4.6 190 05:19 10.07.2020
59 Rain 26 1012 88 10000 3.1 210 03:43 10.07.2020
60 Rain 26 1012 94 10000 3.6 190 02:53 10.07.2020
61 Rain 26 1012 94 10000 2.1 210 01:53 10.07.2020
62 Rain 25 1012 88 10000 6.2 200 00:53 10.07.2020
63 Rain 24 1011 88 10000 5.7 200 00:22 10.07.2020
64 Rain 25 1011 88 10000 5.7 200 23:55 09.07.2020
65 Rain 24 1011 94 10000 4.1 200 23:37 09.07.2020
66 Rain 24 1011 94 10000 4.1 200 23:18 09.07.2020
67 Rain 24 1012 94 10000 4.6 190 22:56 09.07.2020
68 Rain 24 1011 94 10000 4.6 190 22:37 09.07.2020
69 Rain 24 1011 94 10000 4.6 190 22:19 09.07.2020
70 Rain 24 1010 88 10000 5.1 200 21:39 09.07.2020
71 Rain 24 1010 88 10000 5.1 200 21:20 09.07.2020
72 Rain 24 1010 88 10000 5.1 200 21:20 09.07.2020
73 Rain 24 1010 94 10000 5.7 190 20:59 09.07.2020
74 Rain 24 1010 94 10000 6.7 200 20:39 09.07.2020
75 Rain 24 1010 94 10000 6.7 200 20:21 09.07.2020
76 Clouds 24 1010 94 10000 7.2 200 19:43 09.07.2020
77 Clouds 24 1010 94 10000 7.2 200 19:22 09.07.2020
78 Clouds 24 1010 94 10000 7.2 200 19:22 09.07.2020
79 Rain 24 1011 94 10000 5.7 210 18:56 09.07.2020
80 Rain 24 1010 94 10000 7.7 210 18:38 09.07.2020
81 Rain 24 1011 94 10000 8.7 210 18:18 09.07.2020
82 Clouds 24 1010 94 10000 7.7 190 17:43 09.07.2020
83 Clouds 24 1010 94 10000 7.7 190 17:22 09.07.2020
84 Clouds 24 1011 94 10000 8.7 200 16:56 09.07.2020
85 Rain 24 1010 94 10000 8.2 200 16:38 09.07.2020
86 Rain 24 1010 94 10000 8.2 200 16:19 09.07.2020
87 Rain 23 1011 100 10000 8.7 190 15:58 09.07.2020
88 Rain 23 1011 100 10000 8.2 190 15:37 09.07.2020
89 Rain 23 1011 100 10000 6.7 180 15:18 09.07.2020
90 Rain 23 1011 100 10000 6.7 180 14:57 09.07.2020
91 Rain 23 1011 94 10000 6.7 180 14:39 09.07.2020
92 Rain 23 1011 94 10000 7.7 180 14:20 09.07.2020
93 Rain 23 1011 94 10000 7.7 180 13:56 09.07.2020
94 Rain 23 1011 94 5000 5.7 190 13:38 09.07.2020
95 Rain 23 1011 94 5000 5.7 190 13:18 09.07.2020
96 Rain 23 1010 94 10000 7.2 200 12:41 09.07.2020
97 Rain 23 1010 94 10000 7.2 200 12:23 09.07.2020
98 Rain 23 1010 94 10000 7.2 190 11:57 09.07.2020
99 Rain 23 1010 94 10000 7.7 200 11:38 09.07.2020
100 Rain 24 1009 94 10000 3.6 180 11:18 09.07.2020
101 Rain 24 1009 94 10000 3.6 180 10:55 09.07.2020
102 Rain 24 1009 94 10000 3.6 180 10:37 09.07.2020
103 Rain 24 1009 94 10000 3.6 180 10:19 09.07.2020
104 Rain 24 1009 94 10000 6.7 190 09:42 09.07.2020
105 Rain 24 1009 94 10000 6.7 190 09:22 09.07.2020
106 Rain 25 1008 88 10000 7.2 190 08:49 09.07.2020
107 Rain 25 1008 88 10000 7.2 190 08:26 09.07.2020
108 Rain 26 1009 83 10000 6.2 200 07:56 09.07.2020
109 Rain 26 1009 83 10000 6.2 200 07:37 09.07.2020
110 Rain 26 1009 83 10000 6.2 200 07:19 09.07.2020
111 Clouds 27 1008 74 10000 4.1 230 06:20 09.07.2020
112 Rain 27 1008 88 10000 4.1 200 05:53 09.07.2020
113 Rain 26 1009 94 10000 4.6 190 04:29 09.07.2020
114 Clouds 25 1009 88 10000 8.2 200 03:19 09.07.2020
115 Clouds 25 1009 88 10000 8.2 200 03:19 09.07.2020
116 Rain 25 1009 94 10000 4.1 190 01:56 09.07.2020
117 Rain 25 1008 94 10000 8.7 200 00:59 09.07.2020
118 Rain 25 1008 94 10000 8.7 200 00:41 09.07.2020
119 Rain 25 1008 94 10000 8.7 200 00:22 09.07.2020
120 Rain 25 1008 94 10000 6.7 180 23:43 08.07.2020
121 Rain 25 1008 94 10000 6.7 180 23:25 08.07.2020
122 Rain 25 1008 88 10000 6.2 200 22:56 08.07.2020
123 Rain 24 1008 94 10000 6.2 190 22:38 08.07.2020
124 Rain 24 1008 94 10000 6.2 190 22:19 08.07.2020
125 Rain 24 1007 94 10000 7.7 190 21:56 08.07.2020
126 Rain 25 1007 88 10000 7.2 200 21:36 08.07.2020
127 Rain 25 1007 88 10000 7.2 200 21:18 08.07.2020
128 Rain 24 1007 94 10000 6.2 200 20:41 08.07.2020
129 Rain 24 1007 100 10000 7.2 200 20:23 08.07.2020
130 Rain 24 1007 100 10000 7.2 200 19:57 08.07.2020
131 Rain 25 1006 94 10000 6.7 190 19:38 08.07.2020
132 Rain 25 1006 94 10000 6.7 190 19:20 08.07.2020
133 Rain 25 1007 88 10000 7.2 220 18:42 08.07.2020
134 Rain 25 1007 88 10000 7.2 220 18:21 08.07.2020
135 Rain 25 1007 88 10000 5.7 200 17:58 08.07.2020
136 Rain 25 1007 88 10000 5.7 210 17:39 08.07.2020
137 Rain 25 1007 88 10000 5.7 210 17:21 08.07.2020
138 Rain 25 1007 88 10000 6.7 220 16:58 08.07.2020
139 Rain 25 1007 83 10000 9.8 210 16:38 08.07.2020
140 Rain 25 1007 83 10000 9.8 210 16:19 08.07.2020
141 Rain 26 1007 83 10000 7.7 220 15:58 08.07.2020
142 Rain 26 1007 83 10000 8.7 220 15:39 08.07.2020
143 Rain 26 1007 83 10000 8.7 220 15:19 08.07.2020
144 Clouds 26 1007 88 10000 8.2 210 14:46 08.07.2020
145 Rain 26 1007 88 10000 7.7 210 14:28 08.07.2020
146 Rain 26 1006 88 10000 9.8 200 13:58 08.07.2020
147 Clouds 25 1006 88 10000 7.2 200 13:40 08.07.2020
148 Clouds 26 1006 88 10000 7.2 200 13:20 08.07.2020
149 Clouds 26 1005 88 10000 10.3 220 12:43 08.07.2020
150 Clouds 26 1005 88 10000 10.3 220 12:21 08.07.2020
151 Clouds 26 1005 88 10000 9.8 200 11:57 08.07.2020
152 Clouds 26 1005 88 10000 9.8 200 11:38 08.07.2020
153 Clouds 26 1005 88 10000 9.8 200 11:20 08.07.2020
154 Clouds 26 1005 78 10000 3.1 180 10:44 08.07.2020
155 Clouds 27 1004 88 10000 10.3 200 10:44 08.07.2020
156 Clouds 27 1005 78 10000 3.1 180 10:26 08.07.2020
157 Rain 26 1005 88 10000 5.7 200 09:47 08.07.2020
158 Rain 26 1005 88 10000 5.7 200 09:26 08.07.2020
159 Clouds 25 1005 88 10000 6.7 210 08:59 08.07.2020
160 Clouds 26 1005 88 10000 6.7 210 08:39 08.07.2020
161 Clouds 26 1005 88 10000 6.7 210 08:20 08.07.2020
162 Rain 26 1004 83 10000 7.2 210 07:46 08.07.2020
163 Rain 26 1004 83 10000 7.2 210 07:23 08.07.2020
164 Rain 27 1003 74 10000 5.7 210 06:54 08.07.2020
165 Rain 27 1003 74 10000 5.7 210 06:35 08.07.2020
166 Rain 27 1004 78 10000 5.1 220 05:55 08.07.2020
167 Rain 27 1004 78 10000 5.1 220 05:20 08.07.2020
168 Clouds 26 1003 78 10000 7.2 220 04:27 08.07.2020
169 Rain 28 1003 88 8000 8.2 180 02:22 08.07.2020
170 Rain 28 1003 94 8000 7.2 190 01:45 08.07.2020
171 Rain 27 1003 88 10000 9.8 190 01:19 08.07.2020
172 Rain 27 1004 88 10000 10.3 190 00:26 08.07.2020
173 Rain 26 1004 88 10000 9.8 190 23:56 07.07.2020
174 Rain 26 1005 88 10000 9.8 200 23:37 07.07.2020
175 Rain 26 1005 88 10000 9.8 200 23:19 07.07.2020
176 Rain 26 1005 94 10000 9.8 200 22:43 07.07.2020
177 Rain 26 1005 88 10000 8.7 200 22:22 07.07.2020
178 Rain 26 1005 94 10000 8.7 200 21:59 07.07.2020
179 Rain 26 1005 94 10000 10.3 200 21:40 07.07.2020
180 Clouds 26 1005 94 10000 10.3 200 21:21 07.07.2020
181 Clouds 26 1005 94 10000 10.8 200 20:57 07.07.2020
182 Clouds 26 1005 88 10000 11.8 200 20:39 07.07.2020
183 Clouds 26 1005 88 10000 11.8 200 20:20 07.07.2020
184 Clouds 26 1005 88 10000 9.8 200 19:41 07.07.2020
185 Clouds 26 1005 88 10000 9.8 200 19:21 07.07.2020
186 Clouds 26 1006 88 10000 10.8 200 18:58 07.07.2020
187 Clouds 26 1005 88 10000 9.8 200 18:40 07.07.2020
188 Clouds 26 1006 88 10000 8.7 210 18:21 07.07.2020
189 Clouds 26 1006 88 10000 8.7 210 17:58 07.07.2020
190 Clouds 26 1006 88 10000 9.8 200 17:38 07.07.2020
191 Clouds 26 1006 88 10000 9.8 200 17:20 07.07.2020
192 Clouds 27 1006 88 10000 9.3 200 16:58 07.07.2020
193 Clouds 27 1006 88 10000 11.3 200 16:38 07.07.2020
194 Clouds 27 1006 88 10000 11.3 200 16:20 07.07.2020
195 Clouds 27 1007 88 10000 10.8 200 15:42 07.07.2020
196 Clouds 27 1007 88 10000 10.8 200 15:21 07.07.2020
197 Clouds 27 1007 94 10000 10.3 200 14:47 07.07.2020
198 Clouds 27 1007 94 10000 10.8 200 14:27 07.07.2020
199 Clouds 27 1007 88 10000 11.8 200 13:59 07.07.2020
200 Clouds 27 1006 88 10000 10.8 200 13:38 07.07.2020
201 Clouds 27 1007 88 10000 9.8 200 13:18 07.07.2020
202 Clouds 28 1006 83 10000 11.8 200 12:41 07.07.2020
203 Clouds 28 1006 83 10000 11.8 200 12:22 07.07.2020
204 Clouds 28 1006 83 10000 10.3 200 11:56 07.07.2020
205 Clouds 28 1006 83 10000 10.3 200 11:38 07.07.2020
206 Rain 28 1005 83 10000 6.2 180 11:20 07.07.2020
207 Rain 28 1005 83 10000 6.2 180 10:55 07.07.2020
208 Rain 28 1005 83 10000 6.2 180 10:37 07.07.2020
209 Rain 28 1005 83 10000 6.2 180 10:18 07.07.2020
210 Clouds 28 1006 88 10000 7.2 190 09:40 07.07.2020
211 Rain 28 1006 88 10000 5.7 190 09:20 07.07.2020
212 Rain 28 1006 88 10000 5.7 190 08:42 07.07.2020
213 Rain 28 1006 88 10000 5.7 190 08:23 07.07.2020
214 Rain 28 1006 88 10000 7.2 200 07:47 07.07.2020
215 Rain 28 1006 88 10000 7.2 200 07:24 07.07.2020
216 Rain 28 1007 83 10000 7.2 200 06:49 07.07.2020
217 Rain 28 1007 83 10000 7.2 200 06:31 07.07.2020
218 Rain 29 1007 83 10000 8.2 200 05:54 07.07.2020
219 Rain 29 1007 83 10000 8.2 200 05:23 07.07.2020
220 Clouds 28 1007 88 10000 7.2 200 04:42 07.07.2020
221 Clouds 28 1008 88 10000 8.7 190 03:41 07.07.2020
222 Clouds 28 1007 88 10000 8.7 200 02:28 07.07.2020
223 Clouds 28 1007 88 10000 10.8 210 01:25 07.07.2020
224 Clouds 28 1007 88 10000 10.8 210 00:54 07.07.2020
225 Rain 28 1007 88 10000 12.3 210 00:36 07.07.2020
226 Rain 27 1007 88 10000 12.3 210 00:18 07.07.2020
227 Rain 27 1007 88 10000 12.3 210 23:41 06.07.2020
228 Rain 27 1007 88 10000 12.3 210 23:22 06.07.2020
229 Rain 27 1007 88 10000 10.8 210 22:55 06.07.2020
230 Rain 26 1007 88 10000 11.3 210 22:37 06.07.2020
231 Rain 26 1006 88 10000 12.3 210 22:18 06.07.2020
232 Rain 26 1006 88 10000 12.3 210 21:54 06.07.2020
233 Rain 26 1007 88 10000 10.8 210 21:36 06.07.2020
234 Clouds 26 1007 88 10000 10.8 210 21:18 06.07.2020
235 Clouds 26 1007 88 10000 11.3 210 20:39 06.07.2020
236 Clouds 26 1007 88 10000 11.3 210 20:20 06.07.2020
237 Rain 26 1007 88 10000 8.7 190 19:57 06.07.2020
238 Rain 26 1007 88 10000 8.7 190 19:39 06.07.2020
239 Rain 26 1007 88 10000 8.7 190 19:20 06.07.2020
240 Rain 26 1007 94 10000 8.7 190 18:56 06.07.2020
241 Rain 26 1007 94 10000 9.3 180 18:38 06.07.2020
242 Rain 26 1007 94 10000 9.3 180 18:19 06.07.2020
243 Rain 26 1007 88 10000 9.8 190 17:42 06.07.2020
244 Rain 26 1008 88 10000 12.3 200 17:24 06.07.2020
245 Rain 26 1008 88 10000 10.8 210 16:58 06.07.2020
246 Rain 26 1008 88 10000 10.3 200 16:40 06.07.2020
247 Rain 26 1008 88 10000 10.3 200 16:21 06.07.2020
248 Rain 26 1009 88 10000 10.3 200 15:42 06.07.2020
249 Rain 26 1009 88 10000 10.3 200 15:42 06.07.2020
250 Rain 26 1009 88 10000 10.3 200 15:24 06.07.2020
251 Rain 26 1009 88 10000 10.3 200 15:24 06.07.2020
252 Rain 26 1008 94 10000 11.3 200 14:57 06.07.2020
253 Rain 26 1008 88 10000 11.3 200 14:38 06.07.2020
254 Rain 26 1008 88 10000 11.3 200 14:19 06.07.2020
255 Rain 26 1008 88 10000 10.3 200 13:55 06.07.2020
256 Rain 26 1008 88 10000 10.3 200 13:36 06.07.2020
257 Rain 26 1008 88 10000 10.3 200 13:36 06.07.2020
258 Rain 26 1008 88 10000 10.3 200 13:18 06.07.2020
259 Rain 26 1008 88 10000 8.7 200 12:42 06.07.2020
260 Rain 26 1008 88 10000 8.7 200 12:19 06.07.2020
261 Rain 27 1008 83 10000 9.3 200 11:58 06.07.2020
262 Rain 27 1007 83 10000 9.3 190 11:38 06.07.2020
263 Rain 27 1007 83 10000 9.3 190 11:20 06.07.2020
264 Rain 27 1006 88 10000 5.1 170 10:56 06.07.2020
265 Rain 27 1006 88 10000 5.1 170 10:37 06.07.2020
266 Rain 26 1008 94 10000 5.7 180 10:18 06.07.2020
267 Rain 26 1007 88 10000 5.1 170 09:41 06.07.2020
268 Rain 26 1007 88 10000 5.1 170 09:21 06.07.2020
269 Rain 26 1008 94 10000 6.7 180 08:56 06.07.2020
270 Rain 26 1008 94 10000 6.7 180 08:38 06.07.2020
271 Rain 26 1008 88 10000 6.7 200 08:19 06.07.2020
272 Rain 27 1008 88 10000 6.7 200 07:46 06.07.2020
273 Rain 27 1008 88 10000 6.7 200 07:24 06.07.2020
274 Rain 27 1009 88 10000 5.1 200 06:42 06.07.2020
275 Rain 27 1009 88 10000 5.1 200 06:42 06.07.2020
276 Rain 27 1009 88 10000 5.1 200 06:23 06.07.2020
277 Rain 27 1009 78 10000 5.7 210 05:41 06.07.2020
278 Rain 27 1009 94 10000 5.1 190 04:55 06.07.2020
279 Rain 24 1009 88 10000 7.2 200 03:42 06.07.2020
280 Mist 23 1010 100 2000 6.7 200 02:24 06.07.2020
281 Rain 23 1009 100 6000 10.3 200 01:39 06.07.2020
282 Rain 24 1008 94 3500 8.7 190 00:39 06.07.2020
283 Rain 24 1008 94 9000 10.3 200 00:20 06.07.2020
284 Rain 24 1008 94 9000 10.3 200 23:44 05.07.2020
285 Rain 25 1008 94 10000 9.3 200 23:26 05.07.2020
286 Rain 25 1008 94 5000 9.3 200 22:59 05.07.2020
287 Rain 25 1008 94 10000 9.3 200 22:40 05.07.2020
288 Rain 25 1008 94 10000 9.3 200 22:20 05.07.2020
289 Rain 24 1007 100 5000 8.7 180 21:58 05.07.2020
290 Rain 24 1007 100 7000 7.2 190 21:40 05.07.2020
291 Rain 24 1007 100 7000 7.2 190 21:18 05.07.2020
292 Rain 24 1007 100 10000 6.7 190 20:58 05.07.2020
293 Rain 24 1007 94 9000 6.7 200 20:39 05.07.2020
294 Rain 24 1006 99 0 2.24 171 20:20 05.07.2020
295 Rain 24 1006 99 0 2.24 171 20:20 05.07.2020
296 Rain 24 1008 88 10000 6.7 190 19:43 05.07.2020
297 Rain 24 1008 88 10000 6.7 190 19:22 05.07.2020
298 Rain 24 1008 94 10000 5.1 180 18:58 05.07.2020
299 Rain 24 1008 88 10000 6.7 190 18:40 05.07.2020
300 Rain 25 1008 88 10000 6.7 190 18:21 05.07.2020
301 Rain 25 1007 88 10000 7.7 210 17:56 05.07.2020
302 Rain 25 1008 88 10000 9.8 220 17:37 05.07.2020
303 Rain 25 1008 88 10000 9.8 220 17:18 05.07.2020
304 Rain 26 1007 83 10000 7.2 190 16:43 05.07.2020
305 Clouds 26 1007 83 10000 8.7 200 16:24 05.07.2020
306 Clouds 26 1007 83 10000 8.7 200 15:55 05.07.2020
307 Clouds 26 1007 83 10000 7.7 210 15:37 05.07.2020
308 Clouds 26 1007 83 10000 7.7 210 15:18 05.07.2020
309 Clouds 26 1007 83 10000 7.7 200 14:41 05.07.2020
310 Clouds 25 1006 83 10000 6.2 190 14:22 05.07.2020
311 Clouds 26 1007 83 10000 6.2 200 13:42 05.07.2020
312 Clouds 26 1006 78 10000 9.3 210 13:24 05.07.2020
313 Clouds 26 1006 74 10000 10.3 210 12:56 05.07.2020
314 Clouds 26 1006 74 10000 9.8 210 12:38 05.07.2020
315 Clouds 26 1006 78 10000 6.7 200 12:20 05.07.2020
316 Clouds 26 1006 78 10000 6.7 200 11:54 05.07.2020
317 Clouds 26 1005 78 10000 7.7 200 11:36 05.07.2020
318 Clouds 26 1005 78 10000 7.7 200 11:18 05.07.2020
319 Clouds 27 1005 74 10000 3.1 180 10:42 05.07.2020
320 Clouds 26 1005 74 10000 3.1 180 10:19 05.07.2020
321 Clouds 26 1005 94 10000 5.7 200 09:58 05.07.2020
322 Clouds 26 1005 94 10000 5.7 200 09:40 05.07.2020
323 Rain 26 1005 83 10000 5.1 160 09:20 05.07.2020
324 Rain 26 1005 88 10000 4.6 170 08:47 05.07.2020
325 Rain 25 1006 100 7000 6.2 200 08:29 05.07.2020
326 Rain 25 1006 100 6000 7.2 190 07:49 05.07.2020
327 Rain 25 1006 100 6000 7.2 190 07:30 05.07.2020
328 Mist 25 1006 100 3500 5.1 180 06:53 05.07.2020
329 Rain 25 1007 88 8000 3.1 190 05:58 05.07.2020
330 Rain 28 1006 88 8000 5.7 170 03:37 05.07.2020
331 Rain 28 1005 83 8000 4.1 180 02:46 05.07.2020
332 Rain 29 1005 83 8000 4.1 180 02:28 05.07.2020
333 Clouds 28 1004 78 10000 3.6 190 01:42 05.07.2020
334 Clouds 27 1004 78 10000 3.6 190 01:20 05.07.2020
335 Clouds 26 1004 83 9000 9.8 200 00:42 05.07.2020
336 Clouds 26 1004 83 9000 9.8 200 00:23 05.07.2020
337 Clouds 26 1004 83 10000 9.3 200 23:53 04.07.2020
338 Clouds 25 1004 83 10000 7.2 210 23:31 04.07.2020
339 Clouds 25 1004 78 10000 6.2 190 22:58 04.07.2020
340 Clouds 25 1003 83 10000 7.7 210 22:40 04.07.2020
341 Clouds 25 1003 83 10000 7.7 210 22:21 04.07.2020
342 Clouds 25 1003 83 10000 8.2 220 21:55 04.07.2020
343 Clouds 25 1003 83 10000 6.2 210 21:36 04.07.2020
344 Clouds 25 1003 88 10000 7.2 220 21:18 04.07.2020
345 Clouds 25 1003 88 10000 5.7 230 20:41 04.07.2020
346 Clouds 25 1003 94 10000 8.7 220 20:20 04.07.2020
347 Clouds 25 1003 94 10000 8.7 220 19:55 04.07.2020
348 Clouds 25 1003 94 10000 7.2 210 19:37 04.07.2020
349 Clouds 25 1003 94 10000 6.7 210 19:19 04.07.2020
350 Clouds 25 1002 94 10000 8.7 210 18:42 04.07.2020
351 Clouds 25 1003 88 10000 9.8 200 18:22 04.07.2020
352 Clouds 26 1003 88 10000 9.8 200 17:45 04.07.2020
353 Clouds 26 1003 88 10000 11.3 200 17:26 04.07.2020
354 Clouds 26 1003 88 10000 10.8 200 16:59 04.07.2020
355 Rain 26 1004 88 10000 10.3 200 16:39 04.07.2020
356 Rain 26 1004 88 10000 10.3 200 16:21 04.07.2020
357 Clouds 25 1004 88 10000 10.8 200 15:58 04.07.2020
358 Clouds 26 1004 88 10000 9.8 200 15:40 04.07.2020
359 Clouds 26 1004 88 10000 9.8 200 15:21 04.07.2020
360 Clouds 26 1004 88 10000 9.3 200 14:56 04.07.2020
361 Rain 26 1003 88 10000 10.8 210 14:36 04.07.2020
362 Rain 26 1003 88 10000 10.8 210 14:18 04.07.2020
363 Clouds 27 1003 88 10000 11.3 210 13:41 04.07.2020
364 Clouds 26 1003 88 10000 11.3 210 13:19 04.07.2020
365 Clouds 26 1003 88 10000 11.8 200 12:56 04.07.2020
366 Clouds 26 1002 88 10000 10.3 200 12:38 04.07.2020
367 Clouds 27 1002 88 10000 11.3 210 12:18 04.07.2020
368 Rain 26 1002 88 10000 9.8 210 11:43 04.07.2020
369 Clouds 27 1002 78 10000 6.7 190 11:23 04.07.2020
370 Clouds 27 1002 78 10000 6.7 190 10:56 04.07.2020
371 Clouds 27 1003 78 10000 7.7 190 10:37 04.07.2020
372 Rain 27 1003 78 10000 6.7 220 10:18 04.07.2020
373 Rain 27 1003 78 10000 6.7 220 09:41 04.07.2020
374 Rain 27 1003 78 10000 6.7 220 09:22 04.07.2020
375 Clouds 27 1003 69 10000 8.2 220 08:58 04.07.2020
376 Clouds 27 1003 69 10000 8.2 220 08:39 04.07.2020
377 Clouds 27 1003 69 10000 8.2 220 08:20 04.07.2020
378 Rain 26 1003 74 10000 10.3 210 07:40 04.07.2020
379 Rain 26 1003 74 10000 10.3 210 07:18 04.07.2020
380 Clouds 26 1003 74 10000 7.7 210 06:38 04.07.2020
381 Clouds 25 1003 74 10000 7.7 210 06:19 04.07.2020
382 Clouds 26 1004 74 10000 8.2 210 05:29 04.07.2020
383 Clouds 25 1004 78 10000 8.7 200 04:21 04.07.2020
384 Rain 22 1005 94 8000 4.1 260 02:45 04.07.2020
385 Rain 22 1005 94 10000 8.7 220 01:42 04.07.2020
386 Rain 21 1006 94 3500 3.6 200 00:59 04.07.2020
387 Rain 21 1006 94 6000 1.5 260 00:40 04.07.2020
388 Rain 21 1006 94 6000 1.5 260 00:21 04.07.2020
389 Rain 21 1006 100 10000 0.5 0 23:39 03.07.2020
390 Rain 21 1006 100 10000 0.5 0 23:18 03.07.2020
391 Rain 21 1007 100 10000 1 0 22:42 03.07.2020
392 Rain 21 1007 100 10000 1 0 22:24 03.07.2020
393 Rain 21 1008 100 8000 3.1 30 21:59 03.07.2020
394 Rain 20 1008 100 3500 6.2 60 21:38 03.07.2020
395 Rain 20 1008 100 3500 6.2 60 21:19 03.07.2020
396 Mist 20 1008 100 4000 7.2 70 20:43 03.07.2020
397 Rain 21 1008 100 4000 8.2 60 20:25 03.07.2020
398 Rain 21 1009 100 4500 6.7 50 19:59 03.07.2020
399 Rain 21 1011 100 6000 3.1 40 19:39 03.07.2020
400 Rain 21 1011 100 6000 3.1 40 19:18 03.07.2020
401 Rain 21 1012 94 4000 3.6 60 18:45 03.07.2020
402 Rain 21 1012 94 4000 3.6 60 18:24 03.07.2020
403 Rain 21 1013 94 5000 3.6 80 17:59 03.07.2020
404 Rain 21 1013 94 10000 4.1 80 17:41 03.07.2020
405 Rain 21 1013 94 10000 4.1 80 17:20 03.07.2020
406 Rain 21 1014 94 10000 4.6 90 16:41 03.07.2020
407 Rain 22 1014 94 10000 4.6 90 16:23 03.07.2020
408 Rain 22 1014 88 10000 3.6 90 15:46 03.07.2020
409 Rain 22 1015 88 10000 3.6 100 15:24 03.07.2020
410 Rain 22 1015 88 10000 4.1 100 14:58 03.07.2020
411 Rain 22 1015 88 10000 4.1 100 14:39 03.07.2020
412 Rain 22 1015 88 10000 4.1 100 14:20 03.07.2020
413 Rain 22 1016 88 10000 4.1 100 13:47 03.07.2020
414 Rain 22 1015 88 10000 5.7 80 13:29 03.07.2020
415 Rain 22 1015 94 10000 6.7 80 12:57 03.07.2020
416 Rain 23 1015 83 10000 5.1 90 12:39 03.07.2020
417 Rain 23 1015 83 10000 5.1 90 12:20 03.07.2020
418 Rain 23 1015 83 10000 5.7 90 11:43 03.07.2020
419 Rain 23 1015 83 10000 6.2 110 11:25 03.07.2020
420 Rain 24 1015 83 10000 4.1 120 10:59 03.07.2020
421 Rain 24 1015 83 10000 4.1 120 10:40 03.07.2020
422 Rain 24 1014 78 10000 8.2 110 10:21 03.07.2020
423 Rain 25 1014 78 10000 8.2 110 09:56 03.07.2020
424 Rain 25 1014 78 10000 8.2 110 09:37 03.07.2020
425 Rain 25 1014 78 10000 8.2 110 09:18 03.07.2020
426 Rain 25 1014 83 10000 3.6 150 08:40 03.07.2020
427 Rain 26 1014 83 10000 3.6 150 08:19 03.07.2020
428 Rain 26 1014 83 10000 3.1 160 07:50 03.07.2020
429 Rain 27 1014 83 10000 3.1 160 07:28 03.07.2020
430 Clouds 27 1014 74 10000 5.1 150 06:59 03.07.2020
431 Clouds 27 1014 74 10000 5.1 150 06:25 03.07.2020
432 Clouds 27 1014 74 10000 5.1 150 06:25 03.07.2020
433 Clouds 28 1014 74 10000 3.6 140 05:23 03.07.2020
434 Clouds 28 1014 65 10000 4.1 90 03:54 03.07.2020
435 Clouds 27 1014 69 10000 3.1 50 02:50 03.07.2020
436 Clouds 27 1014 69 10000 3.1 50 02:30 03.07.2020
437 Clouds 26 1014 83 10000 1 0 01:30 03.07.2020
438 Clouds 26 1014 78 10000 2.1 60 00:58 03.07.2020
439 Clouds 26 1013 83 10000 2.1 50 00:40 03.07.2020
440 Clouds 25 1014 83 10000 2.6 30 23:53 02.07.2020
441 Clouds 25 1014 83 10000 2.6 30 23:53 02.07.2020
442 Clouds 25 1012 83 10000 2.6 30 23:21 02.07.2020
443 Clouds 24 1013 83 10000 3.1 350 22:59 02.07.2020
444 Clouds 24 1012 83 10000 3.1 10 22:41 02.07.2020
445 Clouds 24 1012 83 10000 3.1 10 22:21 02.07.2020
446 Clouds 24 1011 83 10000 3.6 10 21:59 02.07.2020
447 Clouds 24 1011 83 10000 3.6 10 21:41 02.07.2020
448 Clouds 24 1011 83 10000 1.5 10 21:19 02.07.2020
449 Clouds 24 1011 83 10000 2.1 20 20:58 02.07.2020
450 Clouds 24 1010 88 10000 2.6 300 20:39 02.07.2020
451 Clouds 24 1010 88 10000 2.6 300 20:19 02.07.2020
452 Clouds 25 1010 78 10000 2.1 190 19:43 02.07.2020
453 Clouds 25 1010 78 10000 2.1 190 19:24 02.07.2020
454 Clouds 25 1010 78 10000 2.1 180 18:59 02.07.2020
455 Clouds 25 1009 83 10000 2.6 190 18:40 02.07.2020
456 Clouds 25 1009 83 10000 2.6 190 18:22 02.07.2020
457 Clouds 25 1009 78 10000 2.6 200 17:57 02.07.2020
458 Clouds 25 1009 78 10000 4.1 200 17:38 02.07.2020
459 Clouds 25 1009 78 10000 4.1 200 17:18 02.07.2020
460 Clouds 25 1009 78 10000 6.2 200 16:42 02.07.2020
461 Clouds 25 1009 78 10000 6.2 200 16:21 02.07.2020
462 Clouds 26 1009 69 10000 5.7 200 15:58 02.07.2020
463 Clouds 26 1008 69 10000 7.2 200 15:38 02.07.2020
464 Clouds 26 1008 69 10000 7.2 200 15:20 02.07.2020
465 Clouds 26 1008 73 10000 7.2 200 14:46 02.07.2020
466 Clouds 26 1008 69 10000 8.2 200 14:23 02.07.2020
467 Clouds 26 1007 69 10000 8.2 200 13:57 02.07.2020
468 Clouds 26 1007 69 10000 8.2 200 13:57 02.07.2020
469 Clouds 26 1007 69 10000 8.7 210 13:39 02.07.2020
470 Clouds 26 1007 69 10000 8.7 210 13:19 02.07.2020
471 Clouds 26 1007 73 10000 9.8 200 12:57 02.07.2020
472 Clouds 27 1007 65 10000 9.3 200 12:38 02.07.2020
473 Clouds 27 1007 65 10000 9.3 200 12:19 02.07.2020
474 Clouds 28 1007 65 10000 9.3 200 11:42 02.07.2020
475 Clouds 29 1007 65 10000 9.8 200 11:24 02.07.2020
476 Clouds 30 1005 55 10000 4.1 170 10:47 02.07.2020
477 Clouds 30 1005 55 10000 4.1 170 10:27 02.07.2020
478 Clouds 30 1005 74 10000 6.2 180 09:57 02.07.2020
479 Clouds 31 1005 48 10000 5.7 190 09:39 02.07.2020
480 Clouds 31 1005 74 10000 6.2 180 09:20 02.07.2020
481 Clouds 31 1005 65 10000 6.2 180 08:44 02.07.2020
482 Clouds 32 1005 65 10000 6.2 180 08:24 02.07.2020
483 Clouds 31 1005 65 10000 8.2 200 07:56 02.07.2020
484 Clouds 31 1005 65 10000 8.2 200 07:37 02.07.2020
485 Clouds 31 1005 65 10000 8.2 200 07:18 02.07.2020
486 Rain 31 1005 58 10000 8.2 200 06:40 02.07.2020
487 Rain 31 1005 58 10000 8.2 200 06:20 02.07.2020
488 Rain 31 1006 51 10000 6.7 220 05:44 02.07.2020
489 Rain 29 1005 69 10000 8.7 190 03:57 02.07.2020
490 Clouds 29 1005 69 10000 8.7 190 03:31 02.07.2020
491 Clouds 26 1006 74 10000 7.2 200 00:54 02.07.2020
492 Clouds 26 1006 78 10000 6.2 200 00:25 02.07.2020
493 Rain 24 1005 83 10000 7.2 200 23:48 01.07.2020
494 Rain 23 1005 88 10000 8.7 190 23:30 01.07.2020
495 Clouds 23 1004 83 10000 7.7 190 22:57 01.07.2020
496 Clouds 23 1004 88 10000 7.7 190 22:38 01.07.2020
497 Clouds 23 1004 88 10000 7.7 190 22:19 01.07.2020
498 Clouds 23 1004 88 10000 7.7 190 22:19 01.07.2020
499 Clouds 23 1004 88 10000 7.2 200 21:59 01.07.2020
500 Clouds 23 1004 88 10000 7.2 200 21:40 01.07.2020
501 Clouds 23 1004 88 10000 7.2 210 21:22 01.07.2020
502 Clouds 23 1004 94 10000 7.7 210 20:58 01.07.2020
503 Clouds 23 1003 94 10000 9.3 200 20:40 01.07.2020
504 Clouds 23 1003 94 10000 9.3 200 20:21 01.07.2020
505 Clouds 23 1003 94 10000 8.2 200 19:55 01.07.2020
506 Clouds 23 1003 94 10000 8.2 190 19:37 01.07.2020
507 Clouds 23 1003 100 10000 7.7 180 19:18 01.07.2020
508 Clouds 23 1003 94 10000 7.7 170 18:42 01.07.2020
509 Clouds 23 1003 94 10000 7.7 170 18:21 01.07.2020
510 Clouds 23 1003 94 10000 7.7 170 18:21 01.07.2020
511 Rain 23 1004 100 9000 5.7 160 17:59 01.07.2020
512 Rain 23 1003 94 2200 3.6 210 17:39 01.07.2020
513 Rain 23 1003 94 2200 3.6 210 17:19 01.07.2020
514 Rain 24 1004 100 1500 4.6 200 16:47 01.07.2020
515 Rain 24 1004 94 3000 7.2 190 16:28 01.07.2020
516 Rain 24 1005 94 10000 7.7 190 15:57 01.07.2020
517 Rain 25 1005 88 10000 9.3 200 15:39 01.07.2020
518 Rain 25 1005 88 10000 9.3 200 15:20 01.07.2020
519 Rain 25 1005 88 10000 9.8 210 14:44 01.07.2020
520 Rain 24 1005 94 10000 9.8 210 14:22 01.07.2020
521 Rain 25 1005 88 10000 9.8 210 13:59 01.07.2020
522 Rain 25 1005 94 10000 11.3 220 13:39 01.07.2020
523 Rain 25 1005 94 10000 11.3 220 13:20 01.07.2020
524 Rain 25 1004 94 10000 10.3 200 12:58 01.07.2020
525 Rain 25 1004 88 10000 10.8 220 12:39 01.07.2020
526 Rain 25 1004 88 10000 10.8 220 12:20 01.07.2020
527 Rain 26 1004 88 10000 10.3 210 11:44 01.07.2020
528 Rain 26 1004 88 10000 10.3 210 11:44 01.07.2020
529 Rain 26 1003 88 10000 10.8 210 11:44 01.07.2020
530 Rain 26 1003 88 10000 10.8 210 11:44 01.07.2020
531 Rain 26 1003 88 10000 10.8 210 11:44 01.07.2020
532 Rain 26 1003 88 10000 10.8 210 11:44 01.07.2020
533 Rain 26 1003 88 10000 10.8 210 11:44 01.07.2020
534 Clouds 26 1002 78 10000 6.7 190 11:25 01.07.2020
535 Rain 26 1002 78 10000 6.7 190 10:59 01.07.2020
536 Rain 26 1002 78 10000 6.7 190 10:41 01.07.2020
537 Rain 26 1002 78 10000 6.7 190 10:22 01.07.2020
538 Rain 26 1002 88 10000 9.3 200 09:58 01.07.2020
539 Rain 26 1002 88 10000 9.3 200 09:37 01.07.2020
540 Rain 26 1002 88 10000 9.3 200 09:18 01.07.2020
541 Rain 27 1002 83 10000 10.8 200 08:41 01.07.2020
542 Rain 27 1002 83 10000 10.8 200 08:23 01.07.2020
543 Mist 26 1002 100 5000 7.2 190 07:58 01.07.2020
544 Rain 26 1002 100 5000 7.2 190 07:38 01.07.2020
545 Rain 26 1003 94 8000 7.2 190 07:20 01.07.2020
546 Rain 26 1003 94 8000 7.2 190 06:49 01.07.2020
547 Rain 26 1002 83 10000 7.2 180 06:27 01.07.2020
548 Rain 26 1003 94 7000 9.8 200 04:56 01.07.2020
549 Rain 26 1003 88 8000 9.3 200 03:48 01.07.2020
550 Rain 26 1003 88 8000 9.3 200 03:27 01.07.2020
551 Rain 26 1003 94 4500 10.3 200 02:41 01.07.2020
552 Clouds 26 1002 83 10000 7.2 200 01:48 01.07.2020
553 Clouds 27 1002 83 10000 11.8 210 00:43 01.07.2020
554 Clouds 27 1002 83 10000 11.8 210 00:25 01.07.2020
555 Clouds 26 1002 88 10000 9.3 210 23:42 30.06.2020
556 Clouds 26 1001 88 10000 12.3 200 23:23 30.06.2020
557 Rain 26 1001 88 10000 10.3 190 22:59 30.06.2020
558 Clouds 26 1001 83 10000 10.3 200 22:40 30.06.2020
559 Clouds 26 1001 83 10000 9.3 210 22:18 30.06.2020
560 Rain 26 1000 83 10000 13.9 210 21:41 30.06.2020
561 Rain 26 1000 83 10000 13.9 210 21:41 30.06.2020
562 Rain 26 1000 83 10000 13.9 210 21:19 30.06.2020
563 Rain 26 1000 88 10000 9.3 200 20:55 30.06.2020
564 Rain 26 1000 88 10000 11.8 220 20:37 30.06.2020
565 Rain 26 1000 88 10000 10.8 210 20:19 30.06.2020
566 Rain 26 1001 94 5000 12.9 210 19:42 30.06.2020
567 Rain 26 1000 94 4000 14.9 210 19:19 30.06.2020
568 Rain 26 1001 94 5000 12.9 210 19:19 30.06.2020
569 Rain 27 1000 83 10000 11.3 200 18:46 30.06.2020
570 Rain 27 1000 83 10000 11.3 200 18:21 30.06.2020
571 Clouds 27 1000 83 10000 10.8 200 17:59 30.06.2020
572 Clouds 27 1001 88 10000 9.8 190 17:38 30.06.2020
573 Clouds 27 1001 88 10000 9.8 190 17:19 30.06.2020
574 Clouds 26 1001 88 10000 11.8 200 16:54 30.06.2020
575 Rain 26 1001 88 10000 11.8 200 16:36 30.06.2020
576 Rain 26 1001 88 10000 11.8 200 16:18 30.06.2020
577 Rain 26 1001 88 10000 13.4 200 15:41 30.06.2020
578 Rain 26 1001 88 10000 13.4 200 15:22 30.06.2020
579 Rain 26 1002 88 10000 11.8 200 14:56 30.06.2020
580 Rain 26 1002 88 10000 11.8 200 14:38 30.06.2020
581 Rain 26 1002 88 10000 11.8 200 14:18 30.06.2020
582 Rain 26 1002 88 10000 11.8 200 13:41 30.06.2020
583 Rain 26 1001 88 10000 12.9 200 13:21 30.06.2020
584 Rain 26 1001 88 10000 12.9 200 12:59 30.06.2020
585 Rain 26 1001 94 10000 11.8 200 12:40 30.06.2020
586 Rain 25 1002 94 10000 11.8 200 12:21 30.06.2020
587 Rain 25 1002 94 10000 11.8 200 12:21 30.06.2020
588 Rain 26 1001 94 10000 11.8 200 12:21 30.06.2020
589 Rain 26 1002 94 10000 11.8 200 11:58 30.06.2020
590 Rain 25 1002 94 10000 11.8 200 11:39 30.06.2020
591 Rain 26 1002 94 10000 5.7 180 11:19 30.06.2020
592 Rain 25 1002 94 10000 5.7 180 10:59 30.06.2020
593 Clouds 22 1001 94 10000 1.5 170 16:43 28.06.2020
594 Clouds 22 1001 100 10000 2.6 160 16:24 28.06.2020
595 Clouds 23 1000 94 10000 1 160 15:56 28.06.2020
596 Clouds 23 1000 94 10000 2.1 170 15:38 28.06.2020
597 Clouds 23 1000 94 10000 1 0 15:19 28.06.2020
598 Clouds 23 1000 94 10000 1 0 14:46 28.06.2020
599 Clouds 23 1000 94 10000 1.5 190 14:28 28.06.2020
600 Clouds 23 1000 88 10000 3.1 200 13:58 28.06.2020
601 Clouds 23 1000 88 10000 4.1 190 13:38 28.06.2020
602 Clouds 23 1000 88 10000 4.1 190 13:19 28.06.2020
603 Clouds 23 1000 88 10000 5.1 200 12:56 28.06.2020
604 Clouds 24 1000 88 10000 5.7 200 12:37 28.06.2020
605 Clouds 24 1000 88 10000 5.7 200 12:19 28.06.2020
606 Clouds 24 1000 83 10000 4.6 200 11:56 28.06.2020
607 Clouds 24 1000 78 10000 3.6 200 11:38 28.06.2020
608 Clouds 24 999 83 10000 2.6 210 11:19 28.06.2020
609 Clouds 24 999 83 10000 2.6 210 10:55 28.06.2020
610 Clouds 24 999 83 10000 2.6 210 10:36 28.06.2020
611 Clouds 24 999 83 10000 2.6 210 10:36 28.06.2020
612 Clouds 24 999 83 10000 2.6 210 10:36 28.06.2020
613 Clouds 24 999 83 10000 2.1 130 10:18 28.06.2020
614 Clouds 25 999 83 10000 2.1 130 09:39 28.06.2020
615 Clouds 24 999 83 10000 2.1 130 09:21 28.06.2020
616 Clouds 24 999 83 10000 3.1 30 08:48 28.06.2020
617 Clouds 24 999 83 10000 3.1 30 08:26 28.06.2020
618 Clouds 24 999 78 10000 2.6 360 07:49 28.06.2020
619 Clouds 24 999 78 10000 2.6 360 07:29 28.06.2020
620 Rain 22 998 94 10000 4.6 40 06:44 28.06.2020
621 Rain 22 998 94 10000 4.6 40 06:24 28.06.2020
622 Rain 22 999 94 7000 3.6 20 05:27 28.06.2020
623 Rain 22 1001 94 4000 5.7 40 03:45 28.06.2020
624 Rain 23 1000 100 7000 3.6 200 02:47 28.06.2020
625 Rain 23 1001 94 4000 1 0 02:18 28.06.2020
626 Rain 23 1002 94 0 0.45 203 01:27 28.06.2020
627 Rain 22 1001 100 5000 4.6 160 00:51 28.06.2020
628 Rain 23 1002 94 0 0.57 63 00:27 28.06.2020
629 Rain 22 1002 100 4500 3.6 160 23:43 27.06.2020
630 Rain 22 1002 100 4500 3.6 160 23:24 27.06.2020
631 Rain 22 1002 100 4000 4.6 170 22:59 27.06.2020
632 Rain 22 1002 100 4000 5.1 180 22:41 27.06.2020
633 Rain 23 1002 100 4000 5.1 180 22:23 27.06.2020
634 Rain 23 1002 94 4000 5.7 200 21:57 27.06.2020
635 Rain 23 1003 100 5000 5.1 200 21:38 27.06.2020
636 Rain 24 1003 100 5000 5.1 200 21:20 27.06.2020
637 Rain 24 1003 94 7000 5.1 190 20:45 27.06.2020
638 Rain 24 1002 94 8000 4.1 170 20:19 27.06.2020
639 Rain 24 1002 94 8000 4.1 170 20:19 27.06.2020
640 Rain 24 1003 88 10000 3.6 190 19:56 27.06.2020
641 Rain 25 1003 88 10000 3.1 190 19:37 27.06.2020
642 Rain 25 1003 83 10000 3.1 190 19:18 27.06.2020
643 Rain 25 1003 88 10000 4.6 190 18:47 27.06.2020
644 Rain 25 1003 88 10000 4.6 190 18:28 27.06.2020
645 Clouds 25 1003 83 10000 3.6 190 17:59 27.06.2020
646 Clouds 25 1003 88 10000 2.1 190 17:40 27.06.2020
647 Clouds 25 1003 88 10000 2.1 190 17:20 27.06.2020
648 Clouds 26 1003 83 10000 1.5 200 16:56 27.06.2020
649 Clouds 25 1003 88 10000 1.5 130 16:38 27.06.2020
650 Clouds 26 1003 88 10000 1.5 130 16:18 27.06.2020
651 Clouds 26 1004 83 10000 1.5 170 15:42 27.06.2020
652 Clouds 26 1004 88 10000 3.1 170 15:22 27.06.2020
653 Clouds 26 1004 88 10000 3.1 170 14:54 27.06.2020
654 Clouds 26 1004 83 10000 3.6 180 14:36 27.06.2020
655 Clouds 26 1004 83 10000 3.6 180 14:18 27.06.2020
656 Clouds 26 1003 83 10000 4.6 180 13:39 27.06.2020
657 Clouds 27 1003 83 10000 5.7 180 13:20 27.06.2020
658 Clouds 27 1003 83 10000 5.7 190 12:58 27.06.2020
659 Clouds 27 1003 83 10000 5.7 190 12:40 27.06.2020
660 Clouds 27 1003 83 10000 5.7 190 12:21 27.06.2020
661 Clouds 27 1003 78 10000 5.1 200 11:55 27.06.2020
662 Clouds 27 1003 78 10000 5.7 190 11:37 27.06.2020
663 Clouds 28 1003 74 10000 3.1 150 11:18 27.06.2020
664 Clouds 28 1003 78 10000 5.7 190 10:40 27.06.2020
665 Clouds 28 1003 74 10000 3.1 150 10:19 27.06.2020
666 Clouds 28 1003 74 10000 3.1 150 10:19 27.06.2020
667 Mist 28 1003 88 5000 2.6 160 09:57 27.06.2020
668 Clouds 29 1003 74 10000 2.6 150 09:37 27.06.2020
669 Mist 29 1003 88 5000 2.6 160 09:19 27.06.2020
670 Mist 29 1003 88 5000 3.1 140 08:41 27.06.2020
671 Mist 29 1003 88 5000 3.1 140 08:22 27.06.2020
672 Mist 29 1003 88 5000 3.1 140 08:22 27.06.2020
673 Mist 29 1003 83 5000 2.1 150 07:46 27.06.2020
674 Mist 29 1003 83 5000 2.1 150 07:25 27.06.2020
675 Clouds 29 1004 83 7000 2.1 140 06:50 27.06.2020
676 Clouds 29 1004 83 7000 2.1 140 06:31 27.06.2020
677 Mist 28 1005 88 4000 2.6 150 04:24 27.06.2020
678 Mist 27 1005 94 3500 2.6 140 03:59 27.06.2020
679 Mist 26 1005 94 3500 2.6 140 03:41 27.06.2020
680 Mist 25 1005 94 4500 2.1 150 02:39 27.06.2020
681 Mist 25 1005 94 4500 2.1 150 02:20 27.06.2020
682 Mist 25 1005 94 4800 1.5 60 01:24 27.06.2020
683 Mist 24 1005 94 3500 2.6 50 00:42 27.06.2020
684 Drizzle 23 1005 94 2800 1.5 30 23:47 26.06.2020
685 Drizzle 23 1005 94 2800 3.1 50 23:27 26.06.2020
686 Drizzle 23 1005 94 2800 3.1 50 23:27 26.06.2020
687 Mist 23 1005 94 4500 3.6 40 22:58 26.06.2020
688 Clouds 23 1004 94 6000 3.6 20 22:39 26.06.2020
689 Clouds 23 1004 94 6000 3.6 20 22:20 26.06.2020
690 Clouds 22 1004 94 6000 3.6 40 21:58 26.06.2020
691 Clouds 22 1004 94 7000 4.1 40 21:39 26.06.2020
692 Clouds 23 1004 94 7000 4.1 40 21:20 26.06.2020
693 Clouds 23 1004 94 6000 4.6 50 20:47 26.06.2020
694 Clouds 24 1003 94 6000 6.2 50 20:27 26.06.2020
695 Clouds 24 1003 94 8000 5.1 60 19:55 26.06.2020
696 Clouds 24 1003 94 10000 2.1 20 19:37 26.06.2020
697 Clouds 24 1003 94 10000 2.1 20 19:18 26.06.2020
698 Clouds 25 1003 94 10000 2.1 200 18:41 26.06.2020
699 Clouds 25 1003 100 10000 3.1 170 18:23 26.06.2020
700 Clouds 25 1003 100 10000 3.1 170 17:45 26.06.2020
701 Clouds 25 1003 100 10000 3.1 170 17:45 26.06.2020
702 Clouds 25 1003 94 10000 4.1 180 17:27 26.06.2020
703 Clouds 26 1003 94 10000 3.6 180 16:59 26.06.2020
704 Clouds 26 1003 88 10000 4.1 180 16:41 26.06.2020
705 Clouds 26 1003 88 10000 4.1 180 16:22 26.06.2020
706 Clouds 26 1003 83 10000 5.1 190 15:41 26.06.2020
707 Clouds 27 1003 88 10000 6.7 200 15:22 26.06.2020
708 Clouds 27 1003 88 10000 5.1 190 14:58 26.06.2020
709 Clouds 27 1003 88 10000 5.1 200 14:39 26.06.2020
710 Clouds 27 1003 88 10000 5.1 200 14:21 26.06.2020
711 Clouds 27 1003 88 10000 4.6 200 13:47 26.06.2020
712 Clouds 27 1003 83 10000 5.1 190 13:25 26.06.2020
713 Clouds 27 1003 88 10000 6.2 200 12:59 26.06.2020
714 Clouds 27 1002 88 10000 6.7 190 12:40 26.06.2020
715 Clouds 28 1002 88 10000 6.7 190 12:22 26.06.2020
716 Clouds 28 1003 88 10000 7.2 200 11:57 26.06.2020
717 Clouds 29 1002 83 10000 6.7 200 11:39 26.06.2020
718 Clouds 29 1002 70 10000 1.5 350 11:20 26.06.2020
719 Clouds 29 1002 70 10000 1.5 350 10:57 26.06.2020
720 Clouds 30 1002 70 10000 1.5 350 10:38 26.06.2020
721 Clouds 29 1002 79 10000 3.1 190 10:18 26.06.2020
722 Clouds 30 1002 79 10000 3.1 190 09:43 26.06.2020
723 Clouds 29 1002 79 10000 3.1 190 09:23 26.06.2020
724 Rain 30 1002 79 10000 3.1 150 08:55 26.06.2020
725 Rain 31 1002 79 10000 3.1 150 08:28 26.06.2020
726 Clouds 29 1002 88 10000 2.1 120 07:53 26.06.2020
727 Clouds 30 1002 88 10000 2.1 120 07:24 26.06.2020
728 Mist 30 1003 83 5000 3.6 140 06:58 26.06.2020
729 Mist 30 1003 83 5000 3.6 140 06:36 26.06.2020
730 Mist 29 1003 83 5000 3.6 140 06:18 26.06.2020
731 Mist 28 1003 83 4000 2.1 130 05:40 26.06.2020
732 Clouds 26 1004 88 6000 1.5 120 03:52 26.06.2020
733 Mist 22 1005 88 5000 1.5 80 02:22 26.06.2020
734 Mist 21 1006 94 5000 2.1 70 01:19 26.06.2020
735 Mist 21 1006 94 5000 2.1 40 00:40 26.06.2020
736 Mist 20 1007 100 5000 2.6 40 00:19 26.06.2020
737 Mist 20 1007 100 5000 2.6 40 23:42 25.06.2020
738 Clouds 20 1006 100 6000 4.1 40 23:18 25.06.2020
739 Clouds 20 1006 100 6000 4.1 40 22:56 25.06.2020
740 Clouds 20 1006 100 7000 3.6 50 22:37 25.06.2020
741 Clouds 20 1006 100 7000 3.6 50 22:18 25.06.2020
742 Clouds 20 1006 100 7000 4.1 40 21:56 25.06.2020
743 Clouds 20 1006 100 8000 4.1 40 21:38 25.06.2020
744 Clouds 20 1006 100 8000 4.1 40 21:19 25.06.2020
745 Clouds 20 1006 94 8000 4.6 50 21:19 25.06.2020
746 Clouds 20 1006 94 8000 4.6 60 20:44 25.06.2020
747 Clouds 21 1006 94 8000 4.6 60 20:24 25.06.2020
748 Clouds 20 1006 94 6000 5.1 60 19:58 25.06.2020
749 Rain 21 1006 94 5000 4.6 80 19:40 25.06.2020
750 Rain 21 1006 94 5000 4.6 80 19:40 25.06.2020
751 Rain 21 1006 94 4000 5.1 90 19:19 25.06.2020
752 Rain 21 1006 94 4000 5.1 90 18:57 25.06.2020
753 Mist 21 1006 94 3500 5.1 100 18:37 25.06.2020
754 Rain 21 1006 94 3500 5.1 100 18:19 25.06.2020
755 Rain 21 1007 94 5000 4.6 90 17:41 25.06.2020
756 Rain 21 1007 94 5000 4.6 90 17:19 25.06.2020
757 Rain 21 1007 94 3000 4.6 90 16:57 25.06.2020
758 Rain 21 1008 94 4000 4.6 80 16:37 25.06.2020
759 Rain 21 1008 94 4000 4.6 80 16:18 25.06.2020
760 Rain 21 1008 94 10000 5.1 70 15:41 25.06.2020
761 Rain 22 1008 94 10000 5.1 70 15:21 25.06.2020
762 Rain 22 1008 100 10000 5.1 70 14:44 25.06.2020
763 Clouds 22 1008 94 10000 4.6 70 14:25 25.06.2020
764 Rain 22 1008 94 10000 3.6 80 13:57 25.06.2020
765 Rain 22 1008 88 10000 2.6 80 13:38 25.06.2020
766 Rain 22 1008 88 10000 1.5 100 13:19 25.06.2020
767 Rain 22 1007 88 10000 2.1 80 12:46 25.06.2020
768 Rain 23 1007 88 10000 2.1 80 12:21 25.06.2020
769 Clouds 23 1008 88 10000 1.5 110 11:58 25.06.2020
770 Clouds 23 1007 88 10000 2.1 110 11:40 25.06.2020
771 Clouds 23 1007 78 10000 1.5 130 11:21 25.06.2020
772 Clouds 23 1007 78 10000 1.5 130 10:42 25.06.2020
773 Clouds 23 1007 78 10000 1.5 130 10:24 25.06.2020
774 Clouds 23 1007 88 10000 3.1 130 09:42 25.06.2020
775 Clouds 24 1007 88 10000 3.1 130 09:23 25.06.2020
776 Clouds 24 1007 88 10000 3.1 130 09:23 25.06.2020
777 Clouds 23 1007 88 10000 2.6 40 08:59 25.06.2020
778 Clouds 24 1007 88 10000 2.6 40 08:40 25.06.2020
779 Clouds 23 1007 88 10000 2.6 40 08:18 25.06.2020
780 Clouds 23 1008 94 10000 2.6 40 07:42 25.06.2020
781 Clouds 23 1008 94 10000 2.6 40 07:24 25.06.2020
782 Clouds 22 1008 88 10000 3.1 40 06:44 25.06.2020
783 Rain 21 1008 88 5000 3.1 30 06:24 25.06.2020
784 Rain 21 1008 88 5000 3.1 30 05:32 25.06.2020
785 Rain 20 1009 94 10000 3.1 10 03:49 25.06.2020
786 Rain 20 1010 100 10000 3.1 360 02:58 25.06.2020
787 Clouds 20 1010 100 10000 3.1 360 02:40 25.06.2020
788 Rain 19 1011 100 4000 2.6 340 01:43 25.06.2020
789 Rain 19 1010 100 3000 6.2 20 00:52 25.06.2020
790 Rain 19 1010 100 3000 6.2 20 00:25 25.06.2020
791 Rain 19 1010 100 3200 6.2 20 23:59 24.06.2020
792 Rain 19 1011 93 2400 5.7 10 23:39 24.06.2020
793 Rain 19 1011 93 2400 5.7 10 23:21 24.06.2020
794 Rain 19 1012 93 2500 5.1 10 22:54 24.06.2020
795 Rain 19 1011 93 3500 4.1 10 22:36 24.06.2020
796 Mist 19 1011 93 3500 4.1 10 22:18 24.06.2020
797 Mist 19 1011 93 3500 3.6 30 21:54 24.06.2020
798 Rain 19 1011 100 5000 4.6 40 21:36 24.06.2020
799 Rain 19 1011 100 5000 4.6 40 21:18 24.06.2020
800 Rain 19 1011 100 5000 5.7 50 20:41 24.06.2020
801 Rain 19 1011 100 5000 5.7 50 20:22 24.06.2020
802 Rain 19 1011 100 7000 5.7 50 19:59 24.06.2020
803 Rain 19 1011 94 7000 6.2 70 19:39 24.06.2020
804 Rain 20 1011 94 8000 5.7 70 19:21 24.06.2020
805 Rain 20 1011 94 8000 5.7 70 18:59 24.06.2020
806 Rain 20 1012 94 7000 5.7 70 18:40 24.06.2020
807 Rain 20 1012 94 7000 5.7 70 18:22 24.06.2020
808 Rain 20 1012 94 9000 5.1 60 17:58 24.06.2020
809 Clouds 20 1013 94 9000 5.7 70 17:40 24.06.2020
810 Clouds 20 1013 94 9000 5.7 70 17:19 24.06.2020
811 Clouds 20 1013 94 9000 5.7 60 16:56 24.06.2020
812 Clouds 20 1013 94 9000 5.7 60 16:56 24.06.2020
813 Clouds 21 1013 94 10000 5.7 70 16:38 24.06.2020
814 Clouds 21 1013 94 10000 5.7 70 16:38 24.06.2020
815 Rain 21 1013 94 10000 5.7 70 16:20 24.06.2020
816 Rain 20 1013 94 8000 6.2 70 15:56 24.06.2020
817 Rain 21 1013 94 8000 5.7 70 15:38 24.06.2020
818 Rain 21 1013 94 8000 5.7 70 15:19 24.06.2020
819 Clouds 22 1013 88 10000 5.1 70 14:43 24.06.2020
820 Clouds 22 1013 88 10000 5.1 70 14:24 24.06.2020
821 Clouds 22 1013 88 10000 5.7 80 13:43 24.06.2020
822 Clouds 22 1013 88 10000 5.7 80 13:23 24.06.2020
823 Clouds 22 1012 88 10000 5.7 80 12:59 24.06.2020
824 Clouds 23 1012 83 10000 5.7 90 12:41 24.06.2020
825 Clouds 23 1013 83 10000 4.6 80 12:20 24.06.2020
826 Clouds 23 1013 83 10000 4.6 80 11:56 24.06.2020
827 Clouds 24 1012 83 10000 3.1 90 11:38 24.06.2020
828 Clouds 24 1012 73 10000 5.1 150 11:18 24.06.2020
829 Clouds 24 1012 73 10000 5.1 150 10:43 24.06.2020
830 Clouds 24 1012 73 10000 5.1 150 10:19 24.06.2020
831 Clouds 25 1012 78 10000 4.6 100 09:43 24.06.2020
832 Clouds 25 1012 78 10000 4.6 100 09:22 24.06.2020
833 Clouds 26 1012 74 10000 5.7 90 08:44 24.06.2020
834 Clouds 26 1012 74 10000 5.7 90 08:26 24.06.2020
835 Clouds 26 1012 78 10000 5.7 80 07:55 24.06.2020
836 Clouds 25 1012 78 10000 5.7 80 07:37 24.06.2020
837 Clouds 25 1012 73 10000 4.6 70 07:18 24.06.2020
838 Clouds 25 1012 73 10000 4.6 70 06:39 24.06.2020
839 Clouds 25 1013 78 10000 4.6 50 06:21 24.06.2020
840 Clouds 24 1013 78 10000 4.6 50 05:32 24.06.2020
841 Rain 23 1013 88 10000 4.1 30 04:37 24.06.2020
842 Clouds 22 1013 83 10000 4.6 50 03:37 24.06.2020
843 Rain 22 1014 94 6000 2.6 30 02:52 24.06.2020
844 Rain 22 1013 88 10000 4.6 60 01:59 24.06.2020
845 Clouds 22 1013 94 10000 5.1 40 00:51 24.06.2020
846 Clouds 22 1013 94 10000 5.1 40 00:33 24.06.2020
847 Clouds 22 1013 94 10000 5.1 40 23:48 23.06.2020
848 Clouds 22 1012 94 10000 5.1 40 23:21 23.06.2020
849 Clouds 22 1013 94 10000 5.7 30 22:58 23.06.2020
850 Rain 22 1012 94 8000 5.1 40 22:40 23.06.2020
851 Rain 22 1012 94 8000 5.1 40 22:18 23.06.2020
852 Rain 22 1012 94 8000 4.1 40 21:54 23.06.2020
853 Clouds 22 1012 100 10000 4.1 50 21:36 23.06.2020
854 Clouds 22 1012 100 10000 4.1 50 21:18 23.06.2020
855 Clouds 22 1012 100 7000 3.6 70 20:54 23.06.2020
856 Mist 22 1012 100 5000 3.1 70 20:36 23.06.2020
857 Mist 22 1013 100 4500 3.1 80 20:18 23.06.2020
858 Mist 22 1012 100 7000 4.1 80 19:41 23.06.2020
859 Clouds 22 1012 100 8000 3.6 70 19:23 23.06.2020
860 Clouds 22 1012 100 10000 2.6 70 18:38 23.06.2020
861 Clouds 23 1012 100 10000 2.1 60 18:19 23.06.2020
862 Clouds 23 1012 94 10000 1.5 100 17:43 23.06.2020
863 Clouds 23 1012 94 10000 1.5 100 17:25 23.06.2020
864 Clouds 23 1013 100 10000 1.5 120 16:57 23.06.2020
865 Clouds 23 1012 94 10000 2.6 150 16:38 23.06.2020
866 Clouds 23 1012 94 10000 2.6 150 16:38 23.06.2020
867 Clouds 23 1012 94 10000 2.6 150 16:20 23.06.2020
868 Clouds 23 1013 94 10000 2.6 140 15:57 23.06.2020
869 Clouds 23 1012 94 10000 2.1 140 15:39 23.06.2020
870 Clouds 23 1012 94 10000 2.1 140 15:18 23.06.2020
871 Clouds 24 1012 83 10000 3.6 170 14:43 23.06.2020
872 Clouds 24 1013 83 10000 3.6 180 14:20 23.06.2020
873 Clouds 24 1012 83 10000 4.6 180 13:57 23.06.2020
874 Clouds 24 1012 83 10000 4.6 180 13:39 23.06.2020
875 Clouds 24 1012 83 10000 3.6 180 13:20 23.06.2020
876 Clouds 25 1011 78 10000 4.6 200 12:45 23.06.2020
877 Clouds 25 1011 78 10000 4.1 200 12:23 23.06.2020
878 Clouds 26 1011 78 10000 4.1 200 11:58 23.06.2020
879 Clouds 26 1010 78 10000 5.1 200 11:40 23.06.2020
880 Clouds 26 1010 78 10000 5.1 200 11:19 23.06.2020
881 Clouds 26 1010 69 10000 3.6 190 10:57 23.06.2020
882 Clouds 26 1010 69 10000 3.6 190 10:39 23.06.2020
883 Clouds 27 1010 69 10000 3.6 190 10:21 23.06.2020
884 Clouds 27 1010 69 10000 3.6 190 10:21 23.06.2020
885 Clouds 27 1010 74 10000 3.1 140 09:43 23.06.2020
886 Clouds 27 1010 65 10000 3.1 170 09:21 23.06.2020
887 Clouds 27 1010 69 10000 3.1 120 08:59 23.06.2020
888 Clouds 27 1010 69 10000 3.1 120 08:41 23.06.2020
889 Clouds 27 1010 69 10000 3.1 120 08:22 23.06.2020
890 Clouds 27 1010 74 10000 3.1 140 07:43 23.06.2020
891 Clouds 27 1010 78 10000 3.1 110 07:24 23.06.2020
892 Clouds 26 1010 78 10000 3.1 110 06:51 23.06.2020
893 Clouds 26 1010 78 10000 3.1 110 06:31 23.06.2020
894 Clouds 25 1010 83 10000 4.1 130 05:48 23.06.2020
895 Clouds 25 1010 83 10000 3.1 140 04:41 23.06.2020
896 Clouds 24 1010 83 10000 2.1 130 03:20 23.06.2020
897 Rain 22 1010 94 10000 0.5 0 02:46 23.06.2020
898 Rain 22 1010 94 10000 0.5 0 02:27 23.06.2020
899 Rain 22 1010 94 10000 3.1 180 01:44 23.06.2020
900 Rain 21 1010 94 10000 3.1 180 01:21 23.06.2020
901 Mist 20 1010 100 4000 2.1 240 00:40 23.06.2020
902 Rain 20 1009 94 6000 3.1 270 00:19 23.06.2020
903 Rain 19 1009 100 10000 1 0 23:39 22.06.2020
904 Rain 19 1009 100 10000 1 0 23:19 22.06.2020
905 Rain 19 1009 100 10000 1.5 310 22:59 22.06.2020
906 Rain 19 1008 100 5000 2.6 290 22:40 22.06.2020
907 Rain 19 1008 100 5000 2.6 290 22:20 22.06.2020
908 Rain 19 1008 93 3500 3.1 280 21:58 22.06.2020
909 Rain 19 1008 93 3500 3.1 280 21:58 22.06.2020
910 Rain 19 1007 93 10000 2.6 350 21:40 22.06.2020
911 Rain 19 1007 93 10000 2.6 350 21:21 22.06.2020
912 Rain 19 1007 93 7000 6.7 360 20:58 22.06.2020
913 Rain 19 1006 93 10000 8.7 360 20:39 22.06.2020
914 Rain 19 1006 93 10000 8.7 360 20:20 22.06.2020
915 Rain 19 1007 88 10000 7.7 340 19:44 22.06.2020
916 Rain 19 1007 88 10000 7.7 340 19:19 22.06.2020
917 Rain 19 1005 88 10000 9.3 340 18:57 22.06.2020
918 Rain 19 1005 88 10000 9.3 340 18:37 22.06.2020
919 Rain 19 1005 93 10000 10.3 340 18:18 22.06.2020
920 Rain 19 1005 93 10000 10.3 340 17:55 22.06.2020
921 Rain 19 1006 88 10000 10.8 350 17:37 22.06.2020
922 Rain 20 1006 82 10000 10.8 350 17:18 22.06.2020
923 Clouds 20 1005 88 10000 11.3 350 16:43 22.06.2020
924 Clouds 19 1005 88 10000 11.3 350 16:19 22.06.2020
925 Clouds 19 1006 88 10000 10.3 350 15:57 22.06.2020
926 Clouds 19 1007 89 0 1.34 275 15:39 22.06.2020
927 Clouds 19 1007 90 0 2.24 287 15:21 22.06.2020
928 Rain 19 1006 93 6000 11.3 340 14:39 22.06.2020
929 Rain 18 1006 100 6000 10.3 330 14:20 22.06.2020
930 Rain 18 1006 100 6000 10.3 330 13:58 22.06.2020
931 Rain 18 1005 93 5000 12.3 350 13:38 22.06.2020
932 Rain 19 1005 93 5000 12.3 340 13:20 22.06.2020
933 Rain 19 1005 93 6000 11.3 340 12:43 22.06.2020
934 Rain 19 1005 93 6000 11.3 340 12:23 22.06.2020
935 Rain 19 1005 93 5000 10.8 350 11:58 22.06.2020
936 Rain 19 1005 93 5000 10.8 350 11:37 22.06.2020
937 Rain 19 1006 88 10000 5.1 330 11:18 22.06.2020
938 Rain 19 1006 88 10000 5.1 330 10:55 22.06.2020
939 Rain 19 1006 88 10000 5.1 330 10:36 22.06.2020
940 Rain 19 1006 93 2500 6.2 320 10:18 22.06.2020
941 Rain 19 1006 93 3000 5.1 320 09:54 22.06.2020
942 Rain 19 1006 93 3000 5.1 320 09:36 22.06.2020
943 Rain 19 1006 93 3500 8.2 360 09:18 22.06.2020
944 Mist 19 1006 100 2500 6.7 360 08:39 22.06.2020
945 Mist 20 1007 94 2500 6.7 360 08:21 22.06.2020
946 Mist 20 1007 94 2500 6.7 360 08:21 22.06.2020
947 Rain 20 1007 94 2500 6.7 360 07:53 22.06.2020
948 Rain 20 1007 94 3000 5.7 360 07:33 22.06.2020
949 Rain 20 1008 94 2500 5.1 10 06:47 22.06.2020
950 Rain 20 1008 94 2500 5.1 10 06:27 22.06.2020
951 Mist 20 1009 94 4000 8.2 350 05:58 22.06.2020
952 Rain 21 1008 94 4000 4.1 10 05:33 22.06.2020
953 Rain 21 1010 94 9000 3.6 10 02:58 22.06.2020
954 Rain 20 1009 94 10000 8.7 20 01:37 22.06.2020
955 Rain 21 1010 88 10000 7.7 10 00:41 22.06.2020
956 Rain 21 1010 88 10000 7.2 20 00:18 22.06.2020
957 Rain 21 1010 88 10000 7.2 20 23:54 21.06.2020
958 Rain 21 1010 88 10000 6.7 10 23:36 21.06.2020
959 Clouds 20 1011 94 10000 7.2 10 23:18 21.06.2020
960 Clouds 20 1011 94 10000 7.2 10 22:54 21.06.2020
961 Clouds 21 1011 88 10000 7.2 10 22:36 21.06.2020
962 Clouds 20 1011 94 10000 6.2 20 22:18 21.06.2020
963 Clouds 20 1010 94 10000 5.7 20 21:42 21.06.2020
964 Clouds 20 1010 94 10000 5.7 20 21:22 21.06.2020
965 Clouds 20 1011 94 10000 5.1 20 20:59 21.06.2020
966 Clouds 20 1011 94 10000 5.1 30 20:38 21.06.2020
967 Clouds 20 1011 88 10000 5.1 30 20:19 21.06.2020
968 Clouds 21 1011 88 10000 5.1 30 19:57 21.06.2020
969 Clouds 21 1011 94 10000 5.7 20 19:39 21.06.2020
970 Clouds 21 1012 88 10000 5.1 20 19:20 21.06.2020
971 Clouds 21 1012 88 10000 5.1 20 18:55 21.06.2020
972 Clouds 21 1012 94 10000 5.1 40 18:37 21.06.2020
973 Clouds 21 1012 94 10000 5.1 30 18:19 21.06.2020
974 Clouds 21 1012 94 10000 5.1 40 18:19 21.06.2020
975 Clouds 22 1012 88 10000 4.6 40 17:40 21.06.2020
976 Clouds 22 1012 88 10000 4.6 60 17:21 21.06.2020
977 Clouds 22 1012 88 10000 4.6 60 16:57 21.06.2020
978 Clouds 22 1012 88 10000 4.1 90 16:39 21.06.2020
979 Clouds 22 1012 88 10000 4.1 100 16:20 21.06.2020
980 Clouds 22 1012 78 10000 4.1 100 15:39 21.06.2020
981 Clouds 23 1012 78 10000 4.1 100 15:21 21.06.2020
982 Clouds 23 1013 78 10000 4.6 110 14:55 21.06.2020
983 Clouds 23 1012 83 10000 5.1 120 14:37 21.06.2020
984 Clouds 23 1012 78 10000 5.7 120 14:18 21.06.2020
985 Rain 23 1012 78 10000 5.1 120 13:43 21.06.2020
986 Rain 22 1012 78 10000 5.1 120 13:25 21.06.2020
987 Clouds 23 1012 83 10000 5.1 120 12:59 21.06.2020
988 Rain 23 1011 83 10000 4.6 110 12:41 21.06.2020
989 Rain 22 1011 83 10000 4.6 110 12:23 21.06.2020
990 Clouds 22 1011 94 10000 5.7 50 11:43 21.06.2020
991 Clouds 23 1011 69 10000 1.5 130 11:24 21.06.2020
992 Clouds 23 1011 69 10000 1.5 130 10:59 21.06.2020
993 Clouds 23 1011 69 10000 1.5 130 10:40 21.06.2020
994 Clouds 23 1011 69 10000 1.5 130 10:22 21.06.2020
995 Rain 23 1011 88 10000 3.1 110 09:55 21.06.2020
996 Rain 23 1011 88 10000 3.1 110 09:36 21.06.2020
997 Rain 23 1011 83 10000 3.1 180 09:18 21.06.2020
998 Rain 24 1011 83 10000 3.1 180 08:54 21.06.2020
999 Rain 24 1011 83 10000 3.1 180 08:36 21.06.2020
1000 Rain 24 1011 78 10000 1 0 08:18 21.06.2020
1001 Rain 24 1011 78 10000 1 0 07:40 21.06.2020
1002 Rain 24 1011 78 10000 1 0 07:21 21.06.2020
1003 Rain 24 1011 78 10000 4.1 100 06:48 21.06.2020
1004 Clouds 25 1011 73 10000 2.1 350 05:59 21.06.2020
1005 Clouds 25 1011 73 10000 2.1 350 05:25 21.06.2020
1006 Clouds 22 1012 78 10000 4.1 10 03:21 21.06.2020
1007 Rain 21 1012 82 10000 2.6 350 02:54 21.06.2020
1008 Rain 21 1012 83 10000 6.2 70 01:49 21.06.2020
1009 Rain 20 1012 88 10000 7.7 80 01:21 21.06.2020
1010 Rain 21 1012 88 10000 7.7 80 00:56 21.06.2020
1011 Rain 21 1011 88 10000 7.7 80 00:38 21.06.2020
1012 Rain 21 1011 88 10000 7.7 80 00:18 21.06.2020
1013 Clouds 22 1011 88 10000 5.7 90 23:43 20.06.2020
1014 Clouds 22 1011 88 10000 5.7 90 23:21 20.06.2020
1015 Clouds 22 1011 88 10000 3.6 100 22:55 20.06.2020
1016 Clouds 22 1010 88 10000 3.1 130 22:37 20.06.2020
1017 Clouds 22 1011 83 10000 3.1 150 22:18 20.06.2020
1018 Clouds 22 1011 83 10000 3.1 150 22:18 20.06.2020
1019 Clouds 22 1011 83 10000 3.1 150 21:56 20.06.2020
1020 Clouds 22 1010 88 10000 3.1 140 21:38 20.06.2020
1021 Clouds 22 1010 88 10000 3.1 130 21:19 20.06.2020
1022 Clouds 23 1010 88 10000 3.1 130 20:56 20.06.2020
1023 Clouds 23 1010 83 10000 3.6 130 20:38 20.06.2020
1024 Clouds 23 1010 83 10000 3.6 160 20:19 20.06.2020
1025 Clouds 23 1010 83 10000 3.6 160 20:19 20.06.2020
1026 Clouds 23 1010 78 10000 4.1 170 19:43 20.06.2020
1027 Rain 23 1011 77 0 0.89 342 19:23 20.06.2020
1028 Clouds 23 1010 78 10000 4.6 170 18:55 20.06.2020
1029 Clouds 22 1010 83 10000 4.1 160 18:37 20.06.2020
1030 Clouds 23 1010 83 10000 4.1 160 18:19 20.06.2020
1031 Clouds 23 1010 83 10000 4.1 160 17:56 20.06.2020
1032 Clouds 23 1010 78 10000 4.1 150 17:37 20.06.2020
1033 Clouds 23 1010 78 10000 6.2 170 17:18 20.06.2020
1034 Clouds 23 1011 78 10000 5.7 170 16:40 20.06.2020
1035 Clouds 23 1011 78 10000 5.7 170 16:19 20.06.2020
1036 Clouds 23 1011 78 10000 5.7 170 16:19 20.06.2020
1037 Clouds 23 1009 78 10000 5.7 190 15:57 20.06.2020
1038 Clouds 23 1009 78 10000 5.7 190 15:38 20.06.2020
1039 Clouds 23 1009 78 10000 6.2 190 15:18 20.06.2020
1040 Clouds 24 1009 78 10000 7.2 200 14:42 20.06.2020
1041 Clouds 24 1009 73 10000 7.7 200 14:20 20.06.2020
1042 Rain 24 1009 69 10000 7.2 190 13:42 20.06.2020
1043 Rain 24 1009 69 10000 7.2 190 13:20 20.06.2020
1044 Clouds 24 1008 64 10000 7.7 200 12:56 20.06.2020
1045 Clouds 24 1008 64 10000 7.7 200 12:38 20.06.2020
1046 Clouds 25 1008 61 10000 7.7 210 12:19 20.06.2020
1047 Clouds 25 1007 61 10000 7.7 200 11:40 20.06.2020
1048 Clouds 25 1007 69 10000 4.1 200 11:21 20.06.2020
1049 Clouds 26 1007 69 10000 4.1 200 10:59 20.06.2020
1050 Clouds 26 1007 69 10000 4.1 200 10:41 20.06.2020
1051 Clouds 26 1007 69 10000 4.1 200 10:20 20.06.2020
1052 Clouds 27 1007 73 10000 4.6 190 09:43 20.06.2020
1053 Clouds 27 1007 73 10000 4.6 190 09:25 20.06.2020
1054 Clouds 27 1007 69 10000 4.6 180 08:59 20.06.2020
1055 Clouds 27 1007 69 10000 4.6 180 08:40 20.06.2020
1056 Clouds 28 1007 69 10000 4.6 180 08:22 20.06.2020
1057 Clouds 29 1006 69 10000 5.7 170 07:51 20.06.2020
1058 Clouds 29 1006 69 10000 5.7 170 07:50 20.06.2020
1059 Clouds 28 1006 69 10000 5.7 170 07:26 20.06.2020
1060 Clouds 28 1006 61 10000 5.1 170 06:49 20.06.2020
1061 Clouds 28 1007 65 10000 4.6 190 06:22 20.06.2020
1062 Clouds 28 1007 65 10000 4.6 190 05:48 20.06.2020
1063 Clouds 27 1007 73 10000 4.6 160 04:29 20.06.2020
1064 Clouds 24 1007 78 10000 3.6 150 02:20 20.06.2020
1065 Clouds 25 1006 78 10000 1 80 01:45 20.06.2020
1066 Clouds 24 1006 78 10000 1 0 00:50 20.06.2020
1067 Clouds 23 1006 83 10000 1 0 00:20 20.06.2020
1068 Clouds 21 1005 88 10000 0.5 0 23:48 19.06.2020
1069 Clouds 21 1005 88 10000 0.5 0 23:21 19.06.2020
1070 Clouds 20 1005 94 10000 1 280 22:59 19.06.2020
1071 Clouds 19 1005 93 10000 1 250 22:40 19.06.2020
1072 Clouds 19 1004 100 10000 1.5 260 22:22 19.06.2020
1073 Clouds 18 1004 100 10000 1.5 260 21:58 19.06.2020
1074 Clouds 19 1004 93 10000 1.5 320 21:38 19.06.2020
1075 Clouds 19 1004 88 10000 1.5 300 21:18 19.06.2020
1076 Clouds 19 1004 88 10000 1.5 300 20:58 19.06.2020
1077 Clouds 19 1004 93 10000 3.6 340 20:39 19.06.2020
1078 Clouds 20 1003 88 10000 4.1 340 20:20 19.06.2020
1079 Clouds 20 1003 88 10000 4.1 340 19:55 19.06.2020
1080 Clouds 20 1003 88 10000 3.6 330 19:37 19.06.2020
1081 Clouds 20 1003 88 10000 3.6 330 19:37 19.06.2020
1082 Clouds 20 1003 88 10000 5.1 350 19:18 19.06.2020
1083 Clouds 20 1003 88 10000 5.7 360 18:40 19.06.2020
1084 Clouds 20 1003 88 10000 6.2 360 18:21 19.06.2020
1085 Clouds 20 1003 88 10000 6.2 360 17:55 19.06.2020
1086 Clouds 20 1002 88 10000 6.7 350 17:36 19.06.2020
1087 Clouds 20 1003 88 10000 6.7 350 17:18 19.06.2020
1088 Clouds 20 1002 94 10000 6.2 10 16:41 19.06.2020
1089 Clouds 20 1002 94 10000 6.2 10 16:23 19.06.2020
1090 Rain 20 1001 88 10000 7.7 20 15:59 19.06.2020
1091 Rain 20 1001 94 10000 7.7 10 15:40 19.06.2020
1092 Rain 20 1001 94 10000 7.7 10 15:20 19.06.2020
1093 Rain 20 1002 94 10000 6.7 10 14:55 19.06.2020
1094 Rain 20 1002 94 8000 6.7 20 14:37 19.06.2020
1095 Rain 20 1002 94 7000 5.7 360 14:18 19.06.2020
1096 Rain 20 1001 94 7000 6.7 360 13:42 19.06.2020
1097 Rain 20 1001 94 7000 6.7 360 13:24 19.06.2020
1098 Rain 20 1000 94 5000 5.7 20 12:47 19.06.2020
1099 Rain 20 1000 94 5000 5.7 20 12:22 19.06.2020
1100 Rain 20 1000 94 5000 5.7 10 11:57 19.06.2020
1101 Rain 20 1000 94 5000 5.1 360 11:38 19.06.2020
1102 Rain 20 1000 93 5000 2.6 340 11:18 19.06.2020
1103 Rain 19 1000 93 5000 2.6 340 10:45 19.06.2020
1104 Rain 19 1000 93 5000 2.6 340 10:26 19.06.2020
1105 Rain 19 999 100 3000 2.6 360 09:59 19.06.2020
1106 Rain 20 999 100 3000 2.6 360 09:41 19.06.2020
1107 Rain 20 999 94 5000 2.6 360 09:20 19.06.2020
1108 Rain 20 999 94 3000 2.1 360 08:44 19.06.2020
1109 Mist 20 999 94 3000 2.1 360 08:26 19.06.2020
1110 Rain 20 999 93 6000 3.1 360 07:56 19.06.2020
1111 Rain 20 999 100 4500 3.6 360 07:38 19.06.2020
1112 Rain 20 999 100 4500 3.6 360 07:20 19.06.2020
1113 Rain 19 1000 93 6000 3.1 360 06:28 19.06.2020
1114 Rain 19 1000 93 6000 2.6 350 05:46 19.06.2020
1115 Rain 19 1001 93 10000 3.6 360 04:27 19.06.2020
1116 Rain 19 1002 93 4500 3.1 10 02:52 19.06.2020
1117 Rain 19 1002 93 4000 4.1 20 00:59 19.06.2020
1118 Rain 19 1001 93 4000 6.7 50 00:41 19.06.2020
1119 Rain 19 1001 93 5000 5.1 70 00:21 19.06.2020
1120 Rain 19 1002 93 7000 5.7 70 23:42 18.06.2020
1121 Rain 19 1002 93 7000 5.7 70 23:24 18.06.2020
1122 Rain 19 1002 93 7000 5.7 90 22:59 18.06.2020
1123 Rain 19 1002 93 8000 4.6 120 22:39 18.06.2020
1124 Rain 19 1003 94 7000 5.7 130 22:19 18.06.2020
1125 Rain 19 1003 88 8000 4.6 100 21:55 18.06.2020
1126 Rain 19 1003 88 8000 4.6 100 21:36 18.06.2020
1127 Rain 19 1003 88 8000 4.6 100 21:18 18.06.2020
1128 Rain 19 1003 93 4000 4.6 110 20:40 18.06.2020
1129 Rain 19 1003 100 4000 3.6 120 20:20 18.06.2020
1130 Rain 20 1003 93 4000 5.1 110 19:56 18.06.2020
1131 Rain 20 1003 93 4000 5.1 110 19:37 18.06.2020
1132 Mist 20 1003 94 5000 3.6 60 19:18 18.06.2020
1133 Rain 21 1003 94 10000 1 120 18:38 18.06.2020
1134 Rain 21 1004 94 10000 0.5 300 18:19 18.06.2020
1135 Rain 21 1004 94 10000 1 320 17:45 18.06.2020
1136 Rain 21 1004 94 10000 1 320 17:26 18.06.2020
1137 Rain 21 1004 94 10000 1 320 17:26 18.06.2020
1138 Rain 21 1005 94 10000 2.6 280 16:57 18.06.2020
1139 Rain 21 1005 94 10000 1.5 300 16:39 18.06.2020
1140 Rain 21 1006 94 10000 1 330 16:20 18.06.2020
1141 Rain 21 1006 94 10000 1.5 210 15:57 18.06.2020
1142 Rain 21 1006 94 10000 1.5 210 15:39 18.06.2020
1143 Rain 21 1006 94 10000 0.5 0 15:19 18.06.2020
1144 Rain 21 1006 94 10000 0.5 0 14:56 18.06.2020
1145 Rain 22 1006 88 10000 2.1 220 14:37 18.06.2020
1146 Rain 22 1006 88 10000 2.6 210 14:19 18.06.2020
1147 Rain 22 1006 88 10000 3.1 200 13:47 18.06.2020
1148 Rain 22 1006 88 10000 4.1 190 13:28 18.06.2020
1149 Rain 22 1006 88 10000 4.1 190 12:57 18.06.2020
1150 Rain 23 1006 83 10000 4.1 200 12:39 18.06.2020
1151 Rain 23 1006 83 10000 4.6 200 12:20 18.06.2020
1152 Rain 23 1006 83 10000 4.6 200 11:57 18.06.2020
1153 Rain 23 1006 83 10000 4.6 210 11:37 18.06.2020
1154 Rain 23 1006 83 10000 2.1 200 11:18 18.06.2020
1155 Rain 24 1006 83 10000 2.1 200 10:39 18.06.2020
1156 Rain 24 1006 83 10000 4.1 200 10:18 18.06.2020
1157 Rain 24 1006 83 10000 4.1 200 09:45 18.06.2020
1158 Rain 24 1006 83 10000 4.1 200 09:27 18.06.2020
1159 Clouds 25 1006 73 10000 2.6 170 08:57 18.06.2020
1160 Clouds 25 1006 73 10000 2.6 170 08:36 18.06.2020
1161 Clouds 25 1006 78 10000 1.5 160 08:18 18.06.2020
1162 Clouds 25 1006 78 10000 1.5 160 07:44 18.06.2020
1163 Clouds 25 1006 73 10000 1.5 160 07:23 18.06.2020
1164 Clouds 26 1006 73 10000 1.5 160 06:37 18.06.2020
1165 Clouds 25 1007 73 10000 3.1 140 04:27 18.06.2020
1166 Clouds 25 1007 73 10000 3.1 130 03:31 18.06.2020
1167 Clouds 24 1008 88 10000 3.1 50 01:44 18.06.2020
1168 Clouds 23 1008 88 10000 3.1 50 01:20 18.06.2020
1169 Clouds 23 1008 88 10000 3.1 50 00:52 18.06.2020
1170 Clouds 23 1008 88 10000 3.1 60 00:30 18.06.2020
1171 Clouds 22 1008 88 10000 4.1 60 23:55 17.06.2020
1172 Clouds 22 1008 94 10000 3.1 60 23:36 17.06.2020
1173 Clouds 22 1008 88 10000 3.6 70 23:18 17.06.2020
1174 Clouds 21 1007 88 10000 3.6 50 22:54 17.06.2020
1175 Clouds 21 1007 88 10000 3.6 50 22:36 17.06.2020
1176 Clouds 21 1008 88 10000 3.6 50 22:18 17.06.2020
1177 Clouds 21 1007 88 10000 3.6 50 21:40 17.06.2020
1178 Clouds 21 1007 88 10000 4.1 50 21:21 17.06.2020
1179 Clouds 21 1007 88 10000 4.1 50 20:56 17.06.2020
1180 Clouds 22 1007 83 10000 4.6 50 20:37 17.06.2020
1181 Clouds 22 1007 83 10000 4.6 50 20:19 17.06.2020
1182 Clouds 22 1007 83 10000 2.1 70 19:43 17.06.2020
1183 Clouds 22 1007 83 10000 2.1 70 19:22 17.06.2020
1184 Clouds 22 1007 83 10000 2.1 70 19:22 17.06.2020
1185 Clouds 22 1007 83 10000 1.5 90 18:56 17.06.2020
1186 Clouds 22 1008 83 10000 3.1 100 18:38 17.06.2020
1187 Clouds 22 1008 83 10000 2.6 90 18:19 17.06.2020
1188 Clouds 22 1008 83 10000 2.6 110 17:42 17.06.2020
1189 Clouds 22 1008 83 10000 2.1 130 17:21 17.06.2020
1190 Clouds 22 1008 83 10000 2.1 130 16:56 17.06.2020
1191 Clouds 22 1008 83 10000 3.6 160 16:38 17.06.2020
1192 Clouds 22 1008 83 10000 3.1 160 16:20 17.06.2020
1193 Clouds 22 1008 83 10000 3.6 150 15:40 17.06.2020
1194 Clouds 23 1008 78 10000 4.1 160 15:21 17.06.2020
1195 Clouds 23 1008 78 10000 4.1 160 14:59 17.06.2020
1196 Clouds 23 1008 83 10000 4.6 150 14:40 17.06.2020
1197 Clouds 23 1008 78 10000 4.6 140 14:21 17.06.2020
1198 Clouds 23 1008 78 10000 4.6 140 14:00 17.06.2020
1199 Clouds 23 1008 73 10000 6.2 130 13:41 17.06.2020
1200 Clouds 23 1008 73 10000 6.2 130 13:41 17.06.2020
1201 Clouds 23 1008 73 10000 6.2 130 13:21 17.06.2020
1202 Clouds 24 1008 73 10000 6.7 120 12:56 17.06.2020
1203 Clouds 24 1007 73 10000 6.7 110 12:37 17.06.2020
1204 Clouds 24 1007 64 10000 6.2 110 12:19 17.06.2020
1205 Clouds 24 1007 64 10000 6.2 110 12:19 17.06.2020
1206 Clouds 25 1007 64 10000 6.7 110 11:44 17.06.2020
1207 Clouds 25 1006 57 10000 5.1 170 11:24 17.06.2020
1208 Clouds 25 1006 57 10000 5.1 170 10:55 17.06.2020
1209 Clouds 26 1006 57 10000 5.1 170 10:36 17.06.2020
1210 Clouds 26 1006 65 10000 9.8 110 10:18 17.06.2020
1211 Clouds 27 1006 65 10000 9.8 110 09:54 17.06.2020
1212 Clouds 27 1006 65 10000 9.8 110 09:36 17.06.2020
1213 Clouds 27 1005 57 10000 9.3 120 09:18 17.06.2020
1214 Clouds 28 1005 57 10000 9.3 120 08:41 17.06.2020
1215 Clouds 28 1005 57 10000 9.3 120 08:19 17.06.2020
1216 Clouds 28 1006 57 10000 6.7 120 07:43 17.06.2020
1217 Clouds 28 1006 61 10000 6.2 120 07:23 17.06.2020
1218 Clouds 28 1006 61 10000 6.2 120 06:57 17.06.2020
1219 Clouds 28 1006 61 10000 6.2 120 06:39 17.06.2020
1220 Clouds 29 1006 54 10000 2.6 140 06:21 17.06.2020
1221 Clouds 28 1006 54 10000 2.6 140 05:45 17.06.2020
1222 Clouds 27 1006 61 10000 5.1 140 04:36 17.06.2020
1223 Clouds 26 1006 61 10000 3.1 30 01:55 17.06.2020
1224 Clear 25 1006 64 10000 3.1 10 00:48 17.06.2020
1225 Clear 24 1006 69 10000 3.6 10 00:28 17.06.2020
1226 Clear 23 1006 69 10000 3.6 10 23:57 16.06.2020
1227 Clear 23 1005 73 10000 4.1 350 23:39 16.06.2020
1228 Clouds 22 1005 78 10000 3.1 350 23:21 16.06.2020
1229 Clouds 22 1005 83 10000 3.6 10 22:57 16.06.2020
1230 Clouds 21 1005 83 10000 3.6 10 22:38 16.06.2020
1231 Clouds 21 1005 83 10000 3.6 350 22:19 16.06.2020
1232 Clouds 21 1005 83 10000 3.6 350 21:54 16.06.2020
1233 Clouds 21 1005 83 10000 3.6 350 21:54 16.06.2020
1234 Clouds 21 1004 77 10000 3.6 350 21:36 16.06.2020
1235 Clear 21 1004 73 10000 3.6 360 21:18 16.06.2020
1236 Clear 22 1003 73 10000 5.1 360 20:42 16.06.2020
1237 Clear 22 1005 77 0 0.89 298 20:19 16.06.2020
1238 Clear 22 1005 76 0 1.34 328 20:19 16.06.2020
1239 Clear 22 1003 73 10000 3.6 10 19:58 16.06.2020
1240 Clear 22 1003 73 10000 4.6 10 19:40 16.06.2020
1241 Clear 22 1003 73 10000 5.1 20 19:22 16.06.2020
1242 Clear 22 1002 78 10000 6.7 30 18:56 16.06.2020
1243 Clear 22 1002 78 10000 6.7 30 18:38 16.06.2020
1244 Clear 23 1003 73 10000 6.7 40 18:20 16.06.2020
1245 Clear 23 1003 73 10000 6.7 40 17:56 16.06.2020
1246 Clear 23 1002 73 10000 8.2 30 17:37 16.06.2020
1247 Clear 23 1002 73 10000 8.2 40 17:19 16.06.2020
1248 Clear 23 1002 73 10000 8.2 40 16:55 16.06.2020
1249 Clear 23 1002 73 10000 8.7 40 16:37 16.06.2020
1250 Clear 23 1002 78 10000 9.3 40 16:18 16.06.2020
1251 Clear 24 1002 78 10000 9.3 40 15:56 16.06.2020
1252 Clouds 24 1001 83 10000 5.1 20 15:37 16.06.2020
1253 Clear 24 1001 94 10000 1 100 15:19 16.06.2020
1254 Clear 25 1000 83 10000 1.5 50 14:43 16.06.2020
1255 Clouds 25 1000 83 10000 1.5 50 14:25 16.06.2020
1256 Clouds 25 1000 83 10000 3.6 210 13:55 16.06.2020
1257 Clouds 25 999 83 10000 6.2 190 13:37 16.06.2020
1258 Clouds 25 999 78 10000 7.2 180 13:18 16.06.2020
1259 Clouds 25 999 78 10000 7.2 190 12:41 16.06.2020
1260 Clouds 25 999 78 10000 9.3 190 12:21 16.06.2020
1261 Clouds 26 999 78 10000 9.3 190 11:56 16.06.2020
1262 Clouds 26 999 69 10000 9.8 200 11:37 16.06.2020
1263 Clouds 26 999 69 10000 9.8 200 11:37 16.06.2020
1264 Clouds 27 998 54 10000 4.6 170 11:19 16.06.2020
1265 Clouds 28 998 54 10000 4.6 170 10:43 16.06.2020
1266 Clouds 28 999 61 10000 7.2 200 10:21 16.06.2020
1267 Clouds 29 999 61 10000 7.2 200 09:59 16.06.2020
1268 Clouds 29 999 61 10000 7.2 200 09:41 16.06.2020
1269 Clouds 29 999 65 10000 5.7 190 09:21 16.06.2020
1270 Clouds 29 999 65 10000 5.7 190 08:48 16.06.2020
1271 Clouds 29 999 65 10000 5.7 190 08:30 16.06.2020
1272 Clouds 29 999 65 10000 5.7 180 07:51 16.06.2020
1273 Clouds 30 999 65 10000 5.7 180 07:28 16.06.2020
1274 Clouds 30 1000 65 10000 5.1 190 06:55 16.06.2020
1275 Clouds 29 1000 65 10000 5.1 190 06:29 16.06.2020
1276 Clouds 28 1000 69 10000 5.1 190 05:47 16.06.2020
1277 Clouds 27 1001 74 10000 4.6 160 04:42 16.06.2020
1278 Clouds 28 1001 78 10000 3.1 150 03:48 16.06.2020
1279 Clouds 27 1001 78 10000 2.6 150 02:19 16.06.2020
1280 Clouds 27 1001 78 10000 1 90 01:31 16.06.2020
1281 Clouds 26 1001 73 10000 1 0 00:52 16.06.2020
1282 Clouds 25 1001 73 10000 1 0 00:22 16.06.2020
1283 Clouds 25 1001 78 10000 4.6 350 23:43 15.06.2020
1284 Clouds 25 1001 78 10000 4.6 350 23:24 15.06.2020
1285 Clouds 24 1001 78 10000 3.1 320 22:59 15.06.2020
1286 Clouds 23 1001 78 10000 1.5 350 22:41 15.06.2020
1287 Clouds 23 1001 83 10000 2.1 20 22:21 15.06.2020
1288 Clouds 23 1001 83 10000 2.1 20 21:57 15.06.2020
1289 Clouds 23 1001 83 10000 2.6 20 21:38 15.06.2020
1290 Clouds 24 1001 73 10000 4.1 10 21:19 15.06.2020
1291 Clouds 24 1001 73 10000 4.1 10 20:57 15.06.2020
1292 Clouds 24 1001 78 10000 5.7 360 20:38 15.06.2020
1293 Clouds 24 1000 83 10000 5.7 10 20:19 15.06.2020
1294 Clouds 24 1000 83 10000 5.7 10 20:19 15.06.2020
1295 Clouds 24 1000 83 10000 5.7 10 19:57 15.06.2020
1296 Clouds 24 1000 83 10000 5.7 360 19:38 15.06.2020
1297 Clouds 24 1000 88 10000 4.6 20 19:20 15.06.2020
1298 Clouds 24 1000 88 10000 4.6 20 18:56 15.06.2020
1299 Clouds 24 1000 88 10000 2.6 30 18:37 15.06.2020
1300 Clouds 24 1000 94 10000 3.6 30 18:19 15.06.2020
1301 Clouds 24 1000 94 10000 1 0 17:56 15.06.2020
1302 Clouds 25 1000 94 10000 1 0 17:37 15.06.2020
1303 Clouds 25 1000 88 10000 1.5 190 17:18 15.06.2020
1304 Clouds 25 1000 88 10000 2.1 180 16:41 15.06.2020
1305 Clouds 25 1000 88 10000 2.6 180 16:19 15.06.2020
1306 Clouds 25 1000 88 10000 2.6 180 15:57 15.06.2020
1307 Clouds 25 1000 83 10000 4.1 190 15:39 15.06.2020
1308 Clouds 25 1000 88 10000 4.6 190 15:19 15.06.2020
1309 Clouds 25 1000 88 10000 5.7 180 14:42 15.06.2020
1310 Clouds 25 1000 88 10000 5.7 180 14:22 15.06.2020
1311 Clouds 26 1000 88 10000 6.7 180 13:59 15.06.2020
1312 Clouds 26 1000 88 10000 6.7 180 13:59 15.06.2020
1313 Clouds 26 999 88 10000 5.7 170 13:41 15.06.2020
1314 Clouds 26 999 88 10000 5.7 170 13:41 15.06.2020
1315 Clouds 26 999 88 10000 5.7 170 13:23 15.06.2020
1316 Clouds 26 1000 83 10000 5.7 160 12:58 15.06.2020
1317 Clouds 27 999 88 10000 5.1 160 12:39 15.06.2020
1318 Clouds 27 1000 83 10000 5.7 180 12:21 15.06.2020
1319 Clouds 28 999 83 10000 7.2 170 11:45 15.06.2020
1320 Clouds 29 999 58 10000 3.1 140 11:25 15.06.2020
1321 Clouds 29 999 58 10000 3.1 140 10:56 15.06.2020
1322 Clouds 29 999 58 10000 3.1 140 10:38 15.06.2020
1323 Clouds 29 999 78 10000 3.6 180 10:19 15.06.2020
1324 Clouds 30 999 78 10000 3.6 180 09:42 15.06.2020
1325 Clouds 31 999 74 10000 4.1 190 09:22 15.06.2020
1326 Clouds 31 999 74 10000 4.1 190 08:43 15.06.2020
1327 Clouds 31 999 74 10000 4.1 190 08:25 15.06.2020
1328 Clouds 33 1000 52 10000 4.1 150 07:51 15.06.2020
1329 Clouds 32 1000 74 10000 3.6 180 07:33 15.06.2020
1330 Clouds 32 1000 66 10000 4.1 170 06:57 15.06.2020
1331 Clouds 32 1000 66 10000 4.1 170 06:27 15.06.2020
1332 Clouds 31 1000 66 10000 4.1 170 05:50 15.06.2020
1333 Clouds 31 1001 78 10000 4.6 150 05:28 15.06.2020
1334 Clouds 30 1001 78 10000 4.6 150 04:22 15.06.2020
1335 Clouds 30 1001 83 10000 2.6 170 03:48 15.06.2020
1336 Clouds 28 1001 94 10000 2.6 140 02:56 15.06.2020
1337 Clouds 27 1001 94 10000 2.6 140 02:24 15.06.2020
1338 Clouds 28 1001 83 10000 3.1 180 01:44 15.06.2020
1339 Clouds 28 1001 83 10000 3.1 180 01:24 15.06.2020
1340 Clouds 26 1001 83 10000 4.6 190 00:44 15.06.2020
1341 Clouds 25 1001 88 10000 3.1 200 00:23 15.06.2020
1342 Clouds 24 1001 88 10000 3.1 200 23:57 14.06.2020
1343 Clouds 24 1001 88 10000 1.5 210 23:39 14.06.2020
1344 Clouds 23 1001 94 10000 2.6 220 23:20 14.06.2020
1345 Clouds 23 1001 94 10000 2.6 220 22:56 14.06.2020
1346 Clouds 23 1000 94 10000 2.1 190 22:37 14.06.2020
1347 Clouds 23 1000 94 10000 1 0 22:18 14.06.2020
1348 Clouds 22 1000 94 10000 1 0 21:56 14.06.2020
1349 Clouds 22 999 94 10000 2.6 180 21:37 14.06.2020
1350 Clouds 23 999 94 10000 1.5 300 21:18 14.06.2020
1351 Clouds 23 999 94 10000 1.5 300 20:56 14.06.2020
1352 Clouds 23 998 88 8000 2.1 330 20:37 14.06.2020
1353 Clouds 23 998 94 7000 4.6 340 20:18 14.06.2020
1354 Clouds 23 998 94 7000 4.6 340 19:56 14.06.2020
1355 Clouds 23 997 94 9000 3.1 280 19:37 14.06.2020
1356 Clouds 24 997 88 10000 6.2 200 19:18 14.06.2020
1357 Clouds 24 997 88 10000 6.2 200 18:55 14.06.2020
1358 Clouds 24 997 88 10000 7.2 200 18:37 14.06.2020
1359 Clouds 24 998 88 10000 7.2 200 18:18 14.06.2020
1360 Clouds 24 998 88 10000 7.2 200 18:18 14.06.2020
1361 Clouds 24 998 88 10000 7.2 200 17:55 14.06.2020
1362 Rain 25 997 83 10000 9.3 200 17:37 14.06.2020
1363 Rain 25 998 88 10000 8.2 210 17:18 14.06.2020
1364 Rain 25 998 88 10000 9.3 210 16:40 14.06.2020
1365 Rain 25 999 88 10000 9.8 200 16:20 14.06.2020
1366 Rain 24 999 88 10000 9.8 200 15:57 14.06.2020
1367 Rain 24 999 88 10000 8.7 210 15:39 14.06.2020
1368 Rain 25 1000 83 10000 8.7 210 15:18 14.06.2020
1369 Rain 25 1000 83 10000 9.3 210 14:57 14.06.2020
1370 Rain 24 1000 83 10000 9.3 210 14:37 14.06.2020
1371 Rain 24 1000 83 10000 9.8 220 14:18 14.06.2020
1372 Clouds 24 1000 83 10000 9.3 220 13:41 14.06.2020
1373 Clouds 24 1000 83 10000 9.3 220 13:22 14.06.2020
1374 Clouds 24 1001 88 9000 6.2 210 12:59 14.06.2020
1375 Clouds 23 1001 100 6000 4.1 200 12:41 14.06.2020
1376 Clouds 23 1001 100 6000 4.1 200 12:41 14.06.2020
1377 Clouds 23 1001 100 6000 4.1 200 12:23 14.06.2020
1378 Mist 23 1001 100 5000 5.1 210 11:59 14.06.2020
1379 Mist 24 1001 100 4000 1 0 11:40 14.06.2020
1380 Mist 24 1002 88 5000 1.94 189 11:22 14.06.2020
1381 Mist 24 1002 88 5000 1.94 189 10:59 14.06.2020
1382 Mist 24 1002 88 5000 1.94 189 10:39 14.06.2020
1383 Mist 24 1003 94 2500 1.5 190 10:18 14.06.2020
1384 Mist 23 1003 94 2500 1.5 190 09:43 14.06.2020
1385 Mist 23 1003 94 2500 1.5 190 09:23 14.06.2020
1386 Rain 23 1004 100 4500 2.6 180 08:42 14.06.2020
1387 Rain 23 1004 100 4500 2.6 180 08:22 14.06.2020
1388 Rain 23 1004 100 4500 2.1 170 07:55 14.06.2020
1389 Rain 23 1005 94 5000 1 0 07:35 14.06.2020
1390 Rain 22 1005 94 5000 1 180 06:58 14.06.2020
1391 Rain 23 1006 94 5000 2.1 140 05:56 14.06.2020
1392 Rain 23 1006 94 5000 2.1 140 05:34 14.06.2020
1393 Rain 23 1007 94 7000 2.1 130 04:39 14.06.2020
1394 Clouds 23 1007 94 6000 0.5 0 03:55 14.06.2020
1395 Clouds 22 1007 94 6000 1.5 30 02:43 14.06.2020
1396 Clouds 22 1007 94 6000 1.5 30 02:23 14.06.2020
1397 Clouds 22 1008 94 7000 4.6 20 01:30 14.06.2020
1398 Rain 21 1009 100 2500 4.6 10 00:49 14.06.2020
1399 Rain 21 1009 100 2500 4.6 10 00:29 14.06.2020
1400 Rain 21 1008 94 1800 4.6 20 23:49 13.06.2020
1401 Rain 21 1008 94 1800 4.6 20 23:31 13.06.2020
1402 Rain 21 1009 94 1800 4.6 20 22:59 13.06.2020
1403 Rain 21 1008 100 1800 4.6 20 22:38 13.06.2020
1404 Rain 21 1008 94 1500 4.6 20 22:19 13.06.2020
1405 Rain 21 1008 94 1500 4.6 20 21:58 13.06.2020
1406 Rain 21 1008 100 4000 2.6 60 21:40 13.06.2020
1407 Mist 21 1008 100 4000 2.1 70 21:21 13.06.2020
1408 Rain 21 1008 100 4000 2.1 70 20:57 13.06.2020
1409 Rain 21 1008 100 4000 1.5 80 20:39 13.06.2020
1410 Mist 21 1008 94 5000 1.5 120 20:18 13.06.2020
1411 Rain 21 1008 100 5000 1 0 19:41 13.06.2020
1412 Rain 21 1009 94 7000 1 90 19:20 13.06.2020
1413 Rain 21 1009 94 7000 1 90 18:59 13.06.2020
1414 Rain 21 1008 100 6000 1.5 120 18:40 13.06.2020
1415 Rain 21 1009 100 4500 1.5 130 18:20 13.06.2020
1416 Mist 21 1009 100 4500 1.5 130 17:58 13.06.2020
1417 Rain 21 1009 94 4000 1.5 100 17:40 13.06.2020
1418 Rain 21 1010 94 7000 1.5 120 17:22 13.06.2020
1419 Rain 21 1010 94 7000 1.5 120 16:55 13.06.2020
1420 Rain 21 1010 94 8000 2.1 100 16:37 13.06.2020
1421 Rain 21 1010 94 8000 1.5 130 16:18 13.06.2020
1422 Clouds 21 1010 94 10000 3.1 130 15:44 13.06.2020
1423 Rain 21 1008 99 0 2.77 111 15:26 13.06.2020
1424 Rain 21 1008 99 0 2.77 111 14:56 13.06.2020
1425 Rain 21 1008 99 0 2.77 111 14:38 13.06.2020
1426 Rain 21 1008 99 0 2.77 109 14:20 13.06.2020
1427 Rain 21 1009 94 10000 2.6 60 13:42 13.06.2020
1428 Rain 21 1009 94 10000 2.6 60 13:24 13.06.2020
1429 Rain 20 1009 94 10000 3.1 70 12:44 13.06.2020
1430 Rain 20 1009 94 10000 3.1 70 12:26 13.06.2020
1431 Rain 20 1009 94 10000 2.6 70 11:59 13.06.2020
1432 Rain 20 1008 94 10000 3.1 50 11:40 13.06.2020
1433 Rain 20 1007 94 7000 1 0 11:19 13.06.2020
1434 Rain 20 1007 94 7000 1 0 11:19 13.06.2020
1435 Rain 20 1007 94 7000 1 0 10:57 13.06.2020
1436 Rain 20 1007 94 7000 1 0 10:38 13.06.2020
1437 Rain 21 1008 94 6000 1.5 120 10:19 13.06.2020
1438 Rain 21 1008 94 6000 1 0 09:45 13.06.2020
1439 Rain 21 1007 100 10000 4.6 60 09:27 13.06.2020
1440 Rain 21 1007 100 3000 3.1 30 08:55 13.06.2020
1441 Rain 21 1008 100 5000 1.5 0 08:37 13.06.2020
1442 Rain 21 1008 94 2500 2.6 320 08:19 13.06.2020
1443 Rain 21 1007 100 2500 4.1 360 07:42 13.06.2020
1444 Mist 21 1006 100 3000 3.6 360 07:22 13.06.2020
1445 Rain 21 1006 100 3000 3.6 360 06:38 13.06.2020
1446 Rain 21 1006 100 4500 3.6 20 06:19 13.06.2020
1447 Rain 21 1006 100 3500 7.2 30 05:27 13.06.2020
1448 Rain 22 1006 94 7000 4.6 60 03:57 13.06.2020
1449 Rain 23 1006 94 6000 3.6 70 02:55 13.06.2020
1450 Rain 23 1007 94 5000 2.1 20 02:36 13.06.2020
1451 Rain 23 1007 94 3500 2.6 20 01:47 13.06.2020
1452 Rain 23 1006 100 7000 3.6 160 01:21 13.06.2020
1453 Rain 23 1006 100 7000 1.5 160 00:44 13.06.2020
1454 Rain 23 1006 100 7000 1.5 160 00:26 13.06.2020
1455 Rain 24 1006 94 5000 2.6 160 23:55 12.06.2020
1456 Mist 23 1006 100 5000 2.1 160 23:37 12.06.2020
1457 Mist 23 1006 100 5000 2.6 150 23:18 12.06.2020
1458 Rain 24 1006 94 4500 2.1 170 22:41 12.06.2020
1459 Mist 24 1006 94 5000 2.1 70 22:19 12.06.2020
1460 Rain 24 1006 94 8000 2.1 80 21:50 12.06.2020
1461 Rain 24 1006 94 8000 2.1 80 21:27 12.06.2020
1462 Clouds 24 1005 94 10000 3.1 70 20:59 12.06.2020
1463 Clouds 24 1005 94 10000 1.5 50 20:41 12.06.2020
1464 Clouds 24 1005 94 10000 1.5 80 20:22 12.06.2020
1465 Clouds 24 1005 94 10000 1.5 80 19:57 12.06.2020
1466 Clouds 24 1005 94 10000 2.1 50 19:39 12.06.2020
1467 Clouds 24 1005 94 10000 0.5 0 19:19 12.06.2020
1468 Clouds 24 1005 94 10000 1 150 18:39 12.06.2020
1469 Rain 24 1005 100 10000 1.5 160 18:19 12.06.2020
1470 Rain 24 1005 100 10000 1.5 160 17:58 12.06.2020
1471 Rain 24 1005 94 10000 2.1 180 17:39 12.06.2020
1472 Rain 24 1005 100 8000 2.1 210 17:19 12.06.2020
1473 Rain 25 1005 94 4000 3.1 200 16:44 12.06.2020
1474 Rain 25 1006 94 4000 4.1 190 16:20 12.06.2020
1475 Rain 25 1006 88 10000 5.7 180 15:49 12.06.2020
1476 Rain 25 1006 88 10000 5.7 180 15:26 12.06.2020
1477 Rain 25 1005 88 10000 3.6 170 14:58 12.06.2020
1478 Rain 25 1005 94 10000 4.1 180 14:39 12.06.2020
1479 Rain 26 1005 94 10000 4.1 190 14:21 12.06.2020
1480 Clouds 27 1005 78 10000 4.6 190 13:42 12.06.2020
1481 Clouds 27 1005 78 10000 4.6 190 13:22 12.06.2020
1482 Clouds 27 1005 78 10000 5.7 200 12:55 12.06.2020
1483 Clouds 27 1004 83 10000 5.7 200 12:37 12.06.2020
1484 Clouds 27 1004 83 10000 5.7 190 12:18 12.06.2020
1485 Clouds 28 1004 78 10000 5.7 200 11:42 12.06.2020
1486 Clouds 28 1003 70 10000 3.1 170 11:23 12.06.2020
1487 Clouds 29 1003 70 10000 3.1 170 10:49 12.06.2020
1488 Clouds 29 1003 70 10000 3.1 170 10:26 12.06.2020
1489 Clouds 29 1003 78 10000 5.1 190 09:58 12.06.2020
1490 Clouds 29 1003 78 10000 5.1 190 09:38 12.06.2020
1491 Clouds 29 1003 83 10000 5.1 170 09:18 12.06.2020
1492 Clouds 30 1003 83 10000 5.1 170 08:41 12.06.2020
1493 Clouds 31 1003 83 10000 5.1 170 08:22 12.06.2020
1494 Clouds 31 1003 74 10000 5.1 180 07:40 12.06.2020
1495 Clouds 31 1003 78 10000 5.7 180 07:22 12.06.2020
1496 Clouds 31 1003 78 10000 5.7 180 06:41 12.06.2020
1497 Clouds 31 1003 78 10000 5.7 180 06:20 12.06.2020
1498 Clouds 31 1004 83 10000 5.1 180 05:49 12.06.2020
1499 Clouds 31 1004 83 10000 5.1 180 05:23 12.06.2020
1500 Clouds 29 1004 83 10000 2.6 110 03:52 12.06.2020
1501 Clouds 29 1004 88 10000 3.6 150 02:25 12.06.2020
1502 Clouds 30 1004 78 10000 2.6 160 01:39 12.06.2020
1503 Clouds 27 1004 88 10000 2.1 310 00:59 12.06.2020
1504 Clouds 27 1004 88 10000 2.1 280 00:39 12.06.2020
1505 Clouds 26 1004 88 10000 3.1 280 00:20 12.06.2020
1506 Clouds 25 1004 88 10000 3.1 280 23:57 11.06.2020
1507 Clouds 24 1004 94 10000 3.1 260 23:38 11.06.2020
1508 Clouds 24 1003 94 10000 4.1 260 23:19 11.06.2020
1509 Clouds 24 1003 94 10000 3.6 250 22:54 11.06.2020
1510 Clouds 24 1003 94 10000 3.6 250 22:36 11.06.2020
1511 Clouds 24 1003 94 10000 6.2 250 22:18 11.06.2020
1512 Rain 24 1002 94 10000 6.2 250 21:42 11.06.2020
1513 Clouds 24 1002 94 10000 8.2 220 21:20 11.06.2020
1514 Rain 24 1002 94 10000 7.7 210 20:57 11.06.2020
1515 Rain 24 1002 94 10000 7.7 210 20:39 11.06.2020
1516 Rain 24 1003 94 10000 7.7 200 20:20 11.06.2020
1517 Mist 24 1003 94 5000 9.3 190 19:43 11.06.2020
1518 Rain 24 1003 94 5000 9.3 190 19:22 11.06.2020
1519 Rain 24 1003 94 5000 9.3 190 18:57 11.06.2020
1520 Rain 24 1003 100 6000 8.7 200 18:39 11.06.2020
1521 Rain 24 1004 94 10000 8.2 200 18:19 11.06.2020
1522 Rain 24 1004 94 10000 8.2 200 17:55 11.06.2020
1523 Rain 24 1004 94 10000 9.8 200 17:37 11.06.2020
1524 Rain 24 1004 94 10000 9.8 200 17:18 11.06.2020
1525 Clouds 24 1004 88 10000 8.7 220 16:43 11.06.2020
1526 Clouds 24 1004 88 10000 8.7 220 16:25 11.06.2020
1527 Rain 24 1005 94 10000 9.8 210 15:58 11.06.2020
1528 Rain 24 1005 94 10000 8.7 230 15:39 11.06.2020
1529 Rain 24 1005 94 10000 8.7 230 15:21 11.06.2020
1530 Rain 24 1005 94 10000 9.8 220 14:46 11.06.2020
1531 Rain 24 1004 94 10000 8.2 230 14:21 11.06.2020
1532 Rain 24 1004 94 10000 8.2 230 14:21 11.06.2020
1533 Rain 24 1004 94 10000 7.7 210 13:57 11.06.2020
1534 Rain 24 1004 94 10000 10.8 200 13:39 11.06.2020
1535 Rain 24 1003 100 10000 11.8 200 13:21 11.06.2020
1536 Rain 23 1003 100 10000 11.8 200 12:58 11.06.2020
1537 Rain 23 1004 94 10000 11.3 200 12:39 11.06.2020
1538 Rain 24 1004 94 10000 11.3 200 12:19 11.06.2020
1539 Rain 24 1004 88 10000 11.3 200 11:57 11.06.2020
1540 Rain 24 1004 94 10000 11.3 200 11:39 11.06.2020
1541 Rain 24 1004 94 10000 11.3 200 11:20 11.06.2020
1542 Rain 24 1004 94 8000 7.2 180 10:57 11.06.2020
1543 Rain 24 1004 94 8000 7.2 180 10:38 11.06.2020
1544 Rain 25 1004 94 8000 7.2 180 10:18 11.06.2020
1545 Rain 25 1005 94 8000 8.2 200 09:42 11.06.2020
1546 Rain 25 1005 94 8000 8.2 200 09:23 11.06.2020
1547 Rain 25 1005 94 10000 8.2 190 08:44 11.06.2020
1548 Rain 25 1005 94 10000 8.2 190 08:20 11.06.2020
1549 Rain 26 1006 83 10000 8.7 190 07:57 11.06.2020
1550 Rain 26 1006 83 10000 8.7 190 07:57 11.06.2020
1551 Rain 26 1006 83 10000 8.7 190 07:39 11.06.2020
1552 Rain 27 1006 78 10000 8.2 190 07:20 11.06.2020
1553 Rain 28 1006 78 10000 8.2 190 06:29 11.06.2020
1554 Clouds 29 1006 83 10000 8.7 180 05:39 11.06.2020
1555 Clouds 29 1006 69 10000 5.7 180 03:56 11.06.2020
1556 Clouds 29 1006 69 10000 5.7 180 03:24 11.06.2020
1557 Clouds 28 1007 78 10000 8.7 200 02:32 11.06.2020
1558 Clouds 27 1008 83 10000 9.3 200 01:53 11.06.2020
1559 Clouds 28 1008 78 10000 10.3 200 01:31 11.06.2020
1560 Clouds 27 1009 83 10000 8.2 200 00:51 11.06.2020
1561 Clouds 26 1009 83 10000 8.2 200 00:30 11.06.2020
1562 Clouds 26 1009 83 10000 9.3 200 23:49 10.06.2020
1563 Clouds 26 1009 83 10000 9.3 200 23:27 10.06.2020
1564 Clouds 25 1009 88 10000 10.3 200 22:59 10.06.2020
1565 Clouds 25 1009 88 10000 8.7 200 22:39 10.06.2020
1566 Clouds 24 1009 88 10000 8.7 200 22:20 10.06.2020
1567 Clouds 24 1009 88 10000 8.7 200 21:58 10.06.2020
1568 Clouds 24 1009 88 10000 9.3 200 21:40 10.06.2020
1569 Clouds 24 1010 83 10000 8.2 200 21:19 10.06.2020
1570 Clouds 24 1010 83 10000 8.2 200 20:57 10.06.2020
1571 Clouds 24 1010 83 10000 7.7 200 20:39 10.06.2020
1572 Clouds 24 1010 83 10000 7.7 200 20:21 10.06.2020
1573 Clouds 24 1011 83 10000 7.7 210 19:56 10.06.2020
1574 Clouds 24 1010 83 10000 7.2 200 19:37 10.06.2020
1575 Clouds 24 1011 83 10000 7.7 200 19:18 10.06.2020
1576 Rain 24 1011 83 10000 8.2 200 18:41 10.06.2020
1577 Rain 24 1012 83 10000 8.7 200 18:20 10.06.2020
1578 Rain 25 1012 83 10000 8.7 200 17:59 10.06.2020
1579 Clouds 25 1011 83 10000 8.7 200 17:41 10.06.2020
1580 Clouds 25 1011 83 10000 8.7 200 17:20 10.06.2020
1581 Clouds 24 1013 83 10000 8.2 200 16:58 10.06.2020
1582 Rain 25 1013 83 10000 8.7 210 16:40 10.06.2020
1583 Rain 25 1013 83 10000 8.7 210 16:20 10.06.2020
1584 Rain 25 1013 83 10000 9.3 210 16:20 10.06.2020
1585 Rain 25 1013 83 10000 9.3 210 16:20 10.06.2020
1586 Rain 25 1013 83 10000 9.3 210 15:56 10.06.2020
1587 Rain 25 1013 73 10000 9.3 210 15:37 10.06.2020
1588 Clouds 25 1013 78 10000 9.8 210 15:18 10.06.2020
1589 Clouds 25 1013 78 10000 7.2 210 14:40 10.06.2020
1590 Clouds 25 1013 78 10000 7.2 210 14:21 10.06.2020
1591 Clouds 25 1014 78 10000 7.7 200 13:56 10.06.2020
1592 Clouds 25 1013 78 10000 9.8 200 13:38 10.06.2020
1593 Clouds 25 1013 78 10000 10.3 200 13:19 10.06.2020
1594 Clouds 25 1013 73 10000 9.8 210 12:40 10.06.2020
1595 Clouds 26 1013 73 10000 9.8 210 12:18 10.06.2020
1596 Clouds 26 1013 73 10000 10.3 210 11:44 10.06.2020
1597 Clouds 27 1012 57 10000 7.2 180 11:20 10.06.2020
1598 Clouds 27 1012 57 10000 7.2 180 10:58 10.06.2020
1599 Clouds 27 1012 57 10000 7.2 180 10:40 10.06.2020
1600 Clouds 27 1012 57 10000 7.2 180 10:40 10.06.2020
1601 Clouds 27 1013 69 10000 7.2 190 10:22 10.06.2020
1602 Clouds 28 1013 69 10000 7.2 190 09:44 10.06.2020
1603 Clouds 29 1013 58 10000 9.8 190 09:26 10.06.2020
1604 Clouds 29 1013 58 10000 9.8 190 08:59 10.06.2020
1605 Clouds 30 1013 58 10000 9.8 190 08:41 10.06.2020
1606 Clouds 31 1014 58 10000 8.2 200 08:22 10.06.2020
1607 Clouds 31 1014 58 10000 8.2 200 07:42 10.06.2020
1608 Clouds 31 1014 58 10000 8.2 190 07:23 10.06.2020
1609 Clouds 31 1014 58 10000 8.2 190 06:55 10.06.2020
1610 Clouds 30 1014 58 10000 8.2 190 06:37 10.06.2020
1611 Rain 31 1015 74 10000 7.2 180 06:18 10.06.2020
1612 Rain 31 1015 74 10000 7.2 180 06:18 10.06.2020
1613 Rain 31 1015 74 10000 7.2 180 05:32 10.06.2020
1614 Rain 30 1016 78 10000 7.7 180 04:49 10.06.2020
1615 Rain 30 1016 78 10000 7.7 180 04:28 10.06.2020
1616 Clouds 28 1016 78 10000 4.6 170 02:33 10.06.2020
1617 Clouds 29 1017 61 10000 6.2 190 01:47 10.06.2020
1618 Clouds 28 1017 61 10000 6.2 190 01:21 10.06.2020
1619 Clouds 27 1017 65 10000 6.2 210 00:38 10.06.2020
1620 Clouds 26 1017 65 10000 7.2 210 00:20 10.06.2020
1621 Clouds 25 1017 73 10000 7.2 210 23:42 09.06.2020
1622 Clouds 24 1017 73 10000 7.2 210 23:23 09.06.2020
1623 Clouds 25 1017 69 10000 7.2 210 22:57 09.06.2020
1624 Clouds 24 1016 73 10000 6.2 210 22:39 09.06.2020
1625 Clouds 24 1016 73 10000 6.2 210 22:20 09.06.2020
1626 Clouds 23 1017 78 10000 5.1 210 21:57 09.06.2020
1627 Clouds 23 1016 78 10000 5.7 210 21:39 09.06.2020
1628 Clouds 23 1016 78 10000 5.7 210 21:21 09.06.2020
1629 Clouds 23 1016 78 10000 7.7 210 20:58 09.06.2020
1630 Clouds 23 1016 78 10000 6.2 200 20:39 09.06.2020
1631 Clouds 23 1017 78 10000 6.2 210 20:21 09.06.2020
1632 Clouds 23 1017 78 10000 6.2 210 19:59 09.06.2020
1633 Clouds 23 1017 78 10000 6.2 200 19:39 09.06.2020
1634 Clouds 23 1017 78 10000 6.2 200 19:20 09.06.2020
1635 Clouds 24 1017 78 10000 6.7 200 18:59 09.06.2020
1636 Clouds 24 1017 78 10000 6.2 200 18:41 09.06.2020
1637 Clouds 24 1017 78 10000 6.2 200 18:23 09.06.2020
1638 Clouds 24 1018 78 10000 6.7 200 17:56 09.06.2020
1639 Clouds 24 1017 73 10000 7.7 200 17:38 09.06.2020
1640 Clouds 24 1017 73 10000 7.7 200 17:20 09.06.2020
1641 Clouds 24 1017 73 10000 6.2 200 16:43 09.06.2020
1642 Clouds 25 1017 73 10000 6.2 200 16:25 09.06.2020
1643 Clouds 25 1017 73 10000 6.7 200 15:57 09.06.2020
1644 Clouds 25 1017 73 10000 6.2 200 15:38 09.06.2020
1645 Clouds 25 1017 73 10000 6.2 200 15:20 09.06.2020
1646 Clouds 25 1017 73 10000 5.7 210 14:55 09.06.2020
1647 Clouds 25 1017 78 10000 7.7 200 14:37 09.06.2020
1648 Clouds 25 1017 78 10000 7.7 200 14:18 09.06.2020
1649 Clouds 26 1017 73 10000 8.2 200 13:43 09.06.2020
1650 Clouds 26 1016 73 10000 8.2 200 13:21 09.06.2020
1651 Clouds 26 1016 73 10000 8.2 200 12:58 09.06.2020
1652 Clouds 26 1016 73 10000 8.7 200 12:40 09.06.2020
1653 Clouds 26 1016 73 10000 8.7 200 12:18 09.06.2020
1654 Clouds 27 1016 69 10000 7.7 180 11:55 09.06.2020
1655 Clouds 27 1016 69 10000 7.7 180 11:37 09.06.2020
1656 Clouds 28 1016 51 10000 5.7 170 11:19 09.06.2020
1657 Clouds 29 1016 51 10000 5.7 170 10:44 09.06.2020
1658 Clouds 29 1016 51 10000 5.7 170 10:25 09.06.2020
1659 Clouds 29 1017 74 10000 5.7 190 09:44 09.06.2020
1660 Clouds 29 1017 74 10000 5.7 190 09:25 09.06.2020
1661 Clouds 30 1017 74 10000 5.1 190 08:58 09.06.2020
1662 Clouds 30 1017 74 10000 5.1 190 08:39 09.06.2020
1663 Clouds 30 1017 74 10000 5.1 190 08:20 09.06.2020
1664 Clouds 30 1017 69 10000 5.7 180 07:40 09.06.2020
1665 Clouds 30 1017 69 10000 5.7 180 07:21 09.06.2020
1666 Clouds 31 1018 69 10000 6.7 180 06:54 09.06.2020
1667 Clouds 30 1018 69 10000 6.7 180 06:35 09.06.2020
1668 Clouds 30 1018 74 10000 6.2 180 05:36 09.06.2020
1669 Clouds 28 1019 78 10000 4.6 170 03:52 09.06.2020
1670 Clouds 26 1019 78 10000 3.1 150 01:54 09.06.2020
1671 Clouds 27 1019 69 10000 4.1 180 01:36 09.06.2020
1672 Clouds 27 1019 74 10000 4.6 190 01:18 09.06.2020
1673 Clouds 26 1019 78 10000 3.1 190 00:39 09.06.2020
1674 Clouds 26 1019 83 10000 2.1 230 00:18 09.06.2020
1675 Clouds 24 1019 88 10000 1 0 23:41 08.06.2020
1676 Clouds 23 1019 88 10000 1 0 23:20 08.06.2020
1677 Clouds 23 1019 83 10000 1 0 22:56 08.06.2020
1678 Clouds 23 1019 83 10000 1 0 22:56 08.06.2020
1679 Clouds 22 1018 88 10000 2.1 290 22:38 08.06.2020
1680 Clouds 22 1018 88 10000 2.1 290 22:19 08.06.2020
1681 Clouds 22 1018 88 10000 2.6 270 21:55 08.06.2020
1682 Clouds 22 1018 88 10000 2.1 240 21:36 08.06.2020
1683 Clouds 22 1018 88 10000 2.1 240 21:36 08.06.2020
1684 Clouds 22 1018 88 10000 2.1 240 21:18 08.06.2020
1685 Clouds 22 1018 83 10000 3.1 270 20:54 08.06.2020
1686 Clouds 23 1018 78 10000 2.6 260 20:36 08.06.2020
1687 Clouds 23 1018 78 10000 2.6 260 20:18 08.06.2020
1688 Clouds 23 1018 73 10000 2.1 220 19:43 08.06.2020
1689 Clouds 23 1017 78 10000 3.1 230 19:21 08.06.2020
1690 Clouds 23 1017 78 10000 3.1 230 18:43 08.06.2020
1691 Clouds 23 1017 78 10000 3.1 230 18:21 08.06.2020
1692 Clouds 23 1018 83 10000 4.1 220 17:57 08.06.2020
1693 Clouds 23 1017 83 10000 4.1 190 17:39 08.06.2020
1694 Clouds 23 1017 83 10000 4.1 190 17:21 08.06.2020
1695 Clouds 23 1018 88 10000 4.1 190 16:58 08.06.2020
1696 Clouds 23 1018 88 10000 5.1 180 16:39 08.06.2020
1697 Clouds 24 1018 88 10000 5.1 190 16:21 08.06.2020
1698 Clouds 24 1018 83 10000 4.6 180 15:42 08.06.2020
1699 Clouds 24 1018 83 10000 4.6 180 15:21 08.06.2020
1700 Clouds 24 1018 83 10000 5.1 190 14:58 08.06.2020
1701 Clouds 24 1017 88 10000 5.7 200 14:38 08.06.2020
1702 Clouds 24 1017 88 10000 5.7 200 14:18 08.06.2020
1703 Clouds 24 1017 88 10000 6.7 190 13:42 08.06.2020
1704 Clouds 24 1017 88 10000 6.7 190 13:23 08.06.2020
1705 Clouds 25 1017 83 10000 7.7 200 12:43 08.06.2020
1706 Clouds 25 1017 83 10000 7.7 200 12:20 08.06.2020
1707 Clouds 25 1017 78 10000 7.2 200 11:59 08.06.2020
1708 Clouds 25 1016 73 10000 8.2 190 11:40 08.06.2020
1709 Clouds 26 1015 65 10000 5.1 180 11:21 08.06.2020
1710 Clouds 27 1015 65 10000 5.1 180 10:58 08.06.2020
1711 Clouds 27 1015 65 10000 5.1 180 10:38 08.06.2020
1712 Clouds 27 1015 69 10000 5.1 190 10:20 08.06.2020
1713 Clouds 27 1015 69 10000 5.1 190 09:57 08.06.2020
1714 Clouds 28 1015 69 10000 5.1 190 09:39 08.06.2020
1715 Clouds 28 1015 69 10000 5.1 190 09:20 08.06.2020
1716 Clouds 28 1015 69 10000 5.1 180 08:41 08.06.2020
1717 Clouds 29 1015 69 10000 5.1 180 08:20 08.06.2020
1718 Clouds 28 1016 69 10000 5.1 150 07:42 08.06.2020
1719 Clouds 28 1016 69 10000 3.6 150 07:21 08.06.2020
1720 Clouds 27 1016 69 10000 3.6 150 06:43 08.06.2020
1721 Clouds 27 1016 69 10000 3.6 150 06:25 08.06.2020
1722 Clouds 26 1016 73 10000 3.6 140 05:42 08.06.2020
1723 Clouds 25 1017 83 10000 3.1 140 03:43 08.06.2020
1724 Clouds 23 1017 83 10000 2.1 110 02:32 08.06.2020
1725 Clouds 22 1017 88 10000 3.1 70 01:45 08.06.2020
1726 Clouds 22 1017 88 10000 3.1 70 01:25 08.06.2020
1727 Clouds 21 1016 88 10000 3.6 40 00:28 08.06.2020
1728 Clouds 21 1016 88 10000 3.6 40 00:28 08.06.2020
1729 Rain 21 1016 88 10000 2.6 50 23:41 07.06.2020
1730 Rain 21 1016 88 10000 2.6 50 23:19 07.06.2020
1731 Rain 20 1015 88 10000 2.6 50 22:59 07.06.2020
1732 Rain 20 1015 88 10000 2.6 50 22:59 07.06.2020
1733 Rain 21 1015 88 10000 3.1 70 22:39 07.06.2020
1734 Rain 21 1015 88 10000 3.1 70 22:19 07.06.2020
1735 Rain 21 1015 88 10000 3.1 70 21:58 07.06.2020
1736 Rain 20 1014 88 10000 3.1 80 21:37 07.06.2020
1737 Rain 20 1014 88 10000 3.1 80 21:37 07.06.2020
1738 Rain 20 1014 88 10000 3.1 80 21:19 07.06.2020
1739 Clouds 20 1014 88 10000 3.6 70 20:54 07.06.2020
1740 Clouds 20 1014 88 10000 3.1 70 20:36 07.06.2020
1741 Clouds 20 1013 88 10000 3.1 70 20:18 07.06.2020
1742 Rain 20 1013 88 10000 3.1 80 19:54 07.06.2020
1743 Rain 20 1013 88 10000 3.1 80 19:36 07.06.2020
1744 Rain 20 1013 82 10000 3.1 70 19:18 07.06.2020
1745 Rain 21 1013 77 10000 3.6 90 18:40 07.06.2020
1746 Rain 21 1014 83 10000 3.6 80 18:21 07.06.2020
1747 Rain 21 1014 83 10000 3.6 80 17:59 07.06.2020
1748 Clouds 21 1013 83 10000 3.6 90 17:40 07.06.2020
1749 Clouds 21 1013 83 10000 3.6 90 17:21 07.06.2020
1750 Clouds 21 1013 83 10000 4.1 90 16:44 07.06.2020
1751 Clouds 21 1013 83 10000 4.1 90 16:22 07.06.2020
1752 Clouds 21 1013 77 10000 4.1 90 16:22 07.06.2020
1753 Clouds 21 1012 83 10000 3.6 100 15:44 07.06.2020
1754 Clouds 22 1012 83 10000 3.6 100 15:23 07.06.2020
1755 Clouds 22 1013 77 10000 4.1 110 14:59 07.06.2020
1756 Clouds 22 1013 77 10000 4.1 110 14:59 07.06.2020
1757 Clouds 22 1012 77 10000 4.6 110 14:36 07.06.2020
1758 Clouds 22 1012 77 10000 4.6 110 14:18 07.06.2020
1759 Clouds 22 1012 77 10000 4.6 110 14:18 07.06.2020
1760 Clouds 22 1011 68 10000 4.6 140 13:44 07.06.2020
1761 Clouds 22 1011 68 10000 4.6 140 13:44 07.06.2020
1762 Clouds 22 1011 68 10000 4.6 140 13:44 07.06.2020
1763 Clouds 22 1011 68 10000 4.6 140 13:44 07.06.2020
1764 Clouds 23 1011 68 10000 6.2 120 13:19 07.06.2020
1765 Clouds 23 1010 68 10000 6.2 120 12:44 07.06.2020
1766 Clouds 23 1010 68 10000 6.7 120 12:25 07.06.2020
1767 Clouds 24 1010 68 10000 6.7 120 11:55 07.06.2020
1768 Clouds 25 1010 64 10000 5.7 120 11:37 07.06.2020
1769 Clouds 25 1009 50 10000 4.6 120 11:19 07.06.2020
1770 Clouds 26 1009 50 10000 4.6 120 10:54 07.06.2020
1771 Clouds 26 1009 50 10000 4.6 120 10:36 07.06.2020
1772 Clouds 26 1009 50 10000 4.6 120 10:18 07.06.2020
1773 Clouds 27 1009 57 10000 5.7 120 09:54 07.06.2020
1774 Clouds 27 1009 57 10000 5.7 120 09:36 07.06.2020
1775 Clouds 27 1009 57 10000 5.7 120 09:18 07.06.2020
1776 Clouds 27 1008 57 10000 5.7 110 08:41 07.06.2020
1777 Clouds 27 1008 57 10000 5.7 110 08:41 07.06.2020
1778 Clouds 27 1008 57 10000 5.7 110 08:23 07.06.2020
1779 Clouds 27 1008 50 10000 6.2 90 07:44 07.06.2020
1780 Clouds 27 1008 50 10000 6.2 90 07:26 07.06.2020
1781 Clouds 26 1009 50 10000 6.2 80 06:24 07.06.2020
1782 Rain 26 1009 57 10000 4.1 70 05:28 07.06.2020
1783 Rain 25 1009 57 10000 4.1 50 04:19 07.06.2020
1784 Clouds 23 1009 68 10000 4.1 30 02:30 07.06.2020
1785 Clouds 23 1009 68 10000 6.2 20 01:43 07.06.2020
1786 Clouds 22 1009 64 10000 7.2 20 01:24 07.06.2020
1787 Clouds 21 1008 68 10000 7.2 10 00:40 07.06.2020
1788 Clouds 21 1008 68 10000 7.2 10 00:18 07.06.2020
1789 Clouds 21 1008 68 10000 6.7 10 23:55 06.06.2020
1790 Clouds 21 1008 73 10000 6.2 10 23:36 06.06.2020
1791 Clouds 21 1008 68 10000 6.2 20 23:18 06.06.2020
1792 Clouds 21 1008 68 10000 6.2 20 22:55 06.06.2020
1793 Clouds 21 1008 68 10000 6.2 10 22:37 06.06.2020
1794 Clouds 21 1008 68 10000 6.2 10 22:18 06.06.2020
1795 Clouds 21 1006 95 0 0.89 52 21:42 06.06.2020
1796 Clouds 21 1006 95 0 1.34 1 21:20 06.06.2020
1797 Rain 21 1007 77 10000 5.7 10 20:41 06.06.2020
1798 Rain 20 1007 77 10000 5.7 10 20:21 06.06.2020
1799 Clouds 20 1007 77 10000 5.7 10 19:59 06.06.2020
1800 Rain 20 1007 77 10000 4.6 20 19:41 06.06.2020
1801 Rain 20 1007 77 10000 4.6 20 19:23 06.06.2020
1802 Rain 20 1007 83 10000 4.6 10 18:59 06.06.2020
1803 Rain 20 1007 83 10000 4.6 10 18:41 06.06.2020
1804 Rain 21 1007 83 10000 4.6 10 18:22 06.06.2020
1805 Rain 21 1007 88 10000 5.1 20 17:44 06.06.2020
1806 Rain 21 1007 88 10000 5.1 20 17:21 06.06.2020
1807 Rain 21 1007 83 10000 4.6 10 16:58 06.06.2020
1808 Rain 21 1007 88 10000 4.1 30 16:39 06.06.2020
1809 Rain 21 1007 83 10000 6.2 20 16:21 06.06.2020
1810 Rain 21 1007 83 10000 6.2 20 15:55 06.06.2020
1811 Rain 21 1008 88 6000 6.7 40 15:36 06.06.2020
1812 Rain 20 1008 93 3000 6.7 340 15:18 06.06.2020
1813 Rain 22 1008 88 10000 5.1 40 14:39 06.06.2020
1814 Rain 22 1008 88 10000 5.1 40 14:20 06.06.2020
1815 Rain 22 1007 88 10000 4.6 60 13:55 06.06.2020
1816 Rain 22 1007 88 10000 5.7 80 13:37 06.06.2020
1817 Rain 23 1006 88 10000 6.2 80 13:18 06.06.2020
1818 Clouds 23 1006 83 10000 5.1 100 12:42 06.06.2020
1819 Clouds 24 1006 83 10000 5.1 100 12:22 06.06.2020
1820 Clouds 25 1006 88 10000 4.6 100 11:58 06.06.2020
1821 Clouds 25 1006 83 10000 5.7 90 11:38 06.06.2020
1822 Thunderstorm 25 1005 65 10000 6.2 130 11:19 06.06.2020
1823 Thunderstorm 26 1005 65 10000 6.2 130 10:57 06.06.2020
1824 Thunderstorm 26 1005 65 10000 6.2 130 10:39 06.06.2020
1825 Thunderstorm 26 1005 65 10000 6.2 130 10:39 06.06.2020
1826 Thunderstorm 26 1005 65 10000 6.2 130 10:20 06.06.2020
1827 Clouds 27 1005 88 10000 3.6 150 09:45 06.06.2020
1828 Clouds 27 1005 88 10000 3.6 150 09:27 06.06.2020
1829 Clouds 28 1005 74 10000 3.6 120 08:58 06.06.2020
1830 Clouds 28 1005 74 10000 3.6 120 08:40 06.06.2020
1831 Clouds 28 1005 74 10000 3.6 120 08:19 06.06.2020
1832 Clouds 28 1005 74 10000 3.1 150 07:45 06.06.2020
1833 Clouds 28 1005 74 10000 3.1 150 07:45 06.06.2020
1834 Clouds 28 1005 69 10000 4.1 150 07:22 06.06.2020
1835 Clouds 28 1005 69 10000 4.1 150 06:46 06.06.2020
1836 Clouds 29 1005 69 10000 4.1 150 06:27 06.06.2020
1837 Clouds 29 1006 65 10000 3.6 80 05:54 06.06.2020
1838 Clouds 29 1006 65 10000 3.6 80 05:28 06.06.2020
1839 Clouds 29 1006 69 10000 3.1 120 04:43 06.06.2020
1840 Clouds 27 1007 74 10000 1.5 0 02:49 06.06.2020
1841 Clouds 26 1007 74 10000 2.1 10 01:56 06.06.2020
1842 Clouds 27 1007 78 10000 2.6 360 01:19 06.06.2020
1843 Clouds 26 1007 88 8000 1.5 10 00:45 06.06.2020
1844 Clouds 25 1007 88 8000 1.5 10 00:27 06.06.2020
1845 Clouds 25 1007 88 8000 1.5 10 00:27 06.06.2020
1846 Clouds 24 1006 94 8000 1 30 23:55 05.06.2020
1847 Clouds 24 1006 88 8000 1 100 23:36 05.06.2020
1848 Clouds 24 1006 88 8000 1 100 23:18 05.06.2020
1849 Clouds 23 1006 88 8000 0.5 0 22:55 05.06.2020
1850 Clouds 23 1006 88 8000 1 140 22:37 05.06.2020
1851 Clouds 23 1006 88 8000 1 140 22:18 05.06.2020
1852 Clouds 23 1005 83 10000 1 0 21:41 05.06.2020
1853 Clouds 23 1005 83 10000 1 0 21:22 05.06.2020
1854 Clouds 23 1005 83 10000 1.5 350 20:57 05.06.2020
1855 Clouds 23 1005 83 10000 1.5 340 20:38 05.06.2020
1856 Clouds 23 1005 83 10000 1.5 340 20:20 05.06.2020
1857 Clouds 24 1005 78 10000 4.1 290 19:42 05.06.2020
1858 Clouds 24 1005 73 10000 3.1 270 19:23 05.06.2020
1859 Clouds 24 1005 73 10000 3.1 270 18:56 05.06.2020
1860 Clouds 24 1005 73 10000 4.1 250 18:38 05.06.2020
1861 Clouds 24 1005 69 10000 5.1 210 18:19 05.06.2020
1862 Clouds 24 1005 69 10000 5.1 210 17:57 05.06.2020
1863 Clouds 24 1005 73 10000 5.7 210 17:38 05.06.2020
1864 Clouds 24 1005 73 10000 5.7 210 17:18 05.06.2020
1865 Clouds 24 1005 78 10000 7.2 200 16:39 05.06.2020
1866 Clouds 24 1005 78 10000 7.2 200 16:20 05.06.2020
1867 Clouds 25 1005 83 10000 7.2 210 15:47 05.06.2020
1868 Clouds 25 1005 83 10000 8.2 200 15:23 05.06.2020
1869 Clouds 25 1005 83 10000 8.2 200 14:59 05.06.2020
1870 Clouds 25 1005 83 10000 7.7 190 14:40 05.06.2020
1871 Clouds 24 1005 83 10000 7.7 190 14:22 05.06.2020
1872 Clouds 24 1005 83 10000 8.2 190 13:59 05.06.2020
1873 Clouds 25 1005 83 10000 8.2 190 13:59 05.06.2020
1874 Clouds 25 1004 83 10000 8.2 180 13:40 05.06.2020
1875 Clouds 25 1004 83 10000 8.2 180 13:22 05.06.2020
1876 Clouds 25 1004 83 10000 8.7 180 12:42 05.06.2020
1877 Clouds 25 1004 83 10000 8.7 180 12:20 05.06.2020
1878 Clouds 25 1005 83 10000 8.2 190 11:56 05.06.2020
1879 Clouds 25 1004 83 10000 9.3 190 11:38 05.06.2020
1880 Clouds 26 1004 61 10000 6.2 180 11:20 05.06.2020
1881 Clouds 26 1004 61 10000 6.2 180 10:54 05.06.2020
1882 Clouds 26 1004 61 10000 6.2 180 10:36 05.06.2020
1883 Clouds 27 1004 61 10000 6.2 180 10:18 05.06.2020
1884 Clouds 27 1004 78 10000 6.2 190 09:54 05.06.2020
1885 Clouds 27 1004 78 10000 6.2 190 09:36 05.06.2020
1886 Clouds 28 1004 78 10000 6.2 190 09:18 05.06.2020
1887 Clouds 29 1004 74 10000 5.7 190 08:41 05.06.2020
1888 Clouds 29 1004 74 10000 5.7 190 08:20 05.06.2020
1889 Clouds 30 1005 74 10000 4.6 190 07:56 05.06.2020
1890 Clouds 30 1005 74 10000 4.6 190 07:38 05.06.2020
1891 Clouds 30 1005 65 10000 5.1 190 06:56 05.06.2020
1892 Clouds 30 1006 69 10000 5.1 180 05:41 05.06.2020
1893 Clouds 29 1006 69 10000 5.1 180 05:18 05.06.2020
1894 Clouds 29 1006 83 10000 4.1 160 03:53 05.06.2020
1895 Clouds 27 1006 83 10000 4.1 150 02:45 05.06.2020
1896 Clouds 26 1006 83 10000 4.1 150 02:21 05.06.2020
1897 Clouds 26 1006 83 10000 3.6 150 01:52 05.06.2020
1898 Clouds 27 1006 73 10000 4.1 180 01:20 05.06.2020
1899 Clouds 25 1005 83 10000 3.1 170 00:41 05.06.2020
1900 Clouds 25 1005 83 10000 2.1 190 00:20 05.06.2020
1901 Clouds 24 1005 83 10000 2.1 190 23:46 04.06.2020
1902 Clouds 23 1005 83 10000 2.6 180 23:26 04.06.2020
1903 Clouds 23 1005 83 10000 2.1 190 22:55 04.06.2020
1904 Clouds 22 1005 83 10000 2.1 190 22:36 04.06.2020
1905 Clouds 22 1005 83 10000 2.1 190 22:18 04.06.2020
1906 Clouds 22 1005 88 10000 2.1 190 21:55 04.06.2020
1907 Clouds 22 1004 88 10000 2.1 210 21:36 04.06.2020
1908 Clouds 22 1004 88 10000 2.6 180 21:18 04.06.2020
1909 Clouds 22 1004 88 10000 3.6 200 20:40 04.06.2020
1910 Clouds 22 1004 88 10000 4.1 200 20:21 04.06.2020
1911 Clouds 22 1004 88 10000 4.6 200 19:59 04.06.2020
1912 Clouds 23 1004 88 10000 4.6 200 19:39 04.06.2020
1913 Clouds 23 1004 94 10000 5.7 200 19:21 04.06.2020
1914 Clouds 23 1004 94 10000 5.7 200 18:56 04.06.2020
1915 Clouds 23 1004 94 9000 5.7 190 18:37 04.06.2020
1916 Clouds 23 1004 94 8000 5.7 190 18:19 04.06.2020
1917 Clouds 23 1004 88 8000 6.2 180 17:42 04.06.2020
1918 Clouds 23 1004 88 8000 6.2 180 17:21 04.06.2020
1919 Clouds 23 1004 88 8000 5.7 190 16:56 04.06.2020
1920 Clouds 23 1005 88 7000 5.7 200 16:38 04.06.2020
1921 Clouds 23 1005 88 7000 5.7 200 16:18 04.06.2020
1922 Clouds 24 1005 88 7000 6.2 200 15:42 04.06.2020
1923 Clouds 24 1005 88 7000 6.2 200 15:24 04.06.2020
1924 Clouds 24 1005 88 8000 7.7 190 14:40 04.06.2020
1925 Clouds 24 1005 88 8000 7.7 190 14:21 04.06.2020
1926 Clouds 24 1005 88 10000 6.7 200 13:56 04.06.2020
1927 Clouds 24 1004 83 10000 5.1 190 13:38 04.06.2020
1928 Clouds 24 1004 83 10000 6.2 200 13:20 04.06.2020
1929 Clouds 25 1004 83 10000 6.2 200 12:58 04.06.2020
1930 Clouds 25 1004 78 10000 6.2 190 12:40 04.06.2020
1931 Clouds 25 1004 78 10000 6.2 190 12:21 04.06.2020
1932 Clouds 26 1005 69 10000 6.2 200 11:54 04.06.2020
1933 Clouds 26 1004 69 10000 6.7 190 11:36 04.06.2020
1934 Clouds 26 1004 61 10000 4.6 200 11:18 04.06.2020
1935 Clouds 27 1004 61 10000 4.6 200 10:39 04.06.2020
1936 Clouds 28 1004 74 10000 4.1 190 10:21 04.06.2020
1937 Clouds 28 1004 74 10000 4.1 190 09:56 04.06.2020
1938 Clouds 28 1004 74 10000 4.1 190 09:38 04.06.2020
1939 Clouds 28 1004 74 10000 4.1 190 09:19 04.06.2020
1940 Clouds 28 1004 74 10000 4.6 150 09:19 04.06.2020
1941 Clouds 28 1004 74 10000 4.6 150 08:41 04.06.2020
1942 Clouds 28 1004 74 10000 4.6 150 08:22 04.06.2020
1943 Clouds 28 1005 74 10000 2.1 140 07:33 04.06.2020
1944 Clouds 27 1005 74 9000 2.1 140 06:58 04.06.2020
1945 Clouds 27 1005 74 9000 2.1 140 06:58 04.06.2020
1946 Clouds 27 1005 74 9000 2.1 140 06:40 04.06.2020
1947 Clouds 27 1005 74 9000 2.1 140 06:40 04.06.2020
1948 Clouds 27 1006 78 9000 3.1 140 06:20 04.06.2020
1949 Clouds 27 1006 78 9000 3.1 140 05:33 04.06.2020
1950 Clouds 25 1006 78 8000 2.6 40 03:50 04.06.2020
1951 Clouds 24 1006 83 7000 2.6 20 02:22 04.06.2020
1952 Mist 23 1007 83 4000 3.1 350 01:39 04.06.2020
1953 Clouds 23 1006 88 6000 4.6 20 01:19 04.06.2020
1954 Mist 22 1006 94 4500 4.1 40 00:20 04.06.2020
1955 Mist 22 1006 94 4500 3.6 50 23:40 03.06.2020
1956 Mist 22 1006 94 4000 3.1 50 23:19 03.06.2020
1957 Mist 22 1006 94 4000 3.1 50 22:56 03.06.2020
1958 Mist 21 1006 94 4000 3.6 60 22:38 03.06.2020
1959 Mist 21 1006 94 4000 3.6 60 22:18 03.06.2020
1960 Mist 21 1006 94 3500 3.6 50 21:55 03.06.2020
1961 Mist 21 1005 94 5000 4.6 40 21:37 03.06.2020
1962 Mist 21 1005 100 5000 3.6 50 21:19 03.06.2020
1963 Mist 21 1005 100 4500 2.6 50 20:42 03.06.2020
1964 Mist 22 1005 100 5000 2.6 60 20:21 03.06.2020
1965 Mist 22 1005 100 5000 2.6 60 19:58 03.06.2020
1966 Mist 22 1005 100 5000 3.1 80 19:39 03.06.2020
1967 Mist 22 1005 100 7000 2.6 90 19:21 03.06.2020
1968 Mist 22 1005 100 7000 2.6 90 18:59 03.06.2020
1969 Clouds 22 1005 94 8000 2.1 80 18:41 03.06.2020
1970 Clouds 22 1005 94 8000 2.6 120 18:20 03.06.2020
1971 Clouds 22 1005 94 8000 2.6 120 17:54 03.06.2020
1972 Clouds 22 1005 94 8000 2.6 120 17:36 03.06.2020
1973 Clouds 22 1005 94 8000 2.6 120 17:18 03.06.2020
1974 Clouds 23 1005 94 10000 3.6 150 16:41 03.06.2020
1975 Clouds 23 1005 94 10000 3.6 150 16:20 03.06.2020
1976 Clouds 23 1005 94 10000 4.1 170 15:55 03.06.2020
1977 Clouds 23 1005 94 10000 4.1 170 15:55 03.06.2020
1978 Clouds 23 1005 88 10000 5.7 170 15:37 03.06.2020
1979 Clouds 23 1005 88 10000 5.7 170 15:19 03.06.2020
1980 Clouds 24 1005 83 10000 5.7 190 14:45 03.06.2020
1981 Clouds 24 1005 83 10000 5.7 190 14:24 03.06.2020
1982 Clouds 24 1005 83 10000 6.2 190 13:55 03.06.2020
1983 Clouds 24 1004 83 10000 5.1 170 13:37 03.06.2020
1984 Clouds 24 1005 83 10000 4.6 180 13:18 03.06.2020
1985 Clouds 25 1004 83 10000 5.1 170 12:42 03.06.2020
1986 Clouds 25 1004 73 10000 4.6 170 12:21 03.06.2020
1987 Clouds 26 1004 65 10000 5.1 190 11:45 03.06.2020
1988 Clouds 26 1004 65 10000 5.1 190 11:26 03.06.2020
1989 Clouds 26 1004 69 10000 3.6 180 10:56 03.06.2020
1990 Clouds 27 1004 69 10000 3.6 180 10:38 03.06.2020
1991 Clouds 27 1004 69 10000 3.6 180 10:20 03.06.2020
1992 Clouds 27 1004 69 10000 3.1 180 09:42 03.06.2020
1993 Clouds 28 1004 69 10000 3.1 180 09:19 03.06.2020
1994 Clouds 28 1004 69 10000 2.1 140 08:47 03.06.2020
1995 Clouds 28 1004 69 10000 2.1 140 08:24 03.06.2020
1996 Clouds 28 1004 74 10000 3.6 150 07:58 03.06.2020
1997 Clouds 28 1005 74 10000 3.1 120 07:39 03.06.2020
1998 Clouds 28 1005 74 10000 3.6 160 07:18 03.06.2020
1999 Clouds 28 1005 74 10000 3.6 160 06:45 03.06.2020
2000 Clouds 28 1005 74 10000 3.6 160 06:27 03.06.2020
2001 Clouds 27 1005 74 10000 4.6 150 05:45 03.06.2020
2002 Clouds 27 1005 78 8000 4.1 150 04:30 03.06.2020
2003 Clouds 27 1006 78 10000 3.6 140 03:42 03.06.2020
2004 Clouds 25 1006 73 10000 1.5 50 02:46 03.06.2020
2005 Clouds 25 1006 78 10000 4.1 20 01:47 03.06.2020
2006 Clouds 23 1006 88 10000 4.1 10 00:41 03.06.2020
2007 Clouds 23 1006 88 10000 4.1 10 00:22 03.06.2020
2008 Clouds 22 1005 88 10000 4.6 10 23:49 02.06.2020
2009 Clouds 22 1005 88 10000 4.6 10 23:27 02.06.2020
2010 Clouds 22 1005 94 10000 3.6 360 22:56 02.06.2020
2011 Clouds 22 1005 94 10000 3.1 340 22:37 02.06.2020
2012 Clouds 22 1005 94 10000 3.1 340 22:18 02.06.2020
2013 Rain 22 1005 94 10000 3.1 340 21:55 02.06.2020
2014 Clouds 22 1005 88 10000 2.1 260 21:36 02.06.2020
2015 Clouds 22 1005 88 10000 2.1 260 21:18 02.06.2020
2016 Clouds 22 1004 83 10000 1.5 170 20:55 02.06.2020
2017 Clouds 22 1004 83 10000 2.1 190 20:36 02.06.2020
2018 Clouds 22 1004 78 10000 0.5 0 20:18 02.06.2020
2019 Clouds 22 1004 78 10000 1.5 240 19:41 02.06.2020
2020 Clouds 23 1004 78 10000 1.5 240 19:23 02.06.2020
2021 Clouds 23 1004 78 10000 2.6 180 18:56 02.06.2020
2022 Clouds 23 1005 78 10000 2.6 240 18:38 02.06.2020
2023 Clouds 23 1005 78 10000 2.6 240 18:19 02.06.2020
2024 Clouds 23 1005 83 10000 4.1 190 17:42 02.06.2020
2025 Clouds 23 1005 83 10000 4.1 190 17:23 02.06.2020
2026 Clouds 23 1005 88 10000 4.6 190 16:57 02.06.2020
2027 Clouds 23 1005 88 10000 4.1 190 16:39 02.06.2020
2028 Clouds 23 1005 88 10000 4.1 190 16:20 02.06.2020
2029 Clouds 23 1005 94 10000 4.6 190 15:54 02.06.2020
2030 Clouds 23 1005 94 10000 5.1 190 15:36 02.06.2020
2031 Clouds 23 1006 88 10000 5.7 190 15:18 02.06.2020
2032 Clouds 23 1005 88 10000 6.7 180 14:42 02.06.2020
2033 Clouds 23 1005 88 10000 6.7 180 14:22 02.06.2020
2034 Clouds 24 1005 88 10000 6.7 170 13:39 02.06.2020
2035 Clouds 24 1005 88 10000 6.7 170 13:19 02.06.2020
2036 Clouds 24 1005 88 10000 6.2 180 12:59 02.06.2020
2037 Clouds 24 1005 88 10000 6.2 180 12:40 02.06.2020
2038 Clouds 24 1005 88 10000 6.2 180 12:21 02.06.2020
2039 Clouds 24 1005 88 10000 6.2 180 11:56 02.06.2020
2040 Clouds 25 1005 83 10000 6.7 180 11:38 02.06.2020
2041 Clouds 25 1005 65 10000 4.6 160 11:20 02.06.2020
2042 Clouds 26 1005 65 10000 4.6 160 10:47 02.06.2020
2043 Clouds 26 1005 65 10000 4.6 160 10:28 02.06.2020
2044 Clouds 26 1005 83 10000 5.1 190 09:58 02.06.2020
2045 Clouds 26 1005 83 10000 5.1 190 09:38 02.06.2020
2046 Clouds 27 1005 83 10000 5.1 190 09:20 02.06.2020
2047 Clouds 27 1005 83 10000 5.1 190 09:20 02.06.2020
2048 Clouds 27 1005 78 10000 4.1 180 08:48 02.06.2020
2049 Clouds 27 1006 78 10000 3.6 200 08:21 02.06.2020
2050 Clouds 27 1006 78 10000 3.6 200 07:52 02.06.2020
2051 Clouds 27 1006 78 10000 3.6 200 07:26 02.06.2020
2052 Clouds 27 1006 78 10000 4.6 150 06:47 02.06.2020
2053 Clouds 26 1007 83 6000 2.6 130 06:18 02.06.2020
2054 Clouds 25 1007 83 6000 2.6 130 05:21 02.06.2020
2055 Rain 23 1007 88 10000 2.6 150 03:25 02.06.2020
2056 Clouds 22 1008 94 10000 2.1 150 02:30 02.06.2020
2057 Clouds 21 1008 94 10000 1 0 01:25 02.06.2020
2058 Rain 21 1008 94 10000 1.5 160 00:26 02.06.2020
2059 Rain 21 1008 94 10000 2.1 190 23:58 01.06.2020
2060 Clouds 20 1008 94 10000 1.5 130 23:37 01.06.2020
2061 Clouds 20 1008 94 10000 1 110 23:18 01.06.2020
2062 Clouds 20 1008 94 10000 1 110 22:54 01.06.2020
2063 Clouds 20 1007 100 10000 1.5 120 22:36 01.06.2020
2064 Clouds 20 1008 94 10000 0.5 0 22:18 01.06.2020
2065 Clouds 20 1008 94 10000 1.5 20 21:40 01.06.2020
2066 Clouds 20 1007 100 10000 2.1 40 21:20 01.06.2020
2067 Clouds 20 1007 100 10000 2.1 40 20:58 01.06.2020
2068 Clouds 20 1007 94 10000 1.5 70 20:39 01.06.2020
2069 Clouds 20 1007 94 10000 1.5 70 20:19 01.06.2020
2070 Clouds 20 1007 94 10000 1.5 70 19:56 01.06.2020
2071 Clouds 20 1008 100 10000 2.1 10 19:38 01.06.2020
2072 Clouds 20 1008 94 10000 1.5 360 19:19 01.06.2020
2073 Rain 20 1008 94 10000 2.1 90 18:55 01.06.2020
2074 Rain 20 1008 94 10000 2.1 90 18:37 01.06.2020
2075 Rain 20 1008 100 10000 2.6 90 18:18 01.06.2020
2076 Rain 20 1009 94 10000 1.5 80 17:40 01.06.2020
2077 Rain 20 1009 94 10000 1.5 80 17:20 01.06.2020
2078 Clouds 21 1009 94 10000 1.5 110 16:42 01.06.2020
2079 Clouds 21 1009 94 10000 1.5 110 16:24 01.06.2020
2080 Clouds 20 1009 94 10000 2.6 110 15:59 01.06.2020
2081 Clouds 21 1009 88 10000 2.6 100 15:40 01.06.2020
2082 Clouds 21 1009 88 10000 2.6 100 15:20 01.06.2020
2083 Clouds 21 1009 88 10000 3.1 110 14:58 01.06.2020
2084 Clouds 20 1010 100 10000 2.1 90 14:40 01.06.2020
2085 Clouds 20 1010 100 10000 2.1 90 14:21 01.06.2020
2086 Rain 20 1010 94 8000 2.6 100 13:55 01.06.2020
2087 Rain 20 1010 94 8000 2.6 100 13:55 01.06.2020
2088 Rain 20 1010 94 8000 2.6 100 13:37 01.06.2020
2089 Rain 20 1010 94 6000 3.6 110 13:19 01.06.2020
2090 Mist 20 1010 94 6000 3.6 110 12:57 01.06.2020
2091 Rain 20 1009 94 8000 4.1 110 12:38 01.06.2020
2092 Rain 20 1009 94 8000 4.1 110 12:20 01.06.2020
2093 Rain 20 1010 94 10000 3.6 160 11:40 01.06.2020
2094 Mist 21 1010 94 5000 1 340 11:22 01.06.2020
2095 Mist 21 1010 94 5000 1 340 10:58 01.06.2020
2096 Mist 21 1010 94 5000 1 340 10:39 01.06.2020
2097 Mist 21 1010 94 5000 1 340 10:20 01.06.2020
2098 Clouds 21 1010 88 10000 0.5 0 09:55 01.06.2020
2099 Clouds 21 1010 88 10000 0.5 0 09:37 01.06.2020
2100 Clouds 21 1010 88 10000 0.5 0 09:19 01.06.2020
2101 Rain 20 1010 94 10000 0.5 0 08:45 01.06.2020
2102 Rain 20 1011 100 6000 2.1 120 08:25 01.06.2020
2103 Rain 20 1011 94 4500 2.6 110 07:45 01.06.2020
2104 Rain 21 1012 94 3000 1.5 340 07:27 01.06.2020
2105 Mist 20 1011 94 2000 5.1 110 06:54 01.06.2020
2106 Rain 21 1012 83 10000 0.5 0 06:20 01.06.2020
2107 Rain 21 1012 83 10000 0.5 0 05:50 01.06.2020
2108 Rain 21 1013 88 10000 1 0 04:23 01.06.2020
2109 Rain 21 1013 88 10000 3.1 120 03:46 01.06.2020
2110 Rain 20 1013 88 10000 3.1 120 03:24 01.06.2020
2111 Rain 19 1015 100 4000 1 0 01:50 01.06.2020
2112 Rain 19 1015 100 4000 1 0 01:30 01.06.2020
2113 Rain 19 1014 93 10000 2.1 90 00:58 01.06.2020
2114 Rain 19 1015 93 10000 2.1 100 00:39 01.06.2020
2115 Rain 20 1015 93 10000 2.1 100 00:21 01.06.2020
2116 Rain 20 1015 93 10000 2.1 100 00:21 01.06.2020
2117 Rain 20 1014 88 10000 2.6 110 23:56 31.05.2020
2118 Rain 19 1014 88 10000 3.1 120 23:38 31.05.2020
2119 Rain 20 1014 88 10000 3.1 120 23:20 31.05.2020
2120 Clouds 19 1015 88 10000 3.6 140 22:44 31.05.2020
2121 Clouds 19 1015 88 10000 3.6 140 22:26 31.05.2020
2122 Clouds 19 1015 88 10000 3.6 140 21:58 31.05.2020
2123 Clouds 19 1014 88 10000 4.6 140 21:40 31.05.2020
2124 Clouds 19 1014 88 10000 4.6 140 21:22 31.05.2020
2125 Clouds 20 1014 82 10000 3.1 130 20:57 31.05.2020
2126 Clouds 20 1014 82 10000 3.1 130 20:57 31.05.2020
2127 Clouds 20 1014 82 10000 2.1 140 20:38 31.05.2020
2128 Clouds 19 1015 82 10000 1.5 180 20:19 31.05.2020
2129 Clouds 19 1015 82 10000 1.5 180 19:54 31.05.2020
2130 Clouds 20 1015 77 10000 2.1 190 19:36 31.05.2020
2131 Clouds 20 1015 77 10000 2.6 210 19:18 31.05.2020
2132 Clouds 20 1015 72 10000 3.1 220 18:43 31.05.2020
2133 Clouds 20 1015 72 10000 3.1 220 18:25 31.05.2020
2134 Clouds 21 1015 73 10000 4.6 190 17:46 31.05.2020
2135 Clouds 21 1015 73 10000 4.6 190 17:25 31.05.2020
2136 Clouds 21 1016 73 10000 4.6 170 16:59 31.05.2020
2137 Clouds 21 1016 73 10000 3.1 180 16:40 31.05.2020
2138 Clouds 21 1016 73 10000 3.1 180 16:21 31.05.2020
2139 Clouds 21 1016 68 10000 3.1 190 15:40 31.05.2020
2140 Clouds 21 1017 68 10000 3.6 190 15:21 31.05.2020
2141 Clouds 21 1017 68 10000 4.6 220 14:47 31.05.2020
2142 Clouds 21 1017 68 10000 4.6 220 14:23 31.05.2020
2143 Clouds 21 1018 68 10000 4.6 200 13:57 31.05.2020
2144 Clouds 21 1017 68 10000 5.7 200 13:38 31.05.2020
2145 Clouds 21 1017 73 10000 5.7 190 13:20 31.05.2020
2146 Clouds 21 1017 73 10000 5.7 190 12:58 31.05.2020
2147 Clouds 22 1017 73 10000 6.2 200 12:39 31.05.2020
2148 Clouds 22 1018 68 10000 5.7 190 12:21 31.05.2020
2149 Clouds 22 1017 73 10000 6.7 180 11:49 31.05.2020
2150 Rain 23 1017 60 10000 5.1 170 11:24 31.05.2020
2151 Clouds 22 1017 73 10000 6.7 180 11:24 31.05.2020
2152 Rain 22 1017 60 10000 5.1 170 10:59 31.05.2020
2153 Rain 23 1017 60 10000 5.1 170 10:41 31.05.2020
2154 Rain 23 1017 60 10000 5.1 170 10:23 31.05.2020
2155 Clouds 23 1017 73 10000 5.7 140 09:56 31.05.2020
2156 Clouds 23 1017 73 10000 5.7 140 09:38 31.05.2020
2157 Clouds 23 1017 73 10000 5.7 140 09:38 31.05.2020
2158 Clouds 23 1017 73 10000 5.7 140 09:19 31.05.2020
2159 Rain 23 1017 69 10000 3.6 200 08:42 31.05.2020
2160 Rain 23 1017 69 10000 3.6 200 08:23 31.05.2020
2161 Rain 23 1017 69 10000 3.6 200 08:23 31.05.2020
2162 Clouds 23 1017 69 10000 3.1 190 07:48 31.05.2020
2163 Clouds 23 1017 69 10000 3.1 190 07:22 31.05.2020
2164 Clouds 24 1018 64 10000 3.6 180 06:57 31.05.2020
2165 Rain 25 1018 47 10000 4.6 180 06:34 31.05.2020
2166 Clouds 24 1019 69 10000 2.6 190 05:49 31.05.2020
2167 Clouds 24 1019 69 10000 2.6 190 05:31 31.05.2020
2168 Clouds 24 1020 83 10000 2.6 150 03:57 31.05.2020
2169 Clouds 23 1020 83 10000 2.6 150 03:22 31.05.2020
2170 Clouds 23 1020 83 10000 3.6 150 02:44 31.05.2020
2171 Clouds 23 1020 78 10000 3.6 160 01:45 31.05.2020
2172 Clouds 22 1020 83 10000 3.6 150 00:40 31.05.2020
2173 Clouds 22 1020 83 10000 3.6 150 00:20 31.05.2020
2174 Clouds 21 1020 88 10000 3.1 150 23:42 30.05.2020
2175 Clouds 21 1020 88 10000 3.1 150 23:42 30.05.2020
2176 Clouds 21 1020 88 10000 3.1 150 23:23 30.05.2020
2177 Clouds 21 1020 83 10000 3.6 160 22:54 30.05.2020
2178 Clouds 20 1020 88 10000 3.6 170 22:36 30.05.2020
2179 Clouds 20 1020 88 10000 4.1 180 22:18 30.05.2020
2180 Clouds 20 1020 88 10000 3.6 180 21:42 30.05.2020
2181 Clouds 20 1020 88 10000 4.1 180 21:22 30.05.2020
2182 Clouds 20 1020 88 10000 3.6 170 20:57 30.05.2020
2183 Clouds 20 1020 88 10000 3.6 170 20:57 30.05.2020
2184 Clouds 21 1020 88 10000 3.6 170 20:39 30.05.2020
2185 Clouds 21 1020 88 10000 3.6 170 20:21 30.05.2020
2186 Clouds 21 1020 88 10000 3.6 180 19:55 30.05.2020
2187 Clouds 21 1020 88 10000 3.1 180 19:37 30.05.2020
2188 Clouds 21 1020 88 10000 3.6 180 19:18 30.05.2020
2189 Clouds 21 1020 88 10000 3.6 170 18:43 30.05.2020
2190 Clouds 21 1020 83 10000 4.1 180 18:19 30.05.2020
2191 Clouds 21 1020 83 10000 4.6 190 17:42 30.05.2020
2192 Clouds 21 1020 83 10000 4.6 190 17:24 30.05.2020
2193 Clouds 21 1020 83 10000 4.6 190 17:24 30.05.2020
2194 Clouds 21 1020 83 10000 4.1 190 16:58 30.05.2020
2195 Clouds 21 1020 83 10000 4.6 190 16:39 30.05.2020
2196 Clouds 21 1020 83 10000 5.1 190 16:20 30.05.2020
2197 Clouds 21 1020 83 10000 4.6 190 15:42 30.05.2020
2198 Clouds 21 1020 83 10000 4.6 190 15:24 30.05.2020
2199 Clouds 22 1020 78 10000 5.1 200 14:45 30.05.2020
2200 Clouds 22 1020 78 10000 5.1 200 14:26 30.05.2020
2201 Clouds 22 1020 78 10000 6.2 200 13:44 30.05.2020
2202 Clouds 22 1020 73 10000 6.2 200 13:25 30.05.2020
2203 Clouds 23 1020 64 10000 6.7 200 12:42 30.05.2020
2204 Clouds 23 1020 64 10000 7.2 200 12:22 30.05.2020
2205 Clouds 23 1020 64 10000 7.2 200 11:58 30.05.2020
2206 Clouds 24 1020 64 10000 7.2 200 11:40 30.05.2020
2207 Clouds 24 1019 60 10000 5.1 200 11:22 30.05.2020
2208 Clouds 25 1019 60 10000 5.1 200 10:54 30.05.2020
2209 Clouds 25 1019 60 10000 5.1 200 10:36 30.05.2020
2210 Clouds 25 1019 60 10000 5.1 200 10:18 30.05.2020
2211 Clouds 25 1019 53 10000 4.6 210 09:41 30.05.2020
2212 Clouds 26 1019 53 10000 4.6 210 09:23 30.05.2020
2213 Clouds 26 1019 65 10000 5.1 200 08:40 30.05.2020
2214 Clouds 26 1019 65 10000 5.1 200 08:21 30.05.2020
2215 Clouds 26 1019 65 10000 4.1 180 07:38 30.05.2020
2216 Clouds 26 1019 65 10000 4.1 180 07:18 30.05.2020
2217 Clouds 27 1019 69 10000 4.1 180 06:25 30.05.2020
2218 Clouds 27 1019 65 10000 3.6 150 05:49 30.05.2020
2219 Clouds 26 1020 78 10000 3.6 140 04:37 30.05.2020
2220 Clouds 25 1020 78 10000 2.6 140 02:34 30.05.2020
2221 Clouds 23 1020 83 10000 2.1 140 01:57 30.05.2020
2222 Clouds 23 1020 83 10000 0.5 0 00:44 30.05.2020
2223 Clouds 22 1020 83 10000 0.5 0 00:24 30.05.2020
2224 Clouds 21 1019 82 10000 0.5 0 23:59 29.05.2020
2225 Clouds 20 1019 82 10000 1 280 23:38 29.05.2020
2226 Clouds 20 1019 88 10000 1.5 270 23:19 29.05.2020
2227 Clouds 20 1019 82 10000 1 280 23:19 29.05.2020
2228 Clouds 19 1019 88 10000 1.5 270 22:54 29.05.2020
2229 Clouds 19 1019 88 10000 2.1 170 22:36 29.05.2020
2230 Clouds 19 1019 88 10000 1 0 22:18 29.05.2020
2231 Clouds 19 1018 93 10000 0.5 0 21:40 29.05.2020
2232 Clouds 19 1018 93 10000 0.5 0 21:21 29.05.2020
2233 Clouds 19 1018 88 10000 1 150 20:58 29.05.2020
2234 Clouds 19 1018 88 10000 1 150 20:39 29.05.2020
2235 Clouds 19 1018 88 10000 1 150 20:19 29.05.2020
2236 Clouds 20 1017 88 10000 1 120 19:43 29.05.2020
2237 Clouds 20 1017 88 10000 1 120 19:24 29.05.2020
2238 Clouds 20 1017 88 10000 3.1 200 18:48 29.05.2020
2239 Clouds 20 1017 88 10000 3.1 200 18:23 29.05.2020
2240 Clouds 20 1017 88 10000 3.1 190 17:59 29.05.2020
2241 Clouds 20 1017 88 10000 3.1 200 17:39 29.05.2020
2242 Clouds 20 1017 88 10000 3.1 200 17:20 29.05.2020
2243 Clouds 20 1017 88 10000 3.1 200 16:54 29.05.2020
2244 Clouds 21 1016 88 10000 3.6 190 16:36 29.05.2020
2245 Clouds 21 1016 83 10000 4.1 190 16:18 29.05.2020
2246 Clouds 21 1016 83 10000 4.6 200 15:41 29.05.2020
2247 Clouds 21 1016 83 10000 4.6 200 15:21 29.05.2020
2248 Clouds 21 1016 83 10000 5.1 200 14:58 29.05.2020
2249 Clouds 21 1015 77 10000 5.1 200 14:38 29.05.2020
2250 Clouds 21 1015 77 10000 5.7 200 14:19 29.05.2020
2251 Clouds 22 1015 77 10000 5.7 190 13:43 29.05.2020
2252 Clouds 22 1015 77 10000 5.7 190 13:23 29.05.2020
2253 Clouds 22 1015 77 10000 5.7 180 12:57 29.05.2020
2254 Clouds 22 1014 68 10000 5.1 200 12:39 29.05.2020
2255 Clouds 22 1014 68 10000 5.1 200 12:19 29.05.2020
2256 Clouds 24 1013 56 10000 7.2 210 11:42 29.05.2020
2257 Clouds 24 1013 50 10000 5.1 170 11:24 29.05.2020
2258 Clouds 25 1013 50 10000 5.1 170 10:55 29.05.2020
2259 Clouds 25 1013 50 10000 5.1 170 10:36 29.05.2020
2260 Clouds 25 1012 60 10000 4.6 190 10:18 29.05.2020
2261 Clouds 26 1012 60 10000 4.6 190 09:41 29.05.2020
2262 Clouds 26 1012 53 10000 4.1 180 09:19 29.05.2020
2263 Clouds 26 1012 53 10000 4.1 180 08:48 29.05.2020
2264 Clouds 26 1012 53 10000 4.1 180 08:25 29.05.2020
2265 Clouds 27 1012 57 10000 4.1 160 07:48 29.05.2020
2266 Clouds 27 1012 57 10000 4.1 160 07:30 29.05.2020
2267 Clouds 26 1012 60 10000 5.1 160 06:58 29.05.2020
2268 Clouds 25 1012 60 10000 5.1 160 06:40 29.05.2020
2269 Clouds 25 1012 60 10000 5.1 160 06:22 29.05.2020
2270 Clouds 25 1013 60 10000 5.1 160 05:40 29.05.2020
2271 Rain 22 1012 68 10000 2.1 130 02:20 29.05.2020
2272 Rain 22 1012 68 10000 1.5 120 02:20 29.05.2020
2273 Rain 22 1013 68 10000 1 0 01:27 29.05.2020
2274 Clouds 22 1013 68 10000 1 0 00:53 29.05.2020
2275 Clouds 20 1012 68 10000 1.5 360 00:33 29.05.2020
2276 Clouds 18 1012 72 10000 2.1 350 23:58 28.05.2020
2277 Clouds 18 1012 72 10000 2.6 320 23:39 28.05.2020
2278 Clouds 17 1012 77 10000 2.6 340 23:18 28.05.2020
2279 Clouds 16 1012 82 10000 3.1 320 22:42 28.05.2020
2280 Clouds 16 1012 82 10000 3.1 320 22:24 28.05.2020
2281 Clouds 16 1012 77 10000 2.1 10 21:56 28.05.2020
2282 Clouds 17 1012 72 10000 3.1 10 21:38 28.05.2020
2283 Clear 17 1012 67 0 1.48 56 21:19 28.05.2020
2284 Clouds 17 1012 72 10000 4.1 10 20:56 28.05.2020
2285 Clouds 17 1011 68 10000 4.1 360 20:38 28.05.2020
2286 Clouds 17 1011 72 10000 4.1 10 20:18 28.05.2020
2287 Clouds 17 1011 72 10000 4.1 10 19:54 28.05.2020
2288 Clouds 17 1011 72 10000 4.1 10 19:54 28.05.2020
2289 Clouds 17 1010 72 10000 5.1 40 19:36 28.05.2020
2290 Clouds 17 1010 72 10000 5.1 40 19:18 28.05.2020
2291 Rain 18 1010 72 10000 6.2 40 18:41 28.05.2020
2292 Rain 19 1010 68 10000 7.7 30 18:22 28.05.2020
2293 Clouds 18 1010 72 10000 6.7 20 17:43 28.05.2020
2294 Clouds 19 1010 72 10000 4.6 50 17:22 28.05.2020
2295 Clouds 19 1010 72 10000 4.6 50 16:58 28.05.2020
2296 Clouds 19 1010 72 10000 4.6 50 16:58 28.05.2020
2297 Clouds 19 1010 72 10000 3.1 70 16:38 28.05.2020
2298 Clouds 19 1010 72 10000 3.1 90 16:20 28.05.2020
2299 Clouds 19 1009 64 10000 3.1 100 15:42 28.05.2020
2300 Clouds 19 1009 64 10000 3.1 100 15:24 28.05.2020
2301 Clouds 18 1009 63 10000 3.1 140 14:57 28.05.2020
2302 Clouds 19 1009 63 10000 3.6 140 14:38 28.05.2020
2303 Clouds 19 1008 63 10000 3.6 140 14:20 28.05.2020
2304 Clouds 20 1008 64 10000 4.1 120 13:43 28.05.2020
2305 Rain 19 1008 63 10000 5.1 110 13:24 28.05.2020
2306 Rain 19 1008 64 10000 3.6 90 12:42 28.05.2020
2307 Rain 20 1008 64 10000 3.6 90 12:19 28.05.2020
2308 Rain 20 1008 68 10000 3.6 80 11:44 28.05.2020
2309 Mist 20 1008 68 10000 3.6 80 11:26 28.05.2020
2310 Rain 20 1008 68 10000 3.6 80 11:26 28.05.2020
2311 Rain 21 1007 88 10000 4.6 350 10:58 28.05.2020
2312 Rain 22 1006 60 10000 4.1 130 10:40 28.05.2020
2313 Rain 22 1006 64 10000 7.7 120 10:22 28.05.2020
2314 Clouds 23 1006 64 10000 7.7 120 09:40 28.05.2020
2315 Clouds 23 1006 64 10000 5.7 120 09:22 28.05.2020
2316 Clouds 24 1006 64 10000 5.7 120 08:52 28.05.2020
2317 Clouds 24 1006 64 10000 5.7 120 08:32 28.05.2020
2318 Clouds 24 1006 64 10000 4.6 130 07:59 28.05.2020
2319 Clouds 24 1006 64 10000 4.6 130 07:41 28.05.2020
2320 Clouds 24 1006 64 10000 4.6 130 07:22 28.05.2020
2321 Clouds 25 1006 64 10000 5.1 140 06:39 28.05.2020
2322 Clouds 24 1006 64 10000 5.1 140 06:21 28.05.2020
2323 Clouds 24 1007 64 10000 4.6 130 05:38 28.05.2020
2324 Clouds 24 1007 64 10000 5.7 130 04:35 28.05.2020
2325 Clouds 23 1007 68 10000 5.1 130 03:52 28.05.2020
2326 Clouds 21 1007 60 10000 1.5 60 02:52 28.05.2020
2327 Clouds 21 1007 64 10000 2.1 50 01:57 28.05.2020
2328 Clouds 22 1007 72 10000 4.6 80 01:29 28.05.2020
2329 Clouds 22 1007 77 10000 5.1 50 00:46 28.05.2020
2330 Clouds 21 1006 77 10000 5.1 60 00:19 28.05.2020
2331 Clouds 21 1006 77 10000 5.1 60 23:55 27.05.2020
2332 Clouds 21 1006 82 10000 4.6 80 23:36 27.05.2020
2333 Clouds 21 1006 82 10000 4.6 80 23:18 27.05.2020
2334 Clouds 20 1006 82 10000 4.6 70 22:41 27.05.2020
2335 Clouds 20 1006 82 10000 4.6 70 22:22 27.05.2020
2336 Clouds 20 1006 77 10000 4.1 50 21:56 27.05.2020
2337 Clouds 20 1005 77 10000 4.6 60 21:37 27.05.2020
2338 Clouds 20 1005 77 10000 4.1 40 21:19 27.05.2020
2339 Clouds 20 1005 77 10000 4.1 40 20:56 27.05.2020
2340 Clouds 20 1005 77 10000 3.6 30 20:36 27.05.2020
2341 Clouds 20 1005 77 10000 4.6 10 20:18 27.05.2020
2342 Clouds 20 1004 77 10000 4.6 20 19:42 27.05.2020
2343 Clouds 20 1004 77 10000 4.6 20 19:20 27.05.2020
2344 Clouds 21 1004 73 10000 5.1 20 18:44 27.05.2020
2345 Clouds 21 1004 73 10000 5.1 20 18:20 27.05.2020
2346 Clouds 21 1004 77 10000 5.7 10 17:59 27.05.2020
2347 Clouds 21 1004 83 10000 6.7 20 17:40 27.05.2020
2348 Clouds 21 1004 83 10000 6.7 20 17:21 27.05.2020
2349 Clouds 21 1004 83 10000 4.6 10 16:56 27.05.2020
2350 Clouds 21 1004 83 10000 5.1 20 16:38 27.05.2020
2351 Clouds 21 1003 88 10000 5.1 30 16:19 27.05.2020
2352 Clouds 22 1003 83 10000 5.1 60 15:47 27.05.2020
2353 Clouds 22 1003 83 10000 5.1 80 15:22 27.05.2020
2354 Clouds 22 1003 88 10000 1.5 60 14:47 27.05.2020
2355 Clouds 23 1003 88 10000 1.5 60 14:22 27.05.2020
2356 Clouds 23 1002 78 10000 3.6 190 13:59 27.05.2020
2357 Clouds 23 1001 78 10000 4.1 180 13:41 27.05.2020
2358 Clouds 23 1001 78 10000 4.1 180 13:22 27.05.2020
2359 Clouds 24 1001 78 10000 4.6 180 12:42 27.05.2020
2360 Clouds 24 1001 78 10000 4.6 180 12:23 27.05.2020
2361 Clouds 24 1001 73 10000 5.1 180 11:56 27.05.2020
2362 Clouds 25 1000 73 10000 4.6 140 11:37 27.05.2020
2363 Clouds 25 1000 57 10000 3.1 100 11:19 27.05.2020
2364 Clouds 26 1000 57 10000 3.1 100 10:43 27.05.2020
2365 Clouds 26 1000 73 10000 4.1 130 10:24 27.05.2020
2366 Clouds 26 1000 73 10000 4.1 130 09:57 27.05.2020
2367 Clouds 26 1000 73 10000 4.1 130 09:39 27.05.2020
2368 Clouds 26 1001 69 10000 2.1 120 09:20 27.05.2020
2369 Clouds 26 1001 69 10000 2.1 120 08:42 27.05.2020
2370 Clouds 26 1001 69 10000 2.1 120 08:24 27.05.2020
2371 Clouds 25 1001 69 10000 2.1 130 07:53 27.05.2020
2372 Clouds 26 1001 69 10000 2.1 130 07:35 27.05.2020
2373 Clouds 26 1001 69 10000 2.1 130 07:35 27.05.2020
2374 Clouds 25 1002 69 10000 2.6 140 06:56 27.05.2020
2375 Clouds 25 1002 69 10000 2.6 140 06:31 27.05.2020
2376 Clouds 24 1002 73 10000 3.6 90 05:50 27.05.2020
2377 Clouds 24 1002 73 10000 3.6 90 05:30 27.05.2020
2378 Clouds 23 1003 78 10000 3.1 20 04:18 27.05.2020
2379 Clouds 21 1004 83 10000 2.1 40 02:30 27.05.2020
2380 Clouds 21 1004 88 10000 4.6 10 01:45 27.05.2020
2381 Clouds 20 1004 94 8000 4.1 350 01:20 27.05.2020
2382 Clouds 20 1004 94 8000 4.6 350 00:44 27.05.2020
2383 Clouds 20 1004 88 7000 3.1 340 00:19 27.05.2020
2384 Clouds 20 1003 88 10000 2.6 320 23:43 26.05.2020
2385 Clouds 20 1003 88 10000 2.6 320 23:25 26.05.2020
2386 Clouds 19 1003 94 9000 2.6 300 22:59 26.05.2020
2387 Clouds 20 1003 94 8000 2.1 330 22:38 26.05.2020
2388 Clouds 20 1003 88 6000 1.5 20 22:20 26.05.2020
2389 Clouds 20 1003 88 6000 1.5 20 21:57 26.05.2020
2390 Clouds 20 1003 94 6000 2.1 10 21:39 26.05.2020
2391 Clouds 20 1003 94 6000 2.1 10 21:20 26.05.2020
2392 Mist 20 1003 94 5000 2.1 10 20:42 26.05.2020
2393 Mist 20 1003 94 5000 2.1 10 20:21 26.05.2020
2394 Mist 20 1003 94 4500 1.5 10 19:56 26.05.2020
2395 Mist 20 1004 100 4500 4.57 4 19:37 26.05.2020
2396 Mist 20 1004 100 4500 1 120 19:18 26.05.2020
2397 Clouds 20 1004 100 6000 1.5 130 18:43 26.05.2020
2398 Clouds 20 1004 100 6000 1.5 130 18:22 26.05.2020
2399 Rain 20 1005 100 6000 1 110 17:57 26.05.2020
2400 Clouds 20 1005 100 6000 1.5 360 17:38 26.05.2020
2401 Clouds 20 1005 100 6000 1.5 360 17:20 26.05.2020
2402 Clouds 21 1006 100 9000 0.5 0 16:42 26.05.2020
2403 Rain 21 1006 94 10000 2.1 160 16:19 26.05.2020
2404 Rain 21 1006 94 10000 2.1 170 15:54 26.05.2020
2405 Rain 21 1006 94 10000 2.1 170 15:36 26.05.2020
2406 Rain 21 1007 94 10000 2.6 190 15:18 26.05.2020
2407 Rain 21 1007 88 10000 3.6 180 14:43 26.05.2020
2408 Rain 21 1006 88 10000 3.1 180 14:22 26.05.2020
2409 Rain 21 1006 88 10000 3.1 180 13:55 26.05.2020
2410 Rain 21 1006 88 10000 3.6 190 13:37 26.05.2020
2411 Rain 21 1006 88 10000 3.6 190 13:18 26.05.2020
2412 Rain 21 1006 94 10000 3.6 190 12:41 26.05.2020
2413 Rain 22 1006 94 10000 3.6 190 12:20 26.05.2020
2414 Rain 22 1006 94 10000 3.6 190 11:57 26.05.2020
2415 Rain 22 1006 94 10000 2.6 170 11:39 26.05.2020
2416 Rain 22 1006 88 10000 1.5 130 11:18 26.05.2020
2417 Rain 22 1006 88 10000 1.5 130 10:41 26.05.2020
2418 Rain 22 1006 94 10000 4.1 120 10:19 26.05.2020
2419 Rain 22 1006 94 10000 4.1 120 09:39 26.05.2020
2420 Rain 22 1006 94 10000 4.1 120 09:20 26.05.2020
2421 Rain 22 1006 94 10000 4.1 120 08:43 26.05.2020
2422 Rain 22 1006 94 10000 4.1 120 08:22 26.05.2020
2423 Clouds 23 1007 83 10000 4.6 110 07:57 26.05.2020
2424 Clouds 24 1007 83 10000 4.6 110 07:37 26.05.2020
2425 Clouds 24 1007 83 10000 4.6 110 07:18 26.05.2020
2426 Clouds 24 1007 78 10000 4.6 110 06:44 26.05.2020
2427 Clouds 24 1008 83 10000 1.5 0 05:55 26.05.2020
2428 Clouds 24 1008 83 10000 1.5 0 05:35 26.05.2020
2429 Clouds 24 1008 83 10000 1.5 130 04:55 26.05.2020
2430 Clouds 24 1008 83 10000 1.5 130 04:34 26.05.2020
2431 Clouds 24 1008 78 10000 1.5 140 03:59 26.05.2020
2432 Clouds 23 1009 88 10000 3.6 130 02:49 26.05.2020
2433 Clouds 22 1009 88 10000 4.1 120 01:49 26.05.2020
2434 Clouds 23 1009 94 10000 3.6 90 01:29 26.05.2020
2435 Clouds 22 1009 94 10000 2.6 50 00:39 26.05.2020
2436 Clouds 21 1009 94 10000 2.1 50 00:19 26.05.2020
2437 Clouds 21 1009 94 10000 2.6 90 23:56 25.05.2020
2438 Clouds 21 1009 94 10000 2.6 90 23:38 25.05.2020
2439 Clouds 21 1009 94 10000 2.6 90 23:19 25.05.2020
2440 Clouds 21 1009 94 10000 2.1 60 23:19 25.05.2020
2441 Clouds 21 1009 94 10000 2.1 60 22:55 25.05.2020
2442 Clouds 21 1008 88 10000 1.5 70 22:36 25.05.2020
2443 Clouds 21 1008 88 10000 1.5 70 22:36 25.05.2020
2444 Clouds 21 1008 88 10000 1 120 22:18 25.05.2020
2445 Clouds 20 1008 88 10000 1 120 21:56 25.05.2020
2446 Clouds 21 1008 88 10000 1 0 21:36 25.05.2020
2447 Clouds 21 1008 88 10000 2.1 220 21:18 25.05.2020
2448 Clouds 20 1007 88 10000 3.1 190 20:43 25.05.2020
2449 Clouds 20 1007 88 10000 3.1 190 20:22 25.05.2020
2450 Clouds 20 1008 88 10000 3.6 190 19:59 25.05.2020
2451 Clouds 20 1008 88 10000 3.6 190 19:41 25.05.2020
2452 Clouds 20 1008 88 10000 5.7 190 19:19 25.05.2020
2453 Clouds 20 1008 88 10000 5.7 190 18:58 25.05.2020
2454 Clouds 20 1008 88 10000 5.1 190 18:40 25.05.2020
2455 Clouds 21 1008 88 10000 5.7 200 18:20 25.05.2020
2456 Clouds 21 1008 88 10000 4.6 180 17:44 25.05.2020
2457 Clouds 21 1008 88 10000 4.6 180 17:25 25.05.2020
2458 Clouds 21 1009 88 10000 5.1 190 16:58 25.05.2020
2459 Clouds 21 1009 88 10000 7.7 190 16:40 25.05.2020
2460 Clouds 21 1009 88 10000 7.7 190 16:21 25.05.2020
2461 Clouds 21 1009 82 10000 5.7 200 15:45 25.05.2020
2462 Clouds 21 1009 82 10000 5.7 200 15:21 25.05.2020
2463 Clouds 21 1010 82 10000 4.6 190 14:59 25.05.2020
2464 Clouds 21 1010 88 10000 4.1 190 14:41 25.05.2020
2465 Clouds 21 1010 88 10000 4.6 190 14:23 25.05.2020
2466 Clouds 21 1010 88 10000 4.6 190 13:56 25.05.2020
2467 Clouds 21 1009 82 10000 4.6 190 13:37 25.05.2020
2468 Clouds 21 1009 82 10000 4.6 190 13:37 25.05.2020
2469 Clouds 21 1009 82 10000 4.6 190 13:37 25.05.2020
2470 Clouds 21 1009 82 10000 4.6 190 13:19 25.05.2020
2471 Clouds 22 1009 77 10000 6.2 200 12:40 25.05.2020
2472 Clouds 22 1009 77 10000 6.2 200 12:21 25.05.2020
2473 Clouds 22 1009 68 10000 5.1 200 11:57 25.05.2020
2474 Clouds 23 1009 68 10000 6.2 200 11:38 25.05.2020
2475 Clouds 23 1008 57 10000 3.6 190 11:18 25.05.2020
2476 Clouds 24 1008 57 10000 3.6 190 10:41 25.05.2020
2477 Clouds 24 1008 57 10000 3.6 190 10:21 25.05.2020
2478 Clouds 25 1008 69 10000 4.1 200 09:57 25.05.2020
2479 Clouds 25 1008 69 10000 4.1 200 09:57 25.05.2020
2480 Clouds 25 1008 69 10000 4.1 200 09:38 25.05.2020
2481 Clouds 25 1008 60 10000 4.1 190 09:19 25.05.2020
2482 Clouds 25 1008 68 10000 3.6 190 08:57 25.05.2020
2483 Clouds 25 1008 68 10000 3.6 190 08:36 25.05.2020
2484 Clouds 25 1008 68 10000 3.6 190 08:36 25.05.2020
2485 Clouds 25 1009 69 10000 3.6 190 08:18 25.05.2020
2486 Clouds 25 1009 69 10000 3.6 190 07:42 25.05.2020
2487 Clouds 25 1009 69 10000 3.6 190 07:21 25.05.2020
2488 Clouds 26 1009 60 10000 4.1 150 06:49 25.05.2020
2489 Clouds 26 1009 60 10000 4.1 150 06:31 25.05.2020
2490 Clouds 24 1011 73 10000 4.6 150 04:18 25.05.2020
2491 Clouds 23 1011 73 10000 4.6 150 03:23 25.05.2020
2492 Clouds 24 1011 78 10000 4.6 150 02:45 25.05.2020
2493 Clouds 23 1011 69 10000 4.6 180 01:51 25.05.2020
2494 Clouds 23 1011 69 10000 4.6 180 01:28 25.05.2020
2495 Clouds 22 1011 73 10000 4.1 180 00:38 25.05.2020
2496 Clouds 21 1011 73 10000 3.6 180 00:19 25.05.2020
2497 Clouds 21 1011 73 10000 3.6 180 23:55 24.05.2020
2498 Clouds 21 1011 77 10000 2.6 190 23:36 24.05.2020
2499 Clouds 21 1011 77 10000 2.6 190 23:18 24.05.2020
2500 Clouds 20 1011 82 10000 4.1 200 22:41 24.05.2020
2501 Clouds 19 1011 82 10000 4.1 200 22:19 24.05.2020
2502 Clouds 19 1011 82 10000 4.1 200 21:56 24.05.2020
2503 Clouds 20 1011 82 10000 4.1 200 21:38 24.05.2020
2504 Clouds 20 1011 82 10000 2.6 220 21:20 24.05.2020
2505 Clouds 20 1011 82 10000 2.6 210 20:44 24.05.2020
2506 Clouds 20 1011 82 10000 2.6 210 20:23 24.05.2020
2507 Clouds 20 1011 82 10000 3.1 200 19:59 24.05.2020
2508 Clouds 20 1011 77 10000 4.1 190 19:41 24.05.2020
2509 Clouds 20 1011 77 10000 4.1 190 19:20 24.05.2020
2510 Clouds 20 1011 82 10000 4.1 190 19:20 24.05.2020
2511 Clouds 20 1011 82 10000 4.1 190 18:59 24.05.2020
2512 Clouds 20 1011 77 10000 4.6 190 18:40 24.05.2020
2513 Clouds 20 1012 77 10000 4.1 190 18:22 24.05.2020
2514 Clouds 20 1012 77 10000 4.1 190 17:56 24.05.2020
2515 Clouds 20 1012 77 10000 3.6 190 17:36 24.05.2020
2516 Clouds 20 1012 77 10000 4.1 200 17:18 24.05.2020
2517 Clouds 20 1013 82 10000 4.1 200 16:39 24.05.2020
2518 Clouds 20 1013 82 10000 4.1 210 16:21 24.05.2020
2519 Clouds 20 1013 82 10000 4.1 210 15:58 24.05.2020
2520 Clouds 20 1013 82 10000 4.6 200 15:39 24.05.2020
2521 Clouds 20 1013 82 10000 5.1 200 15:19 24.05.2020
2522 Clouds 21 1013 82 10000 5.1 200 14:55 24.05.2020
2523 Clouds 21 1013 82 10000 3.6 200 14:37 24.05.2020
2524 Clouds 21 1013 82 10000 4.1 190 14:18 24.05.2020
2525 Clouds 21 1013 82 10000 4.1 190 13:55 24.05.2020
2526 Clouds 21 1013 77 10000 5.1 170 13:36 24.05.2020
2527 Clouds 21 1013 77 10000 5.1 170 13:36 24.05.2020
2528 Clouds 21 1013 77 10000 6.7 160 13:18 24.05.2020
2529 Clouds 21 1013 77 10000 6.7 160 12:54 24.05.2020
2530 Clouds 21 1013 73 10000 6.2 160 12:36 24.05.2020
2531 Clouds 21 1013 73 10000 6.2 160 12:36 24.05.2020
2532 Clouds 22 1013 68 10000 6.2 170 12:18 24.05.2020
2533 Clouds 23 1013 64 10000 5.7 190 11:42 24.05.2020
2534 Clouds 23 1013 64 10000 5.7 190 11:42 24.05.2020
2535 Clouds 23 1012 53 10000 5.1 180 11:23 24.05.2020
2536 Clouds 24 1012 53 10000 5.1 180 10:59 24.05.2020
2537 Clouds 24 1012 53 10000 5.1 180 10:40 24.05.2020
2538 Clouds 24 1012 53 10000 5.1 180 10:22 24.05.2020
2539 Clouds 25 1013 64 10000 5.1 200 09:55 24.05.2020
2540 Clouds 25 1012 50 10000 5.1 180 09:37 24.05.2020
2541 Clouds 26 1013 61 10000 4.6 190 09:18 24.05.2020
2542 Clouds 26 1013 61 10000 4.6 190 08:41 24.05.2020
2543 Clouds 26 1013 61 10000 4.6 190 08:41 24.05.2020
2544 Clouds 26 1013 61 10000 4.6 190 08:22 24.05.2020
2545 Clouds 26 1013 65 10000 3.6 180 07:57 24.05.2020
2546 Clouds 26 1013 65 10000 3.6 180 07:39 24.05.2020
2547 Clouds 25 1014 73 10000 4.6 150 07:19 24.05.2020
2548 Clouds 25 1013 53 10000 3.6 180 06:38 24.05.2020
2549 Clouds 25 1014 64 10000 2.6 130 05:49 24.05.2020
2550 Clouds 24 1015 73 10000 2.1 140 03:56 24.05.2020
2551 Clouds 24 1015 73 10000 2.1 140 03:35 24.05.2020
2552 Clouds 22 1015 78 10000 1.5 150 02:24 24.05.2020
2553 Clouds 22 1015 93 10000 1.5 50 01:18 24.05.2020
2554 Clouds 21 1016 93 10000 2.1 80 00:37 24.05.2020
2555 Clouds 19 1016 93 10000 1 60 00:19 24.05.2020
2556 Clouds 19 1015 88 10000 0.5 0 23:39 23.05.2020
2557 Clouds 19 1015 100 10000 1 0 23:20 23.05.2020
2558 Clouds 18 1015 100 10000 1 0 22:55 23.05.2020
2559 Clouds 17 1015 100 10000 1.5 120 22:37 23.05.2020
2560 Clouds 17 1015 100 10000 1.5 120 22:19 23.05.2020
2561 Clouds 17 1015 93 10000 1 340 21:56 23.05.2020
2562 Clouds 17 1015 93 10000 1 210 21:37 23.05.2020
2563 Clouds 17 1015 100 10000 1.5 180 21:18 23.05.2020
2564 Clouds 17 1015 100 10000 1.5 180 20:54 23.05.2020
2565 Clouds 17 1015 93 10000 1.5 170 20:36 23.05.2020
2566 Clouds 17 1015 93 10000 1.5 170 20:18 23.05.2020
2567 Clouds 17 1015 93 10000 2.6 150 19:41 23.05.2020
2568 Clouds 17 1015 93 10000 2.6 150 19:19 23.05.2020
2569 Clouds 18 1015 93 10000 1.5 170 18:56 23.05.2020
2570 Clouds 18 1015 93 10000 1.5 190 18:37 23.05.2020
2571 Clouds 18 1015 93 10000 1.5 170 18:19 23.05.2020
2572 Clouds 18 1015 93 10000 1.5 170 17:54 23.05.2020
2573 Clouds 18 1015 93 10000 2.1 170 17:36 23.05.2020
2574 Clouds 18 1015 88 10000 2.1 160 17:18 23.05.2020
2575 Clouds 18 1015 93 10000 2.1 170 17:18 23.05.2020
2576 Clouds 19 1015 88 10000 2.1 160 16:55 23.05.2020
2577 Clouds 18 1015 93 10000 1.5 140 16:37 23.05.2020
2578 Clouds 18 1015 93 10000 1.5 120 16:18 23.05.2020
2579 Clouds 19 1015 93 10000 2.1 140 15:41 23.05.2020
2580 Clouds 19 1015 93 10000 2.1 140 15:23 23.05.2020
2581 Clouds 19 1015 88 10000 3.1 150 14:55 23.05.2020
2582 Clouds 19 1014 88 10000 3.6 150 14:36 23.05.2020
2583 Clouds 19 1014 88 10000 3.6 150 14:18 23.05.2020
2584 Clouds 20 1014 77 10000 3.1 180 13:39 23.05.2020
2585 Clouds 20 1014 77 10000 3.6 190 13:19 23.05.2020
2586 Clouds 21 1014 68 10000 4.1 190 12:43 23.05.2020
2587 Clouds 21 1013 68 10000 4.6 200 12:20 23.05.2020
2588 Clouds 21 1013 68 10000 4.6 200 11:59 23.05.2020
2589 Clouds 22 1013 68 10000 5.1 200 11:41 23.05.2020
2590 Clouds 22 1013 64 10000 4.6 170 11:19 23.05.2020
2591 Clouds 22 1013 64 10000 4.6 170 10:56 23.05.2020
2592 Clouds 23 1013 64 10000 4.6 170 10:38 23.05.2020
2593 Clouds 23 1012 60 10000 4.6 170 10:19 23.05.2020
2594 Clouds 23 1012 60 10000 4.6 170 09:55 23.05.2020
2595 Clouds 23 1012 60 10000 4.6 170 09:37 23.05.2020
2596 Clouds 23 1013 83 10000 2.6 150 09:18 23.05.2020
2597 Clouds 23 1012 56 10000 4.1 180 08:41 23.05.2020
2598 Clouds 22 1012 56 10000 4.1 180 08:19 23.05.2020
2599 Clouds 22 1013 82 10000 2.6 150 07:46 23.05.2020
2600 Clouds 22 1013 82 10000 2.6 150 07:27 23.05.2020
2601 Clouds 21 1014 93 10000 3.1 120 06:45 23.05.2020
2602 Clouds 21 1014 93 10000 3.1 120 06:19 23.05.2020
2603 Rain 20 1014 93 2500 1.5 60 04:27 23.05.2020
2604 Rain 20 1014 93 2500 1.5 60 03:27 23.05.2020
2605 Rain 19 1015 93 8000 2.1 310 02:48 23.05.2020
2606 Clouds 18 1015 88 10000 2.6 40 01:53 23.05.2020
2607 Clouds 18 1015 88 10000 3.1 40 01:20 23.05.2020
2608 Clouds 18 1015 88 10000 3.1 350 00:44 23.05.2020
2609 Clouds 17 1015 88 10000 3.1 350 00:22 23.05.2020
2610 Clouds 17 1015 88 10000 3.6 350 23:55 22.05.2020
2611 Clouds 17 1015 88 10000 3.6 350 23:36 22.05.2020
2612 Clouds 17 1015 88 10000 4.1 10 23:18 22.05.2020
2613 Clouds 16 1015 93 10000 4.6 10 22:42 22.05.2020
2614 Clouds 16 1015 93 10000 4.6 10 22:21 22.05.2020
2615 Rain 16 1014 93 10000 4.6 10 21:56 22.05.2020
2616 Rain 16 1014 93 10000 4.6 10 21:38 22.05.2020
2617 Rain 16 1014 93 10000 4.6 10 21:20 22.05.2020
2618 Rain 16 1015 100 10000 3.6 350 20:45 22.05.2020
2619 Rain 16 1015 93 10000 3.6 10 20:21 22.05.2020
2620 Rain 16 1015 93 10000 3.6 10 19:59 22.05.2020
2621 Rain 16 1015 93 10000 4.6 360 19:37 22.05.2020
2622 Clouds 16 1015 93 10000 4.1 350 19:18 22.05.2020
2623 Rain 16 1015 93 10000 5.1 360 18:39 22.05.2020
2624 Rain 16 1015 93 10000 5.1 360 18:19 22.05.2020
2625 Rain 16 1015 100 8000 4.6 360 17:56 22.05.2020
2626 Clouds 16 1015 93 10000 6.7 340 17:36 22.05.2020
2627 Rain 16 1016 100 10000 4.1 330 17:18 22.05.2020
2628 Rain 16 1016 93 10000 5.1 330 16:43 22.05.2020
2629 Rain 16 1016 100 10000 3.1 350 16:20 22.05.2020
2630 Rain 16 1016 100 10000 3.1 350 16:20 22.05.2020
2631 Rain 16 1016 100 10000 3.1 350 15:57 22.05.2020
2632 Rain 16 1016 100 10000 3.1 350 15:57 22.05.2020
2633 Rain 16 1016 100 6000 3.6 330 15:39 22.05.2020
2634 Rain 16 1017 93 4000 3.6 330 15:19 22.05.2020
2635 Rain 16 1017 93 4000 4.6 350 14:43 22.05.2020
2636 Rain 16 1017 93 4000 4.6 350 14:24 22.05.2020
2637 Rain 16 1016 93 10000 5.7 350 13:45 22.05.2020
2638 Rain 16 1017 93 10000 4.6 360 13:20 22.05.2020
2639 Clouds 16 1017 93 10000 4.6 360 12:54 22.05.2020
2640 Rain 16 1016 93 10000 6.2 360 12:36 22.05.2020
2641 Rain 16 1016 93 10000 6.2 360 12:18 22.05.2020
2642 Rain 17 1016 93 6000 6.7 10 11:42 22.05.2020
2643 Rain 17 1016 93 6000 6.7 10 11:42 22.05.2020
2644 Clouds 18 1016 77 10000 4.1 30 11:20 22.05.2020
2645 Clouds 18 1016 77 10000 4.1 30 11:20 22.05.2020
2646 Clouds 18 1016 77 10000 4.1 30 10:55 22.05.2020
2647 Clouds 18 1016 77 10000 4.1 30 10:37 22.05.2020
2648 Rain 18 1016 93 5000 3.6 10 10:18 22.05.2020
2649 Rain 18 1016 93 5000 3.6 10 09:42 22.05.2020
2650 Rain 18 1017 93 4000 3.6 360 09:19 22.05.2020
2651 Rain 17 1017 93 4500 3.6 20 08:44 22.05.2020
2652 Rain 17 1017 93 4500 3.6 20 08:44 22.05.2020
2653 Rain 17 1017 93 4500 3.6 20 08:21 22.05.2020
2654 Rain 17 1017 88 7000 4.6 20 07:57 22.05.2020
2655 Rain 18 1017 88 7000 4.6 20 07:27 22.05.2020
2656 Rain 18 1017 82 10000 5.7 30 06:59 22.05.2020
2657 Rain 18 1017 82 10000 5.7 30 06:40 22.05.2020
2658 Rain 18 1018 87 10000 3.6 360 05:53 22.05.2020
2659 Rain 18 1018 87 10000 3.6 360 05:32 22.05.2020
2660 Rain 18 1018 93 3000 4.1 10 04:44 22.05.2020
2661 Clouds 17 1018 77 10000 3.6 10 03:49 22.05.2020
2662 Clouds 17 1018 82 10000 3.6 20 03:23 22.05.2020
2663 Clouds 16 1018 82 10000 3.6 360 01:57 22.05.2020
2664 Clouds 16 1018 87 10000 6.2 360 01:29 22.05.2020
2665 Clouds 15 1018 87 10000 6.7 360 00:50 22.05.2020
2666 Clouds 15 1018 87 10000 6.7 360 00:28 22.05.2020
2667 Clouds 15 1018 82 10000 6.2 10 23:54 21.05.2020
2668 Clouds 14 1018 82 10000 6.2 20 23:36 21.05.2020
2669 Clouds 14 1018 87 10000 6.2 20 23:18 21.05.2020
2670 Clouds 14 1018 87 10000 6.2 20 22:55 21.05.2020
2671 Clouds 14 1017 87 10000 6.2 10 22:36 21.05.2020
2672 Clouds 14 1018 87 10000 5.7 10 22:18 21.05.2020
2673 Clouds 14 1017 82 10000 6.2 10 21:43 21.05.2020
2674 Clouds 14 1017 82 10000 6.2 10 21:25 21.05.2020
2675 Clouds 14 1018 82 10000 6.2 360 20:54 21.05.2020
2676 Clouds 14 1017 82 10000 5.7 10 20:36 21.05.2020
2677 Clouds 14 1017 87 10000 6.2 10 20:18 21.05.2020
2678 Clouds 14 1017 87 10000 5.7 10 19:39 21.05.2020
2679 Clouds 14 1017 87 10000 5.7 20 19:19 21.05.2020
2680 Rain 14 1018 87 10000 5.7 20 18:40 21.05.2020
2681 Rain 14 1018 87 10000 5.7 20 18:20 21.05.2020
2682 Rain 14 1018 82 10000 5.7 20 17:59 21.05.2020
2683 Rain 14 1018 82 10000 5.7 20 17:59 21.05.2020
2684 Rain 14 1018 87 10000 5.1 20 17:41 21.05.2020
2685 Rain 14 1018 87 10000 5.1 20 17:22 21.05.2020
2686 Clouds 14 1018 87 10000 5.7 30 16:47 21.05.2020
2687 Clouds 14 1018 87 10000 5.1 30 16:25 21.05.2020
2688 Clouds 14 1018 87 10000 5.1 30 15:56 21.05.2020
2689 Clouds 14 1018 87 10000 5.7 50 15:38 21.05.2020
2690 Clouds 14 1018 87 10000 5.1 50 15:19 21.05.2020
2691 Clouds 14 1018 87 10000 6.2 40 14:40 21.05.2020
2692 Rain 14 1017 87 10000 5.7 40 14:19 21.05.2020
2693 Rain 14 1017 87 10000 4.6 10 13:42 21.05.2020
2694 Rain 14 1017 87 10000 4.6 10 13:22 21.05.2020
2695 Rain 14 1018 87 10000 4.6 350 12:58 21.05.2020
2696 Rain 14 1017 87 10000 5.1 10 12:38 21.05.2020
2697 Rain 14 1017 87 10000 4.6 10 12:19 21.05.2020
2698 Rain 14 1016 87 10000 4.6 10 11:42 21.05.2020
2699 Rain 14 1016 87 4500 2.1 360 11:24 21.05.2020
2700 Rain 14 1016 87 4500 2.1 360 10:59 21.05.2020
2701 Rain 14 1016 87 4500 2.1 360 10:39 21.05.2020
2702 Clouds 15 1015 82 10000 3.1 20 10:20 21.05.2020
2703 Clouds 15 1015 82 10000 3.1 20 09:55 21.05.2020
2704 Clouds 15 1015 82 10000 3.1 20 09:37 21.05.2020
2705 Rain 15 1015 82 10000 3.6 40 09:19 21.05.2020
2706 Rain 15 1015 82 10000 3.6 40 08:45 21.05.2020
2707 Rain 15 1015 82 10000 3.6 40 08:26 21.05.2020
2708 Clouds 15 1015 82 10000 3.6 50 07:48 21.05.2020
2709 Clouds 15 1015 82 10000 3.6 50 07:27 21.05.2020
2710 Clouds 15 1015 77 10000 2.1 20 06:53 21.05.2020
2711 Clouds 15 1015 77 10000 2.1 20 06:23 21.05.2020
2712 Clouds 14 1015 76 10000 2.1 10 05:37 21.05.2020
2713 Clouds 13 1015 82 10000 1 0 03:22 21.05.2020
2714 Clouds 13 1015 81 10000 2.1 360 02:54 21.05.2020
2715 Clouds 13 1015 81 10000 2.1 360 02:30 21.05.2020
2716 Clouds 13 1015 87 10000 4.6 20 01:47 21.05.2020
2717 Clouds 12 1015 87 10000 4.6 20 01:23 21.05.2020
2718 Clouds 12 1015 87 10000 4.6 20 00:53 21.05.2020
2719 Clouds 12 1014 81 10000 4.6 10 00:25 21.05.2020
2720 Clouds 12 1014 81 10000 4.6 350 23:47 20.05.2020
2721 Clouds 12 1014 81 10000 4.6 350 23:21 20.05.2020
2722 Clouds 12 1014 81 10000 5.7 360 22:59 20.05.2020
2723 Clouds 12 1013 87 10000 5.1 360 22:41 20.05.2020
2724 Clouds 12 1013 87 10000 5.7 10 22:23 20.05.2020
2725 Rain 11 1013 87 10000 6.2 20 21:42 20.05.2020
2726 Rain 11 1013 87 10000 6.2 20 21:23 20.05.2020
2727 Rain 11 1013 87 10000 4.6 20 20:57 20.05.2020
2728 Clouds 11 1012 87 10000 4.6 10 20:38 20.05.2020
2729 Clouds 11 1012 87 10000 4.6 10 20:20 20.05.2020
2730 Clouds 12 1012 87 10000 5.1 10 19:41 20.05.2020
2731 Clouds 12 1012 87 10000 5.1 10 19:23 20.05.2020
2732 Clouds 12 1012 87 10000 4.6 20 18:57 20.05.2020
2733 Clouds 12 1012 87 10000 5.7 10 18:38 20.05.2020
2734 Clouds 12 1012 87 10000 5.7 10 18:20 20.05.2020
2735 Rain 12 1012 93 10000 4.6 10 17:38 20.05.2020
2736 Rain 12 1012 93 10000 4.6 10 17:19 20.05.2020
2737 Rain 12 1013 93 5000 7.2 20 16:42 20.05.2020
2738 Rain 12 1013 93 5000 7.2 20 16:24 20.05.2020
2739 Rain 12 1013 93 5000 5.1 10 15:58 20.05.2020
2740 Rain 13 1012 82 10000 6.7 50 15:40 20.05.2020
2741 Rain 13 1013 76 10000 6.2 30 15:22 20.05.2020
2742 Rain 13 1012 76 10000 6.7 50 14:43 20.05.2020
2743 Rain 14 1011 76 10000 8.2 50 14:21 20.05.2020
2744 Rain 13 1011 76 10000 9.3 50 13:41 20.05.2020
2745 Rain 13 1011 76 10000 9.3 50 13:20 20.05.2020
2746 Rain 13 1011 82 10000 9.3 60 12:58 20.05.2020
2747 Rain 14 1010 82 10000 10.3 50 12:39 20.05.2020
2748 Rain 14 1010 82 10000 9.8 50 12:19 20.05.2020
2749 Drizzle 14 1009 93 4000 2.1 50 11:36 20.05.2020
2750 Drizzle 14 1009 93 4000 2.1 50 11:36 20.05.2020
2751 Drizzle 14 1009 76 10000 2.6 60 11:18 20.05.2020
2752 Drizzle 14 1009 76 10000 2.6 60 11:18 20.05.2020
2753 Drizzle 14 1009 76 10000 2.6 60 10:43 20.05.2020
2754 Drizzle 15 1009 76 10000 2.6 60 10:20 20.05.2020
2755 Clouds 15 1008 82 10000 3.6 70 09:46 20.05.2020
2756 Clouds 15 1008 82 10000 3.6 70 09:22 20.05.2020
2757 Clouds 15 1008 82 10000 3.6 70 09:22 20.05.2020
2758 Clouds 15 1007 82 10000 3.6 50 08:59 20.05.2020
2759 Clouds 15 1007 82 10000 3.6 50 08:41 20.05.2020
2760 Clouds 16 1007 77 10000 3.6 40 08:19 20.05.2020
2761 Clouds 16 1007 77 10000 3.6 40 07:49 20.05.2020
2762 Clouds 16 1007 72 10000 2.1 10 07:22 20.05.2020
2763 Clouds 16 1007 72 10000 2.1 10 06:45 20.05.2020
2764 Clouds 16 1007 77 10000 3.6 40 05:25 20.05.2020
2765 Clouds 15 1007 82 10000 4.1 20 04:34 20.05.2020
2766 Clouds 15 1006 76 10000 3.1 10 03:54 20.05.2020
2767 Clouds 14 1006 82 10000 4.1 360 02:34 20.05.2020
2768 Rain 13 1006 87 10000 7.2 360 01:32 20.05.2020
2769 Rain 13 1005 93 10000 7.2 360 00:46 20.05.2020
2770 Rain 13 1005 93 10000 7.2 360 00:24 20.05.2020
2771 Rain 13 1005 93 10000 6.7 350 23:45 19.05.2020
2772 Rain 13 1005 93 10000 6.7 350 23:22 19.05.2020
2773 Rain 13 1004 93 9000 6.7 350 22:57 19.05.2020
2774 Rain 13 1004 93 9000 6.7 350 22:39 19.05.2020
2775 Rain 13 1004 100 7000 7.2 350 22:20 19.05.2020
2776 Rain 13 1004 100 7000 7.2 350 21:59 19.05.2020
2777 Rain 13 1003 93 7000 6.7 360 21:40 19.05.2020
2778 Mist 14 1004 93 5000 6.7 360 21:22 19.05.2020
2779 Rain 14 1004 93 5000 6.7 360 20:59 19.05.2020
2780 Rain 14 1003 87 10000 6.7 350 20:40 19.05.2020
2781 Rain 14 1003 87 10000 6.7 350 20:22 19.05.2020
2782 Clouds 14 1003 93 10000 7.2 360 19:59 19.05.2020
2783 Rain 14 1002 93 10000 6.7 340 19:37 19.05.2020
2784 Rain 15 1002 93 8000 5.1 320 19:19 19.05.2020
2785 Rain 15 1002 93 5000 6.2 330 18:43 19.05.2020
2786 Rain 15 1002 100 3000 5.7 320 18:22 19.05.2020
2787 Rain 15 1002 100 3000 5.7 320 17:57 19.05.2020
2788 Rain 15 1002 93 5000 6.7 340 17:38 19.05.2020
2789 Mist 15 1002 93 5000 6.7 340 17:19 19.05.2020
2790 Rain 15 1002 93 3500 6.2 340 17:19 19.05.2020
2791 Rain 15 1002 100 2800 5.1 310 16:41 19.05.2020
2792 Rain 15 1002 100 2800 5.1 310 16:22 19.05.2020
2793 Rain 15 1003 100 3500 6.7 320 15:56 19.05.2020
2794 Rain 15 1002 93 5000 5.7 350 15:38 19.05.2020
2795 Rain 16 1002 93 5000 6.2 340 15:20 19.05.2020
2796 Mist 16 1002 100 5000 6.2 10 14:54 19.05.2020
2797 Rain 16 1002 93 5000 6.2 340 14:54 19.05.2020
2798 Rain 17 1002 100 5000 6.2 10 14:36 19.05.2020
2799 Rain 17 1002 100 5000 6.2 10 14:18 19.05.2020
2800 Rain 17 1002 93 4500 8.7 40 13:54 19.05.2020
2801 Rain 17 1001 88 8000 8.2 40 13:36 19.05.2020
2802 Rain 17 1001 88 8000 7.7 20 13:18 19.05.2020
2803 Rain 18 1001 82 10000 7.2 30 12:40 19.05.2020
2804 Rain 19 1001 88 10000 8.2 20 12:22 19.05.2020
2805 Rain 19 1001 88 10000 8.2 20 11:59 19.05.2020
2806 Clouds 19 1000 82 10000 7.7 20 11:40 19.05.2020
2807 Clouds 19 1000 88 10000 7.7 20 11:21 19.05.2020
2808 Clouds 19 1000 88 10000 7.7 20 10:55 19.05.2020
2809 Clouds 19 1000 82 10000 10.8 20 10:37 19.05.2020
2810 Rain 19 999 88 10000 3.1 10 10:18 19.05.2020
2811 Rain 19 999 88 10000 3.1 10 09:42 19.05.2020
2812 Rain 19 999 88 10000 3.1 10 09:24 19.05.2020
2813 Rain 19 998 88 10000 5.1 350 08:47 19.05.2020
2814 Rain 19 998 88 10000 5.1 350 08:24 19.05.2020
2815 Rain 19 997 88 10000 4.1 360 07:47 19.05.2020
2816 Rain 19 997 88 10000 4.1 360 07:27 19.05.2020
2817 Mist 19 996 93 3500 5.7 360 06:55 19.05.2020
2818 Rain 19 995 93 3500 4.1 340 06:26 19.05.2020
2819 Rain 19 995 93 3500 4.1 340 05:42 19.05.2020
2820 Mist 19 996 93 4500 7.2 300 05:19 19.05.2020
2821 Rain 19 995 93 6000 6.7 300 04:35 19.05.2020
2822 Rain 19 996 100 6000 5.7 300 02:24 19.05.2020
2823 Rain 19 997 100 4000 5.1 50 00:48 19.05.2020
2824 Rain 19 997 100 4000 5.1 50 00:29 19.05.2020
2825 Rain 19 997 100 4000 5.1 50 23:59 18.05.2020
2826 Mist 19 998 100 3000 6.2 70 23:40 18.05.2020
2827 Rain 19 998 100 3000 6.2 70 23:20 18.05.2020
2828 Rain 19 998 100 2500 5.1 90 22:55 18.05.2020
2829 Rain 19 999 100 2200 5.1 100 22:37 18.05.2020
2830 Rain 19 999 100 3000 4.6 100 22:19 18.05.2020
2831 Rain 20 1000 100 3500 2.1 90 21:42 18.05.2020
2832 Mist 20 1000 100 3000 5.1 90 21:21 18.05.2020
2833 Rain 19 1000 100 3000 5.1 90 20:57 18.05.2020
2834 Rain 19 1001 100 3500 3.1 90 20:37 18.05.2020
2835 Rain 19 1001 100 4500 5.1 80 20:19 18.05.2020
2836 Rain 19 1001 100 4500 5.1 80 19:54 18.05.2020
2837 Rain 19 1002 94 5000 3.1 20 19:36 18.05.2020
2838 Rain 19 1003 100 4500 2.6 40 19:18 18.05.2020
2839 Rain 19 1004 100 4000 1.5 30 18:43 18.05.2020
2840 Rain 19 1004 100 4000 1.5 30 18:20 18.05.2020
2841 Rain 20 1005 100 4000 1.5 60 17:39 18.05.2020
2842 Rain 20 1005 100 5000 1 70 17:18 18.05.2020
2843 Rain 20 1005 100 5000 1 70 16:56 18.05.2020
2844 Rain 20 1005 100 6000 1.5 10 16:37 18.05.2020
2845 Rain 20 1006 100 6000 2.1 340 16:18 18.05.2020
2846 Rain 20 1006 100 7000 1 0 15:46 18.05.2020
2847 Rain 20 1006 100 7000 1 0 15:25 18.05.2020
2848 Rain 20 1006 94 9000 1 0 14:59 18.05.2020
2849 Rain 20 1007 100 9000 1 0 14:41 18.05.2020
2850 Rain 20 1007 100 9000 1 0 14:23 18.05.2020
2851 Rain 20 1006 94 9000 1 30 13:54 18.05.2020
2852 Rain 20 1007 94 9000 2.1 50 13:36 18.05.2020
2853 Rain 20 1007 94 9000 2.1 30 13:18 18.05.2020
2854 Rain 20 1007 94 9000 2.1 30 12:55 18.05.2020
2855 Rain 20 1007 94 10000 2.6 20 12:37 18.05.2020
2856 Rain 20 1007 88 10000 2.1 10 12:18 18.05.2020
2857 Clouds 20 1007 88 10000 2.6 10 11:46 18.05.2020
2858 Clouds 21 1007 88 10000 2.6 10 11:26 18.05.2020
2859 Clouds 21 1007 88 6000 1.5 50 10:55 18.05.2020
2860 Clouds 21 1007 88 6000 1.5 50 10:37 18.05.2020
2861 Clouds 20 1008 94 8000 1.5 20 10:19 18.05.2020
2862 Rain 20 1008 94 8000 1.5 20 09:42 18.05.2020
2863 Rain 20 1008 94 8000 1.5 20 09:23 18.05.2020
2864 Rain 20 1008 94 10000 1.5 30 08:42 18.05.2020
2865 Rain 20 1008 94 10000 1.5 30 08:24 18.05.2020
2866 Rain 20 1008 93 7000 2.6 80 07:50 18.05.2020
2867 Rain 20 1008 93 7000 2.6 80 07:26 18.05.2020
2868 Rain 20 1008 93 7000 2.6 80 07:26 18.05.2020
2869 Rain 20 1008 88 10000 3.6 80 06:49 18.05.2020
2870 Rain 20 1008 88 10000 3.6 80 06:31 18.05.2020
2871 Clouds 20 1008 82 10000 3.1 80 05:49 18.05.2020
2872 Rain 20 1009 82 10000 2.6 70 04:42 18.05.2020
2873 Rain 20 1010 77 10000 2.6 50 03:30 18.05.2020
2874 Clouds 20 1009 77 10000 3.6 60 02:19 18.05.2020
2875 Clouds 20 1009 88 10000 5.7 70 00:55 18.05.2020
2876 Clouds 20 1009 88 10000 5.7 70 00:24 18.05.2020
2877 Clouds 19 1009 88 10000 5.1 60 23:57 17.05.2020
2878 Clouds 20 1009 88 10000 5.1 60 23:39 17.05.2020
2879 Clouds 20 1009 88 10000 5.1 70 23:20 17.05.2020
2880 Clouds 20 1009 88 10000 5.1 70 22:56 17.05.2020
2881 Clouds 20 1008 88 10000 5.7 70 22:37 17.05.2020
2882 Clouds 20 1008 93 10000 5.7 70 22:19 17.05.2020
2883 Clouds 20 1008 93 10000 5.7 70 21:55 17.05.2020
2884 Clouds 20 1008 93 10000 5.7 80 21:36 17.05.2020
2885 Clouds 20 1008 93 10000 5.1 70 21:18 17.05.2020
2886 Clouds 20 1007 93 10000 4.6 60 20:41 17.05.2020
2887 Clouds 20 1007 93 10000 4.6 60 20:20 17.05.2020
2888 Clouds 20 1007 93 10000 5.7 70 19:57 17.05.2020
2889 Clouds 20 1007 93 10000 6.2 70 19:38 17.05.2020
2890 Clouds 20 1007 93 10000 6.2 70 19:19 17.05.2020
2891 Clouds 20 1006 88 10000 6.2 80 18:42 17.05.2020
2892 Clouds 20 1006 88 10000 6.2 80 18:23 17.05.2020
2893 Clouds 20 1006 88 10000 6.7 80 17:59 17.05.2020
2894 Clouds 20 1006 82 10000 7.7 70 17:39 17.05.2020
2895 Clouds 20 1006 82 10000 6.7 70 17:19 17.05.2020
2896 Clouds 20 1006 82 10000 6.7 70 17:19 17.05.2020
2897 Clouds 21 1006 77 10000 6.2 60 16:40 17.05.2020
2898 Clouds 21 1006 88 10000 2.6 60 16:21 17.05.2020
2899 Clouds 21 1006 88 10000 2.6 60 15:59 17.05.2020
2900 Clouds 22 1005 88 10000 1 70 15:39 17.05.2020
2901 Clouds 22 1005 88 10000 1 70 15:21 17.05.2020
2902 Clouds 22 1005 88 10000 1.5 130 14:56 17.05.2020
2903 Clouds 22 1005 73 10000 1.5 180 14:37 17.05.2020
2904 Clouds 23 1005 64 10000 1 170 14:19 17.05.2020
2905 Clouds 23 1004 68 10000 2.6 210 13:41 17.05.2020
2906 Clouds 23 1004 69 10000 4.1 220 13:20 17.05.2020
2907 Clouds 25 1002 73 10000 5.1 150 04:53 17.05.2020
2908 Clouds 24 1002 73 10000 2.1 200 03:30 17.05.2020
2909 Clouds 22 1002 77 10000 2.1 310 02:24 17.05.2020
2910 Clouds 22 1002 77 10000 2.1 310 01:50 17.05.2020
2911 Clouds 21 1002 88 6000 2.6 320 00:45 17.05.2020
2912 Clouds 20 1002 88 6000 2.6 320 00:24 17.05.2020
2913 Clouds 18 1002 93 6000 3.6 290 23:42 16.05.2020
2914 Clouds 18 1002 93 6000 3.6 290 23:21 16.05.2020
2915 Clouds 17 1001 93 10000 1.5 260 22:59 16.05.2020
2916 Clouds 17 1001 93 10000 1.5 260 22:41 16.05.2020
2917 Clouds 17 1001 93 10000 1.5 260 22:21 16.05.2020
2918 Clouds 17 1001 93 10000 2.6 310 21:56 16.05.2020
2919 Clouds 17 1002 93 10000 2.6 360 21:37 16.05.2020
2920 Clouds 17 1001 88 10000 4.1 350 21:19 16.05.2020
2921 Clouds 17 1001 88 10000 4.1 350 20:55 16.05.2020
2922 Clouds 17 1001 88 10000 3.6 360 20:36 16.05.2020
2923 Clouds 17 1001 88 10000 3.6 360 20:18 16.05.2020
2924 Clouds 18 1001 93 10000 4.1 10 19:42 16.05.2020
2925 Clouds 18 1001 93 10000 4.1 10 19:23 16.05.2020
2926 Rain 18 1002 93 8000 5.7 350 18:57 16.05.2020
2927 Rain 18 1002 93 6000 5.7 360 18:38 16.05.2020
2928 Rain 18 1002 93 4000 4.6 10 18:20 16.05.2020
2929 Rain 18 1003 93 3000 3.1 10 17:42 16.05.2020
2930 Rain 17 1004 100 3000 3.6 360 17:21 16.05.2020
2931 Rain 17 1004 100 3000 3.6 360 17:21 16.05.2020
2932 Rain 17 1004 100 3000 3.1 360 16:45 16.05.2020
2933 Rain 17 1004 100 3000 3.1 360 16:25 16.05.2020
2934 Rain 17 1004 100 3500 2.1 330 15:59 16.05.2020
2935 Rain 17 1005 100 3000 1.5 20 15:41 16.05.2020
2936 Rain 17 1006 100 4000 1 40 15:21 16.05.2020
2937 Rain 17 1006 100 4000 1 50 14:58 16.05.2020
2938 Rain 17 1006 100 4000 1 50 14:38 16.05.2020
2939 Rain 17 1006 100 3500 1 0 14:19 16.05.2020
2940 Rain 17 1006 100 3500 2.1 120 13:42 16.05.2020
2941 Rain 17 1006 100 3500 2.1 120 13:24 16.05.2020
2942 Rain 17 1006 100 4500 2.1 170 12:59 16.05.2020
2943 Rain 17 1006 93 8000 2.6 170 12:40 16.05.2020
2944 Rain 17 1006 100 8000 5.1 160 12:19 16.05.2020
2945 Rain 17 1006 100 8000 5.1 160 12:19 16.05.2020
2946 Rain 17 1007 93 7000 5.1 160 11:42 16.05.2020
2947 Rain 17 1007 93 7000 5.1 160 11:23 16.05.2020
2948 -273 0 0 0 0 0 10:59 16.05.2020
2949 Rain 17 1007 93 8000 3.1 180 10:40 16.05.2020
2950 Rain 17 1008 93 6000 4.1 210 10:21 16.05.2020
2951 Rain 17 1008 93 6000 4.1 210 09:58 16.05.2020
2952 Rain 17 1008 93 6000 4.1 210 09:38 16.05.2020
2953 Rain 17 1009 100 5000 4.1 190 09:18 16.05.2020
2954 Rain 17 1009 100 5000 4.1 190 09:18 16.05.2020
2955 Rain 17 1009 100 4500 3.6 190 08:42 16.05.2020
2956 Rain 18 1009 100 7000 5.7 200 08:19 16.05.2020
2957 Rain 18 1009 88 10000 4.6 170 07:43 16.05.2020
2958 Rain 18 1009 88 10000 4.6 170 07:24 16.05.2020
2959 Rain 18 1010 93 8000 3.6 170 06:57 16.05.2020
2960 Rain 18 1010 93 4500 5.1 210 06:36 16.05.2020
2961 Rain 18 1011 93 3500 4.1 200 06:18 16.05.2020
2962 Rain 18 1011 93 3500 4.1 200 05:31 16.05.2020
2963 Rain 19 1012 88 10000 5.7 180 03:35 16.05.2020
2964 Clouds 21 1013 88 10000 5.1 180 02:59 16.05.2020
2965 Clouds 21 1013 88 10000 5.1 180 02:20 16.05.2020
2966 Rain 21 1013 88 10000 7.2 190 01:45 16.05.2020
2967 Rain 21 1013 88 10000 7.2 190 01:22 16.05.2020
2968 Rain 21 1014 82 10000 4.6 190 00:44 16.05.2020
2969 Rain 21 1014 82 10000 4.6 190 00:21 16.05.2020
2970 Rain 21 1014 82 10000 6.2 200 00:21 16.05.2020
2971 Rain 21 1014 82 10000 7.2 200 23:41 15.05.2020
2972 Clouds 20 1015 82 10000 7.2 210 23:20 15.05.2020
2973 Clouds 21 1015 82 10000 7.2 210 22:58 15.05.2020
2974 Clouds 21 1014 82 10000 8.2 200 22:38 15.05.2020
2975 Clouds 21 1015 82 10000 7.2 200 22:18 15.05.2020
2976 Clouds 20 1014 82 10000 8.2 200 21:40 15.05.2020
2977 Clouds 20 1015 82 10000 7.2 200 21:21 15.05.2020
2978 Clouds 21 1015 82 10000 7.2 200 20:59 15.05.2020
2979 Clouds 21 1015 77 10000 6.7 200 20:40 15.05.2020
2980 Clouds 21 1015 77 10000 6.7 200 20:22 15.05.2020
2981 Clouds 21 1015 77 10000 7.7 190 19:56 15.05.2020
2982 Clouds 21 1015 77 10000 7.2 190 19:37 15.05.2020
2983 Clouds 21 1015 77 10000 7.2 190 19:19 15.05.2020
2984 Clouds 21 1015 68 10000 7.7 200 18:45 15.05.2020
2985 Clouds 21 1015 68 10000 7.7 200 18:27 15.05.2020
2986 Clouds 21 1016 77 10000 7.7 180 17:40 15.05.2020
2987 Clouds 21 1016 72 10000 8.2 180 17:20 15.05.2020
2988 Clouds 21 1016 77 10000 7.7 180 17:20 15.05.2020
2989 Clouds 21 1016 72 10000 8.2 180 16:58 15.05.2020
2990 Clouds 21 1016 72 10000 6.2 190 16:39 15.05.2020
2991 Clouds 21 1017 64 10000 6.7 200 16:19 15.05.2020
2992 Clouds 21 1017 64 10000 6.7 200 15:58 15.05.2020
2993 Clouds 21 1017 68 10000 7.2 190 15:39 15.05.2020
2994 Clouds 21 1017 68 10000 7.2 190 15:19 15.05.2020
2995 Clouds 22 1017 64 10000 5.7 190 14:42 15.05.2020
2996 Clouds 22 1017 64 10000 5.7 190 14:24 15.05.2020
2997 Clouds 22 1017 64 10000 7.2 200 13:58 15.05.2020
2998 Clouds 22 1018 64 10000 7.2 190 13:39 15.05.2020
2999 Clouds 22 1018 64 10000 7.2 190 13:20 15.05.2020
3000 Clouds 22 1017 64 10000 6.7 200 12:40 15.05.2020
3001 Clouds 22 1017 64 10000 6.7 200 12:40 15.05.2020
3002 Clouds 23 1016 60 10000 7.7 200 12:19 15.05.2020
3003 Clouds 23 1016 60 10000 7.7 200 11:57 15.05.2020
3004 Clouds 23 1017 60 10000 8.7 200 11:39 15.05.2020
3005 Clouds 23 1016 46 10000 4.6 160 11:21 15.05.2020
3006 Clouds 23 1016 46 10000 4.6 160 10:59 15.05.2020
3007 Clouds 24 1016 46 10000 4.6 160 10:40 15.05.2020
3008 Clouds 23 1016 46 10000 4.6 160 10:40 15.05.2020
3009 Clouds 24 1016 46 10000 4.6 160 10:21 15.05.2020
3010 Clouds 24 1016 44 10000 5.1 180 09:58 15.05.2020
3011 Clouds 24 1017 77 10000 5.7 200 09:37 15.05.2020
3012 Clouds 24 1016 68 10000 6.7 190 09:18 15.05.2020
3013 Clouds 24 1016 68 10000 6.7 190 08:56 15.05.2020
3014 Clouds 25 1016 68 10000 6.7 190 08:37 15.05.2020
3015 Clouds 25 1017 69 10000 7.2 180 08:18 15.05.2020
3016 Clouds 26 1017 69 10000 7.2 180 07:42 15.05.2020
3017 Clouds 26 1017 69 10000 7.2 180 07:24 15.05.2020
3018 Clouds 26 1017 64 10000 6.2 180 06:38 15.05.2020
3019 Clouds 25 1018 77 10000 6.7 180 05:49 15.05.2020
3020 Clouds 26 1018 73 10000 5.7 170 04:27 15.05.2020
3021 Clouds 25 1019 53 10000 5.1 180 03:40 15.05.2020
3022 Clouds 23 1019 60 10000 4.6 180 02:26 15.05.2020
3023 Clouds 23 1019 56 10000 5.7 200 01:19 15.05.2020
3024 Clouds 22 1019 56 10000 5.1 200 00:46 15.05.2020
3025 Clouds 22 1019 56 10000 5.1 200 00:28 15.05.2020
3026 Clouds 21 1019 60 10000 5.1 210 23:43 14.05.2020
3027 Clouds 20 1019 63 10000 3.6 210 23:21 14.05.2020
3028 Clouds 19 1019 63 10000 3.6 210 22:57 14.05.2020
3029 Clouds 19 1019 68 10000 3.6 200 22:39 14.05.2020
3030 Clouds 18 1019 68 10000 3.6 200 22:19 14.05.2020
3031 Clouds 18 1019 68 10000 3.6 200 21:56 14.05.2020
3032 Clouds 18 1018 68 10000 4.1 210 21:37 14.05.2020
3033 Clouds 18 1019 63 10000 4.1 200 21:19 14.05.2020
3034 Clouds 18 1018 63 10000 4.1 210 20:43 14.05.2020
3035 Clouds 19 1018 63 10000 4.1 200 20:21 14.05.2020
3036 Clouds 19 1018 63 10000 4.1 200 19:59 14.05.2020
3037 Clouds 19 1018 59 10000 4.1 210 19:40 14.05.2020
3038 Clouds 19 1018 59 10000 4.1 210 19:20 14.05.2020
3039 Clouds 19 1018 59 10000 5.1 210 18:58 14.05.2020
3040 Clouds 20 1018 56 10000 5.1 210 18:38 14.05.2020
3041 Clouds 20 1018 59 10000 4.6 200 18:20 14.05.2020
3042 Clouds 20 1018 59 10000 4.6 200 17:59 14.05.2020
3043 Clouds 20 1018 52 10000 5.7 210 17:37 14.05.2020
3044 Clouds 20 1018 52 10000 5.7 210 17:19 14.05.2020
3045 Clouds 20 1018 49 10000 5.7 200 16:57 14.05.2020
3046 Clouds 20 1018 49 10000 5.1 210 16:38 14.05.2020
3047 Clouds 20 1018 52 10000 6.2 200 16:19 14.05.2020
3048 Clouds 20 1018 52 10000 6.2 200 15:56 14.05.2020
3049 Clouds 21 1017 49 10000 5.7 210 15:37 14.05.2020
3050 Clouds 21 1017 46 10000 6.7 210 15:18 14.05.2020
3051 Clouds 21 1017 46 10000 6.7 210 14:55 14.05.2020
3052 Clouds 21 1017 46 10000 6.2 210 14:36 14.05.2020
3053 Clouds 21 1017 46 10000 6.7 200 14:18 14.05.2020
3054 Clouds 21 1017 46 10000 6.7 200 14:18 14.05.2020
3055 Clouds 21 1017 43 10000 7.2 200 13:42 14.05.2020
3056 Clouds 22 1017 49 10000 7.2 210 13:20 14.05.2020
3057 Clouds 22 1017 49 10000 7.2 210 12:59 14.05.2020
3058 Clouds 22 1016 49 10000 8.2 200 12:40 14.05.2020
3059 Clouds 22 1016 52 10000 7.2 210 12:21 14.05.2020
3060 Clouds 22 1016 52 10000 7.2 210 11:59 14.05.2020
3061 Clouds 23 1016 49 10000 8.2 200 11:40 14.05.2020
3062 Clouds 23 1015 38 10000 5.1 180 11:21 14.05.2020
3063 Clouds 24 1015 38 10000 5.1 180 10:57 14.05.2020
3064 Clouds 24 1015 38 10000 5.1 180 10:38 14.05.2020
3065 Clouds 25 1015 38 10000 4.1 180 10:20 14.05.2020
3066 Clouds 24 1015 60 10000 5.7 200 09:42 14.05.2020
3067 Clouds 25 1015 60 10000 5.7 200 09:23 14.05.2020
3068 Clouds 24 1016 64 10000 6.7 190 08:43 14.05.2020
3069 Clouds 24 1016 64 10000 6.7 190 08:21 14.05.2020
3070 Clouds 25 1016 60 10000 6.2 200 07:47 14.05.2020
3071 Clouds 24 1016 56 10000 5.7 170 07:26 14.05.2020
3072 Clouds 25 1016 41 10000 6.2 180 06:56 14.05.2020
3073 Clouds 26 1016 41 10000 6.2 180 06:34 14.05.2020
3074 Clouds 26 1016 53 10000 5.7 170 05:59 14.05.2020
3075 Clouds 26 1016 53 10000 5.7 170 05:37 14.05.2020
3076 Clouds 25 1016 31 10000 3.6 180 04:42 14.05.2020
3077 Clouds 23 1016 46 10000 5.7 160 03:32 14.05.2020
3078 Clouds 22 1017 43 10000 4.6 150 02:43 14.05.2020
3079 Clouds 23 1017 43 10000 4.6 150 02:20 14.05.2020
3080 Clear 22 1016 40 10000 2.1 120 01:44 14.05.2020
3081 Clear 21 1017 40 10000 1.5 70 00:51 14.05.2020
3082 Clear 20 1016 39 10000 1.5 40 00:27 14.05.2020
3083 Clouds 18 1016 42 10000 2.6 70 23:45 13.05.2020
3084 Clouds 18 1016 42 10000 2.1 80 23:23 13.05.2020
3085 Clouds 18 1016 42 10000 2.1 80 22:59 13.05.2020
3086 Clouds 17 1015 42 10000 2.6 90 22:39 13.05.2020
3087 Clouds 17 1015 39 10000 2.6 70 22:21 13.05.2020
3088 Clear 18 1015 39 10000 3.1 40 21:57 13.05.2020
3089 Clouds 18 1015 39 10000 3.1 40 21:39 13.05.2020
3090 Clouds 18 1015 39 10000 3.1 40 21:19 13.05.2020
3091 Clouds 18 1014 34 10000 6.2 20 20:41 13.05.2020
3092 Clouds 18 1014 34 10000 6.2 20 20:23 13.05.2020
3093 Clouds 19 1014 34 10000 6.7 20 19:57 13.05.2020
3094 Clouds 19 1014 37 10000 5.1 20 19:39 13.05.2020
3095 Clear 19 1014 34 10000 5.7 10 19:21 13.05.2020
3096 Clear 19 1013 34 10000 6.7 360 18:42 13.05.2020
3097 Clear 19 1013 34 10000 6.7 360 18:21 13.05.2020
3098 Clear 19 1013 34 10000 6.7 360 17:57 13.05.2020
3099 Clear 19 1012 37 10000 8.7 340 17:37 13.05.2020
3100 Clear 19 1012 30 10000 6.7 10 17:18 13.05.2020
3101 Clear 19 1012 30 10000 6.7 10 17:18 13.05.2020
3102 Clouds 19 1012 40 10000 6.2 360 16:40 13.05.2020
3103 Clouds 20 1012 42 10000 6.7 10 16:19 13.05.2020
3104 Clouds 19 1012 42 10000 6.7 10 15:55 13.05.2020
3105 Clouds 21 1011 64 10000 7.7 40 15:36 13.05.2020
3106 Clear 21 1011 56 10000 6.7 20 15:18 13.05.2020
3107 Clear 21 1011 53 10000 6.2 30 14:42 13.05.2020
3108 Clear 21 1011 53 10000 6.2 30 14:42 13.05.2020
3109 Clouds 21 1011 53 10000 6.2 30 14:23 13.05.2020
3110 Clouds 21 1010 60 10000 5.1 30 13:58 13.05.2020
3111 Clouds 22 1010 64 10000 4.6 40 13:40 13.05.2020
3112 Clear 22 1010 64 10000 4.6 40 13:21 13.05.2020
3113 Clear 22 1009 68 10000 5.1 50 13:21 13.05.2020
3114 Clear 22 1009 68 10000 5.1 50 12:58 13.05.2020
3115 Clouds 22 1008 73 10000 4.6 70 12:39 13.05.2020
3116 Clouds 23 1008 73 10000 4.6 70 12:20 13.05.2020
3117 Clouds 23 1007 73 10000 5.7 80 11:56 13.05.2020
3118 Clouds 24 1006 68 10000 6.7 80 11:37 13.05.2020
3119 Clouds 24 1005 44 10000 6.2 60 11:19 13.05.2020
3120 Clouds 24 1005 44 10000 6.2 60 10:56 13.05.2020
3121 Clouds 25 1005 44 10000 6.2 60 10:38 13.05.2020
3122 Clouds 25 1003 60 10000 3.6 180 10:19 13.05.2020
3123 Clouds 26 1003 60 10000 3.6 180 09:45 13.05.2020
3124 Clouds 26 1003 60 10000 3.6 180 09:23 13.05.2020
3125 Clouds 27 1003 69 10000 6.2 150 08:58 13.05.2020
3126 Clouds 27 1003 69 10000 6.2 150 08:37 13.05.2020
3127 Clouds 28 1002 65 10000 4.1 140 08:19 13.05.2020
3128 Clouds 29 1002 65 10000 4.1 140 07:48 13.05.2020
3129 Clouds 29 1002 39 10000 3.1 40 07:30 13.05.2020
3130 Clouds 28 1003 48 10000 2.6 10 06:51 13.05.2020
3131 Clouds 28 1003 48 10000 2.6 10 06:31 13.05.2020
3132 Clouds 27 1003 47 10000 5.1 170 05:34 13.05.2020
3133 Clouds 26 1003 69 10000 4.6 180 03:37 13.05.2020
3134 Clouds 24 1004 78 10000 4.6 150 02:37 13.05.2020
3135 Clouds 24 1004 64 10000 5.1 190 01:46 13.05.2020
3136 Clouds 24 1004 64 10000 4.1 190 00:56 13.05.2020
3137 Clouds 22 1004 73 10000 4.1 190 00:23 13.05.2020
3138 Clouds 21 1004 83 10000 4.6 200 23:58 12.05.2020
3139 Clouds 21 1004 88 6000 3.6 200 23:39 12.05.2020
3140 Clouds 21 1004 88 7000 5.7 200 23:18 12.05.2020
3141 Clouds 19 1003 82 10000 5.7 200 22:42 12.05.2020
3142 Clouds 19 1003 82 10000 5.7 200 22:22 12.05.2020
3143 Clouds 20 1004 77 10000 3.6 190 21:57 12.05.2020
3144 Clouds 20 1003 82 10000 4.6 200 21:38 12.05.2020
3145 Clouds 20 1003 82 10000 4.6 210 21:20 12.05.2020
3146 Clouds 20 1003 82 10000 4.6 210 20:59 12.05.2020
3147 Clouds 20 1003 82 10000 5.7 200 20:40 12.05.2020
3148 Clouds 20 1003 77 10000 4.6 200 20:21 12.05.2020
3149 Clouds 20 1003 77 10000 4.6 200 19:58 12.05.2020
3150 Clouds 21 1003 73 10000 4.6 210 19:40 12.05.2020
3151 Clouds 21 1003 73 10000 4.6 210 19:21 12.05.2020
3152 Clouds 21 1003 73 10000 3.6 200 18:56 12.05.2020
3153 Clouds 21 1003 68 10000 4.1 200 18:38 12.05.2020
3154 Clouds 21 1003 64 10000 5.7 200 18:20 12.05.2020
3155 Clouds 21 1003 64 10000 5.1 190 17:43 12.05.2020
3156 Clouds 22 1003 64 10000 5.1 190 17:24 12.05.2020
3157 Clouds 22 1003 68 10000 7.7 200 16:47 12.05.2020
3158 Clouds 22 1003 68 10000 7.7 200 16:26 12.05.2020
3159 Clouds 22 1004 68 10000 7.2 210 15:57 12.05.2020
3160 Clouds 22 1003 64 10000 7.7 210 15:39 12.05.2020
3161 Clouds 22 1003 64 10000 7.7 210 15:39 12.05.2020
3162 Clouds 22 1004 68 10000 8.7 200 15:19 12.05.2020
3163 Clouds 22 1004 68 10000 8.7 200 14:58 12.05.2020
3164 Clouds 22 1004 77 10000 6.2 210 14:39 12.05.2020
3165 Clouds 22 1004 77 10000 7.2 200 14:20 12.05.2020
3166 Clouds 22 1004 77 10000 7.2 200 13:59 12.05.2020
3167 Clouds 22 1003 88 10000 8.2 180 13:41 12.05.2020
3168 Clouds 22 1003 83 10000 9.3 180 13:20 12.05.2020
3169 Clouds 22 1003 83 10000 9.3 180 12:58 12.05.2020
3170 Clouds 22 1003 83 10000 8.2 180 12:40 12.05.2020
3171 Clouds 22 1003 83 10000 8.2 180 12:40 12.05.2020
3172 Clouds 22 1003 83 10000 7.2 180 12:21 12.05.2020
3173 Clouds 22 1003 83 10000 7.2 180 11:58 12.05.2020
3174 Clouds 23 1004 78 10000 6.2 190 11:39 12.05.2020
3175 Clouds 23 1004 69 10000 5.1 180 11:21 12.05.2020
3176 Clouds 23 1004 69 10000 5.1 180 10:59 12.05.2020
3177 Clouds 24 1004 69 10000 5.1 180 10:40 12.05.2020
3178 Rain 24 1003 73 10000 5.7 190 10:22 12.05.2020
3179 Clouds 24 1003 73 10000 5.7 190 09:59 12.05.2020
3180 Rain 25 1003 73 10000 5.7 190 09:40 12.05.2020
3181 Rain 26 1004 65 10000 5.1 170 09:21 12.05.2020
3182 Clouds 25 1004 65 10000 5.1 170 08:57 12.05.2020
3183 Clouds 25 1004 65 10000 5.1 170 08:38 12.05.2020
3184 Clouds 26 1004 57 10000 4.6 150 08:19 12.05.2020
3185 Clouds 26 1004 78 10000 3.6 130 07:42 12.05.2020
3186 Clouds 25 1004 78 10000 5.1 130 07:23 12.05.2020
3187 Clouds 25 1004 78 10000 5.1 130 06:49 12.05.2020
3188 Clouds 25 1004 78 10000 5.1 130 06:27 12.05.2020
3189 Clouds 25 1005 78 10000 5.1 130 05:54 12.05.2020
3190 Clouds 24 1005 78 10000 5.1 130 05:35 12.05.2020
3191 Clouds 22 1007 83 10000 1.5 30 03:27 12.05.2020
3192 Rain 22 1007 83 10000 1.5 30 02:53 12.05.2020
3193 Rain 22 1007 83 10000 1.5 30 02:25 12.05.2020
3194 Rain 20 1007 94 10000 2.1 340 01:27 12.05.2020
3195 Rain 20 1006 94 6000 1.5 360 00:37 12.05.2020
3196 Rain 20 1006 94 6000 2.1 360 00:18 12.05.2020
3197 Rain 20 1006 100 4500 2.6 360 23:42 11.05.2020
3198 Rain 20 1006 100 4500 2.6 360 23:22 11.05.2020
3199 Rain 20 1006 100 5000 3.6 360 22:59 11.05.2020
3200 Rain 20 1006 100 5000 3.6 360 22:59 11.05.2020
3201 Rain 20 1006 93 4500 4.6 20 22:41 11.05.2020
3202 Rain 20 1006 93 4500 4.6 20 22:21 11.05.2020
3203 Rain 20 1006 93 4500 3.1 40 21:59 11.05.2020
3204 Mist 20 1006 93 4500 4.6 30 21:40 11.05.2020
3205 Mist 20 1006 93 4500 4.6 30 21:20 11.05.2020
3206 Clouds 20 1005 93 10000 3.6 20 20:59 11.05.2020
3207 Clouds 20 1005 93 10000 4.6 30 20:40 11.05.2020
3208 Clouds 20 1005 93 10000 4.6 30 20:21 11.05.2020
3209 Clouds 20 1005 88 10000 4.1 30 19:58 11.05.2020
3210 Clouds 20 1005 88 10000 4.1 30 19:40 11.05.2020
3211 Clouds 20 1005 88 10000 4.1 30 19:21 11.05.2020
3212 Clouds 20 1005 88 10000 3.6 30 18:56 11.05.2020
3213 Clouds 21 1005 88 10000 3.6 30 18:37 11.05.2020
3214 Clouds 21 1005 88 10000 3.1 30 18:18 11.05.2020
3215 Clouds 21 1005 88 10000 3.1 30 17:55 11.05.2020
3216 Clouds 21 1005 88 10000 4.1 30 17:36 11.05.2020
3217 Clouds 21 1005 88 10000 4.6 50 17:18 11.05.2020
3218 Clouds 21 1005 88 10000 4.6 60 16:42 11.05.2020
3219 Clouds 21 1005 88 10000 4.6 60 16:22 11.05.2020
3220 Clouds 22 1005 88 10000 3.1 30 16:22 11.05.2020
3221 Clouds 22 1005 88 10000 3.1 30 15:59 11.05.2020
3222 Clouds 22 1005 94 10000 1.5 100 15:40 11.05.2020
3223 Clouds 22 1004 83 10000 1.5 220 15:19 11.05.2020
3224 Clouds 23 1004 83 10000 1.5 220 14:56 11.05.2020
3225 Clouds 23 1004 83 10000 1.5 220 14:56 11.05.2020
3226 Clouds 22 1004 88 10000 2.6 180 14:38 11.05.2020
3227 Clouds 23 1004 88 10000 2.6 170 14:19 11.05.2020
3228 Clouds 23 1003 73 10000 2.1 160 13:42 11.05.2020
3229 Clouds 23 1003 73 10000 2.1 160 13:22 11.05.2020
3230 Clouds 24 1003 78 10000 3.1 190 12:59 11.05.2020
3231 Clouds 23 1002 83 10000 4.1 180 12:41 11.05.2020
3232 Clouds 23 1002 83 10000 4.1 180 12:22 11.05.2020
3233 Clouds 24 1002 88 10000 3.1 160 11:57 11.05.2020
3234 Clouds 24 1002 88 10000 2.6 130 11:39 11.05.2020
3235 Clouds 25 1001 57 10000 5.1 140 11:21 11.05.2020
3236 Clouds 25 1001 57 10000 5.1 140 10:57 11.05.2020
3237 Clouds 25 1001 57 10000 5.1 140 10:38 11.05.2020
3238 Clouds 25 1001 57 10000 5.1 140 10:38 11.05.2020
3239 Clouds 26 1001 57 10000 5.1 140 10:20 11.05.2020
3240 Clouds 26 1001 73 10000 5.7 110 09:57 11.05.2020
3241 Clouds 26 1001 73 10000 5.7 110 09:39 11.05.2020
3242 Clouds 26 1001 78 10000 7.7 120 09:19 11.05.2020
3243 Clouds 27 1001 78 10000 7.7 120 08:42 11.05.2020
3244 Clouds 27 1001 78 10000 7.2 120 08:24 11.05.2020
3245 Clouds 27 1001 78 10000 7.2 120 07:59 11.05.2020
3246 Clouds 27 1001 78 10000 7.2 120 07:41 11.05.2020
3247 Clouds 27 1001 78 10000 6.2 120 07:23 11.05.2020
3248 Clouds 27 1001 78 10000 6.2 120 06:34 11.05.2020
3249 Clouds 28 1001 78 10000 5.7 130 05:54 11.05.2020
3250 Clouds 27 1001 78 10000 5.7 130 05:23 11.05.2020
3251 Clouds 26 1001 88 10000 2.6 120 03:56 11.05.2020
3252 Clouds 24 1001 88 8000 4.1 100 02:36 11.05.2020
3253 Clouds 23 1001 94 10000 3.1 110 02:18 11.05.2020
3254 Clouds 22 1001 94 10000 3.1 150 01:21 11.05.2020
3255 Clouds 23 1001 83 10000 3.6 190 00:41 11.05.2020
3256 Clouds 23 1001 83 10000 3.6 190 00:18 11.05.2020
3257 Clouds 22 1000 94 10000 1.5 200 23:40 10.05.2020
3258 Clouds 22 1000 88 10000 3.6 210 23:20 10.05.2020
3259 Clouds 21 1000 88 10000 3.6 210 22:55 10.05.2020
3260 Clouds 21 1000 88 10000 3.6 210 22:55 10.05.2020
3261 Clouds 21 1000 88 10000 3.6 210 22:37 10.05.2020
3262 Clouds 21 1000 88 10000 3.6 210 22:18 10.05.2020
3263 Clouds 21 999 88 10000 6.2 210 21:43 10.05.2020
3264 Rain 21 999 94 10000 7.2 210 21:19 10.05.2020
3265 Rain 21 999 94 10000 7.7 200 20:43 10.05.2020
3266 Rain 22 999 94 10000 7.7 200 20:25 10.05.2020
3267 Rain 21 999 94 10000 7.7 200 20:25 10.05.2020
3268 Rain 22 999 94 10000 7.7 200 20:25 10.05.2020
3269 Rain 21 998 94 10000 7.2 200 19:59 10.05.2020
3270 Rain 22 999 94 10000 7.2 210 19:39 10.05.2020
3271 Rain 22 999 94 10000 7.2 210 19:21 10.05.2020
3272 Rain 22 999 94 10000 7.7 200 18:57 10.05.2020
3273 Rain 22 999 94 10000 7.7 210 18:37 10.05.2020
3274 Rain 22 999 88 10000 7.7 200 18:19 10.05.2020
3275 Rain 22 999 88 10000 7.7 200 17:58 10.05.2020
3276 Rain 23 1000 83 10000 9.8 210 17:40 10.05.2020
3277 Rain 23 1000 83 10000 9.8 210 17:40 10.05.2020
3278 Rain 23 1000 83 10000 9.8 210 17:21 10.05.2020
3279 Clouds 23 1000 83 10000 9.8 210 16:56 10.05.2020
3280 Clouds 23 999 88 10000 11.3 200 16:38 10.05.2020
3281 Clouds 23 1000 88 10000 11.3 200 16:19 10.05.2020
3282 Clouds 23 1000 88 10000 9.3 200 15:43 10.05.2020
3283 Clouds 23 1000 88 10000 9.3 200 15:24 10.05.2020
3284 Clouds 23 1000 88 10000 8.2 200 14:57 10.05.2020
3285 Clouds 23 1000 88 10000 9.8 200 14:38 10.05.2020
3286 Clouds 23 1000 88 10000 10.8 210 14:19 10.05.2020
3287 Clouds 23 1000 88 10000 10.8 210 13:58 10.05.2020
3288 Clouds 23 1000 88 10000 10.8 210 13:58 10.05.2020
3289 Clouds 23 1000 88 10000 11.3 210 13:38 10.05.2020
3290 Clouds 23 1000 88 10000 11.3 210 13:20 10.05.2020
3291 Clouds 23 1001 88 10000 11.3 210 12:57 10.05.2020
3292 Clouds 23 1001 94 10000 13.9 200 12:38 10.05.2020
3293 Clouds 23 1001 94 10000 13.9 200 12:20 10.05.2020
3294 Clouds 23 1001 88 10000 12.3 210 11:57 10.05.2020
3295 Clouds 24 1000 88 10000 12.3 210 11:39 10.05.2020
3296 Clouds 24 1000 73 10000 7.2 190 11:19 10.05.2020
3297 Clouds 24 1000 73 10000 7.2 190 10:46 10.05.2020
3298 Clouds 24 1000 73 10000 7.2 190 10:28 10.05.2020
3299 Clouds 24 1002 83 10000 8.2 200 09:58 10.05.2020
3300 Clouds 24 1002 83 10000 8.2 200 09:40 10.05.2020
3301 Clouds 25 1002 78 10000 7.7 210 09:20 10.05.2020
3302 Clouds 25 1002 78 10000 7.7 210 08:50 10.05.2020
3303 Clouds 25 1002 78 10000 7.7 210 08:24 10.05.2020
3304 Clouds 25 1002 78 10000 5.7 210 07:45 10.05.2020
3305 Clouds 24 1004 94 8000 8.2 200 07:21 10.05.2020
3306 Clouds 24 1004 94 8000 8.2 200 06:57 10.05.2020
3307 Clouds 24 1004 94 8000 8.2 200 06:32 10.05.2020
3308 Drizzle 24 1005 100 5000 8.7 200 05:52 10.05.2020
3309 Drizzle 21 1007 94 1800 4.6 190 04:58 10.05.2020
3310 Mist 21 1007 94 1800 4.6 190 04:38 10.05.2020
3311 Drizzle 21 1007 94 1800 4.6 190 04:20 10.05.2020
3312 Drizzle 22 1008 94 5000 5.7 190 03:39 10.05.2020
3313 Clouds 21 1009 83 10000 9.8 200 02:50 10.05.2020
3314 Clouds 21 1009 83 10000 9.8 200 02:22 10.05.2020
3315 Clouds 20 1009 82 10000 7.2 200 01:42 10.05.2020
3316 Rain 20 1009 82 10000 7.2 200 01:21 10.05.2020
3317 Rain 19 1009 82 10000 8.2 200 00:55 10.05.2020
3318 Rain 19 1009 88 10000 8.2 200 00:29 10.05.2020
3319 Rain 19 1010 88 10000 8.7 200 23:59 09.05.2020
3320 Rain 19 1010 88 10000 7.7 210 23:39 09.05.2020
3321 Rain 19 1010 88 10000 7.7 210 23:20 09.05.2020
3322 Rain 19 1010 88 10000 8.2 200 22:44 09.05.2020
3323 Rain 19 1010 88 10000 8.2 200 22:25 09.05.2020
3324 Rain 19 1010 88 10000 7.2 210 21:59 09.05.2020
3325 Rain 19 1010 88 10000 7.7 200 21:41 09.05.2020
3326 Rain 19 1010 82 10000 8.2 200 21:22 09.05.2020
3327 Rain 19 1010 82 10000 8.2 200 20:58 09.05.2020
3328 Rain 19 1010 82 10000 8.2 200 20:58 09.05.2020
3329 Rain 19 1011 77 10000 8.2 210 20:39 09.05.2020
3330 Rain 19 1012 77 10000 8.7 210 20:20 09.05.2020
3331 Rain 19 1011 77 10000 8.2 210 20:20 09.05.2020
3332 Rain 19 1012 77 10000 8.7 210 20:20 09.05.2020
3333 Rain 19 1012 77 10000 8.7 210 19:58 09.05.2020
3334 Rain 19 1012 72 10000 8.7 210 19:39 09.05.2020
3335 Clouds 19 1012 72 10000 7.7 210 19:20 09.05.2020
3336 Clouds 19 1012 72 10000 7.7 210 18:54 09.05.2020
3337 Clouds 20 1012 68 10000 9.3 220 18:36 09.05.2020
3338 Rain 19 1013 72 10000 10.3 220 18:18 09.05.2020
3339 Rain 19 1013 68 10000 8.2 210 17:40 09.05.2020
3340 Rain 19 1013 68 10000 7.7 210 17:21 09.05.2020
3341 Rain 19 1014 68 10000 8.2 210 16:41 09.05.2020
3342 Rain 19 1015 68 10000 9.3 220 16:20 09.05.2020
3343 Rain 19 1014 68 10000 8.2 210 16:20 09.05.2020
3344 Rain 19 1015 68 10000 7.7 210 15:46 09.05.2020
3345 Rain 19 1015 68 10000 7.7 210 15:27 09.05.2020
3346 Rain 19 1015 72 10000 7.2 200 14:59 09.05.2020
3347 Rain 19 1015 72 10000 7.7 200 14:41 09.05.2020
3348 Rain 19 1015 72 10000 7.7 200 14:20 09.05.2020
3349 Rain 19 1015 68 10000 7.7 200 13:58 09.05.2020
3350 Rain 19 1015 68 10000 7.2 200 13:40 09.05.2020
3351 Rain 19 1015 68 10000 7.2 200 13:40 09.05.2020
3352 Rain 19 1015 68 10000 9.3 200 13:20 09.05.2020
3353 Clouds 19 1015 68 10000 7.7 200 12:43 09.05.2020
3354 Rain 19 1016 72 10000 7.7 190 12:23 09.05.2020
3355 Rain 19 1016 72 10000 7.7 190 11:59 09.05.2020
3356 Rain 19 1015 72 10000 7.7 190 11:41 09.05.2020
3357 Clouds 19 1015 63 10000 4.1 180 11:19 09.05.2020
3358 Clouds 19 1015 63 10000 4.1 180 10:47 09.05.2020
3359 Clouds 19 1015 63 10000 4.1 180 10:26 09.05.2020
3360 Clouds 20 1015 56 10000 4.1 180 09:58 09.05.2020
3361 Clouds 20 1015 56 10000 4.1 180 09:40 09.05.2020
3362 Clouds 20 1015 77 10000 5.7 180 09:19 09.05.2020
3363 Clouds 20 1016 72 10000 5.7 190 08:51 09.05.2020
3364 Clouds 20 1016 72 10000 5.7 190 08:33 09.05.2020
3365 Clouds 21 1016 52 10000 4.6 190 07:55 09.05.2020
3366 Clouds 20 1016 68 10000 5.1 190 07:36 09.05.2020
3367 Clouds 21 1017 68 10000 6.7 180 07:18 09.05.2020
3368 Clouds 20 1017 68 10000 6.7 180 06:26 09.05.2020
3369 Clouds 21 1018 64 10000 5.7 190 05:49 09.05.2020
3370 Clouds 21 1018 56 10000 6.7 190 04:53 09.05.2020
3371 Clouds 21 1019 72 10000 5.7 170 03:39 09.05.2020
3372 Clouds 20 1019 68 10000 5.7 200 02:50 09.05.2020
3373 Clouds 20 1020 55 10000 5.1 210 02:23 09.05.2020
3374 Clouds 20 1020 59 10000 7.7 200 01:47 09.05.2020
3375 Clouds 19 1020 63 10000 6.2 200 01:20 09.05.2020
3376 Clouds 19 1020 59 10000 6.2 200 00:40 09.05.2020
3377 Clouds 18 1020 68 10000 5.7 200 23:58 08.05.2020
3378 Clouds 18 1020 68 10000 5.7 210 23:39 08.05.2020
3379 Clouds 17 1020 68 10000 5.7 210 23:20 08.05.2020
3380 Clouds 16 1020 67 10000 6.7 200 22:55 08.05.2020
3381 Clouds 16 1019 67 10000 5.7 200 22:36 08.05.2020
3382 Clouds 16 1020 72 10000 4.6 210 22:18 08.05.2020
3383 Clouds 17 1019 72 10000 4.6 210 21:54 08.05.2020
3384 Clouds 17 1019 72 10000 4.6 210 21:36 08.05.2020
3385 Clouds 17 1019 67 10000 6.2 200 21:18 08.05.2020
3386 Clouds 17 1019 67 10000 6.2 200 20:41 08.05.2020
3387 Clouds 16 1019 67 10000 6.2 200 20:23 08.05.2020
3388 Clouds 16 1020 72 10000 6.2 200 19:58 08.05.2020
3389 Clouds 16 1020 67 10000 6.2 200 19:40 08.05.2020
3390 Clouds 17 1020 67 10000 7.2 200 19:20 08.05.2020
3391 Clouds 17 1020 72 10000 8.2 200 18:45 08.05.2020
3392 Clouds 17 1020 72 10000 8.2 200 18:27 08.05.2020
3393 Clouds 17 1021 72 10000 6.2 210 17:43 08.05.2020
3394 Clouds 17 1021 67 10000 7.7 200 17:20 08.05.2020
3395 Clouds 17 1021 67 10000 7.7 200 16:56 08.05.2020
3396 Clouds 17 1021 63 10000 8.2 200 16:37 08.05.2020
3397 Clouds 17 1022 63 10000 7.2 200 16:19 08.05.2020
3398 Clouds 17 1022 63 10000 7.7 200 15:42 08.05.2020
3399 Clear 17 1022 63 10000 7.7 200 15:20 08.05.2020
3400 Clear 17 1022 67 10000 7.7 200 14:56 08.05.2020
3401 Clear 17 1021 67 10000 7.7 180 14:38 08.05.2020
3402 Clouds 17 1022 72 10000 7.7 180 14:18 08.05.2020
3403 Clouds 17 1022 72 10000 7.7 180 13:55 08.05.2020
3404 Clouds 17 1021 67 10000 8.2 180 13:36 08.05.2020
3405 Clouds 17 1021 67 10000 7.7 190 13:18 08.05.2020
3406 Clouds 18 1021 63 10000 8.2 190 12:42 08.05.2020
3407 Clouds 18 1021 63 10000 8.2 190 12:23 08.05.2020
3408 Clouds 18 1020 47 10000 8.7 190 11:44 08.05.2020
3409 Clouds 19 1020 45 10000 6.7 170 11:23 08.05.2020
3410 Clouds 19 1020 45 10000 6.7 170 10:59 08.05.2020
3411 Clouds 19 1020 45 10000 6.7 170 10:41 08.05.2020
3412 Clouds 20 1020 52 10000 5.7 200 10:19 08.05.2020
3413 Clouds 20 1020 52 10000 5.7 200 09:58 08.05.2020
3414 Clouds 20 1020 52 10000 5.7 200 09:39 08.05.2020
3415 Clouds 20 1020 49 10000 5.1 190 09:18 08.05.2020
3416 Clouds 20 1020 49 10000 5.1 190 08:45 08.05.2020
3417 Clouds 20 1020 49 10000 5.1 190 08:22 08.05.2020
3418 Clear 21 1020 40 10000 3.6 150 07:44 08.05.2020
3419 Clear 21 1020 40 10000 3.6 150 07:25 08.05.2020
3420 Clear 22 1021 37 10000 3.6 150 06:51 08.05.2020
3421 Clear 20 1022 42 10000 4.1 160 06:24 08.05.2020
3422 Clear 21 1022 42 10000 4.1 160 05:58 08.05.2020
3423 Clouds 18 1022 48 10000 3.6 160 04:44 08.05.2020
3424 Clouds 17 1022 41 10000 2.1 20 02:54 08.05.2020
3425 Clouds 18 1022 41 10000 2.1 20 02:21 08.05.2020
3426 Clouds 16 1022 44 10000 2.6 360 01:30 08.05.2020
3427 Clouds 15 1022 44 10000 3.1 10 00:58 08.05.2020
3428 Clouds 15 1022 44 10000 3.1 20 00:39 08.05.2020
3429 Clouds 15 1022 47 10000 4.6 350 00:21 08.05.2020
3430 Clouds 13 1022 50 10000 5.1 330 23:43 07.05.2020
3431 Clouds 13 1022 50 10000 5.1 330 23:23 07.05.2020
3432 Clouds 13 1022 50 10000 5.1 330 23:23 07.05.2020
3433 Clouds 13 1022 50 10000 2.6 300 22:57 07.05.2020
3434 Clouds 13 1022 50 10000 2.6 300 22:57 07.05.2020
3435 Clouds 13 1021 50 10000 4.1 310 22:39 07.05.2020
3436 Clouds 13 1021 43 10000 3.6 330 22:19 07.05.2020
3437 Clouds 13 1021 43 10000 3.6 330 21:56 07.05.2020
3438 Clouds 13 1020 47 10000 3.6 320 21:37 07.05.2020
3439 Clouds 14 1021 44 10000 5.1 330 21:19 07.05.2020
3440 Clouds 14 1020 44 10000 4.6 350 20:43 07.05.2020
3441 Clouds 15 1020 44 10000 4.6 350 20:23 07.05.2020
3442 Clouds 15 1020 54 10000 4.1 360 19:58 07.05.2020
3443 Clouds 14 1019 71 10000 2.6 330 19:40 07.05.2020
3444 Clouds 14 1019 71 10000 2.6 330 19:21 07.05.2020
3445 Clouds 15 1020 67 10000 1 0 18:46 07.05.2020
3446 Clouds 15 1020 67 10000 1 0 18:28 07.05.2020
3447 Clouds 15 1020 72 10000 1 130 17:57 07.05.2020
3448 Clouds 15 1020 71 10000 2.1 140 17:37 07.05.2020
3449 Clouds 15 1020 67 10000 1.5 120 17:19 07.05.2020
3450 Clouds 15 1020 72 10000 2.6 100 16:40 07.05.2020
3451 Clouds 15 1020 72 10000 3.1 100 16:19 07.05.2020
3452 Clouds 15 1020 72 10000 3.1 100 15:56 07.05.2020
3453 Clouds 16 1019 72 10000 3.1 110 15:37 07.05.2020
3454 Clouds 16 1019 72 10000 3.1 110 15:37 07.05.2020
3455 Clouds 16 1019 67 10000 2.6 90 15:18 07.05.2020
3456 Clouds 16 1019 67 10000 2.6 90 15:18 07.05.2020
3457 Clouds 16 1019 67 10000 2.6 120 14:45 07.05.2020
3458 Clouds 16 1019 67 10000 2.6 120 14:22 07.05.2020
3459 Clouds 16 1019 67 10000 3.1 130 13:57 07.05.2020
3460 Clouds 16 1018 72 10000 3.1 110 13:39 07.05.2020
3461 Clouds 17 1018 72 10000 3.1 110 13:20 07.05.2020
3462 Clouds 17 1018 72 10000 4.1 100 13:20 07.05.2020
3463 Clouds 17 1016 72 10000 5.7 110 12:40 07.05.2020
3464 Clouds 18 1016 72 10000 7.2 90 12:20 07.05.2020
3465 Clouds 18 1014 68 10000 7.2 90 11:39 07.05.2020
3466 Clear 19 1014 28 10000 4.6 350 11:21 07.05.2020
3467 Clear 20 1014 28 10000 4.6 350 10:57 07.05.2020
3468 Clear 20 1014 28 10000 4.6 350 10:38 07.05.2020
3469 Clouds 21 1013 46 10000 5.7 40 10:18 07.05.2020
3470 Clouds 22 1013 46 10000 5.7 40 09:39 07.05.2020
3471 Clouds 22 1013 46 10000 5.7 40 09:20 07.05.2020
3472 Clouds 22 1012 28 10000 4.6 320 08:54 07.05.2020
3473 Clouds 22 1012 28 10000 4.6 320 08:36 07.05.2020
3474 Clouds 22 1012 28 10000 4.6 320 08:18 07.05.2020
3475 Clouds 22 1013 37 10000 4.6 30 07:41 07.05.2020
3476 Clouds 22 1013 37 10000 4.6 30 07:21 07.05.2020
3477 Clouds 22 1013 37 10000 4.6 340 06:38 07.05.2020
3478 Clouds 21 1013 32 10000 4.6 320 06:19 07.05.2020
3479 Clouds 20 1013 40 10000 5.1 320 04:41 07.05.2020
3480 Clouds 19 1014 42 10000 4.1 360 03:47 07.05.2020
3481 Clouds 19 1014 42 10000 4.1 360 03:20 07.05.2020
3482 Clouds 18 1014 42 10000 4.6 360 02:41 07.05.2020
3483 Clouds 17 1014 59 10000 10.8 10 01:40 07.05.2020
3484 Clouds 17 1014 59 10000 10.8 10 01:22 07.05.2020
3485 Clouds 16 1014 55 10000 10.3 360 00:44 07.05.2020
3486 Clouds 16 1013 59 10000 8.2 20 00:25 07.05.2020
3487 Clouds 15 1013 62 10000 7.7 10 23:46 06.05.2020
3488 Clouds 15 1013 62 10000 7.7 10 23:24 06.05.2020
3489 Clouds 14 1013 67 10000 7.2 360 22:57 06.05.2020
3490 Rain 15 1011 72 10000 8.2 350 22:39 06.05.2020
3491 Rain 15 1012 82 10000 7.2 360 22:19 06.05.2020
3492 Rain 15 1012 82 10000 7.2 360 21:56 06.05.2020
3493 Rain 15 1011 87 10000 6.7 10 21:38 06.05.2020
3494 Rain 15 1011 87 10000 6.2 10 21:18 06.05.2020
3495 Rain 15 1010 93 10000 5.1 360 20:42 06.05.2020
3496 Rain 15 1010 93 10000 5.1 360 20:23 06.05.2020
3497 Rain 15 1010 93 10000 5.1 360 20:23 06.05.2020
3498 Clouds 15 1010 87 10000 5.7 350 19:57 06.05.2020
3499 Clouds 15 1010 87 10000 4.6 20 19:38 06.05.2020
3500 Clouds 16 1010 87 10000 4.6 20 19:19 06.05.2020
3501 Clouds 16 1010 93 10000 3.6 10 18:58 06.05.2020
3502 Clouds 16 1009 93 10000 6.2 360 18:39 06.05.2020
3503 Clouds 16 1010 93 10000 5.7 10 18:21 06.05.2020
3504 Clouds 16 1010 93 10000 5.7 10 17:58 06.05.2020
3505 Thunderstorm 16 1011 93 10000 3.1 50 17:39 06.05.2020
3506 Thunderstorm 16 1011 93 10000 3.1 50 17:21 06.05.2020
3507 Rain 16 1010 93 10000 1.5 70 16:58 06.05.2020
3508 Thunderstorm 16 1010 93 6000 4.1 10 16:40 06.05.2020
3509 Thunderstorm 16 1011 93 6000 1.5 290 16:21 06.05.2020
3510 Thunderstorm 16 1011 93 5000 3.6 350 15:58 06.05.2020
3511 Thunderstorm 16 1011 93 5000 3.6 350 15:40 06.05.2020
3512 Thunderstorm 16 1010 93 10000 3.6 10 15:20 06.05.2020
3513 Thunderstorm 16 1011 93 10000 2.1 340 14:45 06.05.2020
3514 Rain 16 1011 93 4500 3.6 10 14:20 06.05.2020
3515 Rain 16 1011 93 4500 3.6 10 13:59 06.05.2020
3516 Rain 16 1011 93 8000 4.1 340 13:41 06.05.2020
3517 Rain 16 1011 93 6000 3.1 60 13:22 06.05.2020
3518 Rain 16 1011 93 6000 3.1 60 12:54 06.05.2020
3519 Thunderstorm 16 1011 93 10000 4.1 360 12:36 06.05.2020
3520 Rain 16 1010 93 10000 4.1 10 12:18 06.05.2020
3521 Rain 16 1010 93 10000 5.7 20 11:40 06.05.2020
3522 Thunderstorm 16 1010 93 5000 3.1 350 11:21 06.05.2020
3523 Mist 16 1010 93 5000 3.1 350 10:57 06.05.2020
3524 Thunderstorm 16 1010 93 5000 3.1 350 10:37 06.05.2020
3525 Thunderstorm 16 1011 93 7000 3.6 360 10:18 06.05.2020
3526 Rain 16 1010 93 2500 2.1 320 09:43 06.05.2020
3527 Rain 16 1010 93 2500 2.1 320 09:22 06.05.2020
3528 Clouds 17 1009 88 7000 2.6 20 08:49 06.05.2020
3529 Clouds 17 1009 88 7000 2.6 20 08:23 06.05.2020
3530 Clouds 17 1009 88 7000 2.6 30 08:23 06.05.2020
3531 Clouds 17 1009 88 7000 2.6 30 07:59 06.05.2020
3532 Clouds 17 1009 88 7000 2.6 30 07:39 06.05.2020
3533 Clouds 18 1009 88 7000 2.6 30 07:20 06.05.2020
3534 Clouds 18 1010 88 10000 2.6 30 06:53 06.05.2020
3535 Clouds 18 1011 88 9000 0.5 0 06:22 06.05.2020
3536 Clouds 18 1011 88 9000 0.5 0 05:55 06.05.2020
3537 Clouds 18 1011 88 9000 0.5 0 05:37 06.05.2020
3538 Clouds 18 1011 88 9000 0.5 0 05:37 06.05.2020
3539 Rain 17 1012 88 8000 2.6 80 04:38 06.05.2020
3540 Clouds 17 1012 82 8000 3.1 50 03:42 06.05.2020
3541 Clouds 17 1013 82 8000 2.1 30 03:20 06.05.2020
3542 Clouds 17 1013 82 8000 2.1 30 02:30 06.05.2020
3543 Clouds 17 1013 82 10000 1 0 01:54 06.05.2020
3544 Clouds 17 1013 87 10000 4.1 20 01:32 06.05.2020
3545 Clouds 17 1013 82 10000 4.1 20 00:54 06.05.2020
3546 Clouds 17 1013 82 10000 4.6 20 00:27 06.05.2020
3547 Clouds 16 1014 87 10000 4.1 10 23:56 05.05.2020
3548 Clouds 16 1013 87 10000 4.6 30 23:37 05.05.2020
3549 Clouds 16 1013 87 10000 5.1 10 23:18 05.05.2020
3550 Clouds 16 1013 87 10000 6.2 360 22:41 05.05.2020
3551 Clouds 16 1013 87 10000 6.2 350 22:20 05.05.2020
3552 Clouds 16 1013 87 10000 6.2 350 21:57 05.05.2020
3553 Rain 16 1013 82 10000 6.7 350 21:39 05.05.2020
3554 Rain 16 1014 82 10000 7.2 350 21:20 05.05.2020
3555 Rain 16 1014 82 10000 7.2 350 20:58 05.05.2020
3556 Rain 16 1013 82 10000 5.7 360 20:39 05.05.2020
3557 Rain 16 1013 77 10000 5.7 10 20:18 05.05.2020
3558 Rain 17 1013 77 10000 5.7 10 19:54 05.05.2020
3559 Rain 17 1012 72 10000 4.6 350 19:36 05.05.2020
3560 Clouds 17 1012 72 10000 5.7 40 19:18 05.05.2020
3561 Clouds 17 1012 72 10000 5.7 40 18:54 05.05.2020
3562 Clouds 17 1012 72 10000 6.7 30 18:36 05.05.2020
3563 Clouds 17 1013 77 10000 6.7 20 18:18 05.05.2020
3564 Clouds 17 1013 77 10000 8.2 30 17:41 05.05.2020
3565 Clouds 17 1013 77 10000 8.2 30 17:23 05.05.2020
3566 Clouds 18 1013 82 10000 6.2 40 16:57 05.05.2020
3567 Clouds 18 1013 82 10000 6.2 40 16:57 05.05.2020
3568 Clouds 18 1014 82 10000 6.2 40 16:36 05.05.2020
3569 Clouds 18 1014 72 10000 5.7 40 16:18 05.05.2020
3570 Clouds 19 1014 72 10000 5.7 40 15:55 05.05.2020
3571 Clouds 19 1013 77 10000 6.2 60 15:37 05.05.2020
3572 Clouds 19 1013 77 10000 6.2 60 15:18 05.05.2020
3573 Clouds 19 1014 77 10000 5.7 80 14:42 05.05.2020
3574 Clouds 19 1013 82 10000 5.7 80 14:24 05.05.2020
3575 Clouds 19 1013 82 10000 5.7 80 13:58 05.05.2020
3576 Rain 19 1013 82 10000 6.2 90 13:40 05.05.2020
3577 Clouds 20 1013 88 10000 6.2 90 13:21 05.05.2020
3578 Clouds 20 1013 88 10000 6.2 90 12:59 05.05.2020
3579 Clouds 20 1012 88 10000 6.7 100 12:39 05.05.2020
3580 Rain 20 1012 88 10000 6.7 110 12:20 05.05.2020
3581 Rain 21 1012 88 10000 6.7 110 11:57 05.05.2020
3582 Rain 21 1010 88 10000 8.2 100 11:39 05.05.2020
3583 Clouds 22 1009 73 10000 4.1 110 11:18 05.05.2020
3584 Clouds 22 1009 73 10000 4.1 110 10:39 05.05.2020
3585 Clouds 22 1009 73 10000 4.1 110 10:39 05.05.2020
3586 Clouds 22 1009 73 10000 4.1 110 10:39 05.05.2020
3587 Clouds 23 1008 78 10000 8.2 110 10:20 05.05.2020
3588 Clouds 23 1008 78 10000 8.2 110 09:59 05.05.2020
3589 Clouds 23 1008 78 10000 8.2 110 09:59 05.05.2020
3590 Clouds 23 1008 78 10000 8.2 110 09:41 05.05.2020
3591 Clouds 23 1008 78 10000 8.2 110 09:23 05.05.2020
3592 Clouds 26 1008 73 10000 8.2 110 08:42 05.05.2020
3593 Clouds 26 1008 73 10000 8.2 110 08:21 05.05.2020
3594 Clouds 26 1008 69 10000 7.7 120 07:58 05.05.2020
3595 Clouds 26 1008 69 10000 7.7 120 07:39 05.05.2020
3596 Clouds 27 1008 61 10000 3.1 140 07:19 05.05.2020
3597 Clouds 26 1008 61 10000 3.1 140 06:50 05.05.2020
3598 Clouds 27 1008 61 10000 3.1 140 06:29 05.05.2020
3599 Clouds 27 1008 61 10000 3.1 140 06:29 05.05.2020
3600 Clouds 27 1008 61 10000 3.1 140 06:29 05.05.2020
3601 Clouds 27 1008 61 10000 3.1 140 06:29 05.05.2020
3602 Clouds 25 1008 73 10000 4.6 140 05:43 05.05.2020
3603 Clouds 25 1008 83 10000 2.6 140 04:52 05.05.2020
3604 Mist 23 1008 94 3000 3.6 140 02:28 05.05.2020
3605 Fog 23 1008 93 4000 1.5 130 00:54 05.05.2020
3606 Mist 21 1008 94 5000 1 0 00:23 05.05.2020
3607 Mist 20 1007 100 2000 0.5 0 23:48 04.05.2020
3608 Mist 19 1007 100 2000 0.5 0 23:25 04.05.2020
3609 Fog 19 1006 100 500 2.1 180 22:58 04.05.2020
3610 Mist 19 1006 100 1400 2.6 160 22:39 04.05.2020
3611 Mist 19 1006 100 1400 2.6 160 22:21 04.05.2020
3612 Mist 19 1006 93 2300 3.1 190 21:57 04.05.2020
3613 Mist 19 1006 93 2300 3.1 190 21:36 04.05.2020
3614 Mist 19 1005 93 2400 1.5 230 21:18 04.05.2020
3615 Mist 19 1005 93 3000 3.6 200 20:40 04.05.2020
3616 Mist 19 1005 93 3000 3.6 200 20:40 04.05.2020
3617 Mist 19 1005 93 3000 3.6 200 20:40 04.05.2020
3618 Mist 19 1005 93 3000 3.6 200 20:40 04.05.2020
3619 Mist 19 1005 93 3000 3.6 200 20:40 04.05.2020
3620 Mist 19 1005 93 3000 3.6 200 20:19 04.05.2020
3621 Clouds 19 1005 93 8000 3.1 190 19:43 04.05.2020
3622 Clouds 19 1005 100 10000 2.6 220 19:24 04.05.2020
3623 Clouds 19 1005 100 10000 2.6 220 18:59 04.05.2020
3624 Clouds 19 1005 93 10000 1.5 220 18:38 04.05.2020
3625 Clouds 19 1005 93 10000 2.1 190 18:19 04.05.2020
3626 Clouds 19 1005 93 10000 2.1 190 17:56 04.05.2020
3627 Clouds 19 1005 93 10000 2.1 190 17:56 04.05.2020
3628 Clouds 19 1005 93 10000 2.1 200 17:37 04.05.2020
3629 Clouds 19 1005 93 9000 2.1 190 17:19 04.05.2020
3630 Clouds 20 1005 93 9000 2.6 190 16:43 04.05.2020
3631 Clouds 20 1005 93 9000 2.6 190 16:23 04.05.2020
3632 Clouds 20 1005 93 9000 3.6 180 15:58 04.05.2020
3633 Clouds 20 1005 93 10000 2.1 190 15:39 04.05.2020
3634 Clouds 20 1005 93 10000 2.1 190 15:20 04.05.2020
3635 Clouds 20 1005 93 10000 0.5 0 14:48 04.05.2020
3636 Clouds 20 1005 93 10000 0.5 0 14:48 04.05.2020
3637 Clouds 20 1005 93 10000 0.5 0 14:48 04.05.2020
3638 Clouds 21 1005 93 10000 0.5 0 14:20 04.05.2020
3639 Clouds 21 1005 88 10000 1 340 13:21 04.05.2020
3640 Clouds 21 1005 88 10000 1 50 13:21 04.05.2020
3641 Clouds 21 1005 88 10000 1 50 13:21 04.05.2020
3642 Clouds 21 1004 88 10000 1 0 12:43 04.05.2020
3643 Clouds 21 1004 88 10000 1 0 12:43 04.05.2020
3644 Clouds 21 1004 88 10000 1 0 12:43 04.05.2020
3645 Clouds 21 1004 88 10000 1 0 12:43 04.05.2020
3646 Clouds 21 1004 88 10000 1 0 12:43 04.05.2020
3647 Clouds 22 1004 78 10000 2.1 180 10:57 04.05.2020
3648 Clouds 22 1004 78 10000 2.1 180 10:57 04.05.2020
3649 Clouds 22 1004 78 10000 2.1 180 10:57 04.05.2020
3650 Clouds 22 1004 78 10000 2.1 180 10:57 04.05.2020
3651 Clouds 22 1004 78 10000 2.1 180 10:57 04.05.2020
3652 Clouds 21 1005 88 10000 1.5 110 09:26 04.05.2020
3653 Clouds 22 1005 88 10000 1.5 110 09:26 04.05.2020
3654 Clouds 22 1005 88 10000 1.5 110 09:26 04.05.2020
3655 Clouds 22 1005 88 10000 1.5 110 09:26 04.05.2020
3656 Clouds 21 1005 88 10000 1.5 110 09:26 04.05.2020
3657 Clouds 21 1006 88 10000 1 0 07:53 04.05.2020
3658 Clouds 21 1006 88 10000 1 0 07:33 04.05.2020
3659 Clouds 21 1006 88 10000 1 0 07:33 04.05.2020
3660 Clouds 21 1008 88 10000 2.1 190 05:49 04.05.2020
3661 Rain 20 1009 88 10000 3.1 200 04:50 04.05.2020
3662 Rain 19 1010 88 10000 2.6 180 02:42 04.05.2020
3663 Rain 18 1010 93 10000 2.6 200 01:22 04.05.2020
3664 Rain 19 1010 88 10000 4.6 170 00:18 04.05.2020
3665 Rain 19 1010 88 10000 4.1 180 23:42 03.05.2020
3666 Rain 19 1010 88 10000 4.1 180 23:42 03.05.2020
3667 Rain 19 1010 88 10000 4.1 180 23:23 03.05.2020
3668 Rain 19 1010 88 10000 4.1 190 22:43 03.05.2020
3669 Rain 19 1010 88 10000 4.1 190 22:43 03.05.2020
3670 Rain 19 1010 88 10000 4.1 190 22:25 03.05.2020
3671 Rain 19 1010 88 10000 4.1 190 22:25 03.05.2020
3672 Rain 19 1010 88 10000 6.7 200 21:43 03.05.2020
3673 Rain 19 1010 88 10000 6.7 200 21:22 03.05.2020
3674 Rain 19 1011 93 10000 8.7 190 20:58 03.05.2020
3675 Rain 19 1011 93 10000 8.7 190 20:58 03.05.2020
3676 Rain 19 1011 93 10000 8.7 190 20:58 03.05.2020
3677 Rain 19 1011 93 10000 8.7 190 20:58 03.05.2020
3678 Rain 19 1011 93 10000 8.7 190 20:58 03.05.2020
3679 Rain 19 1010 88 10000 9.3 180 20:39 03.05.2020
3680 Rain 19 1010 88 10000 9.3 180 20:20 03.05.2020
3681 Rain 19 1010 88 10000 9.3 180 20:20 03.05.2020
3682 Rain 19 1010 88 10000 9.3 180 20:20 03.05.2020
3683 Rain 20 1010 82 10000 7.7 180 19:47 03.05.2020
3684 Rain 20 1010 82 10000 7.7 180 19:29 03.05.2020
3685 Clouds 20 1011 82 10000 7.7 190 18:56 03.05.2020
3686 Clouds 20 1011 82 10000 7.7 190 18:56 03.05.2020
3687 Clouds 20 1012 77 10000 7.7 200 18:37 03.05.2020
3688 Clouds 20 1012 77 10000 7.7 200 18:18 03.05.2020
3689 Clouds 20 1009 85 0 2.68 143 18:18 03.05.2020
3690 Clouds 20 1009 85 0 2.68 143 18:18 03.05.2020
3691 Clouds 20 1009 85 0 2.68 143 18:18 03.05.2020
3692 Clouds 20 1011 82 10000 8.7 190 17:40 03.05.2020
3693 Clouds 20 1011 82 10000 9.3 200 17:21 03.05.2020
3694 Clouds 20 1012 82 10000 9.3 200 16:45 03.05.2020
3695 Clouds 20 1012 82 10000 9.8 190 16:20 03.05.2020
3696 Clouds 20 1012 82 10000 9.8 190 15:58 03.05.2020
3697 Clouds 20 1012 82 10000 9.8 190 15:58 03.05.2020
3698 Clouds 20 1012 82 10000 8.2 190 15:39 03.05.2020
3699 Clouds 20 1012 82 10000 8.2 190 15:20 03.05.2020
3700 Clouds 20 1012 82 10000 8.2 190 15:20 03.05.2020
3701 Clouds 20 1013 77 10000 8.7 190 14:58 03.05.2020
3702 Clouds 20 1012 77 10000 8.2 200 14:40 03.05.2020
3703 Clouds 20 1012 77 10000 8.2 200 14:21 03.05.2020
3704 Clouds 20 1012 77 10000 8.2 200 14:21 03.05.2020
3705 Clouds 20 1012 77 10000 8.2 200 13:51 03.05.2020
3706 Clouds 20 1012 77 10000 8.2 200 13:51 03.05.2020
3707 Clouds 20 1012 77 10000 8.2 200 13:51 03.05.2020
3708 Clouds 20 1012 77 10000 8.2 200 13:51 03.05.2020
3709 Clouds 20 1012 77 10000 8.2 200 13:51 03.05.2020
3710 Clouds 21 1012 72 10000 7.2 190 13:18 03.05.2020
3711 Clouds 21 1012 72 10000 7.2 190 13:18 03.05.2020
3712 Clouds 21 1012 72 10000 7.7 190 12:43 03.05.2020
3713 Clouds 21 1012 72 10000 7.7 190 12:18 03.05.2020
3714 Clouds 21 1012 68 10000 6.7 190 11:55 03.05.2020
3715 Clouds 21 1012 68 10000 6.7 190 11:55 03.05.2020
3716 Clouds 21 1012 68 10000 6.7 190 11:37 03.05.2020
3717 Clouds 21 1011 60 10000 7.2 160 11:18 03.05.2020
3718 Clouds 21 1011 60 10000 7.2 160 10:46 03.05.2020
3719 Clouds 21 1011 60 10000 7.2 160 10:46 03.05.2020
3720 Clouds 21 1011 60 10000 7.2 160 10:46 03.05.2020
3721 Clouds 21 1011 60 10000 7.2 160 10:46 03.05.2020
3722 Clouds 21 1011 60 10000 7.2 160 10:46 03.05.2020
3723 Clouds 22 1010 60 10000 6.2 170 09:57 03.05.2020
3724 Clouds 22 1010 60 10000 6.2 170 09:57 03.05.2020
3725 Clouds 22 1010 60 10000 6.2 170 09:57 03.05.2020
3726 Clouds 22 1010 60 10000 6.2 170 09:57 03.05.2020
3727 Clouds 22 1010 60 10000 6.2 170 09:57 03.05.2020
3728 Clouds 22 1011 77 10000 7.2 190 09:34 03.05.2020
3729 Clouds 22 1011 77 10000 7.2 190 09:34 03.05.2020
3730 Clouds 22 1011 77 10000 7.2 190 09:34 03.05.2020
3731 Clouds 22 1011 77 10000 7.2 190 09:34 03.05.2020
3732 Clouds 22 1011 77 10000 7.2 190 09:34 03.05.2020
3733 Clouds 22 1012 77 10000 6.7 190 08:55 03.05.2020
3734 Clouds 22 1012 77 10000 6.7 190 08:55 03.05.2020
3735 Clouds 23 1012 77 10000 6.7 190 08:26 03.05.2020
3736 Clouds 23 1012 77 10000 6.7 190 08:26 03.05.2020
3737 Clouds 23 1012 77 10000 6.7 190 08:26 03.05.2020
3738 Clouds 23 1012 77 10000 6.7 190 08:26 03.05.2020
3739 Clouds 23 1012 77 10000 6.7 190 08:26 03.05.2020
3740 Clouds 24 1012 77 10000 7.2 180 07:39 03.05.2020
3741 Clouds 24 1013 64 10000 5.7 180 06:20 03.05.2020
3742 Clouds 25 1013 73 10000 7.7 190 05:47 03.05.2020
3743 Clouds 25 1013 53 10000 4.6 180 04:54 03.05.2020
3744 Clouds 25 1013 77 10000 5.1 180 04:26 03.05.2020
3745 Clouds 24 1014 73 8000 5.1 190 02:59 03.05.2020
3746 Clouds 24 1014 73 8000 5.1 190 02:59 03.05.2020
3747 Clouds 24 1014 73 8000 5.1 190 02:24 03.05.2020
3748 Clouds 24 1014 68 10000 6.7 190 01:44 03.05.2020
3749 Clouds 23 1014 68 10000 6.7 190 01:24 03.05.2020
3750 Clouds 22 1014 73 10000 6.2 190 00:55 03.05.2020
3751 Clouds 22 1013 77 8000 5.1 190 00:37 03.05.2020
3752 Clouds 22 1014 77 7000 5.7 200 00:18 03.05.2020
3753 Clouds 20 1013 82 6000 4.6 210 23:42 02.05.2020
3754 Clouds 20 1013 82 6000 4.6 210 23:24 02.05.2020
3755 Clouds 19 1012 82 7000 5.7 200 22:43 02.05.2020
3756 Clouds 19 1012 82 7000 5.7 200 22:23 02.05.2020
3757 Clouds 19 1013 88 7000 5.7 200 21:56 02.05.2020
3758 Clouds 19 1012 77 6000 4.1 190 21:38 02.05.2020
3759 Clouds 19 1012 82 6000 4.1 190 21:18 02.05.2020
3760 Clouds 19 1012 82 6000 4.1 190 20:57 02.05.2020
3761 Clouds 19 1012 82 7000 4.6 200 20:37 02.05.2020
3762 Clouds 19 1012 82 7000 4.6 200 20:19 02.05.2020
3763 Clouds 19 1012 82 7000 5.1 200 19:57 02.05.2020
3764 Clouds 19 1012 88 7000 4.1 190 19:38 02.05.2020
3765 Clouds 19 1012 77 8000 4.1 190 19:19 02.05.2020
3766 Clouds 19 1012 77 9000 4.1 200 18:41 02.05.2020
3767 Clouds 20 1012 77 9000 4.1 200 18:23 02.05.2020
3768 Clouds 20 1012 82 9000 5.7 200 17:58 02.05.2020
3769 Clouds 20 1012 72 10000 6.2 200 17:39 02.05.2020
3770 Clear 20 1013 72 10000 6.2 200 17:20 02.05.2020
3771 Clear 21 1013 72 10000 6.2 200 16:59 02.05.2020
3772 Clear 20 1012 72 10000 7.2 200 16:39 02.05.2020
3773 Clear 21 1013 72 8000 6.7 200 16:21 02.05.2020
3774 Clear 21 1012 72 8000 6.7 200 15:43 02.05.2020
3775 Clear 21 1012 72 8000 6.7 200 15:20 02.05.2020
3776 Mist 21 1012 72 7000 8.2 200 14:58 02.05.2020
3777 Mist 21 1012 77 7000 6.7 200 14:40 02.05.2020
3778 Mist 21 1012 77 7000 6.7 200 14:21 02.05.2020
3779 Mist 21 1011 88 6000 9.3 200 13:40 02.05.2020
3780 Mist 22 1011 88 6000 9.3 200 13:22 02.05.2020
3781 Mist 22 1011 77 6000 7.7 190 12:55 02.05.2020
3782 Mist 22 1010 77 4500 8.2 190 12:37 02.05.2020
3783 Mist 22 1011 77 5000 8.2 190 12:19 02.05.2020
3784 Clear 23 1010 73 8000 8.7 190 11:42 02.05.2020
3785 Clear 23 1009 50 8000 4.6 160 11:23 02.05.2020
3786 Clear 24 1009 50 8000 4.6 160 10:59 02.05.2020
3787 Clear 24 1009 50 8000 4.6 160 10:39 02.05.2020
3788 Clear 24 1009 50 8000 4.6 160 10:21 02.05.2020
3789 Clear 24 1010 73 10000 5.1 190 09:57 02.05.2020
3790 Clear 25 1010 73 10000 5.1 190 09:39 02.05.2020
3791 Clear 26 1010 73 10000 7.2 180 09:20 02.05.2020
3792 Clear 26 1010 73 10000 7.2 180 08:51 02.05.2020
3793 Clear 26 1010 73 10000 7.2 180 08:31 02.05.2020
3794 Clear 27 1010 69 10000 5.7 190 07:49 02.05.2020
3795 Clear 27 1010 69 10000 5.7 190 07:30 02.05.2020
3796 Clear 25 1011 73 9000 6.7 180 06:53 02.05.2020
3797 Clear 27 1011 73 9000 6.7 180 06:23 02.05.2020
3798 Clear 26 1012 77 9000 5.1 170 05:27 02.05.2020
3799 Clear 26 1013 69 10000 4.1 190 04:26 02.05.2020
3800 Clear 24 1013 77 7000 3.6 170 03:34 02.05.2020
3801 Mist 23 1013 82 5000 4.1 150 02:39 02.05.2020
3802 Clouds 23 1014 82 8000 1 0 01:52 02.05.2020
3803 Clouds 22 1014 77 8000 1 0 00:58 02.05.2020
3804 Clouds 21 1014 82 8000 1.5 230 00:40 02.05.2020
3805 Clouds 19 1014 82 8000 1.5 230 00:19 02.05.2020
3806 Clear 18 1014 88 8000 2.6 260 23:40 01.05.2020
3807 Clear 18 1014 88 8000 2.6 260 23:40 01.05.2020
3808 Clear 18 1014 88 8000 2.6 260 23:20 01.05.2020
3809 Clear 17 1014 88 7000 2.1 260 22:58 01.05.2020
3810 Clear 16 1013 87 7000 2.6 260 22:38 01.05.2020
3811 Clear 17 1013 93 8000 1.5 240 22:19 01.05.2020
3812 Clear 17 1013 93 8000 1.5 240 21:57 01.05.2020
3813 Clear 17 1013 93 10000 0.5 0 21:39 01.05.2020
3814 Clear 17 1013 82 10000 1.5 280 21:19 01.05.2020
3815 Clear 17 1013 82 10000 1.5 280 20:57 01.05.2020
3816 Clear 18 1013 88 10000 1.5 320 20:37 01.05.2020
3817 Clear 18 1013 82 10000 1.5 280 20:19 01.05.2020
3818 Clear 17 1012 87 10000 1.5 190 19:43 01.05.2020
3819 Clear 17 1012 87 10000 1.5 190 19:23 01.05.2020
3820 Clear 18 1012 82 10000 2.6 180 18:59 01.05.2020
3821 Clear 18 1012 82 10000 2.6 190 18:41 01.05.2020
3822 Clear 18 1012 82 10000 2.6 190 18:21 01.05.2020
3823 Clear 18 1012 82 10000 2.6 190 18:21 01.05.2020
3824 Clear 18 1012 82 10000 3.1 180 17:59 01.05.2020
3825 Clear 18 1013 77 10000 3.1 200 17:39 01.05.2020
3826 Clear 18 1013 77 10000 3.1 200 17:39 01.05.2020
3827 Clear 18 1013 77 10000 3.1 200 17:21 01.05.2020
3828 Clear 19 1013 77 10000 3.6 200 16:57 01.05.2020
3829 Clear 19 1013 82 10000 4.1 200 16:38 01.05.2020
3830 Clear 19 1013 77 10000 3.6 180 16:20 01.05.2020
3831 Clear 19 1013 77 10000 3.6 180 15:56 01.05.2020
3832 Clear 20 1013 72 10000 5.1 190 15:38 01.05.2020
3833 Clear 20 1013 72 10000 5.1 190 15:18 01.05.2020
3834 Clear 20 1012 77 10000 6.7 200 14:42 01.05.2020
3835 Clouds 20 1012 77 10000 6.7 200 14:23 01.05.2020
3836 Clouds 20 1012 72 10000 6.7 200 13:42 01.05.2020
3837 Clouds 21 1012 72 10000 6.7 200 13:23 01.05.2020
3838 Clouds 21 1012 72 10000 6.7 200 12:59 01.05.2020
3839 Clouds 21 1012 72 10000 8.2 200 12:40 01.05.2020
3840 Clouds 21 1012 72 10000 8.2 200 12:21 01.05.2020
3841 Clouds 21 1012 72 10000 6.2 200 11:59 01.05.2020
3842 Clouds 22 1011 68 10000 6.7 200 11:41 01.05.2020
3843 Clouds 22 1011 56 10000 4.6 150 11:19 01.05.2020
3844 Clouds 22 1011 56 10000 4.6 150 10:56 01.05.2020
3845 Clouds 22 1011 56 10000 4.6 150 10:36 01.05.2020
3846 Clouds 22 1011 77 10000 6.2 180 10:18 01.05.2020
3847 Clouds 23 1011 77 10000 6.2 180 09:42 01.05.2020
3848 Clouds 23 1011 77 10000 6.2 180 09:19 01.05.2020
3849 Clouds 24 1012 68 10000 6.2 180 08:47 01.05.2020
3850 Clouds 24 1012 68 10000 6.2 180 08:28 01.05.2020
3851 Clouds 24 1012 73 10000 5.7 170 07:59 01.05.2020
3852 Clouds 24 1012 73 10000 5.7 170 07:40 01.05.2020
3853 Clouds 24 1012 73 10000 5.7 170 07:20 01.05.2020
3854 Clouds 24 1013 68 10000 6.7 180 06:30 01.05.2020
3855 Clouds 25 1014 68 10000 5.7 190 05:26 01.05.2020
3856 Clouds 23 1015 60 10000 5.1 210 04:19 01.05.2020
3857 Clouds 22 1015 60 10000 5.1 220 02:57 01.05.2020
3858 Clouds 22 1015 60 10000 5.1 220 02:38 01.05.2020
3859 Clouds 21 1015 60 10000 5.7 220 01:54 01.05.2020
3860 Clouds 22 1015 56 10000 9.8 220 01:27 01.05.2020
3861 Clouds 20 1016 60 10000 9.3 220 00:41 01.05.2020
3862 Clouds 20 1016 60 10000 9.3 220 00:41 01.05.2020
3863 Clouds 20 1016 60 10000 9.3 220 00:22 01.05.2020
3864 Clouds 19 1015 59 10000 10.3 220 23:57 30.04.2020
3865 Clouds 19 1015 59 10000 9.8 220 23:39 30.04.2020
3866 Clouds 18 1015 59 10000 9.8 220 23:21 30.04.2020
3867 -273 0 0 0 0 0 22:59 30.04.2020
3868 Clear 18 1015 68 10000 11.8 220 22:40 30.04.2020
3869 Clear 17 1014 68 10000 9.8 220 22:19 30.04.2020
3870 Clear 17 1014 68 10000 8.7 210 21:55 30.04.2020
3871 Clear 18 1014 68 10000 8.7 210 21:37 30.04.2020
3872 Clear 18 1015 68 10000 9.8 220 21:18 30.04.2020
3873 Clear 18 1014 68 10000 9.8 220 20:41 30.04.2020
3874 Clear 18 1015 68 10000 10.3 220 20:19 30.04.2020
3875 Clear 18 1015 68 10000 10.3 220 19:58 30.04.2020
3876 Clear 18 1015 68 10000 9.8 220 19:38 30.04.2020
3877 Clear 18 1016 68 10000 10.3 220 19:18 30.04.2020
3878 Clear 18 1016 68 10000 10.3 220 18:55 30.04.2020
3879 Clear 18 1015 68 10000 8.2 210 18:36 30.04.2020
3880 Clear 18 1016 72 10000 8.7 210 18:18 30.04.2020
3881 Clear 18 1016 68 10000 11.3 220 17:40 30.04.2020
3882 Clear 18 1016 68 10000 10.3 210 17:22 30.04.2020
3883 Clear 18 1016 68 10000 10.3 210 16:58 30.04.2020
3884 Clear 18 1016 68 10000 7.7 210 16:40 30.04.2020
3885 Clear 18 1016 68 10000 7.7 210 16:20 30.04.2020
3886 Clear 18 1017 68 10000 9.3 210 15:54 30.04.2020
3887 Clear 18 1016 68 10000 8.2 200 15:36 30.04.2020
3888 Clear 19 1017 63 10000 7.2 190 15:18 30.04.2020
3889 Clear 19 1017 68 10000 8.2 200 14:40 30.04.2020
3890 Clear 19 1017 68 10000 8.2 200 14:20 30.04.2020
3891 Clear 19 1016 68 10000 7.2 200 13:57 30.04.2020
3892 Clear 19 1016 77 10000 9.3 190 13:39 30.04.2020
3893 Clear 20 1016 72 10000 8.2 180 13:20 30.04.2020
3894 Clear 20 1016 72 10000 8.2 180 12:55 30.04.2020
3895 Clear 20 1016 72 10000 7.7 180 12:37 30.04.2020
3896 Clear 20 1016 72 10000 7.7 180 12:18 30.04.2020
3897 Clouds 20 1016 68 10000 7.2 180 11:38 30.04.2020
3898 Clouds 21 1015 56 10000 4.1 170 11:18 30.04.2020
3899 Clouds 21 1015 56 10000 4.1 170 10:56 30.04.2020
3900 Clouds 21 1015 56 10000 4.1 170 10:38 30.04.2020
3901 Clouds 21 1016 64 10000 5.7 180 10:18 30.04.2020
3902 Clouds 22 1016 64 10000 5.7 180 09:44 30.04.2020
3903 Clouds 22 1016 64 10000 5.7 180 09:23 30.04.2020
3904 Clouds 23 1016 56 10000 5.1 190 08:57 30.04.2020
3905 Clouds 23 1016 56 10000 5.1 190 08:39 30.04.2020
3906 Clouds 24 1016 56 10000 5.1 190 08:20 30.04.2020
3907 Clouds 24 1017 60 10000 3.6 180 07:43 30.04.2020
3908 Clouds 23 1017 60 10000 3.6 180 07:24 30.04.2020
3909 Clouds 23 1018 60 10000 4.6 160 06:48 30.04.2020
3910 Clouds 23 1019 56 10000 3.1 150 05:50 30.04.2020
3911 Clouds 23 1019 56 10000 3.1 150 05:30 30.04.2020
3912 Clouds 22 1020 60 10000 3.1 150 04:33 30.04.2020
3913 Clouds 21 1020 60 10000 1.5 50 03:54 30.04.2020
3914 Clouds 20 1021 63 10000 2.6 30 02:45 30.04.2020
3915 Clouds 19 1021 68 10000 2.1 360 02:24 30.04.2020
3916 Clouds 18 1021 68 10000 4.1 350 01:36 30.04.2020
3917 Clouds 17 1021 72 10000 3.6 360 00:42 30.04.2020
3918 Clouds 16 1021 72 10000 3.6 360 00:19 30.04.2020
3919 Clouds 15 1021 77 10000 3.6 360 23:57 29.04.2020
3920 Clouds 15 1021 77 10000 3.6 360 23:37 29.04.2020
3921 Clouds 15 1021 77 10000 3.6 360 23:37 29.04.2020
3922 Clouds 14 1021 77 10000 4.1 10 23:18 29.04.2020
3923 Clouds 14 1020 77 10000 4.6 360 22:40 29.04.2020
3924 Clouds 14 1020 77 10000 4.6 360 22:21 29.04.2020
3925 Clouds 14 1020 82 10000 4.1 10 21:59 29.04.2020
3926 Clouds 14 1020 82 10000 3.6 20 21:37 29.04.2020
3927 Clouds 15 1020 87 10000 3.6 30 21:19 29.04.2020
3928 Clouds 15 1020 87 10000 3.6 30 20:55 29.04.2020
3929 Clouds 15 1019 93 10000 2.6 40 20:36 29.04.2020
3930 Clouds 15 1019 93 10000 1.5 20 20:18 29.04.2020
3931 Clouds 15 1019 93 10000 1.5 20 20:18 29.04.2020
3932 Clouds 15 1019 93 10000 0.5 0 19:42 29.04.2020
3933 Clouds 15 1018 93 10000 1.5 350 19:22 29.04.2020
3934 Clouds 15 1018 93 10000 1.5 350 18:57 29.04.2020
3935 Clouds 16 1018 87 10000 1.5 190 18:38 29.04.2020
3936 Clouds 16 1018 77 10000 2.1 190 18:18 29.04.2020
3937 Clouds 16 1018 77 10000 2.6 200 17:41 29.04.2020
3938 Clouds 16 1018 82 10000 2.6 190 17:21 29.04.2020
3939 Clouds 16 1018 82 10000 2.6 190 16:55 29.04.2020
3940 Clouds 17 1018 72 10000 2.1 190 16:36 29.04.2020
3941 Clear 16 1019 72 10000 2.6 190 16:18 29.04.2020
3942 Clear 16 1019 72 10000 2.6 190 15:54 29.04.2020
3943 Clear 17 1018 72 10000 3.1 180 15:36 29.04.2020
3944 Clear 17 1019 67 10000 3.6 190 15:18 29.04.2020
3945 Clear 17 1018 67 10000 3.6 190 14:41 29.04.2020
3946 Clear 17 1018 67 10000 3.6 190 14:23 29.04.2020
3947 Clear 17 1018 63 10000 3.6 200 13:56 29.04.2020
3948 Clear 18 1017 59 10000 4.6 200 13:37 29.04.2020
3949 Clear 18 1017 55 10000 5.1 200 13:18 29.04.2020
3950 Clear 18 1016 59 10000 5.1 190 12:41 29.04.2020
3951 Clear 19 1016 59 10000 5.1 190 12:19 29.04.2020
3952 Clear 19 1017 55 10000 4.6 190 11:58 29.04.2020
3953 Clear 19 1016 52 10000 5.1 190 11:38 29.04.2020
3954 Clouds 19 1015 42 10000 3.1 180 11:19 29.04.2020
3955 Clouds 19 1015 42 10000 3.1 180 10:38 29.04.2020
3956 Clear 19 1015 63 10000 6.7 180 10:20 29.04.2020
3957 Clear 19 1015 63 10000 6.7 180 09:59 29.04.2020
3958 Clear 19 1015 63 10000 6.7 180 09:40 29.04.2020
3959 Clouds 19 1016 72 10000 7.7 180 09:19 29.04.2020
3960 Clouds 19 1016 72 10000 7.7 180 08:43 29.04.2020
3961 Clouds 19 1016 72 10000 7.7 180 08:25 29.04.2020
3962 Clouds 20 1016 68 10000 7.2 180 07:51 29.04.2020
3963 Clouds 20 1016 68 10000 7.2 180 07:27 29.04.2020
3964 Clouds 20 1017 59 10000 6.7 180 06:52 29.04.2020
3965 Clouds 20 1017 59 10000 6.7 180 06:32 29.04.2020
3966 Clouds 20 1018 63 10000 5.1 160 05:43 29.04.2020
3967 Clouds 20 1018 52 10000 4.1 180 05:19 29.04.2020
3968 Clouds 18 1019 62 10000 2.1 150 04:19 29.04.2020
3969 Clear 17 1019 63 10000 2.6 140 02:58 29.04.2020
3970 Clouds 16 1020 62 10000 1.5 140 01:54 29.04.2020
3971 Clouds 16 1020 62 10000 2.1 30 01:28 29.04.2020
3972 Clouds 15 1019 67 10000 1.5 20 00:55 29.04.2020
3973 Clouds 14 1019 71 10000 1.5 20 00:36 29.04.2020
3974 Clouds 13 1020 71 10000 1.5 310 00:18 29.04.2020
3975 Clouds 13 1020 81 10000 2.1 320 23:43 28.04.2020
3976 Clouds 12 1020 81 10000 2.1 320 23:20 28.04.2020
3977 Clouds 11 1019 81 10000 2.6 310 22:39 28.04.2020
3978 Clouds 11 1019 76 10000 2.6 360 22:20 28.04.2020
3979 Clouds 11 1019 76 10000 2.6 360 21:59 28.04.2020
3980 Clouds 11 1019 76 10000 2.6 360 21:59 28.04.2020
3981 Clouds 12 1019 71 10000 3.1 10 21:40 28.04.2020
3982 Clouds 12 1019 66 10000 3.6 10 21:22 28.04.2020
3983 Clouds 12 1019 66 10000 3.6 10 20:58 28.04.2020
3984 Clouds 12 1019 71 10000 4.1 10 20:40 28.04.2020
3985 Clouds 12 1019 71 10000 4.1 10 20:40 28.04.2020
3986 Clouds 12 1019 71 10000 4.1 10 20:20 28.04.2020
3987 Clouds 12 1018 71 10000 4.6 360 19:56 28.04.2020
3988 Clouds 12 1018 66 10000 4.6 20 19:38 28.04.2020
3989 Clouds 12 1018 71 10000 4.1 20 19:19 28.04.2020
3990 Clouds 12 1018 71 10000 4.6 10 18:42 28.04.2020
3991 Clouds 12 1019 76 10000 4.6 360 18:20 28.04.2020
3992 Clouds 12 1018 82 10000 4.6 20 17:59 28.04.2020
3993 Clouds 12 1018 82 10000 4.6 20 17:37 28.04.2020
3994 Clouds 13 1018 82 10000 5.1 20 17:19 28.04.2020
3995 Clouds 12 1018 82 10000 4.6 20 17:19 28.04.2020
3996 Clouds 13 1018 82 10000 5.1 20 16:57 28.04.2020
3997 Clouds 13 1018 82 10000 6.7 20 16:38 28.04.2020
3998 Clouds 13 1018 82 10000 5.7 50 16:20 28.04.2020
3999 Clouds 13 1018 82 10000 5.7 50 15:55 28.04.2020
4000 Clouds 13 1017 82 10000 4.6 40 15:37 28.04.2020
4001 Clouds 14 1017 82 10000 3.6 50 15:18 28.04.2020
4002 Clouds 14 1017 82 10000 3.1 60 14:43 28.04.2020
4003 Clouds 14 1017 82 10000 3.1 60 14:43 28.04.2020
4004 Clouds 14 1017 82 10000 3.1 60 14:22 28.04.2020
4005 Clouds 14 1017 82 10000 3.1 80 13:59 28.04.2020
4006 Clouds 14 1017 82 10000 3.1 80 13:59 28.04.2020
4007 Rain 14 1016 82 10000 3.6 110 13:40 28.04.2020
4008 Rain 14 1016 82 10000 3.6 110 13:22 28.04.2020
4009 Rain 14 1016 82 10000 3.6 130 12:58 28.04.2020
4010 Rain 14 1016 82 10000 3.1 140 12:39 28.04.2020
4011 Rain 14 1016 71 10000 1.5 0 12:21 28.04.2020
4012 Thunderstorm 15 1015 82 10000 5.1 160 11:42 28.04.2020
4013 Rain 15 1014 67 10000 1 0 11:22 28.04.2020
4014 Rain 16 1014 67 10000 1 0 10:57 28.04.2020
4015 Rain 16 1014 67 10000 1 0 10:38 28.04.2020
4016 Rain 16 1014 67 10000 1 0 10:18 28.04.2020
4017 Rain 16 1015 71 10000 1 0 09:44 28.04.2020
4018 Rain 16 1015 59 10000 3.6 160 09:25 28.04.2020
4019 Rain 15 1015 59 10000 3.6 160 08:57 28.04.2020
4020 Rain 16 1015 59 10000 3.6 160 08:38 28.04.2020
4021 Rain 16 1015 67 10000 3.1 50 08:20 28.04.2020
4022 Rain 17 1015 63 10000 4.1 150 07:42 28.04.2020
4023 Rain 18 1015 52 10000 3.6 190 07:19 28.04.2020
4024 Clouds 17 1015 63 10000 3.6 140 06:41 28.04.2020
4025 Clouds 17 1016 72 10000 2.6 110 05:53 28.04.2020
4026 Clouds 17 1016 72 10000 2.6 110 05:35 28.04.2020
4027 Clouds 16 1017 72 10000 2.6 160 04:35 28.04.2020
4028 Clouds 14 1018 76 10000 1 0 02:39 28.04.2020
4029 Clouds 14 1018 71 10000 1.5 90 01:58 28.04.2020
4030 Clouds 14 1018 76 10000 1.5 50 01:22 28.04.2020
4031 Clouds 13 1018 81 10000 1 0 00:45 28.04.2020
4032 Clouds 12 1019 81 10000 2.1 360 00:18 28.04.2020
4033 Clouds 11 1018 81 10000 1 0 23:43 27.04.2020
4034 Clouds 11 1018 81 10000 1.5 30 23:21 27.04.2020
4035 Clouds 10 1018 81 10000 1.5 50 22:43 27.04.2020
4036 Clouds 10 1018 81 10000 1.5 50 22:43 27.04.2020
4037 Clouds 10 1018 81 10000 1.5 50 22:23 27.04.2020
4038 Clouds 11 1018 81 10000 1.5 40 21:58 27.04.2020
4039 Clouds 10 1018 81 10000 1.5 40 21:39 27.04.2020
4040 Clouds 10 1018 81 10000 1.5 40 21:20 27.04.2020
4041 Clouds 10 1018 81 10000 2.1 40 20:59 27.04.2020
4042 Clouds 10 1018 81 10000 3.1 20 20:40 27.04.2020
4043 Clouds 11 1018 81 10000 3.1 20 20:21 27.04.2020
4044 Clouds 10 1018 81 10000 3.6 40 19:57 27.04.2020
4045 Rain 10 1018 81 10000 2.6 90 19:38 27.04.2020
4046 Rain 11 1019 76 10000 2.6 100 19:19 27.04.2020
4047 Rain 11 1019 76 10000 2.6 100 18:56 27.04.2020
4048 Clouds 11 1018 76 10000 3.1 90 18:37 27.04.2020
4049 Rain 11 1018 76 10000 4.1 80 18:18 27.04.2020
4050 Rain 11 1018 76 10000 6.2 70 17:41 27.04.2020
4051 Rain 11 1019 76 10000 4.1 90 17:20 27.04.2020
4052 Rain 11 1019 76 10000 4.1 90 16:55 27.04.2020
4053 Rain 11 1018 76 10000 4.6 80 16:37 27.04.2020
4054 Rain 11 1018 81 10000 5.1 60 16:19 27.04.2020
4055 Rain 11 1018 87 10000 6.7 50 15:56 27.04.2020
4056 Rain 11 1018 87 10000 6.7 50 15:37 27.04.2020
4057 Rain 11 1018 93 10000 7.2 60 15:18 27.04.2020
4058 Rain 11 1018 93 10000 7.7 50 14:41 27.04.2020
4059 Rain 11 1018 93 10000 7.2 40 14:20 27.04.2020
4060 Rain 11 1018 93 10000 7.2 40 13:57 27.04.2020
4061 Rain 11 1019 93 10000 5.1 30 13:38 27.04.2020
4062 Rain 12 1017 87 10000 5.7 60 13:19 27.04.2020
4063 Rain 12 1017 87 10000 6.7 50 12:43 27.04.2020
4064 Rain 12 1017 87 10000 6.7 50 12:22 27.04.2020
4065 Rain 12 1017 93 6000 6.2 40 11:57 27.04.2020
4066 Rain 12 1016 93 10000 1.5 50 11:38 27.04.2020
4067 Rain 12 1016 93 10000 1.5 50 11:19 27.04.2020
4068 Rain 12 1016 87 7000 2.6 20 10:42 27.04.2020
4069 Rain 12 1016 87 7000 2.6 20 10:24 27.04.2020
4070 Rain 12 1015 82 5000 5.7 60 09:58 27.04.2020
4071 Mist 12 1015 82 5000 5.7 60 09:40 27.04.2020
4072 Rain 13 1015 87 5000 6.7 50 09:18 27.04.2020
4073 Rain 13 1015 87 5000 6.7 50 08:53 27.04.2020
4074 Rain 14 1015 87 5000 6.7 50 08:33 27.04.2020
4075 Rain 14 1015 59 10000 5.1 110 07:46 27.04.2020
4076 Rain 14 1015 59 10000 5.1 110 07:27 27.04.2020
4077 Clouds 15 1015 59 10000 5.7 90 06:59 27.04.2020
4078 Clouds 15 1015 59 10000 5.7 90 06:37 27.04.2020
4079 Clouds 16 1015 59 10000 4.6 70 06:18 27.04.2020
4080 Clouds 17 1015 59 10000 4.6 70 05:21 27.04.2020
4081 Clouds 17 1016 62 10000 5.1 90 04:39 27.04.2020
4082 Clouds 16 1016 67 10000 4.1 80 03:47 27.04.2020
4083 Clouds 16 1016 67 10000 4.6 80 02:32 27.04.2020
4084 Clouds 15 1016 76 10000 4.6 50 01:20 27.04.2020
4085 Clouds 14 1016 76 10000 4.6 40 00:40 27.04.2020
4086 Clouds 14 1016 76 10000 3.6 30 00:19 27.04.2020
4087 Clouds 14 1015 71 10000 3.6 30 23:55 26.04.2020
4088 Clouds 14 1015 71 10000 3.6 30 23:37 26.04.2020
4089 Clouds 13 1015 76 10000 3.1 30 23:18 26.04.2020
4090 Clouds 13 1014 76 10000 4.1 60 22:54 26.04.2020
4091 Clouds 13 1014 76 10000 4.1 60 22:36 26.04.2020
4092 Clouds 13 1014 76 10000 4.6 40 22:18 26.04.2020
4093 Clouds 13 1014 76 10000 4.6 40 21:54 26.04.2020
4094 Clouds 14 1014 76 10000 5.7 50 21:36 26.04.2020
4095 Clouds 14 1014 76 10000 5.7 60 21:18 26.04.2020
4096 Clouds 14 1013 76 10000 6.2 60 20:39 26.04.2020
4097 Clouds 14 1014 71 10000 5.7 40 20:20 26.04.2020
4098 Clouds 14 1014 71 10000 5.7 40 19:58 26.04.2020
4099 Clouds 14 1014 71 10000 5.7 40 19:58 26.04.2020
4100 Clouds 14 1013 67 10000 7.2 40 19:38 26.04.2020
4101 Clouds 15 1013 67 10000 7.7 20 19:19 26.04.2020
4102 Clouds 15 1013 67 10000 9.8 10 18:44 26.04.2020
4103 Clouds 15 1013 67 10000 9.8 10 18:25 26.04.2020
4104 Clouds 16 1013 59 10000 5.1 10 17:57 26.04.2020
4105 Clouds 16 1013 59 10000 5.1 10 17:39 26.04.2020
4106 Clouds 16 1013 59 10000 5.1 10 17:19 26.04.2020
4107 Clouds 17 1012 68 10000 7.7 210 16:42 26.04.2020
4108 Clouds 17 1012 68 10000 7.7 210 16:23 26.04.2020
4109 Clouds 18 1012 68 10000 7.7 200 15:59 26.04.2020
4110 Clouds 19 1012 59 10000 7.7 190 15:41 26.04.2020
4111 Clouds 19 1013 55 10000 9.3 210 15:21 26.04.2020
4112 Clouds 19 1013 55 10000 9.3 210 14:57 26.04.2020
4113 Clouds 19 1012 55 10000 10.8 220 14:38 26.04.2020
4114 Clouds 19 1011 55 10000 13.4 220 14:18 26.04.2020
4115 Clouds 19 1011 55 10000 13.4 220 13:55 26.04.2020
4116 Clouds 19 1010 55 10000 13.9 220 13:37 26.04.2020
4117 Clouds 19 1011 55 10000 14.4 220 13:18 26.04.2020
4118 Clouds 19 1010 55 10000 13.9 220 12:40 26.04.2020
4119 Clouds 20 1009 49 10000 15.4 220 12:21 26.04.2020
4120 Clouds 20 1009 49 10000 15.4 220 11:59 26.04.2020
4121 Clouds 20 1009 49 10000 12.3 220 11:40 26.04.2020
4122 Clouds 20 1009 52 10000 7.7 210 11:22 26.04.2020
4123 Clouds 20 1009 52 10000 7.7 210 10:57 26.04.2020
4124 Clouds 21 1009 52 10000 7.7 210 10:39 26.04.2020
4125 Clouds 21 1010 56 10000 9.8 200 10:21 26.04.2020
4126 Clouds 22 1010 56 10000 9.8 200 09:57 26.04.2020
4127 Clouds 22 1010 56 10000 9.8 200 09:37 26.04.2020
4128 Clouds 22 1009 49 10000 11.8 210 09:18 26.04.2020
4129 Clouds 23 1009 49 10000 11.8 210 08:41 26.04.2020
4130 Clouds 23 1010 37 10000 9.8 210 08:20 26.04.2020
4131 Clouds 23 1010 37 10000 9.8 210 07:48 26.04.2020
4132 Clouds 24 1011 52 10000 8.2 180 07:22 26.04.2020
4133 Clouds 24 1010 33 10000 7.7 170 06:45 26.04.2020
4134 Clouds 23 1012 49 10000 6.7 190 06:18 26.04.2020
4135 Clouds 23 1012 49 10000 6.7 190 05:45 26.04.2020
4136 Clouds 23 1012 49 10000 6.7 190 05:25 26.04.2020
4137 Clouds 22 1012 46 10000 7.7 200 04:24 26.04.2020
4138 Clouds 21 1013 32 10000 4.6 190 03:32 26.04.2020
4139 Clouds 19 1013 52 10000 6.7 200 02:32 26.04.2020
4140 Clouds 20 1013 45 10000 8.2 210 01:54 26.04.2020
4141 Clouds 19 1014 45 10000 9.8 210 01:35 26.04.2020
4142 Clouds 17 1014 52 10000 10.3 220 00:41 26.04.2020
4143 Clouds 16 1014 55 10000 10.3 210 00:20 26.04.2020
4144 Clouds 15 1014 55 10000 10.3 210 23:40 25.04.2020
4145 Clouds 15 1014 55 10000 10.3 210 23:21 25.04.2020
4146 Clouds 14 1014 63 10000 12.3 220 22:59 25.04.2020
4147 Clouds 14 1014 59 10000 11.8 220 22:41 25.04.2020
4148 Clouds 14 1014 59 10000 11.8 220 22:20 25.04.2020
4149 Clouds 14 1014 59 10000 10.3 220 21:58 25.04.2020
4150 Clouds 15 1014 59 10000 10.3 220 21:37 25.04.2020
4151 Clouds 15 1014 59 10000 14.4 220 21:18 25.04.2020
4152 Clouds 15 1013 55 10000 13.4 220 20:42 25.04.2020
4153 Clouds 15 1013 55 10000 13.4 220 20:23 25.04.2020
4154 Clouds 16 1014 59 10000 10.3 210 19:59 25.04.2020
4155 Clouds 16 1015 59 10000 8.2 200 19:38 25.04.2020
4156 Clouds 16 1015 59 10000 8.2 200 19:20 25.04.2020
4157 Clouds 15 1015 55 10000 10.3 220 18:43 25.04.2020
4158 Clouds 15 1015 55 10000 10.3 210 18:22 25.04.2020
4159 Clouds 15 1015 55 10000 10.3 210 17:59 25.04.2020
4160 Clouds 15 1016 55 10000 9.8 210 17:40 25.04.2020
4161 Clouds 15 1016 55 10000 9.8 210 17:22 25.04.2020
4162 Clouds 15 1016 51 10000 8.2 210 16:59 25.04.2020
4163 Clouds 15 1016 51 10000 9.3 210 16:41 25.04.2020
4164 Clouds 15 1016 51 10000 9.3 210 16:23 25.04.2020
4165 Clouds 15 1016 48 10000 9.3 210 15:55 25.04.2020
4166 Clouds 15 1016 51 10000 9.8 210 15:37 25.04.2020
4167 Clouds 16 1017 51 10000 9.3 210 15:18 25.04.2020
4168 Clouds 15 1017 51 10000 9.3 210 14:56 25.04.2020
4169 Clouds 15 1017 48 10000 10.3 210 14:37 25.04.2020
4170 Clouds 16 1017 44 10000 9.8 210 14:18 25.04.2020
4171 Clouds 16 1016 38 10000 6.7 210 13:41 25.04.2020
4172 Clouds 16 1016 38 10000 6.7 210 13:41 25.04.2020
4173 Clouds 16 1017 41 10000 7.7 200 13:19 25.04.2020
4174 Clouds 15 1017 41 10000 7.7 200 12:56 25.04.2020
4175 Clouds 15 1016 62 10000 8.2 180 12:38 25.04.2020
4176 Clouds 15 1016 62 10000 8.2 180 12:38 25.04.2020
4177 Clouds 15 1017 58 10000 10.3 170 12:19 25.04.2020
4178 Clouds 16 1016 58 10000 10.3 180 11:43 25.04.2020
4179 Clouds 16 1015 48 10000 7.2 170 11:25 25.04.2020
4180 Clouds 16 1015 48 10000 7.2 170 10:59 25.04.2020
4181 Clouds 16 1015 48 10000 7.2 170 10:41 25.04.2020
4182 Clouds 16 1015 48 10000 7.2 170 10:21 25.04.2020
4183 Clouds 17 1017 55 10000 6.7 180 09:45 25.04.2020
4184 Clouds 17 1017 55 10000 6.7 180 09:26 25.04.2020
4185 Clouds 17 1017 59 10000 7.7 180 08:57 25.04.2020
4186 Clouds 17 1017 59 10000 7.7 180 08:38 25.04.2020
4187 Clouds 17 1017 51 10000 6.2 190 08:20 25.04.2020
4188 Clouds 17 1017 51 10000 6.2 190 07:45 25.04.2020
4189 Clouds 17 1017 51 10000 6.2 190 07:23 25.04.2020
4190 Clouds 17 1017 51 10000 6.2 190 06:44 25.04.2020
4191 Clouds 18 1018 41 10000 6.2 200 05:48 25.04.2020
4192 Clouds 17 1018 41 10000 6.2 200 05:30 25.04.2020
4193 Clouds 16 1018 51 10000 5.7 150 04:29 25.04.2020
4194 Clouds 14 1018 54 10000 2.6 130 02:44 25.04.2020
4195 Clouds 13 1018 58 10000 3.1 140 02:19 25.04.2020
4196 Clouds 13 1018 58 10000 1.5 140 01:50 25.04.2020
4197 Clouds 13 1018 58 10000 1.5 140 01:27 25.04.2020
4198 Clouds 12 1018 57 10000 1 0 00:50 25.04.2020
4199 Clouds 11 1018 71 10000 0.5 0 00:31 25.04.2020
4200 Clouds 10 1017 81 10000 0.5 0 23:43 24.04.2020
4201 Clouds 9 1017 81 10000 0.5 0 23:22 24.04.2020
4202 Clouds 8 1017 81 10000 0.5 320 22:56 24.04.2020
4203 Clouds 8 1017 81 10000 0.5 320 22:56 24.04.2020
4204 Clouds 8 1017 81 10000 0.5 300 22:38 24.04.2020
4205 Clouds 8 1017 81 10000 1.25 193 22:19 24.04.2020
4206 Clouds 8 1017 81 10000 1.25 193 21:55 24.04.2020
4207 Clouds 8 1016 81 10000 0.5 0 21:36 24.04.2020
4208 Clouds 8 1016 87 10000 0.5 0 21:18 24.04.2020
4209 Clouds 8 1016 81 10000 1.5 80 20:55 24.04.2020
4210 Clouds 7 1016 81 10000 1.5 80 20:36 24.04.2020
4211 Clouds 8 1016 81 10000 2.1 60 20:18 24.04.2020
4212 Clouds 7 1015 81 10000 2.6 60 19:40 24.04.2020
4213 Clouds 7 1014 81 10000 4.6 50 19:20 24.04.2020
4214 Clouds 8 1014 81 10000 3.6 50 18:44 24.04.2020
4215 Clouds 8 1014 81 10000 3.6 50 18:26 24.04.2020
4216 Clouds 8 1014 81 10000 3.1 40 17:55 24.04.2020
4217 Clouds 8 1013 81 10000 3.1 30 17:37 24.04.2020
4218 Clouds 8 1013 81 10000 4.1 20 17:19 24.04.2020
4219 Clouds 9 1013 81 10000 4.1 20 16:57 24.04.2020
4220 Clouds 9 1012 87 10000 6.2 50 16:39 24.04.2020
4221 Rain 8 1013 87 10000 7.7 30 16:20 24.04.2020
4222 Rain 9 1012 76 10000 10.3 20 15:42 24.04.2020
4223 Rain 9 1012 76 10000 10.3 20 15:21 24.04.2020
4224 Rain 9 1012 76 10000 10.3 20 15:21 24.04.2020
4225 Rain 9 1012 76 10000 13.4 360 14:56 24.04.2020
4226 Rain 9 1011 81 10000 12.9 340 14:37 24.04.2020
4227 Rain 9 1010 91 0 5.36 120 14:18 24.04.2020
4228 Clouds 11 1008 71 10000 9.3 10 13:41 24.04.2020
4229 Clouds 12 1008 71 10000 5.1 330 13:21 24.04.2020
4230 Clouds 12 1008 71 10000 5.1 330 13:21 24.04.2020
4231 Clouds 13 1008 71 10000 5.1 330 12:58 24.04.2020
4232 Clouds 14 1007 41 10000 8.2 230 12:40 24.04.2020
4233 Clouds 14 1007 41 10000 8.2 230 12:20 24.04.2020
4234 Clouds 16 1006 41 10000 7.7 210 11:43 24.04.2020
4235 Clouds 16 1006 48 10000 4.1 190 11:23 24.04.2020
4236 Clouds 16 1006 48 10000 4.1 190 10:59 24.04.2020
4237 Clouds 16 1006 48 10000 4.1 190 10:38 24.04.2020
4238 Clouds 17 1007 51 10000 4.6 180 10:20 24.04.2020
4239 Clouds 17 1007 51 10000 4.6 180 09:57 24.04.2020
4240 Clouds 17 1007 51 10000 4.6 180 09:37 24.04.2020
4241 Clouds 17 1007 59 10000 5.1 140 09:19 24.04.2020
4242 Clouds 17 1007 59 10000 5.1 140 08:42 24.04.2020
4243 Clouds 17 1007 59 10000 5.1 140 08:20 24.04.2020
4244 Clouds 17 1007 39 10000 5.7 160 07:58 24.04.2020
4245 Clouds 17 1008 55 10000 5.7 140 07:40 24.04.2020
4246 Clouds 17 1009 51 10000 3.6 130 07:21 24.04.2020
4247 Clouds 17 1009 51 10000 3.6 130 06:44 24.04.2020
4248 Clouds 16 1009 41 10000 2.6 140 05:51 24.04.2020
4249 Clouds 16 1009 41 10000 2.6 140 05:23 24.04.2020
4250 Clouds 14 1011 54 10000 2.6 140 03:39 24.04.2020
4251 Clouds 13 1011 50 10000 1 0 02:51 24.04.2020
4252 Clouds 13 1011 50 10000 1 0 02:31 24.04.2020
4253 Clouds 13 1011 46 10000 2.1 50 01:46 24.04.2020
4254 Clouds 12 1011 50 10000 2.6 40 00:54 24.04.2020
4255 Clouds 11 1011 43 10000 3.1 340 00:19 24.04.2020
4256 Clouds 11 1011 53 10000 4.1 10 23:48 23.04.2020
4257 Clouds 10 1011 53 10000 4.1 10 23:28 23.04.2020
4258 Clouds 10 1011 48 10000 3.6 30 22:58 23.04.2020
4259 Clouds 10 1010 50 10000 4.1 20 22:39 23.04.2020
4260 Clouds 10 1010 50 10000 4.1 20 22:20 23.04.2020
4261 Clouds 10 1011 50 10000 5.1 360 21:57 23.04.2020
4262 Clouds 10 1010 48 10000 7.2 350 21:39 23.04.2020
4263 Clouds 10 1010 50 10000 7.7 350 21:20 23.04.2020
4264 Clouds 10 1010 50 10000 7.7 350 20:57 23.04.2020
4265 Clouds 10 1009 50 10000 7.7 350 20:39 23.04.2020
4266 Clouds 10 1009 50 10000 8.2 350 20:20 23.04.2020
4267 Clouds 10 1009 50 10000 8.2 350 19:56 23.04.2020
4268 Clouds 10 1009 50 10000 8.2 350 19:38 23.04.2020
4269 Clouds 10 1009 46 10000 9.3 340 19:20 23.04.2020
4270 Clouds 11 1008 46 10000 8.7 340 18:43 23.04.2020
4271 Clouds 11 1008 46 10000 8.7 340 18:25 23.04.2020
4272 Clouds 11 1009 50 10000 8.7 330 17:59 23.04.2020
4273 Clouds 11 1009 50 10000 8.2 330 17:59 23.04.2020
4274 Clouds 11 1009 50 10000 8.2 330 17:39 23.04.2020
4275 Clouds 12 1008 50 10000 8.2 330 17:21 23.04.2020
4276 Clouds 11 1008 50 10000 8.2 330 16:57 23.04.2020
4277 Clouds 11 1008 46 10000 6.2 320 16:38 23.04.2020
4278 Clouds 11 1008 50 10000 6.2 320 16:18 23.04.2020
4279 Clouds 12 1007 50 10000 6.7 320 15:42 23.04.2020
4280 Clouds 12 1007 50 10000 6.7 320 15:22 23.04.2020
4281 Clouds 12 1008 62 10000 4.6 310 14:57 23.04.2020
4282 Clouds 12 1007 66 10000 4.6 310 14:38 23.04.2020
4283 Clouds 13 1007 66 10000 4.6 310 14:19 23.04.2020
4284 Clouds 13 1007 66 10000 4.6 310 13:55 23.04.2020
4285 Clouds 13 1007 62 10000 3.6 310 13:36 23.04.2020
4286 Clouds 13 1006 66 10000 4.6 330 13:18 23.04.2020
4287 Clouds 14 1005 62 10000 2.1 290 12:42 23.04.2020
4288 Clouds 14 1005 54 10000 2.6 310 12:24 23.04.2020
4289 Clouds 14 1005 54 10000 2.6 310 11:56 23.04.2020
4290 Clouds 14 1005 54 10000 3.1 310 11:38 23.04.2020
4291 Clouds 15 1005 66 10000 1.5 240 11:18 23.04.2020
4292 -273 0 0 0 0 0 10:41 23.04.2020
4293 Clouds 16 1004 50 10000 2.1 170 10:21 23.04.2020
4294 Clouds 15 1004 50 10000 2.1 170 09:41 23.04.2020
4295 Clouds 16 1004 47 10000 3.6 180 09:20 23.04.2020
4296 Clouds 16 1004 47 10000 3.6 180 08:59 23.04.2020
4297 Clouds 16 1004 47 10000 3.6 180 08:40 23.04.2020
4298 Clouds 16 1004 47 10000 3.6 180 08:21 23.04.2020
4299 Clouds 16 1005 58 10000 5.1 190 07:42 23.04.2020
4300 Clouds 16 1006 51 10000 4.6 180 07:23 23.04.2020
4301 Clouds 16 1006 51 10000 4.6 180 06:48 23.04.2020
4302 Clouds 16 1006 47 10000 6.2 160 06:22 23.04.2020
4303 Clouds 16 1006 47 10000 6.2 160 05:29 23.04.2020
4304 Clouds 16 1007 47 10000 5.1 150 04:51 23.04.2020
4305 Clouds 13 1008 40 10000 3.1 340 02:24 23.04.2020
4306 Clouds 13 1008 47 10000 4.6 350 01:49 23.04.2020
4307 Clouds 13 1008 47 10000 4.6 350 01:25 23.04.2020
4308 Clouds 12 1008 42 10000 3.6 340 00:45 23.04.2020
4309 Rain 11 1008 61 10000 0.5 0 00:20 23.04.2020
4310 Rain 10 1008 70 10000 1 140 23:48 22.04.2020
4311 Rain 9 1008 70 10000 1 140 23:23 22.04.2020
4312 Rain 8 1008 70 10000 0.5 0 22:56 22.04.2020
4313 Rain 9 1008 70 10000 0.5 0 22:37 22.04.2020
4314 Rain 9 1008 61 10000 3.6 20 22:19 22.04.2020
4315 Rain 9 1008 61 10000 3.6 20 21:56 22.04.2020
4316 Rain 9 1008 70 10000 7.7 330 21:37 22.04.2020
4317 Rain 9 1008 70 10000 7.7 330 21:19 22.04.2020
4318 Rain 9 1007 71 10000 4.1 30 20:43 22.04.2020
4319 Rain 9 1007 76 10000 4.1 30 20:19 22.04.2020
4320 Rain 9 1007 76 10000 4.1 30 19:58 22.04.2020
4321 Rain 9 1007 81 10000 4.6 30 19:39 22.04.2020
4322 Rain 9 1007 81 10000 4.6 30 19:39 22.04.2020
4323 Rain 10 1007 81 10000 5.1 20 19:19 22.04.2020
4324 Rain 10 1007 81 10000 5.1 20 18:59 22.04.2020
4325 Rain 10 1007 81 10000 5.1 20 18:41 22.04.2020
4326 Rain 10 1007 81 10000 4.6 50 18:22 22.04.2020
4327 Rain 10 1007 81 10000 4.6 50 17:57 22.04.2020
4328 Rain 10 1008 81 10000 4.6 40 17:39 22.04.2020
4329 Rain 10 1007 76 10000 4.6 50 17:20 22.04.2020
4330 Rain 11 1007 81 10000 4.6 50 16:43 22.04.2020
4331 Rain 11 1007 81 10000 4.6 50 16:25 22.04.2020
4332 Rain 11 1007 81 10000 5.7 70 15:43 22.04.2020
4333 Rain 11 1007 81 10000 5.7 70 15:25 22.04.2020
4334 Rain 11 1007 76 10000 6.2 70 14:59 22.04.2020
4335 Rain 11 1007 76 10000 6.2 70 14:59 22.04.2020
4336 Rain 11 1007 81 10000 5.7 90 14:41 22.04.2020
4337 Rain 12 1007 81 10000 5.7 90 14:20 22.04.2020
4338 Rain 12 1007 66 10000 4.6 70 13:57 22.04.2020
4339 Rain 12 1006 71 10000 5.1 50 13:39 22.04.2020
4340 Rain 12 1006 71 10000 6.2 60 13:19 22.04.2020
4341 Rain 12 1005 76 10000 7.2 80 12:42 22.04.2020
4342 Rain 13 1005 76 10000 7.2 80 12:23 22.04.2020
4343 Rain 13 1004 76 10000 6.2 90 11:57 22.04.2020
4344 Rain 13 1004 76 10000 6.7 40 11:36 22.04.2020
4345 Rain 13 1003 58 10000 4.6 50 11:18 22.04.2020
4346 Rain 14 1003 58 10000 4.6 50 10:41 22.04.2020
4347 Rain 14 1003 58 10000 4.6 50 10:21 22.04.2020
4348 Rain 15 1002 67 10000 4.6 30 09:42 22.04.2020
4349 Rain 15 1002 67 10000 4.6 30 09:23 22.04.2020
4350 Clouds 16 1001 59 10000 2.1 140 08:59 22.04.2020
4351 Clouds 16 1001 59 10000 2.1 140 08:41 22.04.2020
4352 Clouds 17 1001 59 10000 2.1 140 08:22 22.04.2020
4353 Clouds 18 1001 72 10000 3.1 150 07:54 22.04.2020
4354 Clouds 18 1001 72 10000 3.1 150 07:33 22.04.2020
4355 Clouds 19 1000 72 10000 3.6 150 06:54 22.04.2020
4356 Clouds 18 1000 72 10000 3.6 150 06:34 22.04.2020
4357 Clouds 17 1001 68 10000 3.6 150 05:39 22.04.2020
4358 Clouds 17 1002 72 10000 3.6 150 04:34 22.04.2020
4359 Clouds 16 1002 63 10000 2.1 20 02:59 22.04.2020
4360 Clouds 15 1002 62 10000 3.1 30 01:56 22.04.2020
4361 Clouds 15 1003 66 10000 3.6 10 01:38 22.04.2020
4362 Clouds 15 1003 71 10000 5.7 360 01:19 22.04.2020
4363 Clouds 14 1003 76 10000 5.7 360 00:41 22.04.2020
4364 Clouds 14 1004 81 10000 5.7 360 00:20 22.04.2020
4365 Clouds 12 1003 81 10000 5.7 10 23:44 21.04.2020
4366 Clouds 12 1003 81 10000 5.7 10 23:21 21.04.2020
4367 Clouds 12 1003 81 10000 5.7 350 22:55 21.04.2020
4368 Clouds 12 1003 87 10000 4.6 360 22:37 21.04.2020
4369 Clouds 12 1003 87 10000 4.6 360 22:19 21.04.2020
4370 Clouds 12 1003 87 10000 4.6 360 21:43 21.04.2020
4371 Clouds 12 1003 87 10000 4.6 360 21:24 21.04.2020
4372 -273 0 0 0 0 0 20:59 21.04.2020
4373 Clouds 13 1003 82 10000 3.6 360 20:40 21.04.2020
4374 Clouds 13 1003 82 10000 3.6 360 20:22 21.04.2020
4375 Clouds 13 1003 82 10000 4.1 20 19:56 21.04.2020
4376 Clouds 13 1004 87 10000 4.1 10 19:36 21.04.2020
4377 Clouds 13 1004 87 10000 3.6 10 19:18 21.04.2020
4378 Clouds 14 1004 87 10000 3.6 10 18:54 21.04.2020
4379 Clouds 14 1004 72 10000 3.1 290 18:36 21.04.2020
4380 Clouds 14 1004 59 10000 4.1 270 18:18 21.04.2020
4381 Clouds 15 1004 51 10000 6.2 230 17:39 21.04.2020
4382 Clouds 15 1004 63 10000 4.6 240 17:19 21.04.2020
4383 Clouds 15 1004 63 10000 4.6 240 16:54 21.04.2020
4384 Clouds 15 1004 59 10000 5.1 250 16:36 21.04.2020
4385 Clouds 15 1005 55 10000 6.2 240 16:18 21.04.2020
4386 Clouds 16 1005 55 10000 6.2 240 15:54 21.04.2020
4387 Clouds 16 1004 55 10000 5.1 230 15:36 21.04.2020
4388 Clouds 16 1004 52 10000 4.1 250 15:18 21.04.2020
4389 Clouds 17 1005 52 10000 5.1 250 14:43 21.04.2020
4390 Clouds 17 1004 52 10000 6.7 230 14:23 21.04.2020
4391 Clouds 17 1004 55 10000 4.6 230 13:55 21.04.2020
4392 Clouds 17 1004 55 10000 4.6 230 13:37 21.04.2020
4393 Clouds 17 1004 55 10000 3.1 170 13:18 21.04.2020
4394 Clouds 17 1004 59 10000 6.2 220 12:38 21.04.2020
4395 Clouds 18 1002 75 0 0.45 143 12:19 21.04.2020
4396 Clouds 18 1004 55 10000 5.1 220 11:57 21.04.2020
4397 Clouds 18 1003 63 10000 4.6 180 11:38 21.04.2020
4398 Clouds 18 1003 63 10000 4.1 170 11:19 21.04.2020
4399 Clouds 18 1003 63 10000 4.1 170 10:58 21.04.2020
4400 Clouds 19 1003 63 10000 4.1 170 10:39 21.04.2020
4401 Clouds 19 1003 63 10000 4.1 170 10:39 21.04.2020
4402 Clouds 19 1004 77 10000 3.6 180 10:20 21.04.2020
4403 Clouds 19 1004 77 10000 3.6 180 09:55 21.04.2020
4404 Clouds 19 1004 77 10000 3.6 180 09:36 21.04.2020
4405 Clouds 19 1005 82 10000 2.1 100 09:18 21.04.2020
4406 Clouds 19 1005 59 10000 4.1 160 08:43 21.04.2020
4407 Clouds 19 1005 59 10000 4.1 160 08:24 21.04.2020
4408 Clouds 19 1006 63 10000 4.6 130 07:50 21.04.2020
4409 Clouds 18 1006 77 10000 2.1 140 07:27 21.04.2020
4410 Clouds 19 1006 59 10000 2.1 160 06:50 21.04.2020
4411 Clouds 19 1007 77 10000 2.6 140 06:31 21.04.2020
4412 Clouds 19 1007 82 7000 2.6 140 05:49 21.04.2020
4413 Clouds 19 1008 82 8000 2.1 130 04:55 21.04.2020
4414 Clouds 18 1009 87 7000 2.1 130 03:45 21.04.2020
4415 Clouds 16 1008 87 7000 2.6 120 02:40 21.04.2020
4416 Clouds 14 1008 87 10000 1 0 01:30 21.04.2020
4417 Clouds 13 1008 87 10000 0.5 0 00:38 21.04.2020
4418 Clouds 13 1008 93 10000 0.5 0 23:58 20.04.2020
4419 Clouds 12 1007 93 10000 1 0 23:40 20.04.2020
4420 Clouds 12 1007 93 10000 0.5 0 23:19 20.04.2020
4421 Clouds 11 1007 93 10000 0.5 0 22:54 20.04.2020
4422 Clouds 11 1007 93 10000 0.5 0 22:36 20.04.2020
4423 Clouds 11 1007 100 10000 1.5 300 22:18 20.04.2020
4424 Clouds 11 1007 100 10000 1.5 300 21:54 20.04.2020
4425 Clouds 11 1007 93 10000 0.5 280 21:36 20.04.2020
4426 Clouds 11 1006 93 10000 0.5 290 21:18 20.04.2020
4427 Clouds 11 1006 87 10000 0.5 10 20:41 20.04.2020
4428 Clouds 11 1006 93 10000 1.5 340 20:19 20.04.2020
4429 Clouds 11 1006 93 10000 1.5 340 19:59 20.04.2020
4430 Clouds 11 1006 93 10000 1 0 19:40 20.04.2020
4431 Clouds 11 1007 93 10000 1.5 320 19:20 20.04.2020
4432 Clouds 10 1007 93 10000 1.5 320 18:56 20.04.2020
4433 Clouds 11 1007 87 10000 3.1 210 18:38 20.04.2020
4434 Clouds 11 1007 87 10000 2.1 230 18:19 20.04.2020
4435 Clouds 11 1007 93 10000 1.5 260 17:44 20.04.2020
4436 Clouds 11 1007 87 10000 1.5 280 17:23 20.04.2020
4437 Clouds 11 1007 87 10000 1.5 280 16:59 20.04.2020
4438 Clouds 11 1007 87 10000 1.5 220 16:41 20.04.2020
4439 Clouds 11 1007 87 10000 1.5 220 16:20 20.04.2020
4440 Clouds 11 1007 93 10000 1.5 230 15:56 20.04.2020
4441 Clouds 11 1007 93 10000 1.5 230 15:38 20.04.2020
4442 Clouds 11 1007 93 10000 1.5 230 15:38 20.04.2020
4443 Clouds 11 1006 87 10000 1.5 290 15:19 20.04.2020
4444 Clouds 11 1007 93 10000 3.6 310 14:42 20.04.2020
4445 Clouds 11 1007 93 10000 4.1 320 14:20 20.04.2020
4446 Clouds 11 1007 93 10000 4.1 320 13:58 20.04.2020
4447 Clouds 11 1006 93 10000 4.6 320 13:39 20.04.2020
4448 Clouds 11 1006 93 10000 4.6 310 13:20 20.04.2020
4449 Rain 11 1005 93 6000 5.1 320 12:44 20.04.2020
4450 Rain 11 1005 93 6000 5.1 320 12:24 20.04.2020
4451 Rain 11 1005 100 4500 6.2 340 11:58 20.04.2020
4452 Rain 11 1005 93 5000 4.6 330 11:38 20.04.2020
4453 Rain 11 1006 100 3500 4.1 340 11:19 20.04.2020
4454 Rain 11 1006 100 3500 4.1 340 10:55 20.04.2020
4455 Rain 11 1006 100 3500 4.1 340 10:36 20.04.2020
4456 Rain 11 1006 93 6000 3.1 330 10:18 20.04.2020
4457 Rain 10 1006 93 6000 3.1 330 09:44 20.04.2020
4458 Rain 10 1006 93 6000 3.1 330 09:25 20.04.2020
4459 Rain 10 1007 93 5000 2.6 330 08:59 20.04.2020
4460 Rain 10 1007 93 3000 2.6 340 08:40 20.04.2020
4461 Rain 10 1007 93 3000 2.6 340 08:19 20.04.2020
4462 Rain 10 1008 93 4500 3.1 320 07:52 20.04.2020
4463 Rain 10 1009 93 3000 2.6 350 07:29 20.04.2020
4464 Rain 10 1009 93 5000 4.1 350 06:55 20.04.2020
4465 Rain 10 1010 93 4500 3.1 10 06:35 20.04.2020
4466 Rain 10 1012 93 5000 2.6 360 05:33 20.04.2020
4467 Rain 10 1014 87 10000 2.6 20 03:36 20.04.2020
4468 Rain 10 1015 93 7000 3.1 20 02:42 20.04.2020
4469 Rain 10 1016 87 10000 4.6 10 01:32 20.04.2020
4470 Rain 10 1016 87 10000 4.6 10 01:32 20.04.2020
4471 Rain 10 1016 87 10000 4.6 40 00:58 20.04.2020
4472 Rain 10 1016 87 10000 4.6 10 00:34 20.04.2020
4473 Rain 10 1016 87 10000 5.1 20 23:55 19.04.2020
4474 Rain 10 1015 87 10000 4.6 30 23:37 19.04.2020
4475 Rain 10 1015 87 10000 5.7 30 23:19 19.04.2020
4476 Rain 10 1015 87 10000 4.6 40 22:40 19.04.2020
4477 Rain 10 1015 87 10000 4.6 40 22:21 19.04.2020
4478 Rain 10 1016 87 10000 5.7 40 21:57 19.04.2020
4479 Rain 10 1016 87 10000 5.7 40 21:38 19.04.2020
4480 Rain 10 1016 87 10000 6.2 40 21:20 19.04.2020
4481 Clouds 10 1017 87 10000 7.2 40 20:41 19.04.2020
4482 Clouds 10 1018 87 10000 7.2 40 20:21 19.04.2020
4483 Clouds 10 1018 87 10000 7.2 40 19:59 19.04.2020
4484 Clouds 11 1018 81 10000 6.7 40 19:41 19.04.2020
4485 Clouds 11 1018 81 10000 6.2 50 19:22 19.04.2020
4486 Clouds 11 1018 81 10000 6.2 50 18:58 19.04.2020
4487 Clouds 11 1019 76 10000 6.7 50 18:40 19.04.2020
4488 Clouds 11 1019 81 10000 7.2 40 18:20 19.04.2020
4489 Clouds 11 1019 81 10000 7.2 40 17:58 19.04.2020
4490 Clouds 11 1019 81 10000 8.7 50 17:40 19.04.2020
4491 Clouds 11 1019 81 10000 8.7 50 17:21 19.04.2020
4492 Clouds 11 1020 76 10000 8.2 50 16:58 19.04.2020
4493 Clouds 11 1019 81 10000 9.3 50 16:39 19.04.2020
4494 Clouds 12 1019 76 10000 9.8 60 16:21 19.04.2020
4495 Clouds 12 1019 76 10000 8.7 50 15:43 19.04.2020
4496 Clouds 12 1019 76 10000 8.7 50 15:23 19.04.2020
4497 Clouds 12 1019 76 10000 8.2 70 14:56 19.04.2020
4498 Clouds 12 1019 76 10000 8.2 70 14:38 19.04.2020
4499 Clouds 12 1018 76 10000 9.3 70 14:19 19.04.2020
4500 Clouds 13 1018 71 10000 8.2 70 13:41 19.04.2020
4501 Clouds 13 1018 71 10000 8.2 80 13:22 19.04.2020
4502 Clouds 14 1018 71 10000 8.2 80 12:59 19.04.2020
4503 Clouds 13 1017 71 10000 9.8 70 12:41 19.04.2020
4504 Clouds 14 1016 71 10000 9.3 70 12:23 19.04.2020
4505 Clouds 14 1016 71 10000 9.3 70 12:23 19.04.2020
4506 Clouds 16 1016 72 10000 9.3 70 11:38 19.04.2020
4507 Clouds 16 1014 52 10000 5.1 80 11:19 19.04.2020
4508 Clouds 17 1014 52 10000 5.1 80 10:58 19.04.2020
4509 Clouds 17 1014 52 10000 5.1 80 10:40 19.04.2020
4510 Clouds 18 1014 52 10000 5.1 80 10:20 19.04.2020
4511 Clouds 19 1013 55 10000 10.3 80 09:46 19.04.2020
4512 Clouds 21 1012 40 10000 4.1 50 09:28 19.04.2020
4513 Clouds 21 1012 40 10000 4.1 50 08:59 19.04.2020
4514 Clouds 21 1012 40 10000 4.1 50 08:37 19.04.2020
4515 Clouds 22 1012 37 10000 4.1 30 08:18 19.04.2020
4516 Clouds 21 1012 37 10000 4.1 30 07:44 19.04.2020
4517 Clouds 21 1012 37 10000 4.1 30 07:24 19.04.2020
4518 Clouds 22 1012 35 10000 5.1 20 06:31 19.04.2020
4519 Clouds 22 1011 34 10000 5.7 350 05:58 19.04.2020
4520 Clouds 21 1011 37 10000 5.1 330 04:54 19.04.2020
4521 Clouds 18 1010 45 10000 6.7 310 03:19 19.04.2020
4522 Rain 17 1010 45 10000 6.7 310 02:22 19.04.2020
4523 Rain 16 1009 55 10000 7.7 340 01:39 19.04.2020
4524 Rain 16 1009 55 10000 5.7 340 01:18 19.04.2020
4525 Clouds 16 1009 62 10000 2.6 350 00:38 19.04.2020
4526 Clouds 14 1008 71 10000 3.6 360 00:19 19.04.2020
4527 Clouds 13 1008 81 10000 3.1 290 23:39 18.04.2020
4528 Clouds 12 1007 76 10000 5.1 250 23:19 18.04.2020
4529 Clouds 11 1006 81 10000 2.6 290 22:43 18.04.2020
4530 Clouds 11 1005 81 10000 3.6 260 22:23 18.04.2020
4531 Clouds 12 1005 76 10000 4.1 240 21:58 18.04.2020
4532 Clouds 11 1005 76 10000 4.1 240 21:39 18.04.2020
4533 Clouds 11 1005 76 10000 4.1 240 21:21 18.04.2020
4534 Clouds 11 1004 76 10000 5.7 230 20:56 18.04.2020
4535 Clouds 11 1004 81 10000 4.1 230 20:37 18.04.2020
4536 Clouds 11 1004 76 10000 3.6 240 20:18 18.04.2020
4537 Clouds 12 1004 76 10000 2.6 260 19:40 18.04.2020
4538 Clouds 12 1004 76 10000 2.6 260 19:22 18.04.2020
4539 Clouds 12 1004 71 10000 3.6 240 18:39 18.04.2020
4540 Clouds 12 1004 71 10000 4.6 250 18:20 18.04.2020
4541 Clouds 12 1004 76 10000 2.6 270 17:58 18.04.2020
4542 Clouds 12 1004 76 10000 2.6 270 17:39 18.04.2020
4543 Clouds 12 1004 76 10000 2.6 270 17:19 18.04.2020
4544 Clouds 13 1003 76 10000 1 0 16:43 18.04.2020
4545 Clouds 13 1003 76 10000 1 0 16:22 18.04.2020
4546 Clouds 13 1004 82 10000 1.5 10 15:56 18.04.2020
4547 Clouds 13 1003 82 10000 0.5 0 15:37 18.04.2020
4548 Clouds 13 1003 82 10000 2.1 190 15:19 18.04.2020
4549 Clouds 13 1003 87 10000 4.1 170 14:44 18.04.2020
4550 Clouds 13 1003 87 10000 4.1 170 14:24 18.04.2020
4551 Clouds 14 1002 76 10000 3.6 210 13:44 18.04.2020
4552 Clouds 14 1002 76 10000 1.5 360 13:23 18.04.2020
4553 Clouds 14 1001 72 10000 2.6 60 12:55 18.04.2020
4554 Clouds 14 1001 72 10000 2.6 60 12:36 18.04.2020
4555 Rain 14 1001 82 10000 1.5 60 12:18 18.04.2020
4556 Rain 15 1001 72 10000 4.1 350 11:42 18.04.2020
4557 Clouds 15 1001 77 10000 3.6 30 11:22 18.04.2020
4558 Clouds 15 1001 77 10000 3.6 30 10:57 18.04.2020
4559 Rain 16 1001 77 10000 3.6 30 10:37 18.04.2020
4560 Rain 16 1000 82 10000 5.7 260 10:18 18.04.2020
4561 Rain 16 1000 82 10000 5.7 260 09:41 18.04.2020
4562 Rain 16 1001 87 7000 6.7 240 09:23 18.04.2020
4563 Thunderstorm 16 1000 93 5000 8.2 190 08:44 18.04.2020
4564 Thunderstorm 16 1000 93 5000 8.2 190 08:25 18.04.2020
4565 Rain 16 1002 100 2500 10.8 190 07:54 18.04.2020
4566 Rain 16 1002 100 2500 10.8 190 07:34 18.04.2020
4567 Rain 16 1004 93 3000 11.8 170 06:55 18.04.2020
4568 Rain 16 1004 93 3000 11.8 170 06:25 18.04.2020
4569 Rain 15 1005 93 2500 12.9 120 05:36 18.04.2020
4570 Rain 14 1009 100 2000 11.3 110 04:46 18.04.2020
4571 Rain 14 1009 100 2000 11.3 110 04:25 18.04.2020
4572 Rain 14 1014 93 3500 9.8 110 02:47 18.04.2020
4573 Rain 14 1014 93 3500 9.8 110 02:23 18.04.2020
4574 Rain 14 1015 100 4000 4.1 110 01:53 18.04.2020
4575 Rain 14 1015 100 4000 4.1 110 01:33 18.04.2020
4576 Rain 13 1016 93 7000 7.2 120 00:44 18.04.2020
4577 Rain 13 1017 100 7000 5.7 120 00:22 18.04.2020
4578 Rain 13 1017 100 7000 5.7 120 23:55 17.04.2020
4579 Rain 13 1017 100 7000 5.7 120 23:37 17.04.2020
4580 Rain 13 1017 100 7000 6.2 110 23:18 17.04.2020
4581 Rain 13 1017 100 7000 6.2 110 22:55 17.04.2020
4582 Rain 13 1018 93 8000 5.7 110 22:36 17.04.2020
4583 Rain 13 1018 93 10000 6.2 120 22:18 17.04.2020
4584 Rain 13 1018 93 7000 5.1 120 21:42 17.04.2020
4585 Rain 13 1018 93 7000 5.1 120 21:21 17.04.2020
4586 Rain 13 1019 93 6000 4.1 130 20:56 17.04.2020
4587 Rain 13 1020 93 6000 4.1 130 20:38 17.04.2020
4588 Rain 13 1020 93 8000 3.1 130 20:19 17.04.2020
4589 Rain 13 1020 93 8000 3.1 130 19:57 17.04.2020
4590 Rain 13 1020 93 10000 3.6 120 19:39 17.04.2020
4591 Rain 13 1020 87 10000 3.6 140 19:21 17.04.2020
4592 Rain 13 1020 93 10000 4.6 170 18:44 17.04.2020
4593 Rain 13 1020 93 10000 4.6 170 18:23 17.04.2020
4594 Rain 13 1020 93 10000 4.6 170 18:23 17.04.2020
4595 Rain 14 1021 82 10000 2.1 130 17:55 17.04.2020
4596 Rain 14 1021 82 10000 3.6 80 17:36 17.04.2020
4597 Rain 14 1022 82 10000 3.1 90 17:18 17.04.2020
4598 Rain 14 1022 82 10000 3.1 90 17:18 17.04.2020
4599 Rain 14 1022 76 10000 3.1 100 16:42 17.04.2020
4600 Rain 15 1022 76 10000 3.1 100 16:23 17.04.2020
4601 Rain 15 1022 76 10000 3.1 100 16:22 17.04.2020
4602 Clouds 15 1023 76 10000 3.1 110 15:42 17.04.2020
4603 Clouds 15 1023 76 10000 3.6 110 15:24 17.04.2020
4604 Clouds 15 1023 76 10000 3.6 110 14:57 17.04.2020
4605 Clouds 15 1023 76 10000 3.6 120 14:38 17.04.2020
4606 Clouds 15 1023 76 10000 4.1 120 14:20 17.04.2020
4607 Clouds 15 1023 76 10000 4.1 120 13:55 17.04.2020
4608 Clouds 15 1023 76 10000 4.1 110 13:36 17.04.2020
4609 Clouds 14 1023 67 10000 4.6 130 13:18 17.04.2020
4610 Clouds 14 1024 67 10000 4.1 140 12:43 17.04.2020
4611 Clouds 14 1023 71 10000 2.1 140 12:22 17.04.2020
4612 Clouds 14 1023 62 10000 2.6 140 11:41 17.04.2020
4613 Clouds 15 1023 62 10000 3.6 180 11:19 17.04.2020
4614 Clouds 15 1023 62 10000 3.6 180 10:56 17.04.2020
4615 Clouds 15 1023 62 10000 3.6 180 10:37 17.04.2020
4616 Clouds 15 1023 62 10000 2.6 160 10:18 17.04.2020
4617 Clouds 15 1023 62 10000 2.6 160 09:40 17.04.2020
4618 Clouds 16 1023 63 10000 2.6 130 09:20 17.04.2020
4619 Clouds 16 1023 63 10000 2.6 130 08:56 17.04.2020
4620 Clouds 16 1023 63 10000 2.6 130 08:38 17.04.2020
4621 Clouds 16 1023 51 10000 3.1 140 08:19 17.04.2020
4622 Clouds 16 1023 51 10000 3.1 140 07:43 17.04.2020
4623 Clouds 16 1024 55 10000 2.1 150 07:21 17.04.2020
4624 Clouds 16 1024 55 10000 2.1 150 06:45 17.04.2020
4625 Clouds 16 1024 55 10000 2.1 150 06:22 17.04.2020
4626 Clouds 15 1025 58 10000 3.1 140 04:46 17.04.2020
4627 Clouds 13 1025 58 10000 1 0 03:19 17.04.2020
4628 Clouds 12 1025 58 10000 3.1 40 02:19 17.04.2020
4629 Clouds 11 1026 61 10000 3.6 40 01:29 17.04.2020
4630 Clouds 10 1026 66 10000 3.6 10 00:51 17.04.2020
4631 Clouds 10 1025 66 10000 4.1 40 00:19 17.04.2020
4632 Clouds 9 1025 66 10000 3.6 30 23:42 16.04.2020
4633 Clouds 9 1025 66 10000 3.6 30 23:22 16.04.2020
4634 Clouds 9 1025 66 10000 3.6 20 22:57 16.04.2020
4635 Clouds 9 1025 66 10000 4.1 10 22:37 16.04.2020
4636 Clouds 9 1025 66 10000 4.1 10 22:19 16.04.2020
4637 Clouds 9 1024 66 10000 4.6 30 21:43 16.04.2020
4638 Clouds 9 1024 66 10000 4.6 30 21:21 16.04.2020
4639 Clouds 9 1024 66 10000 5.1 30 20:59 16.04.2020
4640 Clouds 9 1023 70 10000 5.1 30 20:40 16.04.2020
4641 Clouds 9 1023 70 10000 5.1 30 20:21 16.04.2020
4642 Clouds 9 1023 76 10000 6.2 30 19:55 16.04.2020
4643 Clouds 9 1023 70 10000 6.7 40 19:37 16.04.2020
4644 Clouds 9 1023 70 10000 5.7 40 19:18 16.04.2020
4645 Clouds 9 1023 71 10000 5.7 40 18:43 16.04.2020
4646 Clouds 9 1024 71 10000 6.7 50 18:25 16.04.2020
4647 Clouds 9 1024 71 10000 6.7 50 17:57 16.04.2020
4648 Clouds 9 1023 71 10000 6.2 40 17:39 16.04.2020
4649 Clouds 9 1023 71 10000 6.7 40 17:20 16.04.2020
4650 Clouds 9 1023 71 10000 6.2 40 16:44 16.04.2020
4651 Clouds 9 1023 71 10000 6.2 40 16:26 16.04.2020
4652 Rain 9 1023 76 10000 7.2 30 15:55 16.04.2020
4653 Rain 9 1022 71 10000 6.7 40 15:36 16.04.2020
4654 Rain 9 1022 71 10000 6.7 40 15:18 16.04.2020
4655 Rain 10 1022 76 10000 8.7 50 14:45 16.04.2020
4656 Rain 10 1022 76 10000 8.7 50 14:25 16.04.2020
4657 Rain 10 1022 81 10000 8.2 50 13:59 16.04.2020
4658 Rain 10 1021 76 10000 8.7 60 13:40 16.04.2020
4659 Rain 11 1021 76 10000 8.7 60 13:22 16.04.2020
4660 Rain 11 1020 76 10000 8.7 60 12:58 16.04.2020
4661 Rain 11 1020 81 10000 8.2 60 12:39 16.04.2020
4662 Rain 11 1020 76 10000 8.2 50 12:19 16.04.2020
4663 Rain 11 1020 76 10000 8.2 50 11:59 16.04.2020
4664 Rain 12 1019 76 10000 8.7 60 11:40 16.04.2020
4665 Rain 12 1018 62 10000 4.6 70 11:21 16.04.2020
4666 Rain 12 1018 62 10000 4.6 70 10:55 16.04.2020
4667 Rain 12 1018 62 10000 4.6 70 10:37 16.04.2020
4668 Rain 13 1018 62 10000 4.6 70 10:18 16.04.2020
4669 Clouds 14 1017 62 10000 6.7 80 09:39 16.04.2020
4670 Clouds 14 1017 62 10000 6.7 80 09:21 16.04.2020
4671 Clouds 14 1016 62 10000 7.2 80 08:59 16.04.2020
4672 Clouds 15 1016 62 10000 7.2 80 08:41 16.04.2020
4673 Clouds 15 1016 62 10000 7.2 80 08:21 16.04.2020
4674 Clouds 15 1016 62 10000 6.7 80 07:46 16.04.2020
4675 Clouds 15 1016 62 10000 6.7 80 07:26 16.04.2020
4676 Clouds 16 1016 62 10000 8.2 80 06:43 16.04.2020
4677 Clouds 16 1016 62 10000 8.2 80 06:24 16.04.2020
4678 Clouds 16 1016 62 10000 7.2 80 05:30 16.04.2020
4679 Clouds 15 1016 66 10000 6.2 70 03:49 16.04.2020
4680 Clouds 14 1016 66 10000 6.2 70 03:23 16.04.2020
4681 Clouds 14 1016 71 10000 6.2 40 02:47 16.04.2020
4682 Clouds 13 1016 71 10000 6.2 40 02:26 16.04.2020
4683 Clouds 12 1016 81 10000 7.2 40 01:18 16.04.2020
4684 Clouds 12 1015 81 10000 7.2 40 00:28 16.04.2020
4685 Clouds 11 1015 81 10000 8.7 50 23:58 15.04.2020
4686 Clouds 11 1013 81 10000 9.3 50 23:40 15.04.2020
4687 Clouds 11 1013 81 10000 9.3 50 23:21 15.04.2020
4688 Clouds 11 1012 81 10000 9.8 50 22:40 15.04.2020
4689 Clouds 11 1012 81 10000 9.8 50 22:22 15.04.2020
4690 Clouds 11 1012 81 10000 9.8 60 21:59 15.04.2020
4691 Clouds 12 1011 71 10000 8.7 50 21:41 15.04.2020
4692 Clouds 12 1011 71 10000 8.7 50 21:22 15.04.2020
4693 Clouds 12 1011 62 10000 4.6 20 20:58 15.04.2020
4694 Clouds 12 1010 54 10000 4.6 350 20:40 15.04.2020
4695 Clouds 12 1010 54 10000 4.6 350 20:21 15.04.2020
4696 Clouds 13 1010 50 10000 1.5 360 19:45 15.04.2020
4697 Clouds 13 1011 54 10000 3.1 320 19:21 15.04.2020
4698 Clouds 13 1010 54 10000 3.1 310 18:57 15.04.2020
4699 Clouds 13 1010 54 10000 3.1 310 18:39 15.04.2020
4700 Clouds 13 1010 54 10000 3.1 290 18:21 15.04.2020
4701 Clouds 14 1010 54 10000 3.1 290 17:54 15.04.2020
4702 Clouds 13 1010 54 10000 3.6 280 17:36 15.04.2020
4703 Clouds 13 1010 54 10000 3.6 280 17:18 15.04.2020
4704 Clouds 14 1010 47 10000 2.1 270 16:54 15.04.2020
4705 Clouds 14 1010 47 10000 2.1 250 16:36 15.04.2020
4706 Clouds 14 1010 47 10000 2.6 210 16:18 15.04.2020
4707 Clouds 14 1010 47 10000 2.6 210 15:55 15.04.2020
4708 Clouds 14 1010 41 10000 3.6 200 15:36 15.04.2020
4709 Clouds 15 1010 41 10000 3.6 200 15:18 15.04.2020
4710 Clouds 15 1010 45 10000 5.7 210 14:41 15.04.2020
4711 Clouds 15 1010 45 10000 5.7 210 14:23 15.04.2020
4712 Clouds 16 1010 55 10000 6.2 200 13:59 15.04.2020
4713 Clouds 16 1010 51 10000 6.2 210 13:40 15.04.2020
4714 Clouds 16 1010 45 10000 7.2 200 13:21 15.04.2020
4715 Clouds 16 1010 45 10000 7.2 200 12:59 15.04.2020
4716 Clouds 16 1010 48 10000 7.2 210 12:40 15.04.2020
4717 Clouds 16 1010 48 10000 7.2 210 12:22 15.04.2020
4718 Clouds 17 1010 52 10000 7.2 210 11:58 15.04.2020
4719 Clouds 17 1010 52 10000 7.2 210 11:38 15.04.2020
4720 Clouds 17 1009 45 10000 5.1 180 11:20 15.04.2020
4721 Clouds 18 1009 45 10000 5.1 180 10:38 15.04.2020
4722 Clouds 18 1009 45 10000 5.1 180 10:20 15.04.2020
4723 Clouds 19 1010 63 10000 4.6 190 09:57 15.04.2020
4724 Clouds 19 1010 63 10000 4.6 190 09:38 15.04.2020
4725 Clouds 19 1010 52 10000 6.7 180 09:20 15.04.2020
4726 Clouds 19 1010 52 10000 6.7 180 08:55 15.04.2020
4727 Clouds 20 1010 52 10000 6.7 180 08:36 15.04.2020
4728 Clouds 20 1011 48 10000 5.7 180 08:18 15.04.2020
4729 Clouds 19 1011 48 10000 5.7 180 07:46 15.04.2020
4730 Clouds 19 1011 48 10000 5.7 180 07:27 15.04.2020
4731 Clouds 20 1011 59 10000 5.1 160 06:29 15.04.2020
4732 Clouds 20 1011 30 10000 5.1 180 05:49 15.04.2020
4733 Clouds 18 1013 51 10000 2.6 140 04:48 15.04.2020
4734 Clouds 18 1013 51 10000 2.6 140 04:22 15.04.2020
4735 Clear 15 1014 47 10000 3.1 140 03:22 15.04.2020
4736 Clear 15 1013 50 10000 2.1 140 02:50 15.04.2020
4737 Clear 14 1014 47 10000 2.6 140 01:53 15.04.2020
4738 Clear 13 1013 53 10000 1.5 70 01:25 15.04.2020
4739 Clear 12 1013 50 10000 1 0 00:51 15.04.2020
4740 Clear 10 1013 43 10000 1.5 170 00:29 15.04.2020
4741 Clear 10 1014 43 10000 1.5 180 23:57 14.04.2020
4742 Clear 8 1013 43 10000 1 230 23:38 14.04.2020
4743 Clear 8 1013 43 10000 1 230 23:20 14.04.2020
4744 Clear 7 1013 52 10000 1 250 22:58 14.04.2020
4745 Clear 7 1012 43 10000 2.1 260 22:39 14.04.2020
4746 Clear 7 1012 52 10000 1.5 240 22:21 14.04.2020
4747 Clear 7 1012 52 10000 1.5 240 21:57 14.04.2020
4748 Clear 8 1012 49 10000 1.5 290 21:39 14.04.2020
4749 Clear 8 1012 49 10000 1.5 290 21:20 14.04.2020
4750 Clear 8 1013 45 10000 0.5 0 20:58 14.04.2020
4751 Clear 8 1012 49 10000 1 0 20:39 14.04.2020
4752 Clear 8 1012 49 10000 1 0 20:21 14.04.2020
4753 Clear 8 1012 49 10000 1 0 20:21 14.04.2020
4754 Clear 8 1012 52 10000 3.6 330 19:41 14.04.2020
4755 Clear 8 1012 52 10000 3.6 330 19:23 14.04.2020
4756 Clear 8 1013 49 10000 4.1 320 18:59 14.04.2020
4757 Clear 9 1012 46 10000 4.1 310 18:40 14.04.2020
4758 Clear 9 1012 46 10000 4.1 310 18:21 14.04.2020
4759 Clear 9 1012 43 10000 5.1 330 17:58 14.04.2020
4760 Clear 9 1012 45 10000 5.1 330 17:39 14.04.2020
4761 Clear 9 1012 45 10000 5.1 330 17:20 14.04.2020
4762 Clear 9 1012 43 10000 5.7 320 16:57 14.04.2020
4763 Clear 10 1011 37 10000 4.1 320 16:38 14.04.2020
4764 Clear 10 1011 37 10000 4.1 320 16:20 14.04.2020
4765 Clear 10 1012 37 10000 6.7 330 15:56 14.04.2020
4766 Clear 10 1011 37 10000 5.7 340 15:38 14.04.2020
4767 Clear 10 1011 37 10000 5.7 340 15:18 14.04.2020
4768 Clear 11 1012 34 10000 7.7 340 14:56 14.04.2020
4769 Clear 11 1011 37 10000 7.2 340 14:37 14.04.2020
4770 Clear 11 1011 34 10000 6.7 320 14:19 14.04.2020
4771 Clear 11 1011 34 10000 6.7 320 14:19 14.04.2020
4772 Clear 11 1010 34 10000 7.2 320 13:43 14.04.2020
4773 Clear 11 1010 34 10000 7.2 320 13:43 14.04.2020
4774 Clear 12 1010 34 10000 7.2 320 13:24 14.04.2020
4775 Clouds 12 1010 34 10000 7.7 330 12:56 14.04.2020
4776 Clear 12 1009 37 10000 8.2 340 12:38 14.04.2020
4777 Clear 13 1009 37 10000 8.2 340 12:18 14.04.2020
4778 Clouds 14 1008 41 10000 11.3 350 11:41 14.04.2020
4779 Clouds 15 1007 33 10000 6.7 350 11:22 14.04.2020
4780 Clouds 15 1007 33 10000 6.7 350 10:56 14.04.2020
4781 Clouds 15 1007 33 10000 6.7 350 10:38 14.04.2020
4782 Clouds 16 1007 33 10000 6.7 350 10:19 14.04.2020
4783 Clouds 17 1006 31 10000 5.7 310 09:42 14.04.2020
4784 Clouds 17 1006 31 10000 5.7 310 09:22 14.04.2020
4785 Clouds 17 1005 28 10000 8.2 310 08:56 14.04.2020
4786 Clear 17 1006 28 0 7.22 321 08:36 14.04.2020
4787 Clouds 17 1005 28 10000 8.2 310 08:36 14.04.2020
4788 Clouds 17 1005 28 10000 8.2 310 08:18 14.04.2020
4789 Clouds 17 1005 29 10000 8.2 300 07:49 14.04.2020
4790 Clear 17 1006 28 0 7.22 321 07:26 14.04.2020
4791 Clouds 16 1005 28 10000 7.7 310 06:45 14.04.2020
4792 Clouds 16 1005 28 10000 7.7 310 06:45 14.04.2020
4793 Clouds 16 1004 30 10000 7.7 310 05:43 14.04.2020
4794 Clouds 16 1004 30 10000 7.7 310 05:43 14.04.2020
4795 Clouds 14 1004 37 10000 8.2 310 03:38 14.04.2020
4796 Clouds 12 1003 37 10000 9.8 300 02:34 14.04.2020
4797 Clouds 11 1003 50 10000 8.7 330 01:27 14.04.2020
4798 Clouds 10 1002 50 10000 8.7 330 00:51 14.04.2020
4799 Clouds 10 1001 61 10000 7.7 330 00:24 14.04.2020
4800 Clouds 9 1000 76 10000 4.1 20 23:59 13.04.2020
4801 Clouds 8 1000 76 10000 4.1 20 23:39 13.04.2020
4802 Clouds 8 1000 76 10000 4.1 20 23:19 13.04.2020
4803 Clouds 8 999 76 10000 4.1 10 22:54 13.04.2020
4804 Clouds 8 999 76 10000 4.1 10 22:36 13.04.2020
4805 Clouds 8 999 76 10000 4.1 10 22:18 13.04.2020
4806 Clouds 8 997 76 10000 5.7 10 21:41 13.04.2020
4807 Clouds 8 997 81 10000 5.1 20 21:21 13.04.2020
4808 Clouds 8 997 81 10000 5.1 20 20:58 13.04.2020
4809 Clouds 8 997 81 10000 5.1 20 20:58 13.04.2020
4810 Clouds 8 996 87 10000 4.1 20 20:40 13.04.2020
4811 Clouds 8 996 87 10000 4.1 20 20:19 13.04.2020
4812 Rain 7 996 87 10000 5.7 20 19:58 13.04.2020
4813 Rain 7 996 87 10000 5.7 350 19:37 13.04.2020
4814 Rain 7 996 87 10000 6.7 340 19:19 13.04.2020
4815 Rain 7 996 87 10000 6.7 340 19:19 13.04.2020
4816 Rain 7 996 87 10000 6.7 340 18:57 13.04.2020
4817 Rain 7 995 87 10000 10.3 10 18:37 13.04.2020
4818 Rain 7 996 81 10000 11.8 360 18:18 13.04.2020
4819 Rain 7 996 81 10000 11.8 360 17:56 13.04.2020
4820 Rain 7 995 87 10000 11.8 360 17:37 13.04.2020
4821 Rain 7 995 87 10000 11.8 360 17:19 13.04.2020
4822 Rain 7 995 87 10000 11.8 360 17:19 13.04.2020
4823 Rain 7 995 87 10000 11.8 360 17:19 13.04.2020
4824 Rain 6 995 87 10000 11.8 350 16:58 13.04.2020
4825 Rain 6 994 87 10000 9.8 360 16:38 13.04.2020
4826 Rain 6 994 87 10000 9.8 360 16:19 13.04.2020
4827 Rain 6 994 87 10000 10.8 350 15:55 13.04.2020
4828 Rain 6 994 87 10000 11.3 350 15:37 13.04.2020
4829 Rain 6 994 87 10000 11.3 350 15:18 13.04.2020
4830 Rain 6 993 87 10000 13.9 350 14:41 13.04.2020
4831 Rain 6 993 87 10000 13.9 350 14:22 13.04.2020
4832 Rain 6 993 87 10000 12.9 350 13:56 13.04.2020
4833 Rain 7 993 87 10000 12.3 350 13:38 13.04.2020
4834 Rain 7 992 87 10000 10.3 340 13:20 13.04.2020
4835 Rain 7 992 87 10000 10.3 340 12:59 13.04.2020
4836 Rain 7 992 87 10000 8.7 330 12:40 13.04.2020
4837 Rain 7 991 87 10000 9.3 320 12:20 13.04.2020
4838 Rain 7 991 87 10000 9.3 320 11:58 13.04.2020
4839 Rain 8 990 93 6000 8.7 320 11:40 13.04.2020
4840 Rain 8 990 93 3500 6.7 330 11:18 13.04.2020
4841 Rain 8 990 93 3500 6.7 330 10:55 13.04.2020
4842 Rain 8 990 93 3500 6.7 330 10:37 13.04.2020
4843 Rain 8 990 93 3500 6.7 330 10:18 13.04.2020
4844 Rain 9 987 100 1800 6.7 300 09:44 13.04.2020
4845 Rain 9 987 100 1800 6.7 300 09:25 13.04.2020
4846 Rain 9 986 93 1300 5.1 310 08:47 13.04.2020
4847 Rain 9 986 93 1500 3.6 300 08:28 13.04.2020
4848 Rain 9 986 93 7000 5.7 360 07:58 13.04.2020
4849 Rain 9 989 93 3000 3.6 320 07:38 13.04.2020
4850 Rain 9 987 93 6000 8.7 10 07:19 13.04.2020
4851 Rain 9 987 93 2500 10.3 20 06:46 13.04.2020
4852 Rain 9 989 93 4500 8.2 10 05:56 13.04.2020
4853 Rain 9 989 93 6000 7.7 10 05:27 13.04.2020
4854 Rain 9 993 93 4000 7.2 350 04:52 13.04.2020
4855 Rain 9 992 93 3000 7.7 20 04:22 13.04.2020
4856 Rain 9 993 93 3500 5.7 360 03:45 13.04.2020
4857 Rain 10 995 100 4500 6.7 20 02:50 13.04.2020
4858 Rain 9 996 93 5000 7.2 30 01:54 13.04.2020
4859 Rain 9 997 93 3500 11.8 20 01:35 13.04.2020
4860 Rain 9 998 93 6000 12.3 10 00:56 13.04.2020
4861 Rain 9 999 93 9000 11.3 10 00:38 13.04.2020
4862 Rain 9 999 93 5000 10.8 20 00:18 13.04.2020
4863 Rain 9 1001 93 4500 8.7 10 23:43 12.04.2020
4864 Rain 9 1001 100 5000 9.8 10 23:22 12.04.2020
4865 Rain 8 1001 100 5000 9.8 10 22:57 12.04.2020
4866 Rain 9 1002 93 7000 9.8 10 22:37 12.04.2020
4867 Rain 9 1002 93 7000 9.8 10 22:19 12.04.2020
4868 Rain 9 1002 93 7000 9.8 10 22:19 12.04.2020
4869 Rain 9 1003 93 8000 10.3 10 21:40 12.04.2020
4870 Rain 9 1003 93 8000 10.3 10 21:21 12.04.2020
4871 Rain 9 1003 93 8000 10.8 10 20:56 12.04.2020
4872 Rain 9 1004 87 7000 10.3 360 20:38 12.04.2020
4873 Rain 9 1004 87 7000 10.3 360 20:20 12.04.2020
4874 Rain 9 1005 93 6000 9.8 10 19:55 12.04.2020
4875 Rain 9 1005 93 6000 9.8 10 19:36 12.04.2020
4876 Rain 9 1005 93 7000 9.3 10 19:18 12.04.2020
4877 Rain 9 1006 93 7000 8.2 10 18:40 12.04.2020
4878 Rain 10 1007 87 9000 8.2 10 18:21 12.04.2020
4879 Rain 10 1007 87 9000 8.2 10 17:56 12.04.2020
4880 Rain 10 1007 87 10000 7.7 10 17:38 12.04.2020
4881 Rain 10 1008 87 10000 8.7 10 17:19 12.04.2020
4882 Rain 10 1008 87 10000 8.7 10 16:56 12.04.2020
4883 Rain 10 1008 87 10000 7.7 20 16:37 12.04.2020
4884 Rain 10 1009 87 10000 8.2 20 16:19 12.04.2020
4885 Rain 11 1010 87 10000 6.7 30 15:41 12.04.2020
4886 Rain 11 1010 87 10000 6.7 30 15:22 12.04.2020
4887 Rain 11 1010 87 10000 6.2 30 14:41 12.04.2020
4888 Rain 11 1010 87 10000 6.2 30 14:22 12.04.2020
4889 Rain 11 1011 87 10000 6.2 50 13:58 12.04.2020
4890 Rain 11 1011 87 10000 6.7 60 13:40 12.04.2020
4891 Rain 11 1011 87 10000 6.7 60 13:21 12.04.2020
4892 Rain 11 1011 81 10000 7.2 60 12:47 12.04.2020
4893 Rain 12 1011 81 10000 7.2 60 12:22 12.04.2020
4894 Rain 12 1011 76 10000 6.2 70 11:59 12.04.2020
4895 Rain 12 1011 76 10000 6.7 70 11:39 12.04.2020
4896 Rain 12 1011 76 10000 6.7 70 11:20 12.04.2020
4897 Rain 12 1011 62 10000 2.1 40 10:58 12.04.2020
4898 Rain 13 1011 62 10000 2.1 40 10:39 12.04.2020
4899 Clouds 13 1011 67 10000 5.7 50 10:20 12.04.2020
4900 Clouds 13 1011 67 10000 5.7 50 09:59 12.04.2020
4901 Clouds 13 1011 67 10000 5.7 50 09:39 12.04.2020
4902 Clouds 14 1011 67 10000 5.7 50 09:20 12.04.2020
4903 Clouds 14 1012 62 10000 4.1 50 08:51 12.04.2020
4904 Clouds 14 1012 62 10000 4.1 50 08:33 12.04.2020
4905 Clouds 14 1013 62 10000 2.6 20 07:57 12.04.2020
4906 Clouds 14 1013 62 10000 2.6 20 07:39 12.04.2020
4907 Clouds 14 1013 66 10000 3.1 30 07:18 12.04.2020
4908 Clouds 14 1013 66 10000 3.1 30 06:32 12.04.2020
4909 Clouds 14 1014 66 10000 3.6 40 05:49 12.04.2020
4910 Clouds 13 1014 66 10000 3.6 40 05:27 12.04.2020
4911 Clouds 11 1015 81 10000 3.6 10 03:34 12.04.2020
4912 Clouds 10 1016 87 10000 2.6 320 02:54 12.04.2020
4913 Clouds 10 1016 87 10000 2.6 320 02:33 12.04.2020
4914 Clouds 9 1016 93 10000 4.6 340 01:34 12.04.2020
4915 Clouds 9 1016 93 10000 4.6 350 00:57 12.04.2020
4916 Rain 9 1016 93 10000 4.6 10 00:38 12.04.2020
4917 Rain 8 1015 93 10000 5.7 10 00:19 12.04.2020
4918 Rain 8 1015 93 9000 6.2 10 23:45 11.04.2020
4919 Rain 8 1015 93 9000 6.2 10 23:24 11.04.2020
4920 Rain 8 1015 93 5000 6.2 20 22:41 11.04.2020
4921 Rain 8 1015 93 5000 6.2 20 22:22 11.04.2020
4922 Rain 8 1015 93 5000 5.7 20 21:57 11.04.2020
4923 Rain 8 1015 93 6000 5.1 10 21:37 11.04.2020
4924 Rain 8 1015 93 6000 5.1 10 21:19 11.04.2020
4925 Rain 8 1016 93 7000 5.1 20 20:58 11.04.2020
4926 Rain 8 1016 93 7000 5.1 10 20:39 11.04.2020
4927 Rain 9 1016 93 7000 5.1 10 20:20 11.04.2020
4928 Rain 9 1016 93 7000 5.1 10 20:20 11.04.2020
4929 Rain 9 1016 93 7000 6.2 10 19:58 11.04.2020
4930 Rain 9 1017 93 8000 5.7 10 19:39 11.04.2020
4931 Rain 9 1017 93 8000 5.7 10 19:19 11.04.2020
4932 Rain 9 1016 81 10000 1.5 80 18:56 11.04.2020
4933 Rain 9 1016 87 10000 1.5 150 18:38 11.04.2020
4934 Rain 10 1016 87 10000 2.6 140 18:20 11.04.2020
4935 Rain 10 1016 87 10000 2.6 140 17:59 11.04.2020
4936 Rain 10 1017 87 10000 3.6 140 17:40 11.04.2020
4937 Rain 10 1017 87 10000 3.6 140 17:20 11.04.2020
4938 Rain 11 1017 76 10000 3.6 150 16:55 11.04.2020
4939 Rain 11 1017 71 10000 4.1 130 16:37 11.04.2020
4940 Rain 11 1017 71 10000 4.1 130 16:19 11.04.2020
4941 Rain 11 1017 71 10000 4.1 130 16:19 11.04.2020
4942 Rain 11 1017 71 10000 5.1 140 15:39 11.04.2020
4943 Rain 11 1017 71 10000 5.1 140 15:19 11.04.2020
4944 Rain 11 1018 76 10000 5.1 130 14:43 11.04.2020
4945 Rain 11 1018 76 10000 5.1 130 14:24 11.04.2020
4946 Rain 11 1018 76 10000 5.1 130 14:24 11.04.2020
4947 Rain 12 1017 62 10000 6.7 110 13:59 11.04.2020
4948 Rain 12 1017 62 10000 6.7 110 13:59 11.04.2020
4949 Rain 12 1017 62 10000 6.2 120 13:40 11.04.2020
4950 Rain 12 1017 62 10000 6.2 120 13:20 11.04.2020
4951 Rain 13 1017 66 10000 6.7 130 12:42 11.04.2020
4952 Rain 13 1017 66 10000 6.7 130 12:21 11.04.2020
4953 Clouds 13 1017 62 10000 6.7 130 11:58 11.04.2020
4954 Clouds 13 1017 50 10000 6.2 160 11:39 11.04.2020
4955 Clouds 13 1016 44 10000 4.6 190 11:19 11.04.2020
4956 Clouds 14 1016 44 10000 4.6 190 10:55 11.04.2020
4957 Clouds 14 1016 44 10000 4.6 190 10:36 11.04.2020
4958 Clouds 14 1016 44 10000 4.6 190 10:18 11.04.2020
4959 Clouds 15 1016 38 10000 2.6 190 09:41 11.04.2020
4960 Clouds 15 1016 38 10000 2.6 190 09:22 11.04.2020
4961 Clouds 15 1016 34 10000 4.1 180 08:54 11.04.2020
4962 Clouds 15 1016 34 10000 4.1 180 08:36 11.04.2020
4963 Clouds 15 1016 34 10000 4.1 180 08:18 11.04.2020
4964 Clouds 16 1016 38 10000 5.1 150 07:41 11.04.2020
4965 Clouds 16 1016 38 10000 5.1 150 07:23 11.04.2020
4966 Clouds 16 1017 41 10000 6.2 140 06:37 11.04.2020
4967 Clouds 15 1018 41 10000 4.6 130 05:57 11.04.2020
4968 Clouds 14 1019 33 10000 3.6 40 03:57 11.04.2020
4969 Clouds 13 1019 37 10000 3.1 350 02:52 11.04.2020
4970 Clouds 11 1019 40 10000 4.6 30 01:26 11.04.2020
4971 Clouds 10 1020 43 10000 5.1 30 00:57 11.04.2020
4972 Clouds 10 1019 49 10000 4.6 20 00:38 11.04.2020
4973 Clouds 9 1019 49 10000 5.1 30 00:18 11.04.2020
4974 Clouds 9 1019 45 10000 4.6 30 23:42 10.04.2020
4975 Clouds 8 1019 45 10000 4.6 30 23:19 10.04.2020
4976 Clouds 8 1019 49 10000 4.6 30 22:58 10.04.2020
4977 Clouds 8 1019 49 10000 4.6 30 22:39 10.04.2020
4978 Clouds 8 1019 45 10000 4.1 30 22:20 10.04.2020
4979 Clouds 8 1018 49 10000 5.7 20 21:42 10.04.2020
4980 Clouds 8 1018 49 10000 5.7 20 21:22 10.04.2020
4981 Clouds 8 1019 42 10000 5.7 20 20:59 10.04.2020
4982 Clouds 8 1019 43 10000 6.2 10 20:41 10.04.2020
4983 Clouds 8 1019 43 10000 6.2 10 20:23 10.04.2020
4984 Clouds 8 1019 39 10000 6.7 350 19:57 10.04.2020
4985 Clouds 9 1018 36 10000 6.7 350 19:39 10.04.2020
4986 Clouds 8 1019 39 10000 7.2 340 19:19 10.04.2020
4987 Clouds 8 1019 39 10000 7.2 340 18:56 10.04.2020
4988 Clouds 8 1018 39 10000 8.2 340 18:38 10.04.2020
4989 Clouds 8 1018 39 10000 8.2 340 18:20 10.04.2020
4990 Clouds 8 1019 39 10000 7.7 340 17:58 10.04.2020
4991 Clouds 9 1019 45 10000 8.7 340 17:39 10.04.2020
4992 Clouds 9 1019 45 10000 8.7 340 17:19 10.04.2020
4993 Clouds 9 1019 42 10000 10.3 340 16:55 10.04.2020
4994 Clouds 9 1019 43 10000 10.3 340 16:36 10.04.2020
4995 Clouds 9 1019 43 10000 10.3 340 16:18 10.04.2020
4996 Clouds 9 1019 43 10000 10.3 340 15:54 10.04.2020
4997 Clouds 9 1019 39 10000 10.3 350 15:36 10.04.2020
4998 Clear 9 1019 43 10000 9.3 340 15:18 10.04.2020
4999 Clear 10 1019 43 10000 9.3 340 14:54 10.04.2020
5000 Clear 10 1018 40 10000 9.3 340 14:36 10.04.2020
5001 Clear 10 1018 40 10000 9.3 340 14:18 10.04.2020
5002 Clear 10 1018 37 10000 10.3 340 13:42 10.04.2020
5003 Clear 10 1018 37 10000 10.3 340 13:21 10.04.2020
5004 Clear 11 1017 34 10000 9.3 340 12:43 10.04.2020
5005 Clear 11 1017 34 10000 9.3 340 12:23 10.04.2020
5006 Clear 12 1017 32 10000 9.8 340 11:56 10.04.2020
5007 Clouds 13 1016 35 10000 8.2 330 11:38 10.04.2020
5008 Clouds 13 1016 30 10000 6.7 350 11:20 10.04.2020
5009 Clouds 14 1016 30 10000 6.7 350 10:44 10.04.2020
5010 Clouds 14 1016 30 10000 6.7 350 10:23 10.04.2020
5011 Clouds 15 1015 26 10000 3.6 330 09:57 10.04.2020
5012 Clouds 15 1015 26 10000 3.6 330 09:38 10.04.2020
5013 Clouds 16 1015 26 10000 3.6 330 09:20 10.04.2020
5014 Clouds 16 1015 23 10000 4.6 320 08:43 10.04.2020
5015 Clouds 16 1015 23 10000 4.6 320 08:23 10.04.2020
5016 Clouds 16 1014 25 10000 5.1 360 07:45 10.04.2020
5017 Clouds 16 1014 25 10000 5.1 360 07:24 10.04.2020
5018 Clouds 16 1015 26 10000 6.7 330 06:49 10.04.2020
5019 Clouds 16 1015 26 10000 6.7 330 06:29 10.04.2020
5020 Clouds 16 1015 29 10000 6.2 310 05:42 10.04.2020
5021 Clouds 15 1016 33 10000 5.1 340 04:59 10.04.2020
5022 Clouds 14 1017 35 10000 5.1 320 03:51 10.04.2020
5023 Clouds 14 1017 35 10000 5.1 320 03:32 10.04.2020
5024 Clouds 13 1017 54 10000 5.1 310 02:49 10.04.2020
5025 Clouds 12 1017 54 10000 5.1 310 02:30 10.04.2020
5026 Clouds 11 1017 66 10000 3.6 10 01:30 10.04.2020
5027 Clouds 10 1017 71 10000 4.1 20 00:52 10.04.2020
5028 Clouds 9 1017 76 10000 2.6 20 00:26 10.04.2020
5029 Clouds 8 1018 81 10000 3.1 30 23:57 09.04.2020
5030 Clouds 8 1017 81 10000 2.6 30 23:38 09.04.2020
5031 Clouds 8 1017 81 10000 2.6 30 23:38 09.04.2020
5032 Clouds 8 1017 81 10000 2.6 30 23:20 09.04.2020
5033 Clouds 8 1017 76 10000 3.6 30 22:42 09.04.2020
5034 Clouds 8 1017 87 10000 4.6 30 22:24 09.04.2020
5035 Clouds 8 1017 87 10000 4.6 30 21:59 09.04.2020
5036 Clouds 8 1017 81 10000 4.6 20 21:37 09.04.2020
5037 Clouds 8 1017 81 10000 4.6 20 21:19 09.04.2020
5038 Clouds 8 1017 81 10000 4.1 30 20:45 09.04.2020
5039 Clouds 8 1017 81 10000 5.1 40 20:21 09.04.2020
5040 Clouds 8 1017 81 10000 4.6 40 19:58 09.04.2020
5041 Clouds 8 1017 81 10000 5.1 20 19:37 09.04.2020
5042 Clouds 8 1017 81 10000 6.2 30 19:18 09.04.2020
5043 Clouds 8 1017 76 10000 7.2 40 18:42 09.04.2020
5044 Clouds 8 1017 76 10000 7.2 40 18:42 09.04.2020
5045 Clouds 8 1017 76 10000 7.2 40 18:20 09.04.2020
5046 Clouds 8 1018 81 10000 7.2 20 17:43 09.04.2020
5047 Clouds 8 1018 81 10000 7.2 20 17:24 09.04.2020
5048 Rain 8 1018 81 10000 7.7 10 16:58 09.04.2020
5049 Rain 9 1018 87 10000 7.2 10 16:39 09.04.2020
5050 Rain 9 1018 87 10000 7.2 10 16:19 09.04.2020
5051 Rain 9 1018 87 10000 8.7 10 15:55 09.04.2020
5052 Rain 9 1018 81 10000 9.8 20 15:37 09.04.2020
5053 Rain 9 1018 81 10000 9.8 20 15:19 09.04.2020
5054 Rain 10 1018 81 10000 10.8 20 14:42 09.04.2020
5055 Rain 10 1018 81 10000 10.8 20 14:21 09.04.2020
5056 Rain 11 1018 71 10000 10.3 20 13:57 09.04.2020
5057 Rain 11 1016 71 10000 10.8 70 13:39 09.04.2020
5058 Rain 12 1016 71 10000 10.8 70 13:21 09.04.2020
5059 Rain 12 1015 76 10000 9.3 80 12:43 09.04.2020
5060 Clouds 13 1015 76 10000 9.3 80 12:24 09.04.2020
5061 Clouds 13 1015 76 10000 9.8 90 11:59 09.04.2020
5062 Clouds 14 1014 76 10000 9.3 100 11:41 09.04.2020
5063 Clouds 14 1014 62 10000 6.2 120 11:20 09.04.2020
5064 Clouds 14 1014 62 10000 6.2 120 11:20 09.04.2020
5065 Clouds 15 1014 62 10000 6.2 120 10:58 09.04.2020
5066 Clouds 15 1014 62 10000 6.2 120 10:39 09.04.2020
5067 Clouds 15 1014 62 10000 6.2 120 10:20 09.04.2020
5068 Clouds 16 1014 67 10000 12.3 110 09:56 09.04.2020
5069 Clouds 16 1014 67 10000 12.3 110 09:38 09.04.2020
5070 Clouds 16 1014 67 10000 12.3 110 09:20 09.04.2020
5071 Clouds 16 1014 63 10000 11.3 110 08:44 09.04.2020
5072 Clouds 17 1014 63 10000 11.3 110 08:23 09.04.2020
5073 Clouds 17 1014 55 10000 7.7 130 07:56 09.04.2020
5074 Clouds 17 1014 55 10000 7.7 130 07:27 09.04.2020
5075 Clouds 18 1014 42 10000 3.1 110 06:56 09.04.2020
5076 Clouds 17 1015 51 10000 3.1 150 06:25 09.04.2020
5077 Clouds 16 1015 51 10000 3.1 150 05:40 09.04.2020
5078 Clouds 17 1016 51 10000 4.1 130 03:55 09.04.2020
5079 Clouds 15 1016 48 10000 2.6 70 02:30 09.04.2020
5080 Clouds 15 1016 71 10000 3.1 60 01:41 09.04.2020
5081 Clouds 15 1016 71 10000 3.1 60 01:41 09.04.2020
5082 Clouds 14 1016 71 10000 3.1 60 01:23 09.04.2020
5083 Clouds 13 1015 71 10000 4.6 40 00:43 09.04.2020
5084 Clear 13 1015 71 10000 4.6 20 00:20 09.04.2020
5085 Clear 13 1015 71 10000 4.6 20 23:59 08.04.2020
5086 Clear 13 1014 71 10000 4.6 10 23:41 08.04.2020
5087 Clear 12 1014 71 10000 5.1 360 23:21 08.04.2020
5088 Clear 11 1013 76 10000 5.7 360 22:44 08.04.2020
5089 Clear 11 1013 71 10000 5.1 10 22:24 08.04.2020
5090 Clear 11 1012 67 10000 4.6 10 21:57 08.04.2020
5091 Clear 12 1012 67 10000 4.6 10 21:38 08.04.2020
5092 Clear 12 1012 67 10000 4.6 10 21:19 08.04.2020
5093 Clear 12 1012 76 10000 4.1 10 20:58 08.04.2020
5094 Clear 12 1012 76 10000 3.6 330 20:38 08.04.2020
5095 Clear 12 1012 76 10000 3.6 330 20:20 08.04.2020
5096 Clear 12 1012 76 10000 3.6 330 19:56 08.04.2020
5097 Clear 13 1011 71 10000 5.7 310 19:37 08.04.2020
5098 Clear 13 1012 58 10000 3.6 290 19:18 08.04.2020
5099 Clear 14 1011 51 10000 3.1 290 18:42 08.04.2020
5100 Clear 15 1011 51 10000 3.1 290 18:23 08.04.2020
5101 Clear 15 1011 55 10000 4.6 240 17:54 08.04.2020
5102 Clear 15 1011 55 10000 4.6 240 17:54 08.04.2020
5103 Clear 15 1011 59 10000 5.7 240 17:36 08.04.2020
5104 Clear 16 1011 55 10000 5.1 240 17:18 08.04.2020
5105 Clear 15 1011 55 10000 7.2 230 16:42 08.04.2020
5106 Clear 16 1012 55 10000 8.2 230 16:23 08.04.2020
5107 Clear 16 1012 55 10000 8.2 230 15:55 08.04.2020
5108 Clear 16 1012 51 10000 7.7 230 15:37 08.04.2020
5109 Clear 16 1012 51 10000 7.7 230 15:18 08.04.2020
5110 Clear 16 1011 48 10000 7.2 230 14:43 08.04.2020
5111 Clear 16 1011 48 10000 7.2 230 14:25 08.04.2020
5112 Clouds 16 1011 42 10000 6.2 200 13:55 08.04.2020
5113 Clouds 16 1011 42 10000 6.2 200 13:37 08.04.2020
5114 Clouds 16 1011 42 10000 6.2 200 13:18 08.04.2020
5115 Clouds 17 1010 55 10000 7.2 200 12:41 08.04.2020
5116 Clouds 17 1010 52 10000 5.7 190 12:18 08.04.2020
5117 Clouds 17 1010 52 10000 5.7 190 11:58 08.04.2020
5118 Clouds 17 1010 63 10000 5.1 160 11:39 08.04.2020
5119 Clouds 18 1010 42 10000 4.1 180 11:21 08.04.2020
5120 Clouds 18 1010 42 10000 4.1 180 10:56 08.04.2020
5121 Clouds 18 1010 42 10000 4.1 180 10:37 08.04.2020
5122 Clouds 18 1010 42 10000 4.1 180 10:18 08.04.2020
5123 Clouds 18 1010 42 10000 4.1 180 10:18 08.04.2020
5124 Clouds 19 1010 42 10000 5.7 160 09:55 08.04.2020
5125 Clouds 19 1010 42 10000 5.7 160 09:36 08.04.2020
5126 Clouds 20 1010 42 10000 5.7 160 09:18 08.04.2020
5127 Clouds 19 1011 63 10000 4.6 180 08:42 08.04.2020
5128 Clouds 19 1011 63 10000 4.6 180 08:23 08.04.2020
5129 Clouds 19 1011 51 10000 4.6 160 07:44 08.04.2020
5130 Clouds 19 1011 51 10000 4.6 160 07:25 08.04.2020
5131 Clouds 19 1011 48 10000 3.6 120 06:56 08.04.2020
5132 Clouds 19 1012 48 10000 2.6 140 05:56 08.04.2020
5133 Clouds 17 1013 59 10000 2.1 40 04:19 08.04.2020
5134 Clouds 15 1014 62 10000 3.1 40 02:49 08.04.2020
5135 Clouds 14 1014 62 10000 3.1 40 02:20 08.04.2020
5136 Clouds 14 1013 71 10000 2.1 30 01:45 08.04.2020
5137 Clouds 13 1013 71 10000 2.1 30 01:23 08.04.2020
5138 Clouds 12 1013 71 10000 3.1 10 00:41 08.04.2020
5139 Clouds 11 1013 71 10000 3.1 10 00:21 08.04.2020
5140 Clear 10 1013 76 10000 3.6 10 23:39 07.04.2020
5141 Clear 9 1013 76 10000 3.6 10 23:21 07.04.2020
5142 Clouds 9 1013 81 10000 3.1 20 22:57 07.04.2020
5143 Clear 9 1013 76 10000 4.1 20 22:39 07.04.2020
5144 Clear 9 1013 76 10000 4.1 20 22:19 07.04.2020
5145 Clear 10 1013 76 10000 4.1 20 21:56 07.04.2020
5146 Clear 10 1013 76 10000 4.1 20 21:56 07.04.2020
5147 Clouds 9 1013 76 10000 4.1 360 21:38 07.04.2020
5148 Clouds 9 1013 76 10000 4.1 360 21:20 07.04.2020
5149 Clouds 10 1012 81 10000 5.7 20 20:56 07.04.2020
5150 Clouds 10 1012 81 10000 5.7 20 20:38 07.04.2020
5151 Clouds 10 1012 81 10000 5.7 20 20:20 07.04.2020
5152 Clouds 11 1012 81 10000 2.6 10 19:56 07.04.2020
5153 Clouds 11 1012 81 10000 2.6 10 19:56 07.04.2020
5154 Clouds 11 1013 87 10000 2.1 40 19:36 07.04.2020
5155 Clouds 11 1013 87 10000 2.1 40 19:18 07.04.2020
5156 Clouds 12 1013 87 10000 2.1 40 18:54 07.04.2020
5157 Clouds 11 1012 76 10000 2.1 70 18:36 07.04.2020
5158 Clouds 11 1012 76 10000 2.1 70 18:18 07.04.2020
5159 Clouds 11 1013 76 10000 3.6 100 17:43 07.04.2020
5160 Clouds 12 1013 76 10000 3.6 90 17:20 07.04.2020
5161 Clouds 12 1013 76 10000 4.1 100 16:46 07.04.2020
5162 Clouds 12 1013 76 10000 4.1 100 16:27 07.04.2020
5163 Clouds 12 1013 82 10000 4.6 100 15:56 07.04.2020
5164 Clouds 12 1013 82 10000 4.6 100 15:38 07.04.2020
5165 Clouds 13 1013 82 10000 4.1 110 15:19 07.04.2020
5166 Clouds 13 1013 82 10000 4.6 100 14:41 07.04.2020
5167 Clouds 13 1013 82 10000 4.6 100 14:22 07.04.2020
5168 Clouds 13 1013 71 10000 2.6 150 13:56 07.04.2020
5169 Clouds 13 1013 62 10000 2.6 180 13:37 07.04.2020
5170 Clouds 13 1013 62 10000 2.6 180 13:18 07.04.2020
5171 Clouds 13 1013 58 10000 3.6 190 12:54 07.04.2020
5172 Clouds 13 1012 54 10000 4.1 190 12:36 07.04.2020
5173 Clouds 14 1012 58 10000 4.6 190 12:18 07.04.2020
5174 Clouds 14 1012 54 10000 4.6 190 11:42 07.04.2020
5175 Clouds 15 1011 41 10000 3.1 190 11:22 07.04.2020
5176 Clouds 15 1011 41 10000 3.1 190 10:57 07.04.2020
5177 Clouds 15 1011 41 10000 3.1 190 10:37 07.04.2020
5178 Clouds 16 1011 54 10000 3.1 180 10:18 07.04.2020
5179 Clouds 16 1011 54 10000 3.1 180 09:44 07.04.2020
5180 Clouds 16 1011 54 10000 3.1 180 09:18 07.04.2020
5181 Clouds 17 1011 51 10000 3.1 170 08:55 07.04.2020
5182 Clouds 17 1011 51 10000 3.1 170 08:36 07.04.2020
5183 Clouds 17 1012 44 10000 3.6 150 08:18 07.04.2020
5184 Clouds 17 1012 44 10000 3.6 150 07:40 07.04.2020
5185 Clouds 17 1012 44 10000 3.6 150 07:21 07.04.2020
5186 Clouds 17 1012 44 10000 2.6 140 06:51 07.04.2020
5187 Clouds 17 1012 44 10000 2.6 140 06:21 07.04.2020
5188 Clouds 16 1013 51 10000 3.1 150 05:38 07.04.2020
5189 Clouds 15 1013 47 10000 3.1 140 04:46 07.04.2020
5190 Clouds 13 1014 35 10000 1.5 0 03:26 07.04.2020
5191 Clouds 13 1014 40 10000 2.6 20 02:54 07.04.2020
5192 Clouds 12 1014 40 10000 2.1 20 01:50 07.04.2020
5193 Clouds 12 1014 43 10000 3.6 10 01:26 07.04.2020
5194 Clouds 10 1014 43 10000 6.2 360 00:29 07.04.2020
5195 Clouds 9 1015 46 10000 5.7 360 23:56 06.04.2020
5196 Clouds 9 1014 46 10000 5.1 20 23:36 06.04.2020
5197 Clouds 9 1014 47 10000 4.1 30 23:18 06.04.2020
5198 Clouds 9 1014 46 10000 4.6 10 22:40 06.04.2020
5199 Clouds 9 1014 46 10000 4.6 10 22:21 06.04.2020
5200 Clouds 9 1014 43 10000 6.2 350 21:57 06.04.2020
5201 Clouds 9 1014 47 10000 6.2 350 21:39 06.04.2020
5202 Clouds 9 1014 46 10000 6.2 350 21:19 06.04.2020
5203 Clouds 10 1013 43 10000 5.7 350 20:55 06.04.2020
5204 Clouds 10 1013 46 10000 6.2 350 20:37 06.04.2020
5205 Clouds 10 1013 46 10000 6.2 350 20:19 06.04.2020
5206 Clouds 10 1014 46 10000 5.7 360 19:41 06.04.2020
5207 Clouds 10 1014 46 10000 6.7 350 19:23 06.04.2020
5208 Clouds 10 1014 46 10000 6.7 350 18:59 06.04.2020
5209 Clouds 10 1014 46 10000 6.7 340 18:40 06.04.2020
5210 Clear 10 1014 50 10000 7.2 350 18:22 06.04.2020
5211 Clear 11 1014 50 10000 7.2 350 17:55 06.04.2020
5212 Clear 11 1014 50 10000 7.2 350 17:55 06.04.2020
5213 Clouds 11 1014 53 10000 7.7 350 17:36 06.04.2020
5214 Clouds 11 1014 46 10000 7.2 350 17:18 06.04.2020
5215 Clouds 11 1014 42 10000 6.7 340 16:45 06.04.2020
5216 Clouds 11 1014 42 10000 6.7 340 16:27 06.04.2020
5217 Clouds 12 1014 45 10000 6.2 340 14:45 06.04.2020
5218 Clouds 12 1014 45 10000 6.2 340 14:45 06.04.2020
5219 Clouds 12 1014 45 10000 6.2 340 14:45 06.04.2020
5220 Clouds 13 1014 66 10000 3.6 320 13:44 06.04.2020
5221 Clouds 13 1014 66 10000 3.6 320 13:44 06.04.2020
5222 Clouds 13 1014 66 10000 3.6 320 13:44 06.04.2020
5223 Clouds 13 1014 66 10000 3.6 320 13:44 06.04.2020
5224 Clouds 13 1014 66 10000 3.6 320 13:44 06.04.2020
5225 Clouds 13 1014 62 10000 4.1 280 13:21 06.04.2020
5226 Clouds 13 1014 62 10000 4.1 280 13:21 06.04.2020
5227 Clouds 13 1014 62 10000 4.1 280 13:21 06.04.2020
5228 Clouds 13 1014 62 10000 4.1 280 13:21 06.04.2020
5229 Clouds 14 1013 51 10000 4.1 220 12:26 06.04.2020
5230 Clouds 14 1013 51 10000 5.1 200 12:02 06.04.2020
5231 Clouds 14 1013 51 10000 5.1 200 11:40 06.04.2020
5232 Clouds 15 1012 54 10000 5.7 200 11:40 06.04.2020
5233 Clouds 15 1012 54 10000 5.7 200 11:40 06.04.2020
5234 Clouds 16 1012 48 10000 4.1 190 10:53 06.04.2020
5235 Clouds 16 1012 48 10000 4.1 190 10:53 06.04.2020
5236 Clouds 16 1012 48 10000 4.1 190 10:53 06.04.2020
5237 Clouds 15 1012 48 10000 4.1 190 10:53 06.04.2020
5238 Clouds 16 1012 48 10000 4.1 190 10:53 06.04.2020
5239 Clouds 16 1012 48 10000 4.1 190 10:23 06.04.2020
5240 Clouds 16 1012 48 10000 4.1 190 10:23 06.04.2020
5241 Clouds 16 1012 48 10000 4.1 190 10:23 06.04.2020
5242 Clouds 16 1012 48 10000 4.1 190 10:23 06.04.2020
5243 Clouds 16 1012 48 10000 4.1 190 10:23 06.04.2020
5244 Clouds 16 1012 55 10000 5.7 160 09:57 06.04.2020
5245 Clouds 16 1012 55 10000 5.7 160 09:57 06.04.2020
5246 Clouds 16 1012 55 10000 5.7 160 09:57 06.04.2020
5247 Clouds 16 1012 55 10000 5.7 160 09:57 06.04.2020
5248 Clouds 16 1012 55 10000 5.7 160 09:57 06.04.2020
5249 Clouds 17 1012 55 10000 5.7 160 09:26 06.04.2020
5250 Clouds 17 1012 55 10000 6.2 160 08:55 06.04.2020
5251 Clouds 17 1012 55 10000 6.2 160 08:55 06.04.2020
5252 Clouds 17 1012 55 10000 6.2 160 08:36 06.04.2020
5253 Clouds 17 1012 55 10000 6.2 160 08:36 06.04.2020
5254 Clouds 17 1012 55 10000 6.2 160 08:36 06.04.2020
5255 Clouds 17 1012 42 10000 3.6 190 07:56 06.04.2020
5256 Clouds 17 1012 42 10000 3.6 190 07:56 06.04.2020
5257 Clouds 17 1012 42 10000 3.6 190 07:19 06.04.2020
5258 Clouds 17 1013 44 10000 5.1 150 06:26 06.04.2020
5259 Clouds 16 1013 38 10000 5.1 140 05:40 06.04.2020
5260 Clouds 16 1013 38 10000 5.1 140 05:40 06.04.2020
5261 Clouds 14 1015 35 10000 2.1 230 03:29 06.04.2020
5262 Clouds 13 1015 32 10000 3.1 300 02:49 06.04.2020
5263 Clouds 12 1015 34 10000 5.1 300 01:52 06.04.2020
5264 Clouds 10 1014 42 10000 3.6 300 00:51 06.04.2020
5265 Clouds 10 1015 53 10000 3.6 300 00:27 06.04.2020
5266 Clouds 10 1015 53 10000 3.6 300 00:27 06.04.2020
5267 Clouds 8 1015 49 10000 3.1 290 23:50 05.04.2020
5268 Clouds 8 1014 52 10000 3.6 290 23:32 05.04.2020
5269 Clouds 8 1014 52 10000 3.6 290 23:32 05.04.2020
5270 Clouds 8 1014 52 10000 3.6 290 23:32 05.04.2020
5271 Clouds 7 1014 45 10000 3.1 280 22:57 05.04.2020
5272 Clouds 7 1013 45 10000 4.1 330 22:38 05.04.2020
5273 Clouds 7 1014 45 10000 3.1 280 22:38 05.04.2020
5274 Clouds 7 1013 45 10000 4.1 330 22:19 05.04.2020
5275 Clouds 7 1014 42 10000 3.1 330 21:58 05.04.2020
5276 Clouds 8 1014 42 10000 3.1 330 21:39 05.04.2020
5277 Clouds 8 1013 45 10000 3.6 340 21:21 05.04.2020
5278 Clouds 8 1013 46 10000 3.6 350 20:22 05.04.2020
5279 Clouds 8 1013 46 10000 3.6 350 20:22 05.04.2020
5280 Clouds 8 1014 45 10000 4.1 350 19:42 05.04.2020
5281 Clouds 8 1013 45 10000 3.1 360 19:22 05.04.2020
5282 Clouds 8 1014 51 10000 2.6 20 18:47 05.04.2020
5283 Clouds 8 1014 46 10000 2.1 10 18:18 05.04.2020
5284 Clouds 8 1014 57 10000 3.1 360 17:42 05.04.2020
5285 Clouds 8 1014 57 10000 3.1 360 17:42 05.04.2020
5286 Clouds 8 1014 57 10000 3.1 360 17:42 05.04.2020
5287 Clouds 8 1014 57 10000 3.1 360 17:42 05.04.2020
5288 Clouds 8 1014 66 10000 2.6 320 17:21 05.04.2020
5289 Clouds 8 1014 66 10000 2.6 320 17:21 05.04.2020
5290 Clouds 8 1014 66 10000 2.6 320 17:21 05.04.2020
5291 Clouds 8 1014 70 10000 2.1 310 16:47 05.04.2020
5292 Clouds 8 1014 70 10000 2.1 310 16:47 05.04.2020
5293 Clouds 8 1014 70 10000 2.1 310 16:47 05.04.2020
5294 Clouds 8 1014 75 10000 1 320 16:19 05.04.2020
5295 Clouds 8 1014 76 10000 1 0 15:45 05.04.2020
5296 Clouds 8 1014 76 10000 1 0 15:45 05.04.2020
5297 Clouds 8 1014 76 10000 1.5 10 15:25 05.04.2020
5298 Clouds 8 1014 76 10000 1.5 40 14:48 05.04.2020
5299 Clouds 8 1014 76 10000 1.5 40 14:48 05.04.2020
5300 Clouds 8 1014 76 10000 1.5 40 14:48 05.04.2020
5301 Clouds 8 1014 76 10000 1.5 40 14:48 05.04.2020
5302 Clouds 8 1014 76 10000 1.5 40 14:48 05.04.2020
5303 Clouds 8 1013 76 10000 2.6 60 13:59 05.04.2020
5304 Clouds 8 1013 76 10000 2.6 60 13:40 05.04.2020
5305 Clouds 8 1013 76 10000 2.6 60 13:40 05.04.2020
5306 Clouds 8 1013 76 10000 2.6 60 13:40 05.04.2020
5307 Clouds 8 1013 76 10000 2.6 60 13:40 05.04.2020
5308 Clouds 8 1013 76 10000 2.6 60 13:40 05.04.2020
5309 Clouds 9 1012 81 10000 6.2 40 12:00 05.04.2020
5310 -273 0 0 0 0 0 12:00 05.04.2020
5311 Clouds 9 1012 81 10000 6.2 40 12:00 05.04.2020
5312 Clouds 9 1011 81 10000 5.7 50 11:39 05.04.2020
5313 Clouds 10 1011 81 10000 5.7 50 11:19 05.04.2020
5314 Clouds 11 1010 66 10000 2.6 40 10:47 05.04.2020
5315 Clouds 11 1010 66 10000 2.6 40 10:47 05.04.2020
5316 Clouds 11 1010 66 10000 2.6 40 10:22 05.04.2020
5317 Clouds 11 1010 66 10000 2.6 40 10:22 05.04.2020
5318 Rain 11 1010 81 10000 3.1 60 09:53 05.04.2020
5319 Rain 11 1010 81 10000 3.1 60 09:26 05.04.2020
5320 Rain 11 1010 81 10000 3.1 60 09:26 05.04.2020
5321 Rain 11 1010 81 10000 3.1 60 09:26 05.04.2020
5322 Rain 11 1010 81 10000 3.1 60 09:26 05.04.2020
5323 Rain 11 1010 81 10000 3.1 60 09:26 05.04.2020
5324 Clouds 10 1011 81 10000 5.7 60 08:22 05.04.2020
5325 Clouds 10 1011 81 10000 5.7 60 08:22 05.04.2020
5326 Clouds 12 1010 66 10000 6.2 50 05:47 05.04.2020
5327 Rain 13 1010 66 10000 4.1 20 04:29 05.04.2020
5328 Clouds 13 1010 62 10000 4.6 20 03:27 05.04.2020
5329 Clouds 13 1010 71 10000 4.6 20 02:19 05.04.2020
5330 Clouds 13 1010 71 10000 5.7 30 01:42 05.04.2020
5331 Clouds 13 1010 81 10000 6.2 20 01:19 05.04.2020
5332 Clouds 13 1009 81 10000 6.7 10 00:37 05.04.2020
5333 Clouds 12 1009 81 10000 6.7 10 00:18 05.04.2020
5334 Clouds 12 1010 81 10000 5.7 360 23:41 04.04.2020
5335 Clouds 12 1009 76 10000 5.7 350 23:22 04.04.2020
5336 Clouds 11 1009 76 10000 4.1 330 22:57 04.04.2020
5337 Clouds 12 1009 76 10000 4.1 330 22:39 04.04.2020
5338 Clouds 12 1008 76 10000 2.6 360 22:20 04.04.2020
5339 Clouds 12 1008 71 10000 4.1 330 21:57 04.04.2020
5340 Clouds 12 1008 71 10000 4.1 330 21:39 04.04.2020
5341 Clouds 13 1008 71 10000 2.6 310 21:19 04.04.2020
5342 Clouds 13 1008 66 10000 2.6 290 20:55 04.04.2020
5343 Clouds 13 1008 71 10000 4.1 270 20:37 04.04.2020
5344 Clouds 13 1008 71 10000 4.1 270 20:19 04.04.2020
5345 Clouds 14 1009 67 10000 5.1 260 19:54 04.04.2020
5346 Rain 14 1008 67 10000 6.2 240 19:36 04.04.2020
5347 Rain 14 1008 67 10000 6.2 240 19:18 04.04.2020
5348 Clouds 15 1009 59 10000 6.7 240 18:54 04.04.2020
5349 Clouds 15 1009 63 10000 6.7 230 18:36 04.04.2020
5350 Clouds 15 1009 63 10000 6.7 230 18:18 04.04.2020
5351 Clouds 16 1009 59 10000 9.3 220 17:39 04.04.2020
5352 Clouds 16 1009 59 10000 9.3 220 17:20 04.04.2020
5353 Clouds 16 1009 63 10000 9.3 220 16:46 04.04.2020
5354 Clouds 16 1010 63 10000 9.3 210 16:28 04.04.2020
5355 Clouds 16 1010 63 10000 10.3 220 15:59 04.04.2020
5356 Clouds 16 1010 63 10000 10.3 220 15:39 04.04.2020
5357 Clouds 17 1010 63 10000 9.8 230 15:20 04.04.2020
5358 Clouds 17 1010 63 10000 9.8 230 15:20 04.04.2020
5359 Clouds 16 1010 59 10000 9.3 220 14:56 04.04.2020
5360 Clouds 16 1010 59 10000 9.3 220 14:38 04.04.2020
5361 Clouds 16 1010 63 10000 9.8 220 14:20 04.04.2020
5362 Clouds 17 1011 63 10000 10.3 220 13:54 04.04.2020
5363 Clouds 17 1011 63 10000 10.3 220 13:36 04.04.2020
5364 Clouds 17 1010 59 10000 11.8 220 13:18 04.04.2020
5365 Clouds 17 1010 59 10000 9.3 210 12:43 04.04.2020
5366 Clouds 17 1010 59 10000 9.3 210 12:23 04.04.2020
5367 Clouds 17 1010 67 10000 10.3 210 11:55 04.04.2020
5368 Clouds 17 1009 63 10000 10.8 210 11:36 04.04.2020
5369 Clouds 18 1009 63 10000 10.8 210 11:18 04.04.2020
5370 Clouds 19 1009 42 10000 6.7 210 10:55 04.04.2020
5371 Clouds 19 1009 42 10000 6.7 210 10:37 04.04.2020
5372 Clouds 19 1009 42 10000 6.7 210 10:18 04.04.2020
5373 Clouds 20 1010 63 10000 7.2 190 09:54 04.04.2020
5374 Clouds 20 1010 63 10000 7.2 190 09:36 04.04.2020
5375 Clouds 20 1010 63 10000 7.2 190 09:18 04.04.2020
5376 Clouds 21 1010 59 10000 7.2 190 08:38 04.04.2020
5377 Clouds 21 1010 59 10000 7.2 190 08:19 04.04.2020
5378 Clouds 21 1011 56 10000 7.2 200 07:41 04.04.2020
5379 Clouds 21 1011 56 10000 7.2 200 07:23 04.04.2020
5380 Clouds 21 1012 55 10000 6.2 170 06:47 04.04.2020
5381 Clouds 21 1012 55 10000 6.2 170 06:18 04.04.2020
5382 Clouds 21 1012 37 10000 5.7 190 05:41 04.04.2020
5383 Clouds 20 1012 37 10000 5.7 190 05:23 04.04.2020
5384 Clear 19 1014 67 9000 3.6 130 04:27 04.04.2020
5385 Clear 17 1016 72 9000 3.6 130 03:49 04.04.2020
5386 Clear 16 1016 62 10000 1.5 80 02:50 04.04.2020
5387 Clear 16 1016 62 10000 1.5 80 02:32 04.04.2020
5388 Clear 15 1016 67 10000 0.5 0 01:53 04.04.2020
5389 Clear 15 1016 71 10000 2.1 20 01:25 04.04.2020
5390 Clear 13 1017 71 10000 2.1 360 00:48 04.04.2020
5391 Clear 13 1017 66 10000 1.5 320 00:29 04.04.2020
5392 Clear 11 1017 76 10000 2.1 330 23:39 03.04.2020
5393 Clouds 10 1017 76 10000 1.5 310 23:21 03.04.2020
5394 Clouds 10 1017 76 10000 1.5 310 22:58 03.04.2020
5395 Clouds 10 1017 76 10000 1.5 310 22:39 03.04.2020
5396 Clouds 10 1017 76 10000 2.6 320 22:18 03.04.2020
5397 Clouds 10 1017 81 10000 2.6 300 21:44 03.04.2020
5398 Clouds 11 1016 76 10000 2.1 310 21:25 03.04.2020
5399 Clouds 11 1017 81 10000 2.1 300 20:57 03.04.2020
5400 Clouds 12 1017 81 10000 1 310 20:38 03.04.2020
5401 Clouds 12 1017 81 10000 1 310 20:20 03.04.2020
5402 Clouds 12 1017 82 10000 1.5 140 19:57 03.04.2020
5403 Clouds 13 1017 87 10000 1.5 160 19:39 03.04.2020
5404 Clouds 13 1017 87 10000 1.5 160 19:21 03.04.2020
5405 Clouds 13 1017 82 10000 2.6 160 18:59 03.04.2020
5406 Clouds 13 1017 82 10000 4.1 160 18:41 03.04.2020
5407 Clouds 13 1017 82 10000 4.1 160 18:23 03.04.2020
5408 Clouds 14 1018 77 10000 4.6 160 17:57 03.04.2020
5409 Clouds 14 1018 76 10000 4.1 170 17:39 03.04.2020
5410 Clouds 14 1018 76 10000 4.1 170 17:18 03.04.2020
5411 Clouds 14 1019 76 10000 4.6 170 16:45 03.04.2020
5412 Rain 14 1018 77 10000 3.6 170 16:22 03.04.2020
5413 Rain 14 1019 72 10000 2.6 190 15:58 03.04.2020
5414 Rain 14 1019 72 10000 2.6 190 15:40 03.04.2020
5415 Clouds 14 1019 67 10000 6.2 180 15:21 03.04.2020
5416 Clouds 14 1019 67 10000 6.2 180 14:56 03.04.2020
5417 Clouds 14 1017 79 0 1.34 152 14:38 03.04.2020
5418 Clouds 15 1019 67 10000 5.7 170 14:20 03.04.2020
5419 Clouds 15 1019 67 10000 5.7 170 13:43 03.04.2020
5420 Clouds 15 1019 67 10000 5.7 170 13:25 03.04.2020
5421 Clouds 15 1019 62 10000 6.7 170 12:56 03.04.2020
5422 Clouds 15 1019 67 10000 6.2 170 12:37 03.04.2020
5423 Clouds 15 1019 67 10000 6.2 170 12:18 03.04.2020
5424 Clouds 15 1018 67 10000 6.7 170 11:54 03.04.2020
5425 Clouds 15 1018 67 10000 6.7 170 11:36 03.04.2020
5426 Clouds 15 1018 55 10000 5.7 200 11:18 03.04.2020
5427 Clouds 16 1018 55 10000 5.7 200 10:54 03.04.2020
5428 Clouds 16 1018 55 10000 5.7 200 10:36 03.04.2020
5429 Clouds 16 1018 55 10000 5.7 200 10:18 03.04.2020
5430 Clouds 17 1018 55 10000 6.2 200 09:40 03.04.2020
5431 Clouds 17 1018 55 10000 6.2 200 09:22 03.04.2020
5432 Clouds 17 1018 45 10000 4.6 190 08:57 03.04.2020
5433 Clouds 17 1018 45 10000 4.6 190 08:39 03.04.2020
5434 Clouds 17 1018 45 10000 4.6 190 08:20 03.04.2020
5435 Clouds 17 1019 42 10000 4.6 180 07:50 03.04.2020
5436 Clouds 17 1019 42 10000 4.6 180 07:31 03.04.2020
5437 Clouds 17 1020 38 10000 4.6 190 06:50 03.04.2020
5438 Clouds 17 1020 38 10000 4.6 190 06:25 03.04.2020
5439 Clouds 16 1021 38 10000 4.6 150 05:40 03.04.2020
5440 Clouds 15 1022 43 10000 3.1 140 03:45 03.04.2020
5441 Clouds 14 1022 43 10000 3.1 140 03:23 03.04.2020
5442 Clouds 13 1022 40 10000 1.5 70 02:29 03.04.2020
5443 Clouds 12 1021 40 10000 3.6 340 01:23 03.04.2020
5444 Clouds 11 1021 39 10000 3.1 20 00:41 03.04.2020
5445 Clouds 9 1021 46 10000 3.1 30 00:20 03.04.2020
5446 Clear 9 1020 49 10000 3.6 40 23:42 02.04.2020
5447 Clouds 9 1021 43 10000 4.1 20 23:42 02.04.2020
5448 Clear 8 1020 49 10000 3.6 40 23:23 02.04.2020
5449 Clouds 8 1020 45 10000 4.6 30 22:59 02.04.2020
5450 Clouds 7 1020 45 10000 4.6 30 22:41 02.04.2020
5451 Clear 8 1019 49 10000 3.6 20 22:21 02.04.2020
5452 Clear 8 1019 39 10000 5.1 360 21:55 02.04.2020
5453 Clear 8 1019 43 10000 5.7 360 21:36 02.04.2020
5454 Clear 8 1019 43 10000 5.7 360 21:36 02.04.2020
5455 Clear 8 1019 43 10000 5.7 360 21:18 02.04.2020
5456 Clouds 10 1019 43 10000 6.7 350 20:42 02.04.2020
5457 Clouds 10 1018 43 10000 8.2 350 20:23 02.04.2020
5458 Clouds 9 1018 46 10000 8.7 350 19:55 02.04.2020
5459 Clouds 9 1018 43 10000 9.8 350 19:37 02.04.2020
5460 Clouds 9 1018 40 10000 8.7 340 19:19 02.04.2020
5461 Clouds 9 1017 43 10000 9.8 340 18:42 02.04.2020
5462 Clouds 10 1017 43 10000 9.8 340 18:21 02.04.2020
5463 Clear 10 1017 37 10000 10.8 340 17:59 02.04.2020
5464 Clear 10 1017 37 10000 10.8 340 17:59 02.04.2020
5465 Clear 10 1017 37 10000 10.8 340 17:40 02.04.2020
5466 Clear 10 1017 37 10000 11.3 340 17:22 02.04.2020
5467 Clear 10 1017 37 10000 11.3 340 17:22 02.04.2020
5468 Clear 10 1017 40 10000 9.3 330 16:57 02.04.2020
5469 Clear 10 1017 40 10000 9.3 330 16:39 02.04.2020
5470 Clear 10 1016 40 10000 10.3 340 16:21 02.04.2020
5471 Clear 10 1016 40 10000 10.8 340 15:56 02.04.2020
5472 Clear 10 1016 40 10000 10.8 340 15:38 02.04.2020
5473 Clear 10 1016 40 10000 10.3 340 15:18 02.04.2020
5474 Clear 10 1015 40 10000 10.8 330 14:55 02.04.2020
5475 Clear 10 1015 40 10000 10.8 330 14:37 02.04.2020
5476 Clear 10 1015 40 10000 11.3 340 14:18 02.04.2020
5477 Rain 10 1015 40 10000 12.3 340 13:54 02.04.2020
5478 Rain 11 1014 37 10000 12.9 340 13:36 02.04.2020
5479 Rain 11 1014 37 10000 12.9 340 13:18 02.04.2020
5480 Rain 12 1013 34 10000 12.9 330 12:41 02.04.2020
5481 Rain 12 1013 34 10000 13.4 330 12:19 02.04.2020
5482 Rain 12 1013 34 10000 13.4 330 11:57 02.04.2020
5483 Rain 12 1013 34 10000 13.4 330 11:39 02.04.2020
5484 Rain 13 1011 32 10000 13.9 330 11:20 02.04.2020
5485 Rain 14 1010 35 10000 10.8 340 10:56 02.04.2020
5486 Rain 14 1010 35 10000 10.8 340 10:37 02.04.2020
5487 Rain 14 1010 35 10000 10.8 340 10:19 02.04.2020
5488 Rain 14 1010 35 10000 10.8 340 10:19 02.04.2020
5489 Rain 15 1008 35 10000 7.7 320 09:58 02.04.2020
5490 Rain 16 1008 35 10000 7.7 320 09:39 02.04.2020
5491 Rain 17 1008 31 10000 7.7 320 09:19 02.04.2020
5492 Rain 18 1007 32 10000 5.7 320 08:47 02.04.2020
5493 Clouds 18 1007 32 10000 5.7 320 08:27 02.04.2020
5494 Rain 19 1007 32 10000 7.7 310 07:45 02.04.2020
5495 Rain 19 1007 32 10000 7.7 310 07:21 02.04.2020
5496 Rain 19 1006 27 10000 8.2 310 06:59 02.04.2020
5497 Rain 19 1006 27 10000 8.2 310 06:23 02.04.2020
5498 Rain 19 1005 27 10000 8.2 310 05:45 02.04.2020
5499 Rain 18 1005 31 10000 7.2 320 04:47 02.04.2020
5500 Rain 16 1003 35 10000 11.3 300 02:18 02.04.2020
5501 Clouds 15 1002 38 10000 14.4 330 00:54 02.04.2020
5502 Clouds 14 1002 35 10000 11.8 310 00:36 02.04.2020
5503 Clouds 14 1002 47 10000 11.8 310 00:18 02.04.2020
5504 Clouds 13 1000 41 10000 14.4 330 23:38 01.04.2020
5505 Clouds 13 1000 41 10000 15.4 320 23:19 01.04.2020
5506 Clouds 13 997 47 10000 10.3 330 22:41 01.04.2020
5507 Clouds 13 997 47 10000 10.3 330 22:22 01.04.2020
5508 Clouds 14 997 47 10000 10.3 330 21:58 01.04.2020
5509 Clouds 14 997 47 10000 10.3 330 21:39 01.04.2020
5510 Clouds 14 996 51 10000 13.4 320 21:19 01.04.2020
5511 Rain 14 995 54 10000 10.3 300 20:56 01.04.2020
5512 Rain 14 995 54 10000 10.3 300 20:38 01.04.2020
5513 Rain 14 995 87 10000 6.2 270 20:19 01.04.2020
5514 Rain 14 994 93 10000 6.2 260 19:57 01.04.2020
5515 Rain 14 993 87 10000 5.7 260 19:38 01.04.2020
5516 Rain 14 993 87 10000 5.7 260 19:19 01.04.2020
5517 Rain 13 993 93 10000 3.6 260 18:42 01.04.2020
5518 Rain 13 992 82 10000 3.1 300 18:23 01.04.2020
5519 Clouds 12 991 93 16093 6.97 329 17:57 01.04.2020
5520 Rain 13 992 87 10000 3.6 330 17:37 01.04.2020
5521 Rain 13 992 87 10000 3.6 330 17:19 01.04.2020
5522 Rain 13 994 100 16093 2.6 300 16:57 01.04.2020
5523 Rain 13 992 87 10000 6.7 330 16:39 01.04.2020
5524 Rain 13 992 87 10000 6.7 330 16:20 01.04.2020
5525 Rain 12 992 93 10000 6.7 320 15:56 01.04.2020
5526 Rain 12 992 93 10000 6.7 320 15:37 01.04.2020
5527 Rain 12 992 93 10000 8.2 340 15:18 01.04.2020
5528 Rain 12 993 93 10000 4.6 330 14:40 01.04.2020
5529 Rain 12 993 93 10000 8.2 320 14:22 01.04.2020
5530 Rain 12 993 93 10000 7.2 320 13:59 01.04.2020
5531 Rain 12 994 93 7000 7.7 330 13:40 01.04.2020
5532 Rain 12 994 93 7000 7.7 330 13:20 01.04.2020
5533 Rain 12 995 93 6000 8.2 330 12:59 01.04.2020
5534 Rain 12 995 93 6000 8.2 330 12:41 01.04.2020
5535 Rain 12 995 93 8000 7.7 330 12:22 01.04.2020
5536 Rain 12 996 93 8000 7.7 340 11:57 01.04.2020
5537 Rain 12 999 100 3000 3.1 320 11:38 01.04.2020
5538 Rain 12 999 100 3000 3.1 320 11:20 01.04.2020
5539 Rain 12 1000 100 3000 3.1 330 10:41 01.04.2020
5540 Rain 12 1000 100 3000 3.1 330 10:22 01.04.2020
5541 Rain 12 1000 100 2500 4.6 350 09:59 01.04.2020
5542 Rain 12 1000 100 2500 4.6 350 09:40 01.04.2020
5543 Rain 13 1000 100 4500 4.6 350 09:21 01.04.2020
5544 Rain 13 1002 100 5000 4.6 10 08:57 01.04.2020
5545 Rain 12 1002 100 5000 4.6 10 08:38 01.04.2020
5546 Rain 13 1003 100 3000 3.6 360 08:18 01.04.2020
5547 Rain 13 1004 100 3500 3.6 360 07:41 01.04.2020
5548 Rain 13 1005 100 2500 3.1 360 07:19 01.04.2020
5549 Rain 13 1007 93 1700 2.6 340 06:47 01.04.2020
5550 Rain 13 1007 93 1700 2.6 340 06:21 01.04.2020
5551 Rain 13 1009 93 2000 2.6 310 05:50 01.04.2020
5552 Rain 13 1011 93 2500 2.6 350 04:29 01.04.2020
5553 Rain 12 1013 93 2500 3.1 360 03:21 01.04.2020
5554 Rain 12 1015 93 3000 2.6 330 02:41 01.04.2020
5555 Rain 11 1014 93 2500 3.6 360 01:53 01.04.2020
5556 Rain 11 1014 100 4500 4.1 340 01:29 01.04.2020
5557 Rain 11 1015 93 4500 5.1 350 00:47 01.04.2020
5558 Rain 10 1015 93 5000 5.1 360 00:25 01.04.2020
5559 Rain 10 1015 93 4000 5.7 350 23:59 31.03.2020
5560 Rain 10 1015 93 4000 5.7 350 23:41 31.03.2020
5561 Rain 10 1016 93 3500 6.2 340 23:22 31.03.2020
5562 Rain 10 1016 93 3500 6.2 340 23:22 31.03.2020
5563 Mist 10 1016 93 5000 4.6 340 22:42 31.03.2020
5564 Mist 10 1016 93 5000 4.6 340 22:23 31.03.2020
5565 Rain 10 1016 87 5000 5.1 350 21:59 31.03.2020
5566 Rain 10 1016 87 5000 5.1 350 21:59 31.03.2020
5567 Mist 10 1016 87 5000 6.7 340 21:41 31.03.2020
5568 Mist 10 1016 87 5000 6.7 340 21:22 31.03.2020
5569 Mist 10 1016 87 5000 4.6 330 20:58 31.03.2020
5570 Mist 10 1016 87 5000 4.6 330 20:38 31.03.2020
5571 Mist 10 1016 87 5000 4.6 330 20:20 31.03.2020
5572 Mist 10 1017 87 5000 3.6 360 19:59 31.03.2020
5573 Mist 10 1017 87 5000 4.1 350 19:40 31.03.2020
5574 Clouds 10 1018 87 6000 4.6 360 19:21 31.03.2020
5575 Clouds 10 1018 87 6000 4.6 360 18:55 31.03.2020
5576 Clouds 10 1019 87 6000 2.6 350 18:37 31.03.2020
5577 Clouds 10 1018 87 6000 3.1 360 18:18 31.03.2020
5578 Clouds 10 1018 87 6000 3.1 360 17:54 31.03.2020
5579 Clouds 10 1019 87 6000 4.6 10 17:36 31.03.2020
5580 Clouds 10 1020 87 6000 4.6 10 17:18 31.03.2020
5581 Clouds 10 1020 87 7000 4.6 20 16:38 31.03.2020
5582 Clouds 10 1020 87 7000 4.6 20 16:19 31.03.2020
5583 Clouds 10 1021 87 7000 3.6 350 15:57 31.03.2020
5584 Clouds 10 1021 87 7000 3.6 350 15:38 31.03.2020
5585 Clouds 10 1021 87 7000 3.6 350 15:38 31.03.2020
5586 Clouds 10 1021 87 7000 4.6 350 15:19 31.03.2020
5587 Clouds 11 1021 87 7000 4.1 350 14:56 31.03.2020
5588 Clouds 11 1021 87 7000 4.1 350 14:38 31.03.2020
5589 Clouds 10 1021 87 7000 4.1 360 14:20 31.03.2020
5590 Clouds 10 1021 87 8000 4.1 360 13:42 31.03.2020
5591 Clouds 10 1020 87 8000 4.6 10 13:19 31.03.2020
5592 Clouds 11 1021 87 10000 5.1 20 12:55 31.03.2020
5593 Clouds 11 1020 87 10000 5.1 10 12:37 31.03.2020
5594 Clouds 11 1020 87 10000 5.1 10 12:18 31.03.2020
5595 Clouds 11 1021 81 10000 4.6 360 11:39 31.03.2020
5596 Clouds 11 1021 81 10000 4.6 360 11:20 31.03.2020
5597 Clouds 11 1021 81 10000 4.1 360 10:58 31.03.2020
5598 Clouds 11 1021 81 10000 4.1 360 10:40 31.03.2020
5599 Clouds 12 1020 81 10000 4.1 360 10:21 31.03.2020
5600 Clouds 12 1020 71 10000 2.6 10 09:56 31.03.2020
5601 Clouds 12 1020 71 10000 2.6 10 09:37 31.03.2020
5602 Clouds 13 1020 71 10000 2.6 10 09:19 31.03.2020
5603 Clouds 13 1021 71 10000 2.6 360 08:56 31.03.2020
5604 Clouds 13 1021 71 10000 2.6 360 08:56 31.03.2020
5605 Clouds 13 1021 71 10000 2.6 360 08:38 31.03.2020
5606 Clouds 12 1021 71 10000 2.6 360 08:19 31.03.2020
5607 Clouds 12 1021 76 10000 1.5 20 07:55 31.03.2020
5608 Clouds 12 1021 76 10000 1.5 20 07:37 31.03.2020
5609 Clouds 12 1021 76 10000 1.5 20 07:18 31.03.2020
5610 Rain 12 1022 71 10000 1.5 360 06:42 31.03.2020
5611 Rain 12 1022 66 10000 2.6 20 05:57 31.03.2020
5612 Rain 11 1022 66 10000 2.6 20 05:38 31.03.2020
5613 Clouds 10 1024 71 10000 2.1 20 03:27 31.03.2020
5614 Clouds 10 1024 66 10000 1.5 350 01:52 31.03.2020
5615 Clouds 9 1024 71 10000 5.1 10 01:33 31.03.2020
5616 Clouds 9 1024 71 10000 5.1 10 01:33 31.03.2020
5617 Clouds 9 1024 71 10000 5.7 20 00:46 31.03.2020
5618 Clouds 9 1023 70 10000 5.1 10 00:24 31.03.2020
5619 Clouds 9 1023 76 10000 4.1 10 23:41 30.03.2020
5620 Clouds 9 1023 71 10000 4.6 20 23:20 30.03.2020
5621 Clouds 8 1022 70 10000 4.1 10 22:58 30.03.2020
5622 Clouds 8 1022 70 10000 4.1 10 22:39 30.03.2020
5623 Rain 8 1023 66 10000 4.1 20 22:20 30.03.2020
5624 Rain 8 1022 70 10000 4.1 20 21:58 30.03.2020
5625 Rain 8 1022 70 10000 4.1 20 21:39 30.03.2020
5626 Rain 8 1022 70 10000 4.6 10 21:20 30.03.2020
5627 Clouds 8 1022 71 10000 4.6 20 20:59 30.03.2020
5628 Clouds 8 1022 71 10000 4.6 20 20:39 30.03.2020
5629 Clouds 8 1022 66 10000 4.1 20 20:20 30.03.2020
5630 Clouds 8 1022 66 10000 4.1 20 20:20 30.03.2020
5631 Clouds 8 1022 66 10000 4.1 20 20:20 30.03.2020
5632 Clouds 8 1022 71 10000 4.6 10 19:57 30.03.2020
5633 Clouds 8 1022 66 10000 4.6 10 19:39 30.03.2020
5634 Clouds 8 1022 66 10000 4.6 10 19:20 30.03.2020
5635 Clouds 9 1023 66 10000 4.1 10 18:43 30.03.2020
5636 Clouds 9 1023 66 10000 3.6 10 18:25 30.03.2020
5637 Clouds 9 1023 71 10000 4.6 10 17:58 30.03.2020
5638 Clouds 9 1023 66 10000 4.1 10 17:39 30.03.2020
5639 Clouds 9 1023 66 10000 4.1 10 17:39 30.03.2020
5640 Clouds 9 1023 66 10000 4.1 10 17:21 30.03.2020
5641 Clouds 9 1023 66 10000 3.6 20 16:59 30.03.2020
5642 Clouds 9 1023 66 10000 3.6 20 16:40 30.03.2020
5643 Clouds 9 1023 66 10000 3.6 30 16:21 30.03.2020
5644 Clouds 9 1024 66 10000 4.1 30 15:56 30.03.2020
5645 Clouds 9 1024 66 10000 4.1 30 15:56 30.03.2020
5646 Clouds 9 1023 66 10000 4.1 30 15:38 30.03.2020
5647 Clouds 9 1023 66 10000 4.1 30 15:20 30.03.2020
5648 Clouds 9 1024 71 10000 4.6 50 14:58 30.03.2020
5649 Clouds 9 1024 71 10000 4.6 50 14:37 30.03.2020
5650 Clouds 9 1023 71 10000 4.6 60 14:18 30.03.2020
5651 Clouds 9 1023 71 10000 4.1 60 13:57 30.03.2020
5652 Clouds 9 1023 71 10000 4.1 60 13:38 30.03.2020
5653 Clouds 9 1023 71 10000 3.1 70 13:19 30.03.2020
5654 Clouds 9 1023 71 10000 3.6 90 12:45 30.03.2020
5655 Clouds 9 1023 66 10000 2.1 90 12:21 30.03.2020
5656 Clouds 9 1023 66 10000 2.1 90 12:21 30.03.2020
5657 Clouds 10 1022 62 10000 2.6 100 11:58 30.03.2020
5658 Clouds 10 1022 62 10000 2.6 100 11:40 30.03.2020
5659 Clouds 10 1022 62 10000 3.1 90 11:21 30.03.2020
5660 Clouds 10 1022 62 10000 2.6 60 10:55 30.03.2020
5661 Clouds 10 1021 62 10000 2.6 60 10:37 30.03.2020
5662 Clouds 10 1021 61 10000 2.6 20 10:18 30.03.2020
5663 Clouds 10 1021 61 10000 2.6 20 09:40 30.03.2020
5664 Clouds 11 1021 61 10000 2.6 20 09:19 30.03.2020
5665 Clouds 11 1021 61 10000 3.1 20 08:56 30.03.2020
5666 Clouds 11 1021 61 10000 3.1 20 08:36 30.03.2020
5667 Clouds 11 1021 61 10000 3.1 20 08:18 30.03.2020
5668 Clouds 10 1021 61 10000 2.1 10 07:42 30.03.2020
5669 Clouds 10 1021 61 10000 2.1 10 07:20 30.03.2020
5670 Clouds 10 1022 61 10000 2.1 350 06:42 30.03.2020
5671 Clouds 10 1022 61 10000 2.1 350 06:23 30.03.2020
5672 Clouds 10 1023 61 10000 2.1 10 05:43 30.03.2020
5673 Clouds 9 1023 66 10000 2.6 10 04:29 30.03.2020
5674 Clouds 9 1024 65 10000 2.6 360 03:54 30.03.2020
5675 Clouds 8 1024 65 10000 2.6 360 02:44 30.03.2020
5676 Clouds 7 1024 70 10000 3.6 10 01:57 30.03.2020
5677 Clouds 6 1024 70 10000 4.6 360 00:59 30.03.2020
5678 Clouds 6 1024 75 10000 6.2 360 00:28 30.03.2020
5679 Clouds 5 1023 75 10000 6.2 10 23:56 29.03.2020
5680 Clouds 5 1023 75 10000 6.2 10 23:56 29.03.2020
5681 Clouds 5 1023 75 10000 6.2 10 23:37 29.03.2020
5682 Rain 4 1023 70 10000 6.2 10 23:18 29.03.2020
5683 Rain 5 1022 70 10000 6.7 20 22:40 29.03.2020
5684 Rain 4 1022 80 10000 6.2 10 22:20 29.03.2020
5685 Rain 4 1022 80 10000 6.2 10 21:59 29.03.2020
5686 Rain 4 1022 80 10000 6.2 10 21:38 29.03.2020
5687 Rain 4 1022 75 10000 6.2 10 21:20 29.03.2020
5688 Rain 4 1022 75 10000 6.2 10 20:55 29.03.2020
5689 Rain 4 1021 75 10000 5.1 10 20:37 29.03.2020
5690 Rain 4 1021 75 10000 5.1 10 20:19 29.03.2020
5691 Rain 4 1021 75 10000 5.1 10 20:19 29.03.2020
5692 Rain 4 1021 75 10000 6.2 10 19:57 29.03.2020
5693 Rain 4 1021 75 10000 6.2 10 19:57 29.03.2020
5694 Rain 4 1021 75 10000 5.7 360 19:39 29.03.2020
5695 Rain 4 1021 75 10000 5.7 360 19:39 29.03.2020
5696 Rain 4 1021 75 10000 5.7 360 19:21 29.03.2020
5697 Rain 5 1021 75 10000 6.2 10 18:57 29.03.2020
5698 Rain 5 1021 81 10000 5.7 20 18:38 29.03.2020
5699 Rain 5 1021 81 10000 5.7 20 18:19 29.03.2020
5700 Rain 5 1021 81 10000 5.7 20 17:55 29.03.2020
5701 Rain 5 1021 81 10000 6.2 20 17:37 29.03.2020
5702 Rain 5 1021 81 10000 6.2 20 17:18 29.03.2020
5703 Rain 4 1022 81 10000 5.7 20 16:56 29.03.2020
5704 Rain 5 1021 81 10000 6.2 20 16:38 29.03.2020
5705 Rain 4 1021 81 10000 6.2 20 16:18 29.03.2020
5706 Rain 5 1022 81 10000 6.2 20 15:41 29.03.2020
5707 Rain 5 1021 81 10000 5.7 20 15:23 29.03.2020
5708 Rain 5 1021 81 10000 5.7 20 15:23 29.03.2020
5709 Rain 5 1022 81 10000 6.2 10 14:58 29.03.2020
5710 Rain 5 1022 81 10000 6.2 10 14:40 29.03.2020
5711 Rain 5 1021 75 10000 6.2 10 14:20 29.03.2020
5712 Rain 5 1021 81 10000 6.2 10 13:57 29.03.2020
5713 Rain 5 1021 81 10000 6.2 10 13:39 29.03.2020
5714 Rain 5 1021 81 10000 6.2 10 13:39 29.03.2020
5715 Rain 5 1021 81 10000 6.2 10 13:20 29.03.2020
5716 Rain 4 1020 81 10000 6.2 10 12:55 29.03.2020
5717 Rain 4 1020 86 10000 6.7 10 12:37 29.03.2020
5718 Rain 4 1020 86 10000 6.7 10 12:19 29.03.2020
5719 Rain 4 1020 86 10000 6.7 10 12:19 29.03.2020
5720 Rain 4 1020 86 10000 6.7 360 11:55 29.03.2020
5721 Rain 4 1019 86 10000 8.2 10 11:37 29.03.2020
5722 Rain 4 1019 86 10000 8.2 10 11:18 29.03.2020
5723 Rain 4 1019 86 10000 8.2 10 11:18 29.03.2020
5724 Rain 4 1018 86 10000 8.7 20 10:38 29.03.2020
5725 Rain 4 1018 86 10000 4.1 360 10:19 29.03.2020
5726 Rain 4 1018 86 10000 4.1 360 09:41 29.03.2020
5727 Rain 4 1018 86 10000 4.1 360 09:22 29.03.2020
5728 Rain 4 1018 93 10000 3.1 340 08:56 29.03.2020
5729 Rain 4 1018 93 10000 3.1 340 08:38 29.03.2020
5730 Rain 4 1018 93 10000 3.1 340 08:19 29.03.2020
5731 Rain 3 1017 93 10000 3.6 360 07:42 29.03.2020
5732 Rain 3 1017 93 10000 3.6 360 07:21 29.03.2020
5733 Rain 2 1019 95 1200 3.1 340 05:58 29.03.2020
5734 Rain 1 1020 100 1500 3.6 350 04:55 29.03.2020
5735 Rain 2 1020 93 6000 3.6 350 03:33 29.03.2020
5736 Rain 2 1020 93 7000 5.1 360 01:52 29.03.2020
5737 Rain 2 1020 93 7000 5.1 360 01:24 29.03.2020
5738 Rain 2 1020 93 6000 4.1 360 00:58 29.03.2020
5739 Rain 2 1019 93 7000 10.8 360 00:33 29.03.2020
5740 Rain 3 1019 93 7000 10.8 360 23:57 28.03.2020
5741 Rain 3 1018 93 7000 10.8 10 23:39 28.03.2020
5742 Rain 4 1018 93 7000 10.8 10 23:20 28.03.2020
5743 Rain 5 1018 93 5000 9.8 10 22:41 28.03.2020
5744 Rain 5 1018 93 5000 9.8 10 22:22 28.03.2020
5745 Rain 6 1018 93 5000 9.8 10 21:57 28.03.2020
5746 Rain 6 1017 93 5000 9.3 20 21:39 28.03.2020
5747 Rain 6 1017 93 5000 9.3 20 21:19 28.03.2020
5748 Rain 6 1017 93 5000 11.3 30 20:55 28.03.2020
5749 Rain 6 1017 87 5000 10.3 20 20:37 28.03.2020
5750 Rain 6 1017 87 5000 10.3 20 20:18 28.03.2020
5751 Rain 7 1016 93 7000 9.8 20 19:55 28.03.2020
5752 Rain 7 1016 93 6000 9.8 20 19:36 28.03.2020
5753 Rain 7 1016 93 6000 9.8 20 19:18 28.03.2020
5754 Rain 7 1015 93 8000 9.3 20 18:39 28.03.2020
5755 Rain 7 1016 93 7000 9.8 20 18:20 28.03.2020
5756 Rain 7 1017 93 5000 9.3 20 17:41 28.03.2020
5757 Rain 7 1017 93 5000 9.3 20 17:22 28.03.2020
5758 Rain 8 1016 93 5000 10.3 20 16:59 28.03.2020
5759 Rain 8 1016 93 6000 11.8 20 16:38 28.03.2020
5760 Rain 8 1016 93 6000 11.8 20 16:18 28.03.2020
5761 Rain 8 1016 93 6000 11.8 20 16:18 28.03.2020
5762 Rain 8 1016 93 5000 9.8 20 15:40 28.03.2020
5763 Rain 8 1016 93 5000 9.8 20 15:20 28.03.2020
5764 Rain 8 1017 93 5000 10.8 20 14:58 28.03.2020
5765 Rain 8 1017 93 5000 10.8 20 14:40 28.03.2020
5766 Rain 8 1016 93 4000 10.3 10 14:21 28.03.2020
5767 Rain 9 1016 93 4000 10.3 20 13:43 28.03.2020
5768 Rain 9 1015 93 3500 9.3 20 13:23 28.03.2020
5769 Rain 10 1014 93 3500 9.3 50 12:41 28.03.2020
5770 Rain 10 1014 93 3500 9.3 50 12:22 28.03.2020
5771 Rain 11 1014 93 5000 9.3 60 11:55 28.03.2020
5772 Rain 11 1013 87 8000 9.8 70 11:37 28.03.2020
5773 Rain 11 1013 87 10000 8.7 70 11:18 28.03.2020
5774 Rain 12 1012 93 10000 10.3 70 10:39 28.03.2020
5775 Rain 12 1012 93 10000 10.3 70 10:20 28.03.2020
5776 Rain 13 1012 87 10000 10.3 70 09:43 28.03.2020
5777 Rain 13 1011 87 10000 10.3 70 09:24 28.03.2020
5778 Clouds 13 1011 87 10000 9.8 60 08:58 28.03.2020
5779 Clouds 14 1011 87 10000 9.8 60 08:40 28.03.2020
5780 Clouds 14 1011 87 10000 9.8 60 08:21 28.03.2020
5781 Clouds 17 1010 82 10000 8.7 60 07:44 28.03.2020
5782 Clouds 18 1010 82 10000 8.7 60 07:26 28.03.2020
5783 Clouds 19 1009 82 8000 3.6 90 06:36 28.03.2020
5784 Clouds 20 1009 93 8000 3.1 150 05:43 28.03.2020
5785 Clouds 20 1009 93 8000 3.1 150 05:21 28.03.2020
5786 Clouds 21 1009 77 10000 2.1 160 04:41 28.03.2020
5787 Clouds 19 1009 77 10000 2.1 120 03:54 28.03.2020
5788 Rain 19 1010 77 7000 2.1 140 02:25 28.03.2020
5789 Rain 19 1010 63 10000 1 0 01:41 28.03.2020
5790 Rain 19 1010 63 10000 1 0 01:18 28.03.2020
5791 Rain 19 1010 88 10000 6.7 200 00:37 28.03.2020
5792 Clouds 18 1010 93 9000 7.7 210 23:59 27.03.2020
5793 Rain 18 1009 93 10000 7.7 190 23:41 27.03.2020
5794 Rain 18 1009 93 10000 7.7 190 23:41 27.03.2020
5795 Rain 18 1009 93 10000 7.2 190 23:21 27.03.2020
5796 Rain 18 1009 93 10000 7.2 190 22:56 27.03.2020
5797 Rain 18 1009 93 10000 10.3 200 22:38 27.03.2020
5798 Rain 18 1009 93 10000 10.3 200 22:20 27.03.2020
5799 Rain 18 1009 93 10000 10.3 200 21:45 27.03.2020
5800 Rain 18 1008 88 6000 10.8 210 21:25 27.03.2020
5801 Rain 18 1009 88 8000 12.3 210 20:59 27.03.2020
5802 Rain 18 1009 88 8000 12.3 210 20:41 27.03.2020
5803 Rain 18 1008 88 10000 10.8 210 20:21 27.03.2020
5804 Rain 18 1008 88 10000 12.3 210 19:58 27.03.2020
5805 Rain 18 1008 88 10000 11.8 200 19:40 27.03.2020
5806 Rain 18 1008 88 10000 11.8 200 19:21 27.03.2020
5807 Rain 18 1008 88 10000 11.8 210 18:56 27.03.2020
5808 Rain 18 1009 88 10000 13.4 210 18:38 27.03.2020
5809 Rain 18 1009 88 10000 13.4 210 18:19 27.03.2020
5810 Clouds 18 1009 88 10000 12.3 210 17:40 27.03.2020
5811 Clouds 18 1010 82 10000 9.8 210 17:20 27.03.2020
5812 Clouds 18 1011 82 10000 13.4 210 16:45 27.03.2020
5813 Clouds 18 1011 82 10000 13.4 210 16:27 27.03.2020
5814 Clouds 18 1011 82 10000 11.8 210 15:59 27.03.2020
5815 Clouds 18 1011 88 10000 10.3 200 15:40 27.03.2020
5816 Clouds 18 1011 88 10000 10.3 200 15:22 27.03.2020
5817 Clouds 18 1013 82 10000 11.3 210 14:46 27.03.2020
5818 Clouds 18 1013 82 10000 11.3 210 14:25 27.03.2020
5819 Clouds 18 1013 82 10000 11.3 210 14:25 27.03.2020
5820 Clouds 18 1012 72 10000 13.9 210 13:56 27.03.2020
5821 Clouds 18 1012 82 10000 13.4 210 13:37 27.03.2020
5822 Clouds 18 1012 82 10000 13.4 210 13:18 27.03.2020
5823 Clouds 18 1012 82 10000 14.9 210 12:51 27.03.2020
5824 Clouds 18 1012 82 10000 15.4 210 12:21 27.03.2020
5825 Clouds 18 1012 82 10000 15.4 210 11:59 27.03.2020
5826 Clouds 18 1013 72 10000 11.8 220 11:41 27.03.2020
5827 Clouds 19 1013 72 10000 11.8 220 11:22 27.03.2020
5828 Clouds 19 1013 72 10000 9.8 200 10:55 27.03.2020
5829 Clouds 19 1013 72 10000 9.3 210 10:36 27.03.2020
5830 Clouds 19 1013 72 10000 9.3 210 10:18 27.03.2020
5831 Clouds 19 1013 72 10000 10.3 210 09:56 27.03.2020
5832 Clouds 19 1013 68 10000 8.7 210 09:37 27.03.2020
5833 Clouds 19 1013 63 10000 9.3 210 09:18 27.03.2020
5834 Clouds 19 1013 63 10000 9.3 210 08:55 27.03.2020
5835 Clouds 19 1013 63 10000 9.3 210 08:37 27.03.2020
5836 Clouds 19 1013 63 10000 9.3 210 08:18 27.03.2020
5837 Rain 20 1013 60 10000 7.7 220 07:49 27.03.2020
5838 Rain 20 1013 60 10000 7.7 220 07:23 27.03.2020
5839 Rain 21 1013 60 10000 9.3 210 06:46 27.03.2020
5840 Rain 21 1013 60 10000 9.3 210 06:27 27.03.2020
5841 Clouds 21 1015 60 10000 7.2 210 04:23 27.03.2020
5842 Clouds 16 1017 72 6000 2.1 110 02:25 27.03.2020
5843 Clouds 14 1017 76 7000 1 0 01:23 27.03.2020
5844 Clouds 14 1018 71 10000 1 70 00:48 27.03.2020
5845 Clouds 14 1018 71 10000 1 70 00:23 27.03.2020
5846 Clouds 13 1018 62 10000 0.5 100 23:43 26.03.2020
5847 Clouds 13 1018 62 10000 0.5 100 23:21 26.03.2020
5848 Clouds 12 1019 66 10000 1.5 260 22:58 26.03.2020
5849 Clouds 12 1019 71 10000 1.5 260 22:38 26.03.2020
5850 Clouds 11 1019 71 10000 1.5 260 22:19 26.03.2020
5851 Clouds 12 1019 71 10000 3.1 270 21:56 26.03.2020
5852 Clouds 11 1019 71 10000 2.1 280 21:37 26.03.2020
5853 Clouds 11 1019 71 10000 2.1 280 21:18 26.03.2020
5854 Clouds 11 1019 76 10000 2.6 270 20:56 26.03.2020
5855 Clouds 12 1019 76 10000 1.5 260 20:37 26.03.2020
5856 Clouds 12 1019 76 10000 1.5 260 20:19 26.03.2020
5857 Clouds 12 1019 76 10000 2.6 280 19:54 26.03.2020
5858 Clouds 12 1020 76 10000 2.1 290 19:36 26.03.2020
5859 Clouds 12 1020 76 10000 2.1 290 19:18 26.03.2020
5860 Clouds 12 1020 87 10000 0.5 0 18:41 26.03.2020
5861 Clouds 12 1020 87 10000 0.5 0 18:23 26.03.2020
5862 Clouds 12 1020 87 10000 1.5 170 17:56 26.03.2020
5863 Clouds 13 1020 87 10000 1.5 170 17:37 26.03.2020
5864 Clear 13 1020 93 10000 1.5 0 17:18 26.03.2020
5865 Clear 13 1020 82 10000 1 0 16:40 26.03.2020
5866 Clear 13 1020 82 10000 1 0 16:21 26.03.2020
5867 Clear 12 1020 87 10000 3.1 180 15:58 26.03.2020
5868 Clear 13 1020 87 10000 2.6 150 15:39 26.03.2020
5869 Clear 13 1020 87 10000 2.6 150 15:20 26.03.2020
5870 Clear 13 1020 76 10000 1.5 150 14:57 26.03.2020
5871 Clear 14 1020 67 10000 2.1 190 14:38 26.03.2020
5872 Clear 14 1020 67 10000 2.1 190 14:18 26.03.2020
5873 Clear 14 1021 82 10000 2.1 190 13:41 26.03.2020
5874 Clear 15 1020 62 10000 3.6 190 13:23 26.03.2020
5875 Clear 15 1020 59 10000 4.1 190 12:56 26.03.2020
5876 Clear 15 1020 72 10000 5.1 190 12:37 26.03.2020
5877 Clear 15 1020 72 10000 4.1 180 12:19 26.03.2020
5878 Clear 15 1019 62 10000 4.1 190 11:44 26.03.2020
5879 Clear 15 1019 62 10000 4.1 190 11:20 26.03.2020
5880 Clear 16 1019 62 10000 5.1 190 10:56 26.03.2020
5881 Clear 16 1019 62 10000 5.7 180 10:37 26.03.2020
5882 Clear 16 1019 62 10000 5.7 180 10:18 26.03.2020
5883 Clear 17 1019 59 10000 6.7 180 09:43 26.03.2020
5884 Clear 18 1019 63 10000 4.1 180 09:19 26.03.2020
5885 Clear 18 1019 63 10000 4.1 180 09:19 26.03.2020
5886 Clear 18 1019 63 10000 4.1 180 08:54 26.03.2020
5887 Clear 18 1019 63 10000 4.1 180 08:36 26.03.2020
5888 Clear 19 1019 63 10000 4.1 180 08:18 26.03.2020
5889 Clear 19 1019 59 10000 4.6 160 07:41 26.03.2020
5890 Clear 19 1019 59 10000 4.6 160 07:20 26.03.2020
5891 Clear 19 1019 44 10000 3.1 140 06:47 26.03.2020
5892 Clear 18 1020 44 10000 3.1 140 05:54 26.03.2020
5893 Clear 15 1021 58 10000 3.6 140 03:59 26.03.2020
5894 Clear 15 1021 58 10000 3.6 140 03:36 26.03.2020
5895 Clear 14 1022 50 10000 3.1 130 02:54 26.03.2020
5896 Clouds 13 1022 46 10000 1.5 0 01:50 26.03.2020
5897 Clouds 12 1022 50 10000 1.5 100 00:48 26.03.2020
5898 Clouds 11 1022 57 10000 1 50 23:56 25.03.2020
5899 Clouds 11 1022 57 10000 2.1 40 23:36 25.03.2020
5900 Clouds 10 1022 57 10000 2.6 30 23:18 25.03.2020
5901 Clouds 9 1022 46 10000 3.1 340 22:39 25.03.2020
5902 Clouds 9 1022 46 10000 3.1 340 22:20 25.03.2020
5903 Clouds 9 1021 44 10000 3.6 340 21:56 25.03.2020
5904 Clouds 9 1021 44 10000 3.6 340 21:37 25.03.2020
5905 Clouds 9 1021 57 10000 3.6 340 21:19 25.03.2020
5906 Clouds 9 1021 53 10000 3.6 340 20:55 25.03.2020
5907 Clouds 9 1020 44 10000 3.6 320 20:37 25.03.2020
5908 Clouds 9 1020 44 10000 3.6 320 20:18 25.03.2020
5909 Clouds 9 1020 49 10000 3.1 300 19:42 25.03.2020
5910 Clouds 9 1021 43 10000 3.1 290 19:22 25.03.2020
5911 Clouds 9 1021 46 10000 2.6 270 18:57 25.03.2020
5912 Clouds 9 1021 39 10000 4.1 300 18:38 25.03.2020
5913 Clouds 10 1021 43 10000 3.6 310 18:20 25.03.2020
5914 Clouds 10 1021 43 10000 3.6 310 17:55 25.03.2020
5915 Clouds 10 1021 37 10000 4.6 310 17:36 25.03.2020
5916 Clouds 10 1021 66 10000 2.6 300 17:18 25.03.2020
5917 Clouds 10 1021 62 10000 3.1 270 16:43 25.03.2020
5918 Clouds 10 1021 62 10000 3.1 270 16:43 25.03.2020
5919 Clouds 11 1021 62 10000 3.1 270 16:23 25.03.2020
5920 Clouds 11 1021 66 10000 3.6 280 15:57 25.03.2020
5921 Clouds 11 1020 66 10000 4.6 260 15:38 25.03.2020
5922 Clouds 11 1020 66 10000 4.6 260 15:19 25.03.2020
5923 Clouds 12 1021 62 10000 5.1 250 14:42 25.03.2020
5924 Clear 12 1021 62 10000 7.7 240 14:21 25.03.2020
5925 Clear 12 1020 62 10000 6.7 210 13:56 25.03.2020
5926 Clear 12 1020 62 10000 6.7 210 13:38 25.03.2020
5927 Clouds 12 1020 66 10000 5.1 200 13:19 25.03.2020
5928 Clouds 12 1020 66 10000 6.7 210 12:37 25.03.2020
5929 Clouds 12 1020 62 10000 6.2 200 12:19 25.03.2020
5930 Clouds 12 1020 62 10000 5.7 210 11:55 25.03.2020
5931 Clouds 12 1020 62 10000 5.7 210 11:36 25.03.2020
5932 Clear 12 1018 70 0 2.24 113 11:18 25.03.2020
5933 Clouds 12 1020 54 10000 6.7 210 10:55 25.03.2020
5934 Clouds 12 1020 50 10000 6.2 210 10:36 25.03.2020
5935 Clouds 12 1020 50 10000 6.2 210 10:18 25.03.2020
5936 Clouds 13 1019 50 10000 6.7 190 09:42 25.03.2020
5937 Clear 14 1019 30 10000 4.6 170 09:22 25.03.2020
5938 Clear 14 1019 30 10000 4.6 170 08:56 25.03.2020
5939 Clear 14 1019 30 10000 4.6 170 08:38 25.03.2020
5940 Clear 14 1019 30 10000 4.6 170 08:38 25.03.2020
5941 Clear 14 1019 30 10000 4.6 170 08:19 25.03.2020
5942 Clear 15 1019 33 10000 5.1 160 07:41 25.03.2020
5943 Clear 15 1019 33 10000 5.1 160 07:20 25.03.2020
5944 Clouds 14 1020 32 10000 5.7 150 06:47 25.03.2020
5945 Clouds 14 1020 32 10000 5.7 150 06:26 25.03.2020
5946 Clouds 14 1020 32 10000 1.5 180 05:53 25.03.2020
5947 Clouds 13 1020 32 10000 1.5 180 05:30 25.03.2020
5948 Clouds 13 1021 26 10000 2.1 310 04:39 25.03.2020
5949 Clouds 13 1021 30 10000 3.1 300 03:36 25.03.2020
5950 Clear 11 1021 32 10000 2.6 320 02:31 25.03.2020
5951 Clear 10 1021 42 10000 2.1 30 01:21 25.03.2020
5952 Clear 9 1021 39 10000 2.1 300 00:48 25.03.2020
5953 Clouds 9 1021 45 10000 2.1 30 00:23 25.03.2020
5954 Clouds 8 1021 48 10000 2.1 40 23:45 24.03.2020
5955 Clouds 8 1021 48 10000 2.1 40 23:26 24.03.2020
5956 Clouds 6 1021 52 10000 3.6 50 22:56 24.03.2020
5957 Clouds 6 1020 52 10000 3.6 40 22:37 24.03.2020
5958 Clouds 5 1020 52 10000 3.6 40 22:19 24.03.2020
5959 Clouds 5 1020 52 10000 3.6 40 22:19 24.03.2020
5960 Clouds 5 1020 56 10000 3.1 40 21:56 24.03.2020
5961 Clouds 5 1019 56 10000 4.1 30 21:37 24.03.2020
5962 Clouds 5 1019 56 10000 4.1 30 21:18 24.03.2020
5963 Clouds 5 1020 52 10000 4.1 20 20:56 24.03.2020
5964 Clouds 6 1019 52 10000 6.2 50 20:38 24.03.2020
5965 Clouds 6 1019 52 10000 6.2 50 20:19 24.03.2020
5966 Clouds 6 1019 53 10000 5.1 50 19:41 24.03.2020
5967 Clouds 6 1018 45 10000 4.6 30 19:19 24.03.2020
5968 Clouds 6 1019 48 10000 4.6 350 18:55 24.03.2020
5969 Clouds 6 1018 45 10000 4.1 340 18:37 24.03.2020
5970 Clouds 6 1019 48 10000 4.1 320 18:18 24.03.2020
5971 Clouds 6 1019 48 10000 4.1 320 18:18 24.03.2020
5972 Clouds 6 1018 48 10000 7.2 350 17:42 24.03.2020
5973 Clouds 6 1018 48 10000 7.2 350 17:23 24.03.2020
5974 Clouds 6 1019 48 10000 7.2 340 16:58 24.03.2020
5975 Clouds 6 1018 48 10000 7.7 350 16:40 24.03.2020
5976 Clouds 6 1018 48 10000 7.7 350 16:22 24.03.2020
5977 Clouds 6 1019 48 10000 7.2 350 15:59 24.03.2020
5978 Clouds 6 1018 42 10000 7.2 340 15:38 24.03.2020
5979 Clouds 6 1018 42 10000 7.2 340 15:20 24.03.2020
5980 Clouds 6 1018 42 10000 7.2 340 14:43 24.03.2020
5981 -273 0 0 0 0 0 14:21 24.03.2020
5982 Clouds 7 1018 42 10000 7.2 360 13:55 24.03.2020
5983 Clouds 8 1017 42 10000 7.2 360 13:36 24.03.2020
5984 Clouds 8 1017 42 10000 7.2 360 13:18 24.03.2020
5985 Clouds 8 1017 34 10000 9.3 340 12:41 24.03.2020
5986 Clouds 8 1017 34 10000 9.3 340 12:22 24.03.2020
5987 Clouds 9 1016 39 10000 10.3 340 11:40 24.03.2020
5988 Clouds 9 1016 39 10000 10.3 340 11:20 24.03.2020
5989 Clouds 9 1016 39 10000 10.3 340 11:20 24.03.2020
5990 Rain 9 1016 39 10000 9.3 340 10:55 24.03.2020
5991 Rain 8 1015 34 10000 10.8 340 10:36 24.03.2020
5992 Rain 9 1015 34 10000 10.8 340 10:18 24.03.2020
5993 Rain 10 1014 39 10000 9.3 350 09:43 24.03.2020
5994 Rain 10 1014 37 10000 11.8 350 09:24 24.03.2020
5995 Rain 11 1013 40 10000 11.3 350 08:40 24.03.2020
5996 Clouds 11 1013 27 10000 6.7 330 08:21 24.03.2020
5997 Clouds 11 1013 40 10000 11.3 360 07:59 24.03.2020
5998 Clouds 11 1013 40 10000 11.3 360 07:41 24.03.2020
5999 Clouds 12 1013 27 10000 8.7 310 07:21 24.03.2020
6000 Clouds 12 1014 34 10000 10.8 360 06:35 24.03.2020
6001 Clouds 12 1014 37 10000 10.8 340 05:36 24.03.2020
6002 Rain 11 1012 29 16093 6.2 30 04:50 24.03.2020
6003 Rain 10 1014 31 10000 10.3 300 03:21 24.03.2020
6004 Rain 10 1014 34 10000 13.9 340 02:37 24.03.2020
6005 Rain 9 1015 29 16093 8.7 360 00:54 24.03.2020
6006 Rain 8 1014 39 10000 12.9 330 00:27 24.03.2020
6007 Clouds 8 1014 52 10000 10.8 340 23:55 23.03.2020
6008 Clouds 7 1013 52 10000 9.8 340 23:37 23.03.2020
6009 Clouds 7 1013 48 10000 9.3 330 23:19 23.03.2020
6010 Clouds 6 1013 48 10000 9.3 330 22:43 23.03.2020
6011 Clouds 6 1012 52 10000 10.3 330 22:22 23.03.2020
6012 Clear 5 1011 48 10000 10.3 330 21:55 23.03.2020
6013 Clear 5 1011 48 10000 7.7 340 21:37 23.03.2020
6014 Clear 5 1011 48 10000 7.7 340 21:18 23.03.2020
6015 Rain 6 1012 52 10000 9.3 340 20:42 23.03.2020
6016 Rain 6 1011 61 10000 6.7 350 20:24 23.03.2020
6017 Rain 6 1011 81 10000 7.2 20 19:56 23.03.2020
6018 Rain 6 1010 75 10000 7.7 30 19:37 23.03.2020
6019 Rain 6 1010 75 10000 7.7 30 19:19 23.03.2020
6020 Rain 6 1011 75 10000 9.3 10 18:54 23.03.2020
6021 Rain 7 1010 66 10000 5.7 10 18:36 23.03.2020
6022 Rain 7 1010 57 10000 2.6 20 18:18 23.03.2020
6023 Rain 7 1012 65 16093 5.1 10 17:41 23.03.2020
6024 Rain 8 1010 61 10000 2.1 160 17:20 23.03.2020
6025 Rain 8 1010 61 10000 2.1 160 16:44 23.03.2020
6026 Clouds 8 1010 57 10000 3.6 160 16:25 23.03.2020
6027 Clouds 9 1011 57 10000 4.6 100 15:59 23.03.2020
6028 Clouds 9 1011 57 10000 4.6 100 15:39 23.03.2020
6029 Clouds 9 1010 57 10000 4.1 110 15:19 23.03.2020
6030 Rain 8 1011 57 10000 4.6 100 14:37 23.03.2020
6031 Rain 9 1011 57 10000 4.6 100 14:19 23.03.2020
6032 Clouds 9 1011 61 10000 5.1 100 13:57 23.03.2020
6033 Clouds 9 1011 57 10000 5.1 100 13:38 23.03.2020
6034 Clouds 9 1011 57 10000 5.1 100 13:38 23.03.2020
6035 Clouds 9 1011 61 10000 5.1 100 13:38 23.03.2020
6036 Clouds 9 1011 57 10000 5.1 100 13:20 23.03.2020
6037 Clouds 9 1011 57 10000 5.1 100 12:43 23.03.2020
6038 Clouds 9 1011 57 10000 4.6 100 12:43 23.03.2020
6039 Clouds 9 1011 57 10000 5.1 100 12:23 23.03.2020
6040 Clouds 9 1010 61 10000 5.7 90 11:56 23.03.2020
6041 Clouds 9 1010 61 10000 6.2 90 11:38 23.03.2020
6042 Clouds 9 1010 61 10000 6.2 90 11:38 23.03.2020
6043 Clouds 9 1010 61 10000 5.7 90 11:19 23.03.2020
6044 Clouds 9 1010 61 10000 5.7 90 10:56 23.03.2020
6045 Clouds 9 1010 66 10000 5.7 100 10:36 23.03.2020
6046 Clouds 9 1010 66 10000 5.7 100 10:18 23.03.2020
6047 Clouds 10 1010 61 10000 4.6 110 09:42 23.03.2020
6048 Clouds 10 1009 61 10000 4.1 120 09:20 23.03.2020
6049 Clouds 11 1010 61 10000 3.6 130 08:40 23.03.2020
6050 Clouds 11 1009 57 10000 5.7 110 08:20 23.03.2020
6051 Clouds 10 1009 57 10000 4.6 140 07:58 23.03.2020
6052 Clouds 11 1008 61 10000 1 0 07:37 23.03.2020
6053 Clouds 11 1008 61 10000 1 0 07:18 23.03.2020
6054 Clouds 11 1008 61 10000 5.7 100 06:48 23.03.2020
6055 Clouds 11 1009 61 10000 4.1 70 05:45 23.03.2020
6056 Clouds 10 1010 66 10000 4.6 80 04:41 23.03.2020
6057 Rain 10 1011 70 10000 4.1 70 03:23 23.03.2020
6058 Rain 10 1012 81 10000 7.7 10 01:50 23.03.2020
6059 Clouds 10 1011 34 10000 5.7 20 00:52 23.03.2020
6060 Rain 10 1011 57 10000 5.1 360 00:33 23.03.2020
6061 Rain 11 1010 76 10000 4.6 30 23:46 22.03.2020
6062 Rain 11 1010 76 10000 4.6 30 23:25 22.03.2020
6063 Clouds 11 1009 76 10000 6.2 60 22:45 22.03.2020
6064 Clouds 11 1009 76 10000 6.2 60 22:23 22.03.2020
6065 Clouds 11 1009 71 10000 6.2 50 21:55 22.03.2020
6066 Clouds 11 1009 76 10000 6.2 50 21:37 22.03.2020
6067 Clouds 11 1009 76 10000 6.2 50 21:18 22.03.2020
6068 Clouds 12 1008 76 10000 6.2 70 20:46 22.03.2020
6069 Clouds 12 1008 71 10000 4.1 50 20:25 22.03.2020
6070 Clouds 12 1008 71 10000 4.1 50 20:25 22.03.2020
6071 Clouds 12 1008 71 10000 4.6 40 19:58 22.03.2020
6072 Clouds 12 1008 76 10000 3.6 50 19:40 22.03.2020
6073 Clouds 12 1008 76 10000 3.6 50 19:20 22.03.2020
6074 Clouds 12 1008 76 10000 4.6 40 18:59 22.03.2020
6075 Clouds 12 1008 76 10000 3.6 60 18:41 22.03.2020
6076 Clouds 12 1008 76 10000 3.6 60 18:22 22.03.2020
6077 Clouds 12 1008 76 10000 4.6 50 17:58 22.03.2020
6078 Clouds 12 1008 76 10000 4.1 50 17:38 22.03.2020
6079 Clouds 13 1008 76 10000 4.1 50 17:20 22.03.2020
6080 Clouds 13 1008 76 10000 4.1 60 16:57 22.03.2020
6081 Clouds 13 1007 76 10000 6.2 50 16:39 22.03.2020
6082 Clouds 13 1007 76 10000 6.2 50 16:21 22.03.2020
6083 Clouds 14 1008 72 10000 5.7 40 15:44 22.03.2020
6084 Clouds 14 1007 72 10000 5.7 30 15:26 22.03.2020
6085 Clear 14 1007 67 10000 6.2 10 14:46 22.03.2020
6086 Clouds 15 1007 67 10000 7.2 10 14:19 22.03.2020
6087 Clouds 16 1006 48 10000 5.1 350 13:55 22.03.2020
6088 Clouds 16 1006 45 10000 6.7 340 13:36 22.03.2020
6089 Clouds 16 1006 45 10000 6.7 340 13:18 22.03.2020
6090 Clouds 17 1005 77 10000 2.1 230 12:43 22.03.2020
6091 Clouds 17 1005 77 10000 2.1 230 12:20 22.03.2020
6092 Clouds 17 1005 67 10000 5.1 200 11:55 22.03.2020
6093 Clouds 18 1004 59 10000 4.6 180 11:36 22.03.2020
6094 Clouds 18 1004 59 10000 4.6 180 11:18 22.03.2020
6095 Clouds 19 1004 55 10000 6.7 190 10:42 22.03.2020
6096 Clouds 20 1004 55 10000 6.7 190 10:23 22.03.2020
6097 Clouds 20 1004 67 10000 4.6 170 09:48 22.03.2020
6098 Clouds 21 1003 55 10000 9.8 170 09:29 22.03.2020
6099 Clouds 22 1002 52 10000 10.3 180 08:54 22.03.2020
6100 Clouds 22 1002 55 10000 8.2 200 08:36 22.03.2020
6101 Clouds 22 1002 55 10000 8.2 200 08:18 22.03.2020
6102 Clouds 23 1002 52 10000 9.3 200 07:41 22.03.2020
6103 Clouds 23 1002 52 10000 9.3 200 07:18 22.03.2020
6104 Clouds 22 1003 40 10000 10.3 210 05:54 22.03.2020
6105 Clouds 22 1005 59 10000 9.8 200 04:39 22.03.2020
6106 Clouds 20 1006 46 10000 11.3 190 02:43 22.03.2020
6107 Clouds 17 1007 51 10000 2.1 230 01:19 22.03.2020
6108 Clouds 16 1008 54 10000 3.1 250 00:34 22.03.2020
6109 Clouds 14 1009 58 10000 3.1 270 23:57 21.03.2020
6110 Clouds 13 1008 62 10000 0.5 0 23:38 21.03.2020
6111 Clouds 12 1008 62 10000 0.5 0 23:18 21.03.2020
6112 Clouds 12 1009 66 10000 2.6 320 22:38 21.03.2020
6113 Clouds 11 1009 66 10000 2.6 320 22:20 21.03.2020
6114 Clouds 12 1009 62 10000 1.5 250 21:59 21.03.2020
6115 Clouds 11 1009 54 10000 1 0 21:39 21.03.2020
6116 Clouds 11 1009 54 10000 1 0 21:21 21.03.2020
6117 Clouds 11 1009 62 10000 1.5 300 20:45 21.03.2020
6118 Clouds 11 1009 62 10000 3.1 210 20:23 21.03.2020
6119 Clouds 12 1010 62 10000 4.1 210 19:57 21.03.2020
6120 Clouds 12 1010 87 10000 1.5 130 19:39 21.03.2020
6121 Clouds 12 1009 62 10000 3.1 200 19:20 21.03.2020
6122 Clouds 12 1010 66 10000 3.1 200 18:54 21.03.2020
6123 Clouds 13 1010 71 10000 3.6 190 18:36 21.03.2020
6124 Clouds 13 1011 67 10000 4.6 180 18:18 21.03.2020
6125 Clouds 13 1011 76 10000 3.1 190 17:42 21.03.2020
6126 Clouds 13 1011 76 10000 3.1 190 17:23 21.03.2020
6127 Clouds 13 1011 62 10000 1 0 16:57 21.03.2020
6128 Clouds 13 1011 58 10000 1.5 180 16:38 21.03.2020
6129 Clouds 13 1011 58 10000 1.5 180 16:18 21.03.2020
6130 Clouds 13 1011 58 10000 1.5 180 16:18 21.03.2020
6131 Clouds 14 1011 54 10000 2.1 270 15:42 21.03.2020
6132 Clouds 14 1011 54 10000 2.1 270 15:23 21.03.2020
6133 Clouds 14 1012 54 10000 2.1 220 14:58 21.03.2020
6134 Clouds 15 1012 54 10000 2.1 220 14:40 21.03.2020
6135 Clear 15 1011 51 10000 3.1 240 14:20 21.03.2020
6136 Clear 15 1012 51 10000 3.1 210 13:59 21.03.2020
6137 Clear 15 1011 51 10000 4.1 210 13:40 21.03.2020
6138 Clear 15 1011 51 10000 4.1 210 13:22 21.03.2020
6139 Clear 15 1011 51 10000 2.6 200 12:59 21.03.2020
6140 Clear 16 1010 45 10000 4.1 200 12:38 21.03.2020
6141 Clear 16 1010 45 10000 4.1 200 12:19 21.03.2020
6142 Clear 16 1010 45 10000 4.1 210 11:56 21.03.2020
6143 Clouds 17 1009 48 10000 4.6 210 11:38 21.03.2020
6144 Clouds 17 1009 39 10000 5.1 160 11:19 21.03.2020
6145 Clouds 17 1009 39 10000 5.1 160 10:57 21.03.2020
6146 Clouds 17 1008 34 10000 4.1 230 10:38 21.03.2020
6147 Clouds 17 1008 34 10000 4.1 230 10:19 21.03.2020
6148 Clouds 19 1008 34 10000 7.2 240 09:56 21.03.2020
6149 Clouds 19 1008 34 10000 7.2 240 09:37 21.03.2020
6150 Clear 20 1008 32 10000 8.2 230 09:19 21.03.2020
6151 Clouds 20 1008 28 10000 6.2 230 08:44 21.03.2020
6152 Clouds 20 1007 28 10000 3.1 140 08:24 21.03.2020
6153 Clouds 20 1007 32 10000 5.1 180 07:47 21.03.2020
6154 Clouds 20 1007 32 10000 2.6 200 07:28 21.03.2020
6155 Clear 19 1008 55 10000 5.7 180 06:48 21.03.2020
6156 Clear 19 1008 55 10000 5.7 180 06:28 21.03.2020
6157 Clear 19 1009 51 10000 5.7 180 05:48 21.03.2020
6158 Clear 18 1010 48 10000 10.8 190 05:18 21.03.2020
6159 Clear 17 1011 47 10000 2.6 180 03:26 21.03.2020
6160 Clouds 16 1012 33 10000 5.1 160 02:34 21.03.2020
6161 Clear 14 1013 47 10000 5.1 180 01:38 21.03.2020
6162 Clouds 14 1013 43 10000 3.1 160 01:18 21.03.2020
6163 Clouds 12 1013 37 10000 0.5 0 00:38 21.03.2020
6164 Clouds 11 1013 37 10000 0.5 0 23:59 20.03.2020
6165 Clouds 10 1013 43 10000 1 0 23:40 20.03.2020
6166 Clouds 9 1013 46 10000 1 250 23:18 20.03.2020
6167 Clouds 8 1013 46 10000 1 250 22:42 20.03.2020
6168 Clear 9 1012 43 10000 1 250 22:24 20.03.2020
6169 Clouds 9 1012 39 10000 3.1 320 21:57 20.03.2020
6170 Clouds 8 1012 39 10000 3.1 320 21:39 20.03.2020
6171 Clear 8 1011 45 10000 3.6 330 21:18 20.03.2020
6172 Clear 9 1011 43 10000 2.6 310 20:57 20.03.2020
6173 Clear 9 1011 45 10000 2.6 310 20:39 20.03.2020
6174 Clear 9 1011 45 10000 2.6 310 20:18 20.03.2020
6175 Clear 8 1011 45 10000 3.1 300 19:46 20.03.2020
6176 Clear 9 1010 43 10000 3.1 300 19:19 20.03.2020
6177 Clear 9 1010 43 10000 2.6 300 18:56 20.03.2020
6178 Clear 9 1010 46 10000 3.1 310 18:37 20.03.2020
6179 Clear 9 1011 46 10000 3.6 320 18:19 20.03.2020
6180 Clear 10 1010 43 10000 5.1 330 17:40 20.03.2020
6181 Clear 9 1010 40 10000 5.1 330 17:22 20.03.2020
6182 Clear 10 1010 40 10000 5.1 330 16:59 20.03.2020
6183 Clear 10 1010 40 10000 5.7 350 16:41 20.03.2020
6184 Clear 10 1010 40 10000 5.7 350 16:20 20.03.2020
6185 Clear 11 1010 34 10000 6.7 340 15:44 20.03.2020
6186 Clear 11 1010 46 10000 7.7 340 15:22 20.03.2020
6187 Clear 11 1009 40 10000 5.1 350 14:58 20.03.2020
6188 Clear 11 1010 34 10000 5.7 350 14:40 20.03.2020
6189 Clear 12 1010 33 10000 5.7 350 14:20 20.03.2020
6190 Clear 12 1010 33 10000 5.7 350 13:48 20.03.2020
6191 Clear 12 1009 37 10000 6.7 360 13:21 20.03.2020
6192 Clouds 13 1009 43 10000 6.2 10 12:57 20.03.2020
6193 Clear 13 1008 41 10000 5.7 10 12:37 20.03.2020
6194 Clear 13 1008 41 10000 6.2 10 12:19 20.03.2020
6195 Clouds 14 1008 41 10000 5.7 20 11:39 20.03.2020
6196 Clouds 14 1008 41 10000 5.7 20 11:20 20.03.2020
6197 Clouds 14 1007 41 10000 6.2 20 10:55 20.03.2020
6198 Clouds 15 1007 38 10000 5.7 10 10:36 20.03.2020
6199 Clouds 15 1007 38 10000 5.7 10 10:18 20.03.2020
6200 Clouds 15 1007 44 10000 2.1 40 09:44 20.03.2020
6201 Clouds 16 1006 41 10000 2.1 80 09:20 20.03.2020
6202 Clouds 17 1005 36 10000 3.6 50 08:44 20.03.2020
6203 Clouds 17 1005 36 10000 3.6 50 08:23 20.03.2020
6204 Clouds 18 1004 36 10000 5.7 150 07:59 20.03.2020
6205 Clouds 18 1003 23 10000 4.1 350 07:39 20.03.2020
6206 Clouds 18 1003 23 10000 4.1 350 07:21 20.03.2020
6207 Clouds 19 1003 22 10000 4.1 340 06:42 20.03.2020
6208 Clouds 18 1002 29 10000 3.6 30 06:18 20.03.2020
6209 Clouds 17 1002 27 10000 5.1 10 04:38 20.03.2020
6210 Rain 16 1001 29 10000 10.3 340 02:50 20.03.2020
6211 Rain 15 1000 23 10000 8.2 330 01:50 20.03.2020
6212 Rain 15 997 44 10000 8.2 350 00:45 20.03.2020
6213 Clouds 15 997 58 10000 6.2 360 00:23 20.03.2020
6214 Clouds 14 996 62 10000 4.6 360 23:42 19.03.2020
6215 Clouds 14 996 62 10000 4.6 360 23:23 19.03.2020
6216 Clouds 15 996 77 10000 7.2 350 22:54 19.03.2020
6217 Clouds 15 995 72 10000 3.6 300 22:36 19.03.2020
6218 Clouds 15 995 72 10000 3.6 300 22:18 19.03.2020
6219 Clouds 15 995 67 10000 12.3 220 21:39 19.03.2020
6220 Clouds 15 995 67 10000 12.3 220 21:20 19.03.2020
6221 Clouds 15 994 72 10000 10.8 220 20:54 19.03.2020
6222 Clouds 15 994 72 10000 11.3 210 20:36 19.03.2020
6223 Clouds 15 994 72 10000 11.3 210 20:36 19.03.2020
6224 Clouds 16 994 72 10000 11.3 210 20:18 19.03.2020
6225 Clouds 16 994 82 10000 9.3 220 19:54 19.03.2020
6226 Clouds 16 995 87 10000 6.7 210 19:36 19.03.2020
6227 Clouds 16 995 93 10000 6.7 200 19:18 19.03.2020
6228 Clouds 15 996 93 10000 6.2 220 18:41 19.03.2020
6229 Clouds 15 998 93 16093 3.82 226 18:22 19.03.2020
6230 Clouds 15 998 93 16093 3.82 226 17:56 19.03.2020
6231 Clouds 15 997 93 10000 5.1 200 17:37 19.03.2020
6232 Clouds 15 998 93 10000 5.1 200 17:18 19.03.2020
6233 Rain 15 997 100 10000 7.7 160 16:43 19.03.2020
6234 Rain 15 997 100 10000 7.7 160 16:22 19.03.2020
6235 Rain 15 999 93 10000 5.1 200 15:44 19.03.2020
6236 Rain 15 1000 93 10000 6.2 180 15:25 19.03.2020
6237 Rain 16 1001 93 7000 6.7 180 14:54 19.03.2020
6238 Rain 16 1002 93 8000 6.2 190 14:36 19.03.2020
6239 Rain 16 1002 93 8000 6.2 190 14:18 19.03.2020
6240 Rain 16 1004 88 10000 7.2 200 13:39 19.03.2020
6241 Rain 17 1004 88 10000 7.2 200 13:18 19.03.2020
6242 Clouds 17 1005 72 10000 8.7 210 12:42 19.03.2020
6243 Clouds 17 1005 72 10000 8.7 210 12:24 19.03.2020
6244 Clouds 17 1005 72 10000 7.7 210 11:59 19.03.2020
6245 Clouds 17 1005 77 10000 10.3 200 11:41 19.03.2020
6246 Clouds 17 1006 77 10000 9.8 210 11:22 19.03.2020
6247 Clouds 17 1006 72 10000 8.2 200 10:44 19.03.2020
6248 Clouds 17 1006 72 10000 8.2 200 10:22 19.03.2020
6249 Clouds 18 1007 72 10000 10.3 200 09:59 19.03.2020
6250 Clouds 18 1007 72 10000 10.3 200 09:40 19.03.2020
6251 Clouds 19 1007 72 10000 8.2 200 09:21 19.03.2020
6252 Clouds 19 1007 72 10000 8.7 180 08:47 19.03.2020
6253 Clouds 20 1007 82 10000 8.7 190 08:23 19.03.2020
6254 Clouds 20 1007 68 10000 8.2 170 07:49 19.03.2020
6255 Clouds 21 1007 63 10000 8.2 180 07:31 19.03.2020
6256 Clouds 21 1007 52 10000 11.8 200 06:55 19.03.2020
6257 Clouds 21 1008 63 10000 7.2 190 06:23 19.03.2020
6258 Clouds 20 1009 37 10000 6.7 180 05:24 19.03.2020
6259 Clouds 19 1011 63 10000 11.8 210 04:46 19.03.2020
6260 Clear 18 1012 67 10000 2.6 110 03:55 19.03.2020
6261 Clear 13 1014 58 10000 2.1 70 01:46 19.03.2020
6262 Clouds 12 1014 54 10000 2.1 30 00:42 19.03.2020
6263 Clear 11 1014 62 10000 1.5 360 00:19 19.03.2020
6264 Clear 10 1014 66 10000 1.5 20 23:43 18.03.2020
6265 Clear 9 1014 66 10000 1.5 20 23:23 18.03.2020
6266 Clear 8 1014 93 7000 1 250 22:43 18.03.2020
6267 Clear 8 1014 66 10000 1.5 50 22:23 18.03.2020
6268 Clear 9 1014 57 10000 1 0 21:57 18.03.2020
6269 Clear 9 1014 61 10000 2.1 30 21:39 18.03.2020
6270 Clear 9 1014 61 10000 2.1 30 21:20 18.03.2020
6271 Clear 9 1014 71 10000 3.6 350 20:55 18.03.2020
6272 Clear 8 1014 71 10000 3.6 350 20:37 18.03.2020
6273 Clouds 9 1014 76 10000 2.1 310 20:19 18.03.2020
6274 Clouds 8 1014 66 10000 2.1 290 19:41 18.03.2020
6275 Clouds 9 1014 66 10000 2.1 290 19:21 18.03.2020
6276 Clouds 9 1014 66 10000 2.1 290 19:21 18.03.2020
6277 Clouds 9 1014 61 10000 3.1 290 18:59 18.03.2020
6278 Clouds 9 1014 53 10000 3.1 280 18:40 18.03.2020
6279 Clouds 10 1014 53 10000 2.6 290 18:19 18.03.2020
6280 Clouds 10 1014 53 10000 2.6 290 18:19 18.03.2020
6281 Clouds 10 1014 53 10000 2.6 290 17:56 18.03.2020
6282 Clouds 9 1014 53 10000 3.1 280 17:38 18.03.2020
6283 Clouds 10 1014 62 10000 3.6 290 17:19 18.03.2020
6284 Clouds 10 1014 76 10000 3.6 230 16:43 18.03.2020
6285 Clouds 10 1014 76 10000 3.6 230 16:21 18.03.2020
6286 Clouds 11 1014 71 10000 1.5 170 15:59 18.03.2020
6287 Clouds 11 1014 71 10000 2.6 170 15:39 18.03.2020
6288 Clouds 12 1014 71 10000 2.6 170 15:20 18.03.2020
6289 Clouds 12 1014 62 10000 3.1 170 14:44 18.03.2020
6290 Clouds 11 1014 66 10000 3.1 170 14:21 18.03.2020
6291 Clouds 13 1014 76 10000 2.6 130 13:42 18.03.2020
6292 Clouds 13 1014 76 10000 2.6 130 13:20 18.03.2020
6293 Clouds 13 1014 76 10000 2.6 130 13:20 18.03.2020
6294 Clouds 12 1014 66 10000 2.6 150 12:59 18.03.2020
6295 Clouds 13 1014 54 10000 4.1 170 12:41 18.03.2020
6296 Clouds 13 1014 41 10000 4.1 190 12:19 18.03.2020
6297 Clouds 14 1014 41 10000 2.1 190 11:39 18.03.2020
6298 Clouds 15 1014 76 10000 2.1 170 11:21 18.03.2020
6299 Clouds 15 1014 41 10000 3.6 190 10:58 18.03.2020
6300 Clouds 15 1013 41 10000 4.6 200 10:39 18.03.2020
6301 Clouds 15 1013 41 10000 4.6 200 10:20 18.03.2020
6302 Clouds 17 1013 34 10000 4.1 180 09:43 18.03.2020
6303 Clouds 17 1012 33 10000 5.1 200 09:25 18.03.2020
6304 Clear 17 1012 39 10000 5.1 190 08:57 18.03.2020
6305 Clouds 18 1011 44 10000 4.1 180 08:39 18.03.2020
6306 Clear 17 1012 39 10000 5.1 190 08:39 18.03.2020
6307 Clouds 18 1011 44 10000 4.1 180 08:20 18.03.2020
6308 Clouds 18 1012 55 10000 4.1 140 07:46 18.03.2020
6309 Clouds 18 1011 48 10000 4.1 160 07:28 18.03.2020
6310 Clouds 17 1011 55 10000 4.6 130 06:44 18.03.2020
6311 Clouds 17 1011 55 10000 4.6 130 06:23 18.03.2020
6312 Clouds 17 1012 47 10000 4.6 150 05:35 18.03.2020
6313 Clouds 16 1012 51 10000 4.1 150 04:27 18.03.2020
6314 Clouds 15 1013 50 10000 3.1 130 02:48 18.03.2020
6315 Clouds 13 1013 43 10000 3.6 300 01:48 18.03.2020
6316 Clouds 12 1013 43 10000 3.6 300 01:27 18.03.2020
6317 Clouds 11 1013 50 10000 3.6 350 00:26 18.03.2020
6318 Clear 10 1014 53 16093 1.5 130 23:57 17.03.2020
6319 Clouds 9 1012 57 10000 2.1 300 23:37 17.03.2020
6320 Clear 8 1014 70 16093 2.6 260 23:18 17.03.2020
6321 Clear 7 1012 65 10000 2.6 310 22:41 17.03.2020
6322 Clear 7 1012 65 10000 2.6 310 22:22 17.03.2020
6323 Clear 6 1012 65 10000 3.6 310 21:40 17.03.2020
6324 Clear 7 1011 65 10000 3.1 310 21:21 17.03.2020
6325 Clear 7 1011 50 10000 3.1 300 20:41 17.03.2020
6326 Clear 7 1010 70 10000 3.1 280 20:23 17.03.2020
6327 Clear 7 1011 61 10000 1.5 260 19:59 17.03.2020
6328 Clouds 7 1010 86 10000 1.5 290 19:40 17.03.2020
6329 Clouds 7 1011 65 10000 2.1 330 19:18 17.03.2020
6330 Clouds 7 1011 65 10000 2.1 330 18:56 17.03.2020
6331 Clear 8 1010 65 10000 3.6 330 18:38 17.03.2020
6332 Clear 8 1010 65 10000 3.6 330 18:38 17.03.2020
6333 Clear 7 1010 70 10000 5.1 330 18:20 17.03.2020
6334 Clear 8 1010 61 10000 5.1 320 17:41 17.03.2020
6335 Clear 8 1010 61 10000 5.1 320 17:41 17.03.2020
6336 Clear 9 1010 61 10000 5.1 320 17:22 17.03.2020
6337 Clear 9 1010 50 10000 3.6 320 16:56 17.03.2020
6338 Clear 11 1009 46 10000 5.1 250 16:38 17.03.2020
6339 Clear 11 1009 46 10000 5.1 250 16:18 17.03.2020
6340 Clear 11 1010 53 10000 5.7 260 15:43 17.03.2020
6341 Clear 11 1010 53 10000 5.7 260 15:21 17.03.2020
6342 Clear 10 1010 57 10000 9.8 240 14:44 17.03.2020
6343 Clear 10 1010 57 10000 9.8 240 14:23 17.03.2020
6344 Clear 10 1010 54 10000 8.7 230 13:56 17.03.2020
6345 Clouds 10 1010 58 10000 10.8 220 13:38 17.03.2020
6346 Clouds 10 1011 57 10000 7.7 220 13:20 17.03.2020
6347 Clouds 10 1011 54 10000 6.7 220 12:42 17.03.2020
6348 Clouds 11 1012 54 10000 7.7 210 12:22 17.03.2020
6349 Clear 10 1011 57 10000 7.2 190 11:48 17.03.2020
6350 Clear 10 1011 57 10000 7.2 190 11:29 17.03.2020
6351 Clear 10 1012 57 10000 6.7 180 10:58 17.03.2020
6352 Clouds 10 1012 57 10000 6.2 180 10:40 17.03.2020
6353 Clouds 11 1012 57 10000 6.2 180 10:22 17.03.2020
6354 Clouds 10 1013 61 10000 6.7 170 09:59 17.03.2020
6355 Clouds 11 1012 62 10000 7.2 170 09:40 17.03.2020
6356 Clouds 11 1012 62 10000 7.2 170 09:19 17.03.2020
6357 Clouds 12 1013 58 10000 7.7 180 08:48 17.03.2020
6358 Clouds 12 1013 53 10000 4.6 190 08:23 17.03.2020
6359 Clouds 12 1013 53 10000 5.7 160 07:57 17.03.2020
6360 Clouds 12 1013 50 10000 3.6 140 07:38 17.03.2020
6361 Clouds 12 1014 43 10000 3.1 160 07:19 17.03.2020
6362 Clear 12 1015 40 16093 6.7 190 06:39 17.03.2020
6363 Clouds 12 1015 37 10000 3.6 130 05:58 17.03.2020
6364 Clouds 10 1017 45 10000 3.1 110 03:58 17.03.2020
6365 Clouds 10 1017 45 10000 3.1 110 03:58 17.03.2020
6366 Clouds 9 1018 48 10000 2.6 100 02:56 17.03.2020
6367 Clouds 8 1019 39 10000 2.6 60 01:49 17.03.2020
6368 Clouds 7 1019 39 10000 2.6 60 01:25 17.03.2020
6369 Clouds 7 1019 39 10000 2.6 50 00:48 17.03.2020
6370 Clouds 5 1018 48 10000 2.6 40 23:51 16.03.2020
6371 Clouds 4 1018 48 10000 2.6 40 23:32 16.03.2020
6372 Clouds 3 1017 41 10000 3.6 30 22:45 16.03.2020
6373 Clouds 3 1017 41 10000 3.6 30 22:26 16.03.2020
6374 Clouds 4 1017 48 10000 5.7 10 21:59 16.03.2020
6375 Clouds 4 1017 48 10000 5.7 10 21:40 16.03.2020
6376 Clouds 4 1017 41 10000 7.2 350 21:22 16.03.2020
6377 Clouds 3 1017 44 10000 6.7 340 20:57 16.03.2020
6378 Clouds 3 1017 44 10000 6.7 340 20:38 16.03.2020
6379 Clear 3 1016 35 10000 7.2 330 20:19 16.03.2020
6380 Clear 4 1016 38 10000 9.8 340 19:42 16.03.2020
6381 Clear 3 1016 38 10000 9.8 340 19:22 16.03.2020
6382 Clear 3 1016 38 10000 11.3 340 18:57 16.03.2020
6383 Clear 4 1016 35 10000 11.3 340 18:37 16.03.2020
6384 Clear 4 1017 35 10000 9.3 340 18:18 16.03.2020
6385 Clear 4 1016 38 10000 8.2 340 17:43 16.03.2020
6386 Clear 4 1016 38 10000 8.2 340 17:24 16.03.2020
6387 Clear 4 1016 41 10000 7.2 350 16:47 16.03.2020
6388 Clear 4 1016 44 10000 6.2 330 16:29 16.03.2020
6389 Clear 4 1016 41 10000 7.7 330 15:58 16.03.2020
6390 Clouds 4 1016 51 10000 3.6 300 15:40 16.03.2020
6391 Clear 4 1016 41 10000 6.7 330 15:20 16.03.2020
6392 Clear 4 1016 41 10000 8.7 330 14:44 16.03.2020
6393 Clear 5 1015 44 10000 9.3 330 14:20 16.03.2020
6394 Clear 5 1015 44 10000 8.2 330 13:44 16.03.2020
6395 Clouds 5 1014 44 10000 9.3 330 13:25 16.03.2020
6396 Clouds 5 1014 44 10000 10.3 330 12:56 16.03.2020
6397 Clouds 5 1013 45 10000 11.8 340 12:37 16.03.2020
6398 Clouds 5 1013 45 10000 11.8 340 12:19 16.03.2020
6399 Clouds 6 1012 39 10000 10.8 340 11:42 16.03.2020
6400 Clouds 6 1012 48 10000 8.7 340 11:20 16.03.2020
6401 Clouds 7 1012 48 10000 8.7 340 10:43 16.03.2020
6402 Clouds 7 1011 45 10000 12.9 330 10:24 16.03.2020
6403 Clouds 8 1010 36 10000 13.9 330 09:47 16.03.2020
6404 Clouds 9 1009 42 10000 11.3 340 09:28 16.03.2020
6405 Clouds 9 1008 42 10000 12.3 330 08:59 16.03.2020
6406 Rain 10 1006 36 10000 12.9 310 08:36 16.03.2020
6407 Rain 10 1006 36 10000 12.9 310 08:18 16.03.2020
6408 Rain 10 1006 37 10000 13.4 330 07:40 16.03.2020
6409 Rain 11 1005 39 10000 15.4 290 07:18 16.03.2020
6410 Rain 12 1004 32 10000 18 320 06:28 16.03.2020
6411 Rain 12 1003 34 10000 13.9 310 05:55 16.03.2020
6412 Rain 13 1002 40 10000 7.2 350 03:54 16.03.2020
6413 Clouds 9 1003 37 10000 5.7 350 01:44 16.03.2020
6414 Clouds 8 1003 70 10000 3.6 40 00:44 16.03.2020
6415 Clouds 7 1003 75 10000 4.6 10 00:25 16.03.2020
6416 Clouds 7 1003 93 10000 3.1 310 23:39 15.03.2020
6417 Clouds 5 1003 75 10000 5.1 330 23:18 15.03.2020
6418 Clouds 5 1003 81 10000 4.1 340 22:41 15.03.2020
6419 Clouds 5 1002 75 10000 4.6 350 22:20 15.03.2020
6420 Clouds 4 1002 75 10000 2.1 320 21:39 15.03.2020
6421 Clouds 5 1002 75 10000 2.6 300 21:21 15.03.2020
6422 Clouds 5 1002 81 10000 2.6 310 20:55 15.03.2020
6423 Clouds 4 1002 80 10000 2.6 280 20:36 15.03.2020
6424 Clouds 5 1002 80 10000 2.6 280 20:18 15.03.2020
6425 Clouds 5 1002 75 10000 3.1 290 19:55 15.03.2020
6426 Clouds 5 1002 81 10000 4.1 280 19:37 15.03.2020
6427 Clouds 5 1002 81 10000 4.1 280 19:18 15.03.2020
6428 Clouds 5 1002 81 10000 3.6 290 18:41 15.03.2020
6429 Clouds 5 1002 81 10000 3.6 290 18:23 15.03.2020
6430 Clouds 6 1002 81 10000 4.1 280 17:58 15.03.2020
6431 Clouds 6 1002 75 10000 3.6 280 17:38 15.03.2020
6432 Clouds 6 1002 75 10000 3.6 280 17:19 15.03.2020
6433 Clouds 7 1002 75 10000 3.6 290 16:55 15.03.2020
6434 Clouds 7 1002 70 10000 3.6 290 16:36 15.03.2020
6435 Clouds 7 1002 70 10000 3.6 290 16:18 15.03.2020
6436 Clouds 7 1003 70 10000 3.1 270 15:41 15.03.2020
6437 Clouds 8 1003 57 10000 3.1 260 15:20 15.03.2020
6438 Clouds 8 1003 53 10000 4.1 260 14:46 15.03.2020
6439 Clouds 9 1003 53 10000 5.7 240 14:26 15.03.2020
6440 Clouds 9 1004 48 10000 2.6 220 13:59 15.03.2020
6441 Clouds 9 1004 66 10000 4.6 190 13:39 15.03.2020
6442 Clouds 9 1004 66 10000 4.6 190 13:20 15.03.2020
6443 Clouds 9 1004 71 10000 5.1 140 12:44 15.03.2020
6444 Clouds 9 1004 66 10000 6.2 130 12:26 15.03.2020
6445 Clouds 9 1004 66 10000 5.7 140 11:59 15.03.2020
6446 Clouds 9 1004 71 10000 5.7 140 11:40 15.03.2020
6447 Clouds 9 1004 71 10000 5.7 140 11:22 15.03.2020
6448 Clouds 9 1004 66 10000 3.6 110 10:56 15.03.2020
6449 Clouds 9 1004 61 10000 3.1 120 10:37 15.03.2020
6450 Clouds 9 1004 61 10000 3.1 120 10:19 15.03.2020
6451 Clouds 10 1004 53 10000 6.2 190 09:40 15.03.2020
6452 Clouds 10 1004 53 10000 6.2 190 09:22 15.03.2020
6453 Clouds 10 1004 50 10000 5.7 180 08:44 15.03.2020
6454 Clouds 11 1004 50 10000 4.1 170 08:21 15.03.2020
6455 Clouds 10 1004 46 10000 4.1 170 07:51 15.03.2020
6456 Clouds 11 1004 46 10000 3.6 160 07:32 15.03.2020
6457 Clouds 10 1005 46 10000 3.6 140 06:54 15.03.2020
6458 Clouds 10 1004 46 10000 4.6 140 06:24 15.03.2020
6459 Clouds 10 1005 37 10000 4.1 300 05:21 15.03.2020
6460 Clouds 9 1006 57 10000 2.6 90 04:43 15.03.2020
6461 Clouds 9 1006 57 10000 4.1 140 04:25 15.03.2020
6462 Clouds 9 1007 57 10000 3.1 100 03:54 15.03.2020
6463 Rain 9 1007 42 10000 4.1 20 02:47 15.03.2020
6464 Clouds 7 1008 52 10000 5.7 360 01:40 15.03.2020
6465 Clouds 6 1007 56 10000 3.6 310 00:47 15.03.2020
6466 Clouds 6 1007 52 10000 6.2 340 00:27 15.03.2020
6467 Clouds 5 1007 60 10000 4.6 340 23:58 14.03.2020
6468 Clouds 5 1007 60 10000 6.2 330 23:37 14.03.2020
6469 Clouds 4 1007 60 10000 6.2 330 23:18 14.03.2020
6470 Clouds 4 1006 65 10000 4.6 330 22:44 14.03.2020
6471 Clouds 4 1006 70 10000 3.6 20 22:26 14.03.2020
6472 Clouds 4 1006 75 10000 3.6 30 21:57 14.03.2020
6473 Clouds 3 1006 75 10000 4.1 40 21:37 14.03.2020
6474 Clouds 3 1006 75 10000 4.1 40 21:18 14.03.2020
6475 Clouds 3 1006 75 10000 3.6 50 20:59 14.03.2020
6476 Clouds 3 1006 75 10000 3.6 50 20:41 14.03.2020
6477 Clouds 3 1005 75 10000 2.6 40 20:20 14.03.2020
6478 Clouds 3 1005 93 10000 2.6 40 19:58 14.03.2020
6479 Clouds 4 1005 93 10000 1 280 19:39 14.03.2020
6480 Clouds 4 1005 93 10000 1 280 19:19 14.03.2020
6481 Clouds 4 1005 93 10000 2.6 260 18:37 14.03.2020
6482 Clouds 3 1005 93 10000 3.1 290 18:19 14.03.2020
6483 Clouds 4 1006 100 12874 3.24 24 17:40 14.03.2020
6484 Clouds 4 1006 100 12874 3.24 24 17:21 14.03.2020
6485 Clouds 4 1006 93 14484 1.26 6 16:57 14.03.2020
6486 Clouds 4 1006 93 16093 1.26 6 16:38 14.03.2020
6487 Clouds 4 1006 93 16093 1.26 6 16:18 14.03.2020
6488 Clouds 4 1005 86 10000 5.1 10 15:28 14.03.2020
6489 Clouds 4 1005 86 10000 5.7 10 14:59 14.03.2020
6490 Clouds 4 1005 86 10000 5.7 10 14:59 14.03.2020
6491 Clouds 4 1004 100 10000 4.6 320 14:39 14.03.2020
6492 Clouds 4 1005 86 10000 5.1 360 14:20 14.03.2020
6493 Clouds 4 1004 93 16093 3.1 340 13:56 14.03.2020
6494 Rain 4 1005 86 10000 5.1 10 13:38 14.03.2020
6495 Rain 4 1004 100 10000 4.6 320 13:19 14.03.2020
6496 Clouds 4 1006 93 16093 3.1 360 12:44 14.03.2020
6497 Clouds 3 1006 93 16093 3.1 360 12:25 14.03.2020
6498 Rain 3 1005 93 8000 8.2 340 11:45 14.03.2020
6499 Rain 3 1005 93 8000 8.2 340 11:25 14.03.2020
6500 Rain 3 1006 93 8000 7.2 350 10:54 14.03.2020
6501 Rain 3 1005 93 7000 7.7 350 10:36 14.03.2020
6502 Rain 3 1005 93 7000 7.7 350 10:18 14.03.2020
6503 Rain 2 1005 93 8000 7.2 350 09:41 14.03.2020
6504 Rain 2 1005 93 8000 7.2 350 09:21 14.03.2020
6505 Rain 2 1006 93 5000 2.6 330 08:47 14.03.2020
6506 Rain 2 1006 93 5000 2.6 330 08:27 14.03.2020
6507 Rain 2 1006 93 10000 6.2 10 07:48 14.03.2020
6508 Rain 2 1006 93 5000 3.6 360 07:23 14.03.2020
6509 Rain 3 1006 93 6000 3.6 360 06:59 14.03.2020
6510 Rain 3 1007 100 4000 3.6 350 06:39 14.03.2020
6511 Rain 5 1008 87 10000 9.3 20 04:58 14.03.2020
6512 Rain 6 1009 87 9000 8.2 30 03:41 14.03.2020
6513 Rain 6 1010 87 7000 6.2 30 03:20 14.03.2020
6514 Rain 7 1011 87 6000 5.1 50 02:19 14.03.2020
6515 Rain 8 1012 93 4828 1.5 20 00:42 14.03.2020
6516 Rain 9 1011 75 12874 3.6 30 23:45 13.03.2020
6517 Rain 9 1011 75 12874 3.6 30 23:26 13.03.2020
6518 Clouds 9 1012 76 10000 7.7 60 22:47 13.03.2020
6519 Clouds 9 1014 81 16093 2.6 100 22:25 13.03.2020
6520 Clouds 9 1013 81 16093 3.1 70 21:43 13.03.2020
6521 Clouds 9 1013 81 16093 3.1 70 21:21 13.03.2020
6522 Clouds 9 1011 81 10000 8.2 60 20:57 13.03.2020
6523 Clouds 9 1011 81 10000 8.2 60 20:38 13.03.2020
6524 Clouds 9 1011 81 10000 8.7 60 20:19 13.03.2020
6525 Clouds 10 1011 81 10000 8.2 60 19:45 13.03.2020
6526 Clouds 10 1011 81 10000 8.2 60 19:27 13.03.2020
6527 Clouds 9 1012 81 10000 7.2 50 18:47 13.03.2020
6528 Clouds 10 1012 81 10000 7.2 50 18:28 13.03.2020
6529 Clouds 11 1011 71 10000 7.2 30 17:57 13.03.2020
6530 Clouds 11 1011 58 10000 4.6 360 17:38 13.03.2020
6531 Clouds 11 1011 58 10000 3.6 340 17:19 13.03.2020
6532 Clouds 11 1010 58 10000 3.6 340 16:42 13.03.2020
6533 Clouds 12 1010 58 10000 3.6 340 16:24 13.03.2020
6534 Clouds 12 1011 62 10000 4.1 310 15:56 13.03.2020
6535 Clouds 12 1010 58 10000 3.1 300 15:37 13.03.2020
6536 Clouds 12 1010 58 10000 3.1 300 15:19 13.03.2020
6537 Clouds 12 1012 58 10000 3.1 270 14:41 13.03.2020
6538 Clouds 13 1011 58 10000 3.1 260 14:22 13.03.2020
6539 Clouds 14 1011 54 10000 3.1 260 13:57 13.03.2020
6540 Clouds 14 1011 51 10000 4.6 240 13:38 13.03.2020
6541 Clouds 14 1011 51 10000 4.6 240 13:19 13.03.2020
6542 Clouds 14 1011 51 10000 5.1 230 12:54 13.03.2020
6543 Clouds 14 1010 51 10000 5.1 230 12:36 13.03.2020
6544 Clouds 14 1011 51 10000 6.7 210 12:18 13.03.2020
6545 Clouds 15 1010 51 10000 6.7 200 11:42 13.03.2020
6546 Clouds 15 1010 48 10000 6.2 190 11:24 13.03.2020
6547 Clouds 15 1010 48 10000 6.2 190 10:48 13.03.2020
6548 Clouds 16 1011 45 10000 6.2 190 10:28 13.03.2020
6549 Clouds 16 1011 42 10000 6.2 190 09:59 13.03.2020
6550 Clouds 17 1010 42 10000 6.7 230 09:41 13.03.2020
6551 Clouds 17 1010 42 10000 6.7 230 09:22 13.03.2020
6552 Clouds 17 1010 39 10000 6.7 200 08:46 13.03.2020
6553 Clouds 17 1010 39 10000 4.6 200 08:23 13.03.2020
6554 Clouds 18 1010 34 10000 9.3 210 07:52 13.03.2020
6555 Clouds 18 1011 42 10000 4.1 200 07:28 13.03.2020
6556 Clouds 18 1012 39 10000 7.7 200 06:53 13.03.2020
6557 Clouds 18 1011 42 10000 4.1 190 06:32 13.03.2020
6558 Clouds 18 1012 42 10000 7.2 200 05:55 13.03.2020
6559 Clouds 17 1014 51 10000 8.2 180 05:24 13.03.2020
6560 Clouds 17 1015 67 10000 4.1 140 04:38 13.03.2020
6561 Clouds 15 1016 58 10000 4.6 180 03:43 13.03.2020
6562 Clouds 13 1019 71 10000 2.6 130 01:47 13.03.2020
6563 Clouds 12 1019 71 10000 1.5 120 01:19 13.03.2020
6564 Clouds 11 1019 71 10000 1.5 130 00:54 13.03.2020
6565 Clouds 11 1019 71 10000 0.5 0 00:28 13.03.2020
6566 Clear 10 1021 75 16093 1.67 209 23:59 12.03.2020
6567 Clouds 9 1019 76 10000 1 240 23:28 12.03.2020
6568 Clouds 8 1019 76 10000 1 0 22:57 12.03.2020
6569 Clouds 8 1019 76 10000 1.5 310 22:39 12.03.2020
6570 Clouds 7 1019 76 10000 1.5 310 22:21 12.03.2020
6571 Clouds 8 1020 76 10000 4.1 330 21:46 12.03.2020
6572 Clouds 8 1020 76 10000 4.1 330 21:28 12.03.2020
6573 Clouds 8 1020 81 10000 4.1 330 20:59 12.03.2020
6574 Clouds 9 1020 76 10000 4.1 340 20:40 12.03.2020
6575 Clouds 9 1020 76 10000 4.1 340 20:19 12.03.2020
6576 Clouds 9 1020 81 10000 3.1 310 19:42 12.03.2020
6577 Clouds 9 1020 81 10000 3.1 310 19:20 12.03.2020
6578 Clouds 9 1020 87 10000 1 140 18:45 12.03.2020
6579 Clear 9 1022 86 16093 2.6 350 18:25 12.03.2020
6580 Clear 9 1022 86 16093 2.6 350 17:57 12.03.2020
6581 Clouds 9 1020 81 10000 2.6 100 17:39 12.03.2020
6582 Clouds 10 1021 81 10000 1.5 100 17:21 12.03.2020
6583 Clouds 10 1021 81 10000 1.5 100 16:58 12.03.2020
6584 Clouds 10 1021 81 10000 3.1 120 16:38 12.03.2020
6585 Clouds 10 1021 81 10000 3.1 120 16:19 12.03.2020
6586 Clouds 11 1021 81 10000 3.6 120 15:45 12.03.2020
6587 Clouds 11 1022 81 10000 3.1 110 15:27 12.03.2020
6588 Clouds 11 1022 81 10000 4.1 110 14:43 12.03.2020
6589 Clouds 11 1022 76 10000 5.7 120 14:24 12.03.2020
6590 Clouds 12 1022 81 10000 5.7 120 13:57 12.03.2020
6591 Clouds 12 1022 76 10000 5.7 120 13:37 12.03.2020
6592 Clouds 12 1022 76 10000 5.7 120 13:19 12.03.2020
6593 Rain 12 1023 71 10000 3.1 110 12:41 12.03.2020
6594 Clouds 12 1022 81 10000 5.7 130 12:22 12.03.2020
6595 Clouds 12 1023 76 10000 6.2 130 11:58 12.03.2020
6596 Clouds 12 1021 71 10000 7.2 130 11:39 12.03.2020
6597 Clouds 12 1021 71 10000 7.2 130 11:20 12.03.2020
6598 Clouds 12 1021 66 10000 7.2 130 10:59 12.03.2020
6599 Clouds 13 1021 58 10000 4.1 130 10:41 12.03.2020
6600 Clouds 12 1021 58 10000 4.1 130 10:22 12.03.2020
6601 Clouds 13 1021 50 10000 4.1 150 09:48 12.03.2020
6602 Clouds 14 1021 43 10000 4.6 150 09:28 12.03.2020
6603 Clouds 14 1021 43 10000 4.6 150 09:28 12.03.2020
6604 Clouds 14 1021 33 10000 4.1 180 08:55 12.03.2020
6605 Clouds 14 1020 64 10000 2.6 160 08:37 12.03.2020
6606 Clouds 15 1020 29 10000 2.6 160 08:18 12.03.2020
6607 Clouds 15 1020 33 10000 3.1 140 07:46 12.03.2020
6608 Clouds 15 1020 33 10000 3.1 140 07:21 12.03.2020
6609 Clouds 14 1020 29 10000 3.6 110 06:18 12.03.2020
6610 Clouds 14 1020 26 10000 1.5 60 05:33 12.03.2020
6611 Clouds 13 1021 26 10000 4.1 310 03:34 12.03.2020
6612 Rain 12 1021 34 10000 7.7 340 01:57 12.03.2020
6613 Rain 11 1020 29 10000 5.1 320 01:21 12.03.2020
6614 Rain 10 1019 39 10000 9.3 340 00:42 12.03.2020
6615 Clouds 10 1019 43 10000 7.7 340 23:57 11.03.2020
6616 Clouds 8 1018 42 10000 7.7 330 23:28 11.03.2020
6617 Clouds 8 1018 45 10000 8.7 330 22:59 11.03.2020
6618 Clouds 7 1017 49 10000 9.3 340 22:39 11.03.2020
6619 Clouds 7 1017 49 10000 9.3 340 22:21 11.03.2020
6620 Clouds 7 1017 49 10000 10.3 340 21:57 11.03.2020
6621 Clouds 7 1016 49 10000 9.8 340 21:39 11.03.2020
6622 Clouds 7 1016 49 10000 9.8 340 21:21 11.03.2020
6623 Clouds 7 1016 49 10000 10.8 330 20:56 11.03.2020
6624 Clouds 7 1014 49 10000 10.3 330 20:37 11.03.2020
6625 Clouds 8 1014 49 10000 10.3 330 20:19 11.03.2020
6626 Clouds 8 1014 45 10000 10.3 330 19:42 11.03.2020
6627 Clouds 9 1013 45 10000 9.3 330 19:24 11.03.2020
6628 Clouds 8 1013 46 10000 9.8 340 18:57 11.03.2020
6629 Clouds 8 1013 43 10000 9.8 330 18:37 11.03.2020
6630 Clouds 8 1013 43 10000 9.8 330 18:18 11.03.2020
6631 Clouds 9 1012 43 10000 10.3 340 17:55 11.03.2020
6632 Clouds 9 1013 43 10000 8.7 330 17:37 11.03.2020
6633 Clouds 10 1011 37 10000 3.6 320 17:18 11.03.2020
6634 Clouds 10 1012 46 10000 9.3 330 16:43 11.03.2020
6635 Clouds 10 1011 46 10000 8.7 330 16:19 11.03.2020
6636 Clouds 10 1010 43 10000 9.3 330 15:43 11.03.2020
6637 Clouds 11 1009 37 10000 10.3 340 15:23 11.03.2020
6638 Clouds 11 1009 46 10000 9.3 350 14:54 11.03.2020
6639 Clouds 11 1009 46 10000 9.3 350 14:36 11.03.2020
6640 Clouds 12 1008 50 10000 10.3 350 14:18 11.03.2020
6641 Clouds 13 1007 44 10000 10.3 350 13:41 11.03.2020
6642 Rain 13 1007 41 10000 9.8 350 13:22 11.03.2020
6643 Rain 14 1006 41 10000 10.3 340 12:56 11.03.2020
6644 Rain 14 1005 44 10000 10.3 350 12:38 11.03.2020
6645 Rain 15 1005 44 10000 10.3 350 12:19 11.03.2020
6646 Rain 16 1004 42 10000 8.2 360 11:41 11.03.2020
6647 Rain 17 1003 48 10000 4.6 180 11:20 11.03.2020
6648 Clouds 17 1002 48 10000 5.7 180 10:47 11.03.2020
6649 Clouds 17 1002 55 10000 4.6 160 10:21 11.03.2020
6650 Clouds 17 1002 55 10000 4.6 160 10:21 11.03.2020
6651 Clouds 18 1002 67 10000 3.1 150 09:59 11.03.2020
6652 Clouds 18 1001 59 10000 2.6 120 09:40 11.03.2020
6653 Clouds 18 1001 59 10000 2.6 120 09:21 11.03.2020
6654 Clouds 18 1001 67 10000 2.6 120 08:43 11.03.2020
6655 Rain 18 1000 51 10000 1.5 120 08:25 11.03.2020
6656 Clouds 19 1000 55 10000 2.6 120 07:47 11.03.2020
6657 Rain 19 1000 52 10000 2.1 0 07:21 11.03.2020
6658 Clouds 20 1000 55 10000 2.6 140 06:50 11.03.2020
6659 Clouds 20 999 37 10000 2.1 150 06:31 11.03.2020
6660 Clouds 20 999 45 10000 3.6 140 05:33 11.03.2020
6661 Clouds 19 999 39 10000 5.1 300 03:26 11.03.2020
6662 Clouds 17 999 51 10000 4.1 350 01:54 11.03.2020
6663 Clouds 17 998 45 10000 6.2 310 01:25 11.03.2020
6664 Clouds 16 998 51 10000 6.7 330 00:44 11.03.2020
6665 Clouds 15 997 58 10000 6.2 320 23:50 10.03.2020
6666 Clouds 15 996 67 10000 5.7 310 23:28 10.03.2020
6667 Mist 15 996 87 10000 1.5 270 22:58 10.03.2020
6668 Mist 15 996 87 10000 1.5 270 22:58 10.03.2020
6669 Mist 14 995 93 10000 1 0 22:37 10.03.2020
6670 Mist 14 995 93 10000 1 0 22:19 10.03.2020
6671 Clouds 14 994 93 10000 1.5 60 21:56 10.03.2020
6672 Clouds 14 993 93 10000 1.5 350 21:38 10.03.2020
6673 Clouds 15 993 93 10000 1.5 350 21:19 10.03.2020
6674 Clouds 14 993 100 10000 1 320 20:54 10.03.2020
6675 Mist 14 993 100 3200 0.5 0 20:36 10.03.2020
6676 Mist 14 993 100 3200 0.5 0 20:18 10.03.2020
6677 Clouds 15 991 72 10000 5.7 210 19:42 10.03.2020
6678 Clouds 15 991 72 10000 5.7 210 19:42 10.03.2020
6679 Clouds 15 991 72 10000 5.7 210 19:23 10.03.2020
6680 Fog 15 991 93 900 1 300 18:58 10.03.2020
6681 Mist 16 991 93 4900 2.1 300 18:40 10.03.2020
6682 Mist 16 991 93 4900 2.1 300 18:21 10.03.2020
6683 Clouds 16 990 77 10000 8.7 190 17:56 10.03.2020
6684 Clouds 16 990 82